U28088 / G-EZFV 7700 Squawk Report (18th of May, 2022)

Aircraft A319 Reg No. G-EZFV Age 12 years old
Model A319 Jet engines 2 First flight 12-05-10
Registered 04-06-10 Rollout 05-10 Delivered 04-06-10
Construction No. 4327 Line No. N/A Series 111
ADSHEX 40631A Airline name easyJet Owner N/A
Airfield based Luton~Beds~G First tracked N/A

Flight history for G-EZFV

Route Flight No Date Playback
Gatwick (LGW) - Villafranca (VRN) U28449 2022-06-28 12:34:00
Charles De Gaulle (CDG) - Gatwick (LGW) U28326 2022-06-27 21:43:00
Gatwick (LGW) - Charles De Gaulle (CDG) U28327 2022-06-27 20:11:00
Son Sant Joan (PMI) - Gatwick (LGW) U28626 2022-06-27 17:53:00
Gatwick (LGW) - Son Sant Joan (PMI) U28625 2022-06-27 13:24:00
Barajas (MAD) - Gatwick (LGW) U28274 2022-06-27 07:15:00
Gatwick (LGW) - Barajas (MAD) U28283 2022-06-27 05:25:00
Eleftherios Venizelos Intl (ATH) - Gatwick (LGW) U28084 2022-06-26 18:33:00
Gatwick (LGW) - Eleftherios Venizelos Intl (ATH) U28083 2022-06-26 10:16:00
Sevilla (SVQ) - Gatwick (LGW) U28172 2022-06-26 06:23:00
Gatwick (LGW) - Sevilla (SVQ) U28171 2022-06-25 20:21:00
Bari (BRI) - Gatwick (LGW) U28366 2022-06-25 16:36:00
Gatwick (LGW) - Bari (BRI) U28365 2022-06-25 10:56:00
Dyce (ABZ) - Gatwick (LGW) U2872 2022-06-25 07:48:00
Gatwick (LGW) - Dyce (ABZ) U2873 2022-06-24 20:49:00
Inverness (INV) - Gatwick (LGW) U2866 2022-06-24 18:27:00
Gatwick (LGW) - Inverness (INV) U2865 2022-06-24 15:54:00
Pisa (PSA) - Gatwick (LGW) U28238 2022-06-24 00:19:00
Gatwick (LGW) - Pisa (PSA) U28237 2022-06-23 21:45:00
Mediterranee (MPL) - Gatwick (LGW) U28056 2022-06-23 18:34:00
Time Lat Lon Altitude Heading Speed Vertical Rate
2022-05-19 01:31:38 GMT 51.159885 -0.179653 0 78 1 0
2022-05-19 01:31:35 GMT 51.159874 -0.179672 0 78 2 0
2022-05-19 01:31:29 GMT 51.159863 -0.179753 0 78 3 0
2022-05-19 01:31:22 GMT 51.159840 -0.179938 0 78 5 0
2022-05-19 01:31:17 GMT 51.159828 -0.180092 0 78 5 0
2022-05-19 01:31:14 GMT 51.159817 -0.180206 0 78 6 0
2022-05-19 01:31:12 GMT 51.159805 -0.180283 0 78 6 0
2022-05-19 01:31:11 GMT 51.159794 -0.180328 0 78 6 0
2022-05-19 01:31:08 GMT 51.159779 -0.180454 0 78 6 0
2022-05-19 01:31:06 GMT 51.159760 -0.180625 0 75 7 0
2022-05-19 01:31:04 GMT 51.159760 -0.180625 0 75 7 0
2022-05-19 01:31:03 GMT 51.159756 -0.180664 0 75 7 0
2022-05-19 01:31:01 GMT 51.159748 -0.180755 0 70 7 0
2022-05-19 01:30:59 GMT 51.159737 -0.180829 0 64 7 0
2022-05-19 01:30:56 GMT 51.159725 -0.180977 0 36 7 0
2022-05-19 01:30:55 GMT 51.159698 -0.181065 0 19 7 0
2022-05-19 01:30:53 GMT 51.159668 -0.181107 0 11 7 0
2022-05-19 01:30:52 GMT 51.159557 -0.181160 0 351 6 0
2022-05-19 01:30:49 GMT 51.159557 -0.181160 0 348 6 0
2022-05-19 01:30:47 GMT 51.159519 -0.181163 0 345 5 0
2022-05-19 01:30:46 GMT 51.159500 -0.181160 0 345 5 0
2022-05-19 01:30:45 GMT 51.159451 -0.181145 0 345 4 0
2022-05-19 01:30:42 GMT 51.159439 -0.181126 0 345 4 0
2022-05-19 01:30:37 GMT 51.159370 -0.181107 0 345 0 0
2022-05-19 01:30:07 GMT 51.159340 -0.181084 0 345 0 0
2022-05-19 01:29:52 GMT 51.159340 -0.181103 0 345 0 0
We lost coverage of the aircraft here for a total of 5 minutes
2022-05-19 01:24:51 GMT 51.159328 -0.181084 0 345 0 0
2022-05-19 01:24:49 GMT 51.159340 -0.181084 0 345 0 0
2022-05-19 01:24:42 GMT 51.159336 -0.181089 0 345 0 0
2022-05-19 01:24:39 GMT 51.159340 -0.181084 0 345 0 0
2022-05-19 01:24:36 GMT 51.159328 -0.181084 0 345 2 0
2022-05-19 01:24:34 GMT 51.159313 -0.181084 0 345 2 0
2022-05-19 01:24:33 GMT 51.159302 -0.181070 0 345 2 0
2022-05-19 01:24:32 GMT 51.159302 -0.181065 0 345 2 0
2022-05-19 01:24:31 GMT 51.159279 -0.181065 0 345 2 0
2022-05-19 01:24:29 GMT 51.159279 -0.181065 0 345 2 0
2022-05-19 01:24:28 GMT 51.159267 -0.181070 0 345 3 0
2022-05-19 01:24:27 GMT 51.159256 -0.181052 0 345 3 0
2022-05-19 01:24:24 GMT 51.159233 -0.181052 0 345 3 0
2022-05-19 01:24:22 GMT 51.159210 -0.181033 0 345 3 0
2022-05-19 01:24:21 GMT 51.159199 -0.181026 0 345 3 0
2022-05-19 01:24:20 GMT 51.159176 -0.181026 0 345 2 0
2022-05-19 01:24:18 GMT 51.159164 -0.181026 0 345 2 0
2022-05-19 01:24:16 GMT 51.159153 -0.181026 0 345 2 0
2022-05-19 01:24:14 GMT 51.159130 -0.181007 0 348 2 0
2022-05-19 01:24:12 GMT 51.159119 -0.181007 0 348 2 0
2022-05-19 01:24:11 GMT 51.159103 -0.181007 0 348 3 0
2022-05-19 01:24:09 GMT 51.159096 -0.180996 0 348 3 0
2022-05-19 01:24:08 GMT 51.159073 -0.180996 0 348 3 0
2022-05-19 01:24:03 GMT 51.159004 -0.180959 0 348 5 0
2022-05-19 01:24:02 GMT 51.158989 -0.180969 0 348 5 0
2022-05-19 01:24:00 GMT 51.158943 -0.180950 0 348 5 0
2022-05-19 01:23:59 GMT 51.158924 -0.180940 0 348 5 0
2022-05-19 01:23:58 GMT 51.158909 -0.180931 0 345 5 0
2022-05-19 01:23:57 GMT 51.158855 -0.180922 0 345 6 0
2022-05-19 01:23:54 GMT 51.158802 -0.180912 0 345 7 0
2022-05-19 01:23:53 GMT 51.158745 -0.180874 0 345 7 0
2022-05-19 01:23:51 GMT 51.158710 -0.180874 0 345 7 0
2022-05-19 01:23:50 GMT 51.158684 -0.180866 0 345 7 0
2022-05-19 01:23:49 GMT 51.158653 -0.180855 0 345 7 0
2022-05-19 01:23:44 GMT 51.158405 -0.180759 0 348 11 0
2022-05-19 01:23:43 GMT 51.158405 -0.180759 0 348 11 0
2022-05-19 01:23:42 GMT 51.158363 -0.180755 0 348 10 0
2022-05-19 01:23:41 GMT 51.158226 -0.180699 0 351 11 0
2022-05-19 01:23:39 GMT 51.158226 -0.180699 0 351 11 0
2022-05-19 01:23:38 GMT 51.158188 -0.180683 0 354 11 0
2022-05-19 01:23:34 GMT 51.158001 -0.180664 0 14 11 0
2022-05-19 01:23:32 GMT 51.157906 -0.180681 0 25 10 0
2022-05-19 01:23:31 GMT 51.157860 -0.180681 0 30 10 0
2022-05-19 01:23:29 GMT 51.157803 -0.180721 0 42 10 0
2022-05-19 01:23:28 GMT 51.157745 -0.180798 0 53 10 0
2022-05-19 01:23:26 GMT 51.157673 -0.180893 0 64 10 0
2022-05-19 01:23:25 GMT 51.157631 -0.181015 0 70 9 0
2022-05-19 01:23:21 GMT 51.157608 -0.181182 0 64 9 0
2022-05-19 01:23:20 GMT 51.157593 -0.181255 0 56 9 0
2022-05-19 01:23:19 GMT 51.157585 -0.181312 0 50 9 0
2022-05-19 01:23:18 GMT 51.157562 -0.181386 0 45 9 0
2022-05-19 01:23:17 GMT 51.157524 -0.181484 0 33 9 0
2022-05-19 01:23:15 GMT 51.157494 -0.181516 0 28 9 0
2022-05-19 01:23:14 GMT 51.157459 -0.181553 0 22 9 0
2022-05-19 01:23:12 GMT 51.157391 -0.181627 0 11 9 0
2022-05-19 01:23:11 GMT 51.157349 -0.181656 0 8 9 0
2022-05-19 01:23:10 GMT 51.157276 -0.181675 0 2 9 0
2022-05-19 01:23:07 GMT 51.157219 -0.181675 0 5 9 0
2022-05-19 01:23:06 GMT 51.157127 -0.181675 0 11 9 0
2022-05-19 01:23:03 GMT 51.157047 -0.181675 0 22 8 0
2022-05-19 01:23:01 GMT 51.156986 -0.181694 0 28 7 0
2022-05-19 01:23:00 GMT 51.156956 -0.181720 0 33 7 0
2022-05-19 01:22:59 GMT 51.156929 -0.181732 0 36 7 0
2022-05-19 01:22:57 GMT 51.156876 -0.181794 0 39 7 0
2022-05-19 01:22:56 GMT 51.156849 -0.181828 0 42 8 0
2022-05-19 01:22:55 GMT 51.156822 -0.181847 0 45 8 0
2022-05-19 01:22:53 GMT 51.156765 -0.181942 0 45 9 0
2022-05-19 01:22:50 GMT 51.156704 -0.182035 0 42 10 0
2022-05-19 01:22:48 GMT 51.156624 -0.182165 0 28 10 0
2022-05-19 01:22:46 GMT 51.156567 -0.182228 0 22 9 0
2022-05-19 01:22:45 GMT 51.156521 -0.182285 0 14 10 0
2022-05-19 01:22:44 GMT 51.156487 -0.182314 0 8 10 0
2022-05-19 01:22:42 GMT 51.156395 -0.182351 0 0 10 0
2022-05-19 01:22:38 GMT 51.156223 -0.182332 0 348 9 0
2022-05-19 01:22:36 GMT 51.156162 -0.182323 0 348 9 0
2022-05-19 01:22:31 GMT 51.155605 -0.182128 0 348 11 0
2022-05-19 01:22:23 GMT 51.155605 -0.182128 0 348 11 0
2022-05-19 01:22:21 GMT 51.155479 -0.182091 0 348 11 0
2022-05-19 01:22:20 GMT 51.155437 -0.182076 0 348 11 0
2022-05-19 01:22:19 GMT 51.155388 -0.182054 0 348 11 0
2022-05-19 01:22:18 GMT 51.155312 -0.182037 0 348 10 0
2022-05-19 01:22:16 GMT 51.155262 -0.182017 0 348 10 0
2022-05-19 01:22:15 GMT 51.155205 -0.181998 0 345 10 0
2022-05-19 01:22:12 GMT 51.155136 -0.181961 0 345 10 0
2022-05-19 01:22:11 GMT 51.155090 -0.181961 0 345 10 0
2022-05-19 01:22:10 GMT 51.155045 -0.181924 0 345 10 0
2022-05-19 01:22:09 GMT 51.154949 -0.181904 0 345 10 0
2022-05-19 01:22:07 GMT 51.154907 -0.181887 0 343 10 0
2022-05-19 01:22:05 GMT 51.154816 -0.181850 0 340 9 0
2022-05-19 01:22:04 GMT 51.154781 -0.181831 0 337 9 0
2022-05-19 01:22:03 GMT 51.154739 -0.181808 0 337 9 0
2022-05-19 01:22:02 GMT 51.154716 -0.181789 0 337 9 0
2022-05-19 01:22:00 GMT 51.154633 -0.181720 0 340 9 0
2022-05-19 01:21:58 GMT 51.154568 -0.181675 0 343 9 0
2022-05-19 01:21:57 GMT 51.154533 -0.181656 0 345 9 0
2022-05-19 01:21:54 GMT 51.154404 -0.181618 0 348 9 0
2022-05-19 01:21:53 GMT 51.154369 -0.181599 0 348 10 0
2022-05-19 01:21:51 GMT 51.154312 -0.181580 0 348 10 0
2022-05-19 01:21:50 GMT 51.154243 -0.181553 0 348 11 0
2022-05-19 01:21:47 GMT 51.154102 -0.181503 0 348 11 0
2022-05-19 01:21:46 GMT 51.154049 -0.181497 0 345 10 0
2022-05-19 01:21:43 GMT 51.153923 -0.181441 0 345 10 0
2022-05-19 01:21:40 GMT 51.153797 -0.181408 0 348 10 0
2022-05-19 01:21:39 GMT 51.153751 -0.181389 0 348 10 0
2022-05-19 01:21:28 GMT 51.153316 -0.181237 0 348 9 0
2022-05-19 01:21:17 GMT 51.152882 -0.181107 0 345 9 0
2022-05-19 01:21:14 GMT 51.152756 -0.181052 0 345 8 0
2022-05-19 01:21:07 GMT 51.152538 -0.180996 0 337 7 0
2022-05-19 01:21:05 GMT 51.152435 -0.180940 0 323 6 0
2022-05-19 01:21:01 GMT 51.152390 -0.180903 0 315 5 0
2022-05-19 01:20:59 GMT 51.152344 -0.180866 0 306 6 0
2022-05-19 01:20:58 GMT 51.152332 -0.180836 0 303 6 0
2022-05-19 01:20:56 GMT 51.152287 -0.180773 0 295 6 0
2022-05-19 01:20:51 GMT 51.152218 -0.180607 0 275 7 0
2022-05-19 01:20:47 GMT 51.152203 -0.180302 0 258 7 0
2022-05-19 01:20:45 GMT 51.152203 -0.180302 0 258 7 0
2022-05-19 01:20:39 GMT 51.152241 -0.179994 0 255 8 0
2022-05-19 01:20:30 GMT 51.152321 -0.179462 0 255 8 0
2022-05-19 01:20:27 GMT 51.152344 -0.179344 0 255 7 0
2022-05-19 01:20:23 GMT 51.152378 -0.179138 0 255 8 0
2022-05-19 01:20:19 GMT 51.152412 -0.178909 0 258 10 0
2022-05-19 01:20:11 GMT 51.152470 -0.178268 0 292 12 0
2022-05-19 01:20:10 GMT 51.152458 -0.178185 0 300 12 0
2022-05-19 01:20:09 GMT 51.152321 -0.177860 0 334 11 0
2022-05-19 01:20:05 GMT 51.152321 -0.177860 0 340 11 0
2022-05-19 01:19:59 GMT 51.152065 -0.177746 0 351 11 0
2022-05-19 01:19:43 GMT 51.151176 -0.177581 0 354 12 0
2022-05-19 01:19:40 GMT 51.151051 -0.177555 0 5 11 0
2022-05-19 01:19:37 GMT 51.150806 -0.177612 0 33 11 0
2022-05-19 01:19:30 GMT 51.150612 -0.177860 0 50 12 0
2022-05-19 01:19:29 GMT 51.150585 -0.177937 0 53 13 0
2022-05-19 01:19:28 GMT 51.150524 -0.178045 0 53 15 0
2022-05-19 01:19:23 GMT 51.150295 -0.178509 0 53 21 0
2022-05-19 01:19:21 GMT 51.150181 -0.178751 0 53 23 0
2022-05-19 01:19:20 GMT 51.150120 -0.178890 0 56 24 0
2022-05-19 01:19:11 GMT 51.149643 -0.180244 0 67 27 0
2022-05-19 01:19:07 GMT 51.149437 -0.181107 0 75 32 0
2022-05-19 01:19:06 GMT 51.149410 -0.181293 0 75 34 0
2022-05-19 01:19:01 GMT 51.149197 -0.182685 0 75 46 0
2022-05-19 01:18:59 GMT 51.149109 -0.183334 0 78 52 0
2022-05-19 01:18:58 GMT 51.149052 -0.183735 0 75 54 0
2022-05-19 01:18:55 GMT 51.148888 -0.184937 0 78 59 0
2022-05-19 01:18:51 GMT 51.148716 -0.186192 0 78 63 0
2022-05-19 01:18:49 GMT 51.148624 -0.186860 0 78 65 0
2022-05-19 01:18:46 GMT 51.148453 -0.188197 0 78 69 0
2022-05-19 01:18:44 GMT 51.148304 -0.189236 0 78 72 0
2022-05-19 01:18:42 GMT 51.148106 -0.190639 0 78 80 0
2022-05-19 01:18:37 GMT 51.147686 -0.193708 100 78 100 0
2022-05-19 01:18:35 GMT 51.147503 -0.195007 100 77 123 -128
2022-05-19 01:18:33 GMT 51.147316 -0.196457 75 77 123 -128
2022-05-19 01:18:31 GMT 51.147034 -0.198496 75 77 123 -128
2022-05-19 01:18:30 GMT 51.146942 -0.199280 75 77 126 -128
2022-05-19 01:18:29 GMT 51.146576 -0.201837 100 77 130 -256
2022-05-19 01:18:26 GMT 51.146210 -0.204286 150 77 130 -576
2022-05-19 01:18:23 GMT 51.146072 -0.205177 150 77 129 -640
2022-05-19 01:18:22 GMT 51.145920 -0.206604 175 77 129 -704
2022-05-19 01:18:20 GMT 51.145660 -0.208592 200 77 130 -640
2022-05-19 01:18:19 GMT 51.145386 -0.210522 225 77 130 -640
2022-05-19 01:18:17 GMT 51.145248 -0.211487 250 77 130 -640
2022-05-19 01:18:16 GMT 51.145111 -0.212378 250 77 130 -640
2022-05-19 01:18:15 GMT 51.144848 -0.214386 275 77 130 -640
2022-05-19 01:18:13 GMT 51.144711 -0.215454 300 77 130 -640
2022-05-19 01:18:11 GMT 51.144478 -0.216904 300 77 130 -704
2022-05-19 01:18:09 GMT 51.144241 -0.218836 325 77 130 -640
2022-05-19 01:18:08 GMT 51.144058 -0.220184 350 77 130 -640
2022-05-19 01:18:07 GMT 51.143829 -0.221731 375 77 130 -704
2022-05-19 01:18:05 GMT 51.143692 -0.222770 375 77 130 -768
2022-05-19 01:18:04 GMT 51.143555 -0.223809 400 77 130 -768
2022-05-19 01:18:03 GMT 51.143280 -0.225665 425 77 131 -704
2022-05-19 01:18:01 GMT 51.143143 -0.226556 425 77 131 -704
2022-05-19 01:18:00 GMT 51.143005 -0.227521 450 77 131 -704
2022-05-19 01:17:59 GMT 51.142754 -0.229340 475 77 131 -768
2022-05-19 01:17:57 GMT 51.142662 -0.230331 475 77 131 -704
2022-05-19 01:17:56 GMT 51.142521 -0.231171 475 77 131 -704
2022-05-19 01:17:55 GMT 51.142242 -0.233154 525 77 132 -704
2022-05-19 01:17:53 GMT 51.142101 -0.234146 525 77 132 -704
2022-05-19 01:17:52 GMT 51.141869 -0.235977 550 76 131 -704
2022-05-19 01:17:50 GMT 51.141731 -0.236893 550 76 131 -704
2022-05-19 01:17:49 GMT 51.141449 -0.238730 575 77 131 -704
2022-05-19 01:17:47 GMT 51.141312 -0.239695 600 77 132 -704
2022-05-19 01:17:46 GMT 51.141171 -0.240707 600 77 132 -704
2022-05-19 01:17:44 GMT 51.140900 -0.242590 625 77 132 -704
2022-05-19 01:17:42 GMT 51.140625 -0.244520 650 78 131 -704
2022-05-19 01:17:41 GMT 51.140518 -0.245514 675 78 132 -768
2022-05-19 01:17:39 GMT 51.140285 -0.247345 700 78 132 -768
2022-05-19 01:17:38 GMT 51.140148 -0.248337 700 78 132 -768
2022-05-19 01:17:36 GMT 51.139774 -0.251541 750 78 132 -768
2022-05-19 01:17:34 GMT 51.139618 -0.252537 750 78 132 -704
2022-05-19 01:17:32 GMT 51.139206 -0.255729 800 77 132 -768
2022-05-19 01:17:29 GMT 51.138977 -0.257288 825 77 133 -704
2022-05-19 01:17:27 GMT 51.138748 -0.259247 850 77 133 -768
2022-05-19 01:17:26 GMT 51.138611 -0.260257 850 78 134 -768
2022-05-19 01:17:25 GMT 51.138470 -0.261307 875 77 135 -768
2022-05-19 01:17:22 GMT 51.138145 -0.263596 900 77 135 -768
2022-05-19 01:17:21 GMT 51.137970 -0.264934 925 77 135 -704
2022-05-19 01:17:19 GMT 51.137680 -0.267029 950 77 136 -704
2022-05-19 01:17:17 GMT 51.137466 -0.268645 950 77 136 -704
2022-05-19 01:17:15 GMT 51.137119 -0.270996 1,000 77 137 -704
2022-05-19 01:17:14 GMT 51.137054 -0.271540 1,000 77 137 -704
2022-05-19 01:17:13 GMT 51.136871 -0.272654 1,000 77 137 -704
2022-05-19 01:17:11 GMT 51.136608 -0.274582 1,025 77 137 -704
2022-05-19 01:17:10 GMT 51.136505 -0.275549 1,050 77 137 -704
2022-05-19 01:17:08 GMT 51.136189 -0.277481 1,050 77 137 -704
2022-05-19 01:17:07 GMT 51.136005 -0.278931 1,075 77 138 -704
2022-05-19 01:17:05 GMT 51.135818 -0.280300 1,100 77 138 -704
2022-05-19 01:17:04 GMT 51.135632 -0.281677 1,125 77 138 -704
2022-05-19 01:17:02 GMT 51.135399 -0.283356 1,150 77 138 -704
2022-05-19 01:17:01 GMT 51.135086 -0.285422 1,150 77 138 -704
2022-05-19 01:16:59 GMT 51.134949 -0.286387 1,175 77 138 -704
2022-05-19 01:16:58 GMT 51.134792 -0.287323 1,175 77 138 -704
2022-05-19 01:16:55 GMT 51.134377 -0.290375 1,225 77 138 -640
2022-05-19 01:16:53 GMT 51.134079 -0.292400 1,250 77 138 -640
2022-05-19 01:16:52 GMT 51.133907 -0.293503 1,250 77 138 -704
2022-05-19 01:16:50 GMT 51.133621 -0.295517 1,275 76 137 -704
2022-05-19 01:16:49 GMT 51.133492 -0.296555 1,300 77 137 -704
2022-05-19 01:16:48 GMT 51.133209 -0.298338 1,300 77 138 -704
2022-05-19 01:16:46 GMT 51.133072 -0.299377 1,325 77 138 -704
2022-05-19 01:16:45 GMT 51.132935 -0.300342 1,325 77 138 -768
2022-05-19 01:16:43 GMT 51.132660 -0.302198 1,350 77 138 -704
2022-05-19 01:16:42 GMT 51.132523 -0.303238 1,375 77 139 -704
2022-05-19 01:16:40 GMT 51.132202 -0.305390 1,400 77 139 -704
2022-05-19 01:16:39 GMT 51.132065 -0.306429 1,400 77 139 -704
2022-05-19 01:16:38 GMT 51.131813 -0.308456 1,425 77 140 -704
2022-05-19 01:16:36 GMT 51.131653 -0.309399 1,450 77 140 -704
2022-05-19 01:16:35 GMT 51.131516 -0.310290 1,450 77 141 -704
2022-05-19 01:16:34 GMT 51.131378 -0.311329 1,475 77 141 -704
2022-05-19 01:16:32 GMT 51.131104 -0.313259 1,500 77 141 -768
2022-05-19 01:16:31 GMT 51.130966 -0.314298 1,500 77 142 -704
2022-05-19 01:16:29 GMT 51.130783 -0.315783 1,550 77 148 -768
2022-05-19 01:16:27 GMT 51.130417 -0.318455 1,550 77 148 -768
2022-05-19 01:16:25 GMT 51.130093 -0.320587 1,575 77 145 -640
2022-05-19 01:16:23 GMT 51.129810 -0.322571 1,600 77 146 -704
2022-05-19 01:16:22 GMT 51.129627 -0.324097 1,600 77 147 -704
2022-05-19 01:16:21 GMT 51.129318 -0.326027 1,625 77 147 -704
2022-05-19 01:16:19 GMT 51.129208 -0.326996 1,650 77 147 -768
2022-05-19 01:16:18 GMT 51.129044 -0.328179 1,650 77 148 -768
2022-05-19 01:16:17 GMT 51.128880 -0.329285 1,675 77 148 -768
2022-05-19 01:16:14 GMT 51.128414 -0.332489 1,700 77 150 -768
2022-05-19 01:16:13 GMT 51.128082 -0.334786 1,750 77 151 -832
2022-05-19 01:16:11 GMT 51.127945 -0.335900 1,750 77 152 -832
2022-05-19 01:16:10 GMT 51.127766 -0.337067 1,775 77 153 -832
2022-05-19 01:16:09 GMT 51.127396 -0.339982 1,800 78 154 -896
2022-05-19 01:16:07 GMT 51.127396 -0.339982 1,800 78 155 -960
2022-05-19 01:16:06 GMT 51.127258 -0.341096 1,825 78 155 -960
2022-05-19 01:16:05 GMT 51.127075 -0.342284 1,850 78 155 -960
2022-05-19 01:16:03 GMT 51.126785 -0.344620 1,875 77 157 -960
2022-05-19 01:16:01 GMT 51.126598 -0.345840 1,900 77 158 -960
2022-05-19 01:16:00 GMT 51.126461 -0.346909 1,925 77 159 -896
2022-05-19 01:15:58 GMT 51.126114 -0.349336 1,950 77 161 -768
2022-05-19 01:15:57 GMT 51.125763 -0.351868 2,025 77 168 -896
2022-05-19 01:15:55 GMT 51.125530 -0.353241 1,975 77 165 -704
2022-05-19 01:15:53 GMT 51.125244 -0.355571 2,025 77 168 -896
2022-05-19 01:15:51 GMT 51.124878 -0.357971 2,050 77 169 -1024
2022-05-19 01:15:48 GMT 51.124283 -0.362029 2,200 77 171 -896
2022-05-19 01:15:45 GMT 51.123856 -0.365219 2,200 76 172 -1024
2022-05-19 01:15:43 GMT 51.123482 -0.367584 2,175 76 172 -1024
2022-05-19 01:15:41 GMT 51.123062 -0.370712 2,225 77 173 -1024
2022-05-19 01:15:38 GMT 51.122498 -0.374500 2,275 77 175 -1024
2022-05-19 01:15:35 GMT 51.121712 -0.380249 2,325 77 176 -1024
2022-05-19 01:15:33 GMT 51.121712 -0.380249 2,350 77 177 -1024
2022-05-19 01:15:31 GMT 51.121387 -0.382614 2,375 77 178 -960
2022-05-19 01:15:28 GMT 51.120667 -0.387862 2,450 77 180 -960
2022-05-19 01:15:25 GMT 51.120316 -0.390396 2,475 77 181 -960
2022-05-19 01:15:23 GMT 51.119896 -0.393524 2,500 77 181 -960
2022-05-19 01:15:20 GMT 51.119385 -0.396881 2,525 77 182 -960
2022-05-19 01:15:18 GMT 51.118919 -0.400314 2,600 77 182 -960
2022-05-19 01:15:15 GMT 51.118408 -0.403824 2,625 77 183 -1024
2022-05-19 01:15:13 GMT 51.118011 -0.406643 2,650 77 183 -1024
2022-05-19 01:15:10 GMT 51.117416 -0.410725 2,700 76 183 -1024
2022-05-19 01:15:06 GMT 51.116592 -0.416183 2,775 76 184 -1024
2022-05-19 01:15:04 GMT 51.116310 -0.418167 2,800 76 183 -1088
2022-05-19 01:15:02 GMT 51.115997 -0.420153 2,825 76 183 -1024
2022-05-19 01:15:00 GMT 51.114532 -0.429580 2,900 76 182 -640
2022-05-19 01:14:56 GMT 51.114532 -0.429580 2,900 76 182 -576
2022-05-19 01:14:54 GMT 51.114349 -0.430991 2,925 76 182 -512
2022-05-19 01:14:51 GMT 51.113388 -0.437003 2,950 76 182 -192
2022-05-19 01:14:49 GMT 51.113388 -0.437003 2,950 76 183 0
2022-05-19 01:14:46 GMT 51.112701 -0.441532 2,950 76 183 0
2022-05-19 01:14:44 GMT 51.112244 -0.444427 2,950 76 184 0
2022-05-19 01:14:42 GMT 51.111923 -0.446505 2,950 76 185 -64
2022-05-19 01:14:40 GMT 51.111557 -0.449178 2,950 76 185 -64
2022-05-19 01:14:38 GMT 51.110550 -0.455561 2,950 76 187 -64
2022-05-19 01:14:35 GMT 51.110073 -0.458984 2,950 76 187 0
2022-05-19 01:14:33 GMT 51.109634 -0.461871 2,950 76 187 0
2022-05-19 01:14:31 GMT 51.109634 -0.461871 2,950 76 187 0
2022-05-19 01:14:28 GMT 51.109051 -0.465775 2,950 77 188 0
2022-05-19 01:14:25 GMT 51.108540 -0.469589 2,950 78 188 64
2022-05-19 01:14:23 GMT 51.108074 -0.472946 2,950 79 188 128
2022-05-19 01:14:21 GMT 51.107841 -0.475006 2,950 81 189 192
2022-05-19 01:14:19 GMT 51.107655 -0.477371 2,950 83 189 192
2022-05-19 01:14:15 GMT 51.107559 -0.482788 2,925 95 189 0
2022-05-19 01:14:13 GMT 51.107849 -0.486739 2,925 103 190 -128
2022-05-19 01:14:10 GMT 51.108307 -0.489857 2,950 105 190 -128
2022-05-19 01:14:08 GMT 51.109085 -0.494014 2,950 108 191 -64
2022-05-19 01:14:05 GMT 51.109634 -0.496686 2,950 109 192 -64
2022-05-19 01:14:03 GMT 51.110413 -0.500175 2,950 111 192 0
2022-05-19 01:14:00 GMT 51.111145 -0.502847 2,950 116 190 64
2022-05-19 01:13:57 GMT 51.112263 -0.506287 2,950 124 187 -64
2022-05-19 01:13:55 GMT 51.113567 -0.509186 2,950 138 182 -128
2022-05-19 01:13:53 GMT 51.114990 -0.511829 2,975 138 182 -128
2022-05-19 01:13:50 GMT 51.116638 -0.513992 2,975 141 181 -128
2022-05-19 01:13:46 GMT 51.120361 -0.517502 2,975 159 173 -256
2022-05-19 01:13:42 GMT 51.122643 -0.518723 3,000 169 171 -448
2022-05-19 01:13:40 GMT 51.123714 -0.519180 3,025 172 170 -512
2022-05-19 01:13:38 GMT 51.125244 -0.519549 3,025 176 169 -640
2022-05-19 01:13:35 GMT 51.127991 -0.519846 3,075 182 168 -640
2022-05-19 01:13:33 GMT 51.129913 -0.519846 3,100 182 168 -576
2022-05-19 01:13:31 GMT 51.131161 -0.519791 3,100 182 168 -640
2022-05-19 01:13:28 GMT 51.133492 -0.519714 3,225 182 168 -576
2022-05-19 01:13:26 GMT 51.136284 -0.519638 3,200 183 168 -576
2022-05-19 01:13:22 GMT 51.138237 -0.519485 3,200 183 168 -576
2022-05-19 01:13:20 GMT 51.141586 -0.519178 3,225 184 168 -384
2022-05-19 01:13:18 GMT 51.141586 -0.519178 3,225 185 167 -384
2022-05-19 01:13:15 GMT 51.145844 -0.518436 3,250 189 168 -320
2022-05-19 01:13:12 GMT 51.147038 -0.518112 3,275 196 169 -320
2022-05-19 01:13:10 GMT 51.147038 -0.518112 3,275 198 169 -384
2022-05-19 01:13:08 GMT 51.148525 -0.517502 3,325 200 170 -384
2022-05-19 01:13:05 GMT 51.151413 -0.515823 3,300 207 172 -448
2022-05-19 01:13:02 GMT 51.153229 -0.514297 3,325 210 173 -384
2022-05-19 01:13:00 GMT 51.154404 -0.513240 3,325 210 174 -384
2022-05-19 01:12:58 GMT 51.156113 -0.511703 3,375 210 186 -896
2022-05-19 01:12:55 GMT 51.158676 -0.509338 3,375 210 180 -448
2022-05-19 01:12:52 GMT 51.160492 -0.507672 3,400 210 180 -448
2022-05-19 01:12:50 GMT 51.161839 -0.506439 3,400 210 182 -512
2022-05-19 01:12:48 GMT 51.164291 -0.504183 3,450 210 184 -576
2022-05-19 01:12:45 GMT 51.165848 -0.502773 3,500 210 186 -704
2022-05-19 01:12:42 GMT 51.167847 -0.500946 3,500 210 187 -704
2022-05-19 01:12:39 GMT 51.170452 -0.498657 3,900 209 186 -1088
2022-05-19 01:12:35 GMT 51.173199 -0.496216 3,600 210 187 -1024
2022-05-19 01:12:32 GMT 51.175526 -0.494156 3,675 210 187 -1088
2022-05-19 01:12:30 GMT 51.176834 -0.492974 3,675 210 187 -1088
2022-05-19 01:12:27 GMT 51.179111 -0.491028 3,750 210 187 -1088
2022-05-19 01:12:25 GMT 51.180725 -0.489560 3,825 210 187 -1024
2022-05-19 01:12:22 GMT 51.182369 -0.488129 3,850 210 187 -1024
2022-05-19 01:12:20 GMT 51.184570 -0.486145 3,875 209 186 -1088
2022-05-19 01:12:18 GMT 51.185955 -0.484924 3,900 209 186 -1088
2022-05-19 01:12:15 GMT 51.188553 -0.482656 3,975 209 186 -1088
2022-05-19 01:12:12 GMT 51.189697 -0.481691 4,000 209 186 -1024
2022-05-19 01:12:10 GMT 51.191681 -0.479965 4,050 209 184 -1024
2022-05-19 01:12:08 GMT 51.193169 -0.478592 4,075 209 184 -960
2022-05-19 01:12:05 GMT 51.196335 -0.475845 4,125 210 183 -448
2022-05-19 01:12:02 GMT 51.197361 -0.474930 4,150 210 183 -576
2022-05-19 01:12:00 GMT 51.202194 -0.470408 4,175 212 183 -320
2022-05-19 01:11:57 GMT 51.202194 -0.470408 4,175 214 183 -320
2022-05-19 01:11:54 GMT 51.203659 -0.468775 4,200 218 184 -448
2022-05-19 01:11:52 GMT 51.204666 -0.467453 4,200 225 184 -512
2022-05-19 01:11:50 GMT 51.206360 -0.464840 4,250 232 185 -512
2022-05-19 01:11:47 GMT 51.207779 -0.462094 4,275 237 186 -320
2022-05-19 01:11:44 GMT 51.209045 -0.459213 4,275 238 186 -256
2022-05-19 01:11:42 GMT 51.210022 -0.456823 4,275 239 187 -256
2022-05-19 01:11:40 GMT 51.210953 -0.454330 4,275 239 187 -192
2022-05-19 01:11:38 GMT 51.211742 -0.452271 4,300 239 187 -192
2022-05-19 01:11:35 GMT 51.213272 -0.448212 4,300 239 187 -192
2022-05-19 01:11:32 GMT 51.214630 -0.444717 4,300 239 187 -192
2022-05-19 01:11:30 GMT 51.215748 -0.441742 4,325 240 187 -192
2022-05-19 01:11:27 GMT 51.216820 -0.438766 4,325 240 187 -256
2022-05-19 01:11:25 GMT 51.217888 -0.435944 4,325 240 188 -256
2022-05-19 01:11:22 GMT 51.219006 -0.432968 4,350 240 188 -192
2022-05-19 01:11:20 GMT 51.219727 -0.431139 4,350 240 188 -192
2022-05-19 01:11:18 GMT 51.221333 -0.426865 4,350 240 188 -192
2022-05-19 01:11:15 GMT 51.222404 -0.424042 4,375 240 188 -192
2022-05-19 01:11:12 GMT 51.223526 -0.420969 4,375 240 188 -192
2022-05-19 01:11:10 GMT 51.224407 -0.418701 4,375 240 188 -192
2022-05-19 01:11:08 GMT 51.225540 -0.415773 4,400 240 188 -192
2022-05-19 01:11:05 GMT 51.226826 -0.412216 4,400 240 188 -192
2022-05-19 01:11:03 GMT 51.227783 -0.409686 4,400 240 188 -192
2022-05-19 01:11:01 GMT 51.228504 -0.407791 4,425 240 188 -192
2022-05-19 01:10:59 GMT 51.229156 -0.405975 4,425 240 188 -192
2022-05-19 01:10:57 GMT 51.230072 -0.403599 4,425 240 187 -192
2022-05-19 01:10:55 GMT 51.231388 -0.399933 4,425 240 187 -192
2022-05-19 01:10:53 GMT 51.232269 -0.397586 4,450 240 187 -192
2022-05-19 01:10:51 GMT 51.233551 -0.394023 4,450 240 187 -192
2022-05-19 01:10:49 GMT 51.233551 -0.394023 4,450 240 187 -192
2022-05-19 01:10:47 GMT 51.234467 -0.391574 4,450 240 186 -192
2022-05-19 01:10:44 GMT 51.236847 -0.385115 4,475 240 186 -192
2022-05-19 01:10:42 GMT 51.236847 -0.385115 4,475 240 186 -192
2022-05-19 01:10:40 GMT 51.237675 -0.382843 4,475 240 186 -192
2022-05-19 01:10:38 GMT 51.238510 -0.380554 4,500 240 187 -256
2022-05-19 01:10:35 GMT 51.240967 -0.373832 4,500 240 186 -256
2022-05-19 01:10:33 GMT 51.240967 -0.373832 4,500 240 186 -256
2022-05-19 01:10:31 GMT 51.241470 -0.372496 4,525 240 187 -256
2022-05-19 01:10:29 GMT 51.242294 -0.370269 4,525 240 187 -256
2022-05-19 01:10:27 GMT 51.243256 -0.367671 4,525 240 187 -320
2022-05-19 01:10:25 GMT 51.244331 -0.364609 4,550 240 187 -320
2022-05-19 01:10:23 GMT 51.245270 -0.362178 4,550 240 188 -256
2022-05-19 01:10:21 GMT 51.246704 -0.358124 4,575 240 188 -256
2022-05-19 01:10:19 GMT 51.246704 -0.358124 4,575 240 189 -256
2022-05-19 01:10:17 GMT 51.247787 -0.355200 4,575 240 189 -256
2022-05-19 01:10:14 GMT 51.249023 -0.351934 4,600 240 190 -256
2022-05-19 01:10:12 GMT 51.250122 -0.348964 4,600 240 190 -256
2022-05-19 01:10:10 GMT 51.250942 -0.346680 4,625 240 191 -256
2022-05-19 01:10:08 GMT 51.251816 -0.344288 4,625 240 192 -320
2022-05-19 01:10:05 GMT 51.253410 -0.340118 4,650 240 195 -320
2022-05-19 01:10:03 GMT 51.254154 -0.337982 4,650 240 196 -384
2022-05-19 01:10:01 GMT 51.255039 -0.335617 4,650 240 197 -384
2022-05-19 01:09:59 GMT 51.255970 -0.333176 4,675 240 199 -320
2022-05-19 01:09:57 GMT 51.257309 -0.329516 4,700 240 201 -320
2022-05-19 01:09:54 GMT 51.258671 -0.325928 4,700 240 201 -320
2022-05-19 01:09:51 GMT 51.259693 -0.323181 4,725 240 204 -384
2022-05-19 01:09:49 GMT 51.260624 -0.320740 4,725 240 204 -512
2022-05-19 01:09:47 GMT 51.261929 -0.317230 4,750 240 206 -576
2022-05-19 01:09:44 GMT 51.262939 -0.314595 4,775 239 207 -576
2022-05-19 01:09:42 GMT 51.264210 -0.311127 4,800 239 209 -640
2022-05-19 01:09:40 GMT 51.265274 -0.308285 4,825 240 209 -640
2022-05-19 01:09:37 GMT 51.266830 -0.304128 4,850 239 212 -640
2022-05-19 01:09:34 GMT 51.268120 -0.300751 4,875 239 213 -640
2022-05-19 01:09:31 GMT 51.269806 -0.296334 4,925 240 215 -640
2022-05-19 01:09:29 GMT 51.270813 -0.293587 4,950 240 217 -576
2022-05-19 01:09:26 GMT 51.273422 -0.286684 4,975 239 219 -576
2022-05-19 01:09:24 GMT 51.273422 -0.286684 5,000 240 221 -576
2022-05-19 01:09:21 GMT 51.275757 -0.280374 5,025 240 223 -576
2022-05-19 01:09:19 GMT 51.277058 -0.276871 5,050 240 224 -576
2022-05-19 01:09:17 GMT 51.277058 -0.276871 5,050 241 226 -576
2022-05-19 01:09:14 GMT 51.278362 -0.273209 5,075 241 228 -576
2022-05-19 01:09:11 GMT 51.280151 -0.267977 5,100 242 229 -576
2022-05-19 01:09:09 GMT 51.280689 -0.266418 5,125 243 231 -576
2022-05-19 01:09:07 GMT 51.282040 -0.261917 5,150 247 236 -640
2022-05-19 01:09:04 GMT 51.283157 -0.257721 5,200 249 239 -640
2022-05-19 01:09:02 GMT 51.283901 -0.254593 5,225 252 240 -704
2022-05-19 01:09:00 GMT 51.285667 -0.245361 5,275 256 246 -1472
2022-05-19 01:08:57 GMT 51.286552 -0.239868 5,800 256 246 -1472
2022-05-19 01:08:54 GMT 51.286552 -0.239868 5,375 256 246 -1344
2022-05-19 01:08:52 GMT 51.287113 -0.236359 5,400 256 246 -1536
2022-05-19 01:08:50 GMT 51.287750 -0.232569 5,475 256 247 -1536
2022-05-19 01:08:48 GMT 51.288975 -0.224915 5,550 256 246 -1472
2022-05-19 01:08:45 GMT 51.289444 -0.221954 5,625 256 246 -1536
2022-05-19 01:08:43 GMT 51.290138 -0.217667 5,650 256 246 -1472
2022-05-19 01:08:41 GMT 51.290138 -0.217667 5,675 256 246 -1536
2022-05-19 01:08:39 GMT 51.290634 -0.214753 5,725 256 246 -1472
2022-05-19 01:08:37 GMT 51.291630 -0.208511 5,825 256 246 -1536
2022-05-19 01:08:34 GMT 51.292328 -0.204468 5,900 256 247 -1536
2022-05-19 01:08:31 GMT 51.292877 -0.201020 5,950 256 246 -1472
2022-05-19 01:08:29 GMT 51.293427 -0.197680 5,975 256 246 -1472
2022-05-19 01:08:27 GMT 51.294159 -0.193077 6,075 256 246 -1536
2022-05-19 01:08:24 GMT 51.295212 -0.186768 6,125 256 246 -1408
2022-05-19 01:08:22 GMT 51.295773 -0.183105 6,175 256 246 -1472
2022-05-19 01:08:20 GMT 51.296356 -0.179493 6,225 256 246 -1472
2022-05-19 01:08:18 GMT 51.296795 -0.176849 6,300 256 246 -1600
2022-05-19 01:08:15 GMT 51.297726 -0.171356 6,350 256 247 -1472
2022-05-19 01:08:13 GMT 51.298237 -0.168152 6,375 256 247 -1536
2022-05-19 01:08:11 GMT 51.298828 -0.164572 6,425 256 247 -1536
2022-05-19 01:08:09 GMT 51.299263 -0.162048 6,450 256 247 -1536
2022-05-19 01:08:07 GMT 51.300007 -0.157471 6,525 256 247 -1472
2022-05-19 01:08:04 GMT 51.300797 -0.152769 6,575 256 247 -1472
2022-05-19 01:08:02 GMT 51.301346 -0.149429 6,650 256 248 -1536
2022-05-19 01:08:00 GMT 51.302353 -0.143416 6,725 256 248 -1536
2022-05-19 01:07:57 GMT 51.302895 -0.140152 6,800 256 248 -1536
2022-05-19 01:07:55 GMT 51.303680 -0.135251 6,850 256 248 -1472
2022-05-19 01:07:52 GMT 51.304428 -0.130920 6,900 256 248 -1152
2022-05-19 01:07:50 GMT 51.304871 -0.128347 6,925 256 248 -1024
2022-05-19 01:07:48 GMT 51.305546 -0.124207 7,000 256 248 -448
2022-05-19 01:07:45 GMT 51.306564 -0.118251 7,000 256 247 -320
2022-05-19 01:07:43 GMT 51.306992 -0.115509 7,000 256 247 0
2022-05-19 01:07:41 GMT 51.307755 -0.111199 7,000 256 247 0
2022-05-19 01:07:39 GMT 51.308212 -0.108379 7,000 256 247 0
2022-05-19 01:07:37 GMT 51.309132 -0.102844 7,000 256 247 0
2022-05-19 01:07:34 GMT 51.309738 -0.099182 7,000 256 247 0
2022-05-19 01:07:32 GMT 51.310204 -0.096359 7,000 256 247 0
2022-05-19 01:07:30 GMT 51.310822 -0.092567 7,000 256 247 0
2022-05-19 01:07:28 GMT 51.311600 -0.088043 7,000 256 247 0
2022-05-19 01:07:26 GMT 51.311874 -0.086332 7,000 256 247 0
2022-05-19 01:07:24 GMT 51.312653 -0.081655 7,000 255 246 0
2022-05-19 01:07:22 GMT 51.313320 -0.077667 7,000 255 246 0
2022-05-19 01:07:20 GMT 51.314484 -0.070801 7,000 255 246 0
2022-05-19 01:07:18 GMT 51.314484 -0.070801 7,000 255 246 0
2022-05-19 01:07:15 GMT 51.315464 -0.064850 7,000 255 246 0
2022-05-19 01:07:13 GMT 51.316814 -0.056992 7,000 255 246 0
2022-05-19 01:07:10 GMT 51.317371 -0.053482 7,000 255 246 0
2022-05-19 01:07:08 GMT 51.317371 -0.053482 7,000 255 246 0
2022-05-19 01:07:05 GMT 51.318466 -0.047212 7,000 255 246 0
2022-05-19 01:07:03 GMT 51.318768 -0.045395 7,000 255 246 64
2022-05-19 01:07:01 GMT 51.320206 -0.036671 7,000 255 246 0
2022-05-19 01:06:59 GMT 51.320206 -0.036671 7,000 255 246 0
2022-05-19 01:06:56 GMT 51.321121 -0.031474 7,000 255 246 0
2022-05-19 01:06:53 GMT 51.321808 -0.027243 7,000 255 246 0
2022-05-19 01:06:51 GMT 51.322586 -0.022736 7,000 255 246 0
2022-05-19 01:06:49 GMT 51.323135 -0.019300 7,000 256 247 0
2022-05-19 01:06:47 GMT 51.323608 -0.016632 7,000 256 247 0
2022-05-19 01:06:44 GMT 51.324539 -0.011139 7,000 256 247 0
2022-05-19 01:06:42 GMT 51.325005 -0.008316 7,000 256 247 0
2022-05-19 01:06:39 GMT 51.325790 -0.003489 7,000 256 247 0
2022-05-19 01:06:37 GMT 51.326569 0.001113 7,000 256 247 0
2022-05-19 01:06:34 GMT 51.327438 0.006607 7,000 256 247 64
2022-05-19 01:06:32 GMT 51.327892 0.009308 7,000 256 247 0
2022-05-19 01:06:29 GMT 51.329567 0.019226 7,000 256 247 0
2022-05-19 01:06:27 GMT 51.329567 0.019226 7,000 256 247 0
2022-05-19 01:06:24 GMT 51.330368 0.024274 7,000 256 247 0
2022-05-19 01:06:22 GMT 51.331059 0.028381 7,000 256 247 0
2022-05-19 01:06:19 GMT 51.331848 0.032959 7,000 256 246 0
2022-05-19 01:06:17 GMT 51.332474 0.036745 7,000 256 246 0
2022-05-19 01:06:14 GMT 51.333344 0.042015 7,000 256 246 0
2022-05-19 01:06:12 GMT 51.333759 0.044556 7,000 256 246 0
2022-05-19 01:06:09 GMT 51.334717 0.050255 7,000 255 245 0
2022-05-19 01:06:07 GMT 51.335312 0.053744 7,000 256 246 -64
2022-05-19 01:06:04 GMT 51.336273 0.059662 7,000 256 246 0
2022-05-19 01:06:02 GMT 51.336685 0.062132 7,000 256 246 -64
2022-05-19 01:05:59 GMT 51.337601 0.067403 7,000 256 246 0
2022-05-19 01:05:57 GMT 51.338226 0.071182 7,000 256 246 -64
2022-05-19 01:05:54 GMT 51.338974 0.075717 7,000 255 246 -64
2022-05-19 01:05:52 GMT 51.339764 0.080490 7,000 255 246 0
2022-05-19 01:05:49 GMT 51.340622 0.085738 7,000 256 246 0
2022-05-19 01:05:47 GMT 51.341251 0.089493 7,000 256 246 0
2022-05-19 01:05:44 GMT 51.342133 0.094868 7,000 256 245 64
2022-05-19 01:05:41 GMT 51.342819 0.099100 7,000 256 246 64
2022-05-19 01:05:39 GMT 51.343460 0.103108 7,000 256 245 128
2022-05-19 01:05:37 GMT 51.344925 0.111868 7,000 255 246 0
2022-05-19 01:05:34 GMT 51.344925 0.111868 7,000 254 245 -64
2022-05-19 01:05:31 GMT 51.345909 0.117188 7,000 251 241 0
2022-05-19 01:05:29 GMT 51.346607 0.120850 7,000 252 243 0
2022-05-19 01:05:27 GMT 51.347397 0.124359 7,000 250 241 0
2022-05-19 01:05:24 GMT 51.348606 0.129700 7,000 248 240 -64
2022-05-19 01:05:22 GMT 51.350601 0.137106 7,000 246 239 -64
2022-05-19 01:05:19 GMT 51.351913 0.141525 7,000 245 239 -64
2022-05-19 01:05:17 GMT 51.351913 0.141525 7,000 244 239 0
2022-05-19 01:05:14 GMT 51.353302 0.145866 7,000 244 240 0
2022-05-19 01:05:11 GMT 51.354519 0.149765 7,000 244 241 -64
2022-05-19 01:05:09 GMT 51.355450 0.152740 7,000 243 240 64
2022-05-19 01:05:07 GMT 51.356689 0.156629 7,000 243 241 -64
2022-05-19 01:05:04 GMT 51.358013 0.160675 7,000 244 243 -64
2022-05-19 01:05:02 GMT 51.359528 0.165537 7,000 244 243 -64
2022-05-19 01:04:59 GMT 51.360489 0.168655 7,000 244 243 128
2022-05-19 01:04:57 GMT 51.363327 0.177637 7,000 244 242 0
2022-05-19 01:04:54 GMT 51.363327 0.177637 7,000 244 242 0
2022-05-19 01:04:52 GMT 51.364105 0.180012 7,000 244 242 -64
2022-05-19 01:04:50 GMT 51.365295 0.183873 7,000 244 242 0
2022-05-19 01:04:48 GMT 51.367081 0.189440 7,000 244 242 0
2022-05-19 01:04:46 GMT 51.367081 0.189440 7,000 244 242 0
2022-05-19 01:04:44 GMT 51.368317 0.193523 7,000 244 243 0
2022-05-19 01:04:41 GMT 51.369789 0.198059 7,000 244 243 0
2022-05-19 01:04:39 GMT 51.371883 0.204849 7,000 244 245 0
2022-05-19 01:04:37 GMT 51.371883 0.204849 7,000 244 245 0
2022-05-19 01:04:34 GMT 51.373215 0.209111 7,000 244 245 0
2022-05-19 01:04:32 GMT 51.374165 0.212097 7,000 244 245 0
2022-05-19 01:04:29 GMT 51.377014 0.221211 7,000 244 243 0
2022-05-19 01:04:26 GMT 51.377014 0.221211 7,000 244 243 0
2022-05-19 01:04:23 GMT 51.378540 0.226135 7,000 244 243 0
2022-05-19 01:04:21 GMT 51.379566 0.229340 7,000 244 242 0
2022-05-19 01:04:18 GMT 51.381565 0.235748 7,000 244 242 0
2022-05-19 01:04:15 GMT 51.382782 0.239546 7,000 244 242 0
2022-05-19 01:04:12 GMT 51.384613 0.245262 7,000 243 242 0
2022-05-19 01:04:09 GMT 51.385849 0.249271 7,000 243 241 0
2022-05-19 01:04:07 GMT 51.386902 0.252463 7,000 243 242 0
2022-05-19 01:04:04 GMT 51.388458 0.257214 7,000 242 242 0
2022-05-19 01:04:02 GMT 51.389572 0.260620 7,000 242 241 0
2022-05-19 01:03:59 GMT 51.391296 0.265427 7,000 239 241 -64
2022-05-19 01:03:56 GMT 51.393219 0.270501 7,000 238 240 -64
2022-05-19 01:03:53 GMT 51.394409 0.273322 7,000 236 240 -64
2022-05-19 01:03:51 GMT 51.395996 0.277023 7,000 234 239 -64
2022-05-19 01:03:48 GMT 51.397816 0.280838 7,000 232 239 0
2022-05-19 01:03:46 GMT 51.399162 0.283661 7,000 232 239 0
2022-05-19 01:03:43 GMT 51.401047 0.287426 7,000 232 239 0
2022-05-19 01:03:41 GMT 51.402420 0.290247 7,000 232 239 0
2022-05-19 01:03:39 GMT 51.404190 0.293732 7,000 232 239 0
2022-05-19 01:03:37 GMT 51.406006 0.297318 7,000 232 239 0
2022-05-19 01:03:34 GMT 51.408009 0.301361 7,000 232 239 0
2022-05-19 01:03:31 GMT 51.409637 0.304642 7,000 232 238 0
2022-05-19 01:03:28 GMT 51.411621 0.308582 7,000 232 238 0
2022-05-19 01:03:26 GMT 51.415192 0.315560 7,000 231 238 0
2022-05-19 01:03:23 GMT 51.415192 0.315560 7,000 231 238 -64
2022-05-19 01:03:21 GMT 51.418903 0.322418 7,000 228 238 0
2022-05-19 01:03:18 GMT 51.418903 0.322418 7,000 227 238 0
2022-05-19 01:03:16 GMT 51.420578 0.325241 7,000 225 237 0
2022-05-19 01:03:13 GMT 51.422718 0.328522 7,000 223 237 0
2022-05-19 01:03:10 GMT 51.424805 0.331297 7,000 217 237 0
2022-05-19 01:03:08 GMT 51.429192 0.336075 7,000 215 237 64
2022-05-19 01:03:06 GMT 51.429192 0.336075 7,000 210 238 64
2022-05-19 01:03:03 GMT 51.434647 0.340428 7,000 205 238 64
2022-05-19 01:03:00 GMT 51.434647 0.340428 7,000 202 238 64
2022-05-19 01:02:58 GMT 51.437103 0.341873 7,000 197 239 0
2022-05-19 01:02:56 GMT 51.439270 0.342877 7,000 193 240 -128
2022-05-19 01:02:54 GMT 51.441479 0.343628 7,000 190 241 -128
2022-05-19 01:02:51 GMT 51.444134 0.344238 7,000 188 241 0
2022-05-19 01:02:49 GMT 51.446926 0.344772 7,000 187 242 0
2022-05-19 01:02:47 GMT 51.449753 0.345253 7,000 187 242 0
2022-05-19 01:02:44 GMT 51.452606 0.345764 7,000 187 242 64
2022-05-19 01:02:41 GMT 51.455338 0.346218 7,000 186 242 0
2022-05-19 01:02:38 GMT 51.458145 0.346680 7,000 186 242 0
2022-05-19 01:02:36 GMT 51.461964 0.347290 7,000 186 243 -64
2022-05-19 01:02:33 GMT 51.465134 0.347851 7,000 186 243 0
2022-05-19 01:02:30 GMT 51.467548 0.348206 7,000 186 243 0
2022-05-19 01:02:28 GMT 51.471497 0.348890 7,000 186 243 0
2022-05-19 01:02:25 GMT 51.473461 0.349197 7,000 186 243 64
2022-05-19 01:02:23 GMT 51.475891 0.349632 7,000 186 243 0
2022-05-19 01:02:21 GMT 51.477837 0.349960 7,000 186 243 0
2022-05-19 01:02:18 GMT 51.481705 0.350597 7,000 186 243 0
2022-05-19 01:02:16 GMT 51.484039 0.350969 7,000 186 243 0
2022-05-19 01:02:13 GMT 51.486832 0.351414 7,000 186 243 0
2022-05-19 01:02:11 GMT 51.489212 0.351785 7,000 186 243 0
2022-05-19 01:02:09 GMT 51.494968 0.352707 7,000 186 243 0
2022-05-19 01:02:06 GMT 51.494968 0.352707 7,000 186 244 0
2022-05-19 01:02:03 GMT 51.499054 0.353344 7,000 186 244 0
2022-05-19 01:02:00 GMT 51.503632 0.354086 7,000 186 244 0
2022-05-19 01:01:58 GMT 51.503632 0.354086 7,000 186 244 0
2022-05-19 01:01:56 GMT 51.506420 0.354538 7,000 186 244 0
2022-05-19 01:01:53 GMT 51.509445 0.354996 7,000 186 245 0
2022-05-19 01:01:51 GMT 51.511734 0.355423 7,000 186 245 0
2022-05-19 01:01:48 GMT 51.517220 0.356293 7,000 186 245 0
2022-05-19 01:01:46 GMT 51.517220 0.356293 7,000 187 245 0
2022-05-19 01:01:43 GMT 51.523041 0.357285 7,000 187 245 0
2022-05-19 01:01:41 GMT 51.523041 0.357285 7,000 187 245 0
2022-05-19 01:01:39 GMT 51.525181 0.357666 7,000 187 245 -64
2022-05-19 01:01:37 GMT 51.527462 0.358047 7,000 187 245 -64
2022-05-19 01:01:34 GMT 51.531784 0.358837 7,000 187 244 0
2022-05-19 01:01:31 GMT 51.534027 0.359283 7,000 187 244 0
2022-05-19 01:01:29 GMT 51.536446 0.359726 7,000 187 244 0
2022-05-19 01:01:27 GMT 51.539200 0.360248 7,000 187 244 64
2022-05-19 01:01:24 GMT 51.541809 0.360767 7,000 187 245 64
2022-05-19 01:01:21 GMT 51.545570 0.361481 7,000 186 246 64
2022-05-19 01:01:19 GMT 51.547943 0.361862 7,000 186 246 64
2022-05-19 01:01:17 GMT 51.549591 0.362103 7,000 185 245 128
2022-05-19 01:01:15 GMT 51.552505 0.362396 7,000 181 248 0
2022-05-19 01:01:12 GMT 51.557907 0.362091 7,000 176 249 0
2022-05-19 01:01:10 GMT 51.559799 0.361807 7,000 172 251 -64
2022-05-19 01:01:08 GMT 51.559799 0.361807 7,000 171 252 -64
2022-05-19 01:01:06 GMT 51.562866 0.361064 7,000 168 252 -64
2022-05-19 01:01:03 GMT 51.566299 0.359951 7,000 168 252 0
2022-05-19 01:01:00 GMT 51.569275 0.358986 7,000 168 252 0
2022-05-19 01:00:58 GMT 51.571732 0.358124 7,000 168 251 0
2022-05-19 01:00:56 GMT 51.574036 0.357353 7,000 168 250 0
2022-05-19 01:00:53 GMT 51.578018 0.355942 7,000 168 250 0
2022-05-19 01:00:50 GMT 51.580719 0.355051 7,000 167 249 0
2022-05-19 01:00:47 GMT 51.586445 0.353088 7,000 167 249 0
2022-05-19 01:00:45 GMT 51.586445 0.353088 7,000 167 249 0
2022-05-19 01:00:42 GMT 51.590332 0.351785 7,000 168 249 0
2022-05-19 01:00:39 GMT 51.593262 0.350746 7,000 168 249 0
2022-05-19 01:00:37 GMT 51.594955 0.350226 7,000 168 249 0
2022-05-19 01:00:35 GMT 51.597198 0.349484 7,000 168 249 0
2022-05-19 01:00:32 GMT 51.601200 0.348129 7,000 168 249 0
2022-05-19 01:00:29 GMT 51.604523 0.347034 7,000 168 249 0
2022-05-19 01:00:27 GMT 51.609440 0.345383 7,000 168 249 0
2022-05-19 01:00:24 GMT 51.609440 0.345383 7,000 167 249 -64
2022-05-19 01:00:22 GMT 51.612305 0.344362 7,000 167 249 64
2022-05-19 01:00:19 GMT 51.615234 0.343397 7,000 167 249 0
2022-05-19 01:00:17 GMT 51.620178 0.341690 7,000 167 249 -64
2022-05-19 01:00:12 GMT 51.623108 0.340725 7,000 167 249 0
2022-05-19 01:00:10 GMT 51.628281 0.338943 7,000 167 249 0
2022-05-19 01:00:08 GMT 51.628281 0.338943 7,000 167 249 0
2022-05-19 01:00:06 GMT 51.630157 0.338287 7,000 167 249 0
2022-05-19 01:00:03 GMT 51.634735 0.336716 7,000 167 249 0
2022-05-19 01:00:00 GMT 51.636719 0.336075 7,000 168 250 0
2022-05-19 00:59:58 GMT 51.639420 0.335159 7,000 168 250 0
2022-05-19 00:59:55 GMT 51.642426 0.334118 7,000 167 250 0
2022-05-19 00:59:52 GMT 51.645844 0.332870 7,000 166 250 64
2022-05-19 00:59:50 GMT 51.648743 0.331743 7,000 165 251 64
2022-05-19 00:59:47 GMT 51.652035 0.330353 7,000 164 251 0
2022-05-19 00:59:45 GMT 51.653320 0.329738 7,000 161 252 0
2022-05-19 00:59:42 GMT 51.656693 0.327988 7,000 160 254 0
2022-05-19 00:59:40 GMT 51.659809 0.326157 7,000 157 254 0
2022-05-19 00:59:37 GMT 51.663025 0.324022 7,000 155 255 0
2022-05-19 00:59:35 GMT 51.664700 0.322800 7,000 154 256 0
2022-05-19 00:59:32 GMT 51.670795 0.318146 7,000 154 257 0
2022-05-19 00:59:29 GMT 51.670795 0.318146 7,000 154 257 0
2022-05-19 00:59:27 GMT 51.673737 0.315857 7,000 154 257 0
2022-05-19 00:59:25 GMT 51.675964 0.314178 7,000 154 257 0
2022-05-19 00:59:22 GMT 51.678616 0.312119 7,000 154 257 0
2022-05-19 00:59:20 GMT 51.683075 0.308656 7,000 154 257 0
2022-05-19 00:59:18 GMT 51.683075 0.308656 7,000 154 257 0
2022-05-19 00:59:16 GMT 51.685135 0.307098 7,000 154 257 0
2022-05-19 00:59:13 GMT 51.691910 0.301827 7,000 154 257 0
2022-05-19 00:59:11 GMT 51.691910 0.301827 7,000 154 258 0
2022-05-19 00:59:08 GMT 51.696259 0.298462 7,000 154 258 0
2022-05-19 00:59:06 GMT 51.696259 0.298462 7,000 154 258 0
2022-05-19 00:59:03 GMT 51.699097 0.296260 7,000 154 257 0
2022-05-19 00:59:00 GMT 51.702454 0.293655 7,000 154 257 0
2022-05-19 00:58:58 GMT 51.704735 0.291901 7,000 154 258 0
2022-05-19 00:58:56 GMT 51.709076 0.288540 7,000 154 258 0
2022-05-19 00:58:54 GMT 51.709076 0.288540 7,000 154 258 0
2022-05-19 00:58:52 GMT 51.713654 0.284902 7,000 153 257 0
2022-05-19 00:58:50 GMT 51.713654 0.284902 7,000 153 257 0
2022-05-19 00:58:48 GMT 51.716446 0.282749 7,000 154 256 0
2022-05-19 00:58:45 GMT 51.718597 0.281042 7,000 154 256 0
2022-05-19 00:58:42 GMT 51.721725 0.278625 7,000 154 256 0
2022-05-19 00:58:40 GMT 51.727112 0.274436 7,000 154 255 0
2022-05-19 00:58:37 GMT 51.727112 0.274436 7,000 154 255 0
2022-05-19 00:58:35 GMT 51.729591 0.272446 7,000 154 255 0
2022-05-19 00:58:32 GMT 51.732834 0.269907 7,000 154 255 0
2022-05-19 00:58:29 GMT 51.737732 0.266122 7,000 154 255 64
2022-05-19 00:58:27 GMT 51.739784 0.264435 7,000 153 254 128
2022-05-19 00:58:25 GMT 51.739784 0.264435 6,975 153 255 192
2022-05-19 00:58:22 GMT 51.743000 0.261917 6,975 153 254 256
2022-05-19 00:58:19 GMT 51.748215 0.257733 6,950 153 254 320
2022-05-19 00:58:17 GMT 51.751286 0.255280 6,950 153 254 448
2022-05-19 00:58:15 GMT 51.751286 0.255280 6,900 153 252 768
2022-05-19 00:58:12 GMT 51.754032 0.253067 6,875 153 251 960
2022-05-19 00:58:09 GMT 51.756218 0.251312 6,850 153 250 1152
2022-05-19 00:58:07 GMT 51.758686 0.249329 6,825 153 249 1280
2022-05-19 00:58:05 GMT 51.761387 0.247116 6,750 152 248 1472
2022-05-19 00:58:02 GMT 51.764511 0.244594 6,650 152 247 1664
2022-05-19 00:57:59 GMT 51.769020 0.240860 6,575 152 246 1984
2022-05-19 00:57:57 GMT 51.769020 0.240860 6,575 152 246 1984
2022-05-19 00:57:55 GMT 51.771721 0.238571 6,400 152 246 2624
2022-05-19 00:57:52 GMT 51.774563 0.236206 6,325 152 246 2496
2022-05-19 00:57:49 GMT 51.776470 0.234604 6,250 152 246 2688
2022-05-19 00:57:47 GMT 51.778519 0.232925 6,150 152 248 2816
2022-05-19 00:57:45 GMT 51.781723 0.230193 5,925 152 248 3136
2022-05-19 00:57:42 GMT 51.783684 0.228500 5,775 152 247 3392
2022-05-19 00:57:39 GMT 51.786713 0.225906 5,725 152 247 3584
2022-05-19 00:57:37 GMT 51.791016 0.222325 5,500 152 247 3904
2022-05-19 00:57:35 GMT 51.791016 0.222325 5,300 152 246 3840
2022-05-19 00:57:32 GMT 51.794022 0.219803 5,150 152 244 3584
2022-05-19 00:57:29 GMT 51.796967 0.217277 5,100 152 244 3392
2022-05-19 00:57:27 GMT 51.798889 0.215718 5,000 152 241 3136
2022-05-19 00:57:25 GMT 51.802551 0.212675 4,800 152 239 2816
2022-05-19 00:57:22 GMT 51.804016 0.211413 4,675 152 237 2624
2022-05-19 00:57:19 GMT 51.806774 0.209122 4,625 152 233 2496
2022-05-19 00:57:17 GMT 51.809143 0.207256 4,525 153 228 2432
2022-05-19 00:57:14 GMT 51.811478 0.205326 4,350 153 223 2560
2022-05-19 00:57:11 GMT 51.816193 0.201614 4,275 154 218 2688
2022-05-19 00:57:09 GMT 51.816193 0.201614 4,100 155 213 2880
2022-05-19 00:57:06 GMT 51.822189 0.197160 3,975 155 211 2880
2022-05-19 00:57:03 GMT 51.822189 0.197160 3,875 158 205 2880
2022-05-19 00:57:00 GMT 51.824844 0.195453 3,700 160 200 2816
2022-05-19 00:56:57 GMT 51.826675 0.194339 3,675 160 200 2816
2022-05-19 00:56:55 GMT 51.828506 0.193300 3,575 161 197 2752
2022-05-19 00:56:52 GMT 51.834000 0.190702 3,350 164 191 2624
2022-05-19 00:56:49 GMT 51.834000 0.190702 3,275 167 187 2432
2022-05-19 00:56:46 GMT 51.839630 0.188920 3,125 170 183 2304
2022-05-19 00:56:43 GMT 51.839630 0.188920 3,025 173 181 2176
2022-05-19 00:56:39 GMT 51.842194 0.188549 2,875 176 177 1984
2022-05-19 00:56:36 GMT 51.844715 0.188446 2,850 179 175 1920
2022-05-19 00:56:33 GMT 51.846996 0.188599 2,675 189 168 1536
2022-05-19 00:56:30 GMT 51.849419 0.189133 2,575 193 164 1472
2022-05-19 00:56:27 GMT 51.851669 0.189960 2,550 196 162 1408
2022-05-19 00:56:24 GMT 51.853329 0.190811 2,500 200 159 1472
2022-05-19 00:56:22 GMT 51.855423 0.192184 2,400 208 155 1536
2022-05-19 00:56:19 GMT 51.857006 0.193558 2,350 216 151 1536
2022-05-19 00:56:16 GMT 51.858444 0.195082 2,250 216 151 1536
2022-05-19 00:56:13 GMT 51.860046 0.197160 2,150 222 145 1664
2022-05-19 00:56:10 GMT 51.861801 0.199661 1,850 223 135 1728
2022-05-19 00:56:07 GMT 51.863663 0.202484 2,000 223 140 1792
2022-05-19 00:56:05 GMT 51.864220 0.203247 1,950 223 139 1856
2022-05-19 00:56:04 GMT 51.864716 0.203989 1,925 223 138 1792
2022-05-19 00:56:03 GMT 51.865173 0.204657 1,900 223 136 1792
2022-05-19 00:56:01 GMT 51.866180 0.206142 1,850 223 136 1728
2022-05-19 00:55:59 GMT 51.867096 0.207478 1,775 223 134 1792
2022-05-19 00:55:57 GMT 51.867920 0.208666 1,700 223 133 1856
2022-05-19 00:55:56 GMT 51.868458 0.209503 1,675 223 131 2048
2022-05-19 00:55:55 GMT 51.869339 0.210819 1,550 224 130 2432
2022-05-19 00:55:53 GMT 51.869808 0.211487 1,550 224 130 2688
2022-05-19 00:55:52 GMT 51.870209 0.212155 1,525 224 130 2944
2022-05-19 00:55:50 GMT 51.871124 0.213565 1,400 224 130 3200
2022-05-19 00:55:49 GMT 51.871391 0.213928 1,375 224 131 3200
2022-05-19 00:55:46 GMT 51.872452 0.215570 1,250 224 133 3264
2022-05-19 00:55:45 GMT 51.873825 0.217648 1,025 224 135 3264
2022-05-19 00:55:42 GMT 51.874695 0.218984 975 224 137 3200
2022-05-19 00:55:41 GMT 51.875534 0.220261 875 225 139 3072
2022-05-19 00:55:39 GMT 51.876045 0.221100 825 224 140 3008
2022-05-19 00:55:37 GMT 51.877029 0.222547 750 225 140 2880
2022-05-19 00:55:36 GMT 51.877579 0.223364 675 225 142 2688
2022-05-19 00:55:35 GMT 51.878036 0.224106 625 225 142 2688
2022-05-19 00:55:34 GMT 51.878448 0.224774 600 224 142 2624
2022-05-19 00:55:33 GMT 51.879272 0.226036 525 224 145 2496
2022-05-19 00:55:31 GMT 51.879913 0.227001 475 224 145 2368
2022-05-19 00:55:28 GMT 51.881195 0.229006 375 224 146 1856
2022-05-19 00:55:27 GMT 51.881744 0.229896 350 224 146 1600
2022-05-19 00:55:26 GMT 51.882248 0.230639 325 224 145 1216
2022-05-19 00:55:24 GMT 51.883209 0.232123 275 223 137 192
2022-05-19 00:55:22 GMT 51.884331 0.233765 250 223 137 192
2022-05-19 00:55:20 GMT 51.885216 0.235062 275 223 131 64
2022-05-19 00:55:19 GMT 51.885681 0.235761 275 223 128 64
2022-05-19 00:55:17 GMT 51.886597 0.237171 275 223 121 64
2022-05-19 00:55:16 GMT 51.886799 0.237427 275 223 117 64
2022-05-19 00:55:09 GMT 51.889446 0.241439 0 222 86
2022-05-19 00:55:06 GMT 51.890293 0.242701 0 222 72
2022-05-19 00:55:04 GMT 51.890732 0.243359 0 222 67
2022-05-19 00:55:03 GMT 51.890957 0.243722 0 222 62
2022-05-19 00:54:59 GMT 51.891594 0.244675 0 222 43
2022-05-19 00:54:55 GMT 51.892170 0.245541 0 222 18
2022-05-19 00:54:44 GMT 51.892376 0.245856 0 222 0
2022-05-19 00:54:39 GMT 51.892384 0.245857 0 222 0
2022-05-19 00:54:30 GMT 51.892376 0.245856 0 222 0
2022-05-19 00:54:17 GMT 51.892384 0.245857 0 222 0
2022-05-19 00:54:08 GMT 51.892456 0.245930 0 239 5
2022-05-19 00:54:07 GMT 51.892467 0.245949 0 244 5
2022-05-19 00:53:57 GMT 51.892525 0.246277 0 292 7
2022-05-19 00:53:56 GMT 51.892513 0.246320 0 286 7
2022-05-19 00:53:55 GMT 51.892502 0.246353 0 284 7
2022-05-19 00:53:54 GMT 51.892490 0.246391 0 281 8
2022-05-19 00:53:52 GMT 51.892467 0.246506 0 275 9
2022-05-19 00:53:49 GMT 51.892456 0.246710 0 275 10
2022-05-19 00:53:39 GMT 51.892399 0.247322 0 300 8
2022-05-19 00:53:37 GMT 51.892372 0.247402 0 306 8
2022-05-19 00:53:35 GMT 51.892330 0.247508 0 309 8
2022-05-19 00:53:34 GMT 51.892319 0.247545 0 309 8
2022-05-19 00:53:31 GMT 51.892250 0.247656 0 312 8
2022-05-19 00:53:27 GMT 51.892147 0.247860 0 312 9
2022-05-19 00:53:26 GMT 51.892082 0.247955 0 312 11
2022-05-19 00:53:24 GMT 51.892082 0.247955 0 312 12
2022-05-19 00:53:22 GMT 51.891998 0.248102 0 312 13
2022-05-19 00:53:21 GMT 51.891968 0.248165 0 312 13
2022-05-19 00:53:19 GMT 51.891827 0.248413 0 312 13
2022-05-19 00:53:15 GMT 51.891731 0.248585 0 315 12
2022-05-19 00:53:13 GMT 51.891628 0.248775 0 329 12
2022-05-19 00:53:08 GMT 51.891449 0.248937 0 2 11
2022-05-19 00:53:03 GMT 51.891197 0.248900 0 33 10
2022-05-19 00:52:57 GMT 51.891014 0.248677 0 42 9
2022-05-19 00:52:53 GMT 51.890888 0.248473 0 33 7
2022-05-19 00:52:47 GMT 51.890755 0.248318 0 11 7
2022-05-19 00:52:43 GMT 51.890617 0.248260 0 351 8
2022-05-19 00:52:37 GMT 51.890430 0.248306 0 331 9
2022-05-19 00:52:33 GMT 51.890282 0.248417 0 317 9
2022-05-19 00:52:27 GMT 51.890110 0.248696 0 312 10
2022-05-19 00:52:18 GMT 51.889824 0.249308 0 286 12
2022-05-19 00:52:16 GMT 51.889812 0.249367 0 286 12
We lost coverage of the aircraft here for a total of 5 minutes
2022-05-19 00:46:57 GMT 51.887566 0.253906 0 309 0
2022-05-19 00:46:53 GMT 51.887558 0.253929 0 309 1
2022-05-19 00:46:36 GMT 51.887474 0.254097 0 309 3
2022-05-19 00:46:29 GMT 51.887451 0.254173 0 315 3
2022-05-19 00:46:23 GMT 51.887417 0.254250 0 320 2
2022-05-19 00:46:21 GMT 51.887398 0.254282 0 323 2
2022-05-19 00:46:16 GMT 51.887375 0.254319 0 323 1
2022-05-19 00:46:05 GMT 51.887367 0.254345 0 323 0
2022-05-19 00:45:55 GMT 51.887417 0.254288 0 320 2
2022-05-19 00:45:44 GMT 51.887486 0.254230 0 326 0
2022-05-19 00:45:41 GMT 51.887501 0.254244 0 331 0
2022-05-19 00:45:38 GMT 51.887524 0.254244 0 334 2
2022-05-19 00:45:28 GMT 51.887592 0.254300 0 357 2
2022-05-19 00:45:18 GMT 51.887684 0.254345 0 8 2
2022-05-19 00:45:16 GMT 51.887684 0.254364 0 11 2
2022-05-19 00:45:02 GMT 51.887775 0.254498 0 33 2
2022-05-19 00:44:56 GMT 51.887821 0.254560 0 33 2
2022-05-19 00:44:42 GMT 51.887913 0.254764 0 53 3
2022-05-19 00:44:36 GMT 51.887951 0.254860 0 53 3
2022-05-19 00:44:16 GMT 51.888081 0.255070 0 42 0
We lost coverage of the aircraft here for a total of 131 minutes
2022-05-18 22:32:51 GMT 51.888008 0.254955 0 42 0 0
2022-05-18 22:32:43 GMT 51.887993 0.254950 0 42 2 0
2022-05-18 22:32:39 GMT 51.887970 0.254894 0 42 3 0
2022-05-18 22:32:24 GMT 51.887833 0.254688 0 42 6 0
2022-05-18 22:32:16 GMT 51.887707 0.254517 0 42 6 0
2022-05-18 22:32:12 GMT 51.887627 0.254411 0 50 6 0
2022-05-18 22:32:02 GMT 51.887478 0.254077 0 126 6 0
2022-05-18 22:31:54 GMT 51.887661 0.253725 0 132 10 0
2022-05-18 22:31:51 GMT 51.887753 0.253582 0 132 10 0
2022-05-18 22:31:42 GMT 51.888065 0.253010 0 129 13 0
2022-05-18 22:31:40 GMT 51.888142 0.252871 0 129 13 0
2022-05-18 22:31:38 GMT 51.888199 0.252760 0 132 13 0
2022-05-18 22:31:32 GMT 51.888451 0.252323 0 135 14 0
2022-05-18 22:31:27 GMT 51.888683 0.251942 0 135 15 0
2022-05-18 22:31:25 GMT 51.888813 0.251732 0 132 15 0
2022-05-18 22:31:23 GMT 51.888882 0.251617 0 132 15 0
2022-05-18 22:31:21 GMT 51.888954 0.251498 0 132 16 0
2022-05-18 22:31:19 GMT 51.889034 0.251349 0 132 15 0
2022-05-18 22:31:17 GMT 51.889252 0.250978 0 132 15 0
2022-05-18 22:31:15 GMT 51.889332 0.250811 0 132 15 0
2022-05-18 22:31:13 GMT 51.889332 0.250811 0 132 15 0
2022-05-18 22:31:11 GMT 51.889427 0.250664 0 129 14 0
2022-05-18 22:31:10 GMT 51.889465 0.250587 0 129 14 0
2022-05-18 22:31:08 GMT 51.889595 0.250329 0 118 14 0
2022-05-18 22:31:07 GMT 51.889595 0.250329 0 118 14 0
2022-05-18 22:31:04 GMT 51.889671 0.250092 0 106 13 0
2022-05-18 22:31:02 GMT 51.889709 0.249920 0 104 12 0
2022-05-18 22:30:58 GMT 51.889755 0.249577 0 106 11 0
2022-05-18 22:30:57 GMT 51.889767 0.249494 0 109 10 0
2022-05-18 22:30:56 GMT 51.889778 0.249424 0 109 10 0
2022-05-18 22:30:55 GMT 51.889824 0.249233 0 118 9 0
2022-05-18 22:30:53 GMT 51.889824 0.249233 0 118 9 0
2022-05-18 22:30:52 GMT 51.889858 0.249119 0 123 9 0
2022-05-18 22:30:50 GMT 51.889870 0.249062 0 126 9 0
2022-05-18 22:30:49 GMT 51.889915 0.248955 0 132 10 0
2022-05-18 22:30:42 GMT 51.890198 0.248508 0 123 12 0
2022-05-18 22:30:40 GMT 51.890198 0.248508 0 118 12 0
2022-05-18 22:30:39 GMT 51.890224 0.248436 0 112 12 0
2022-05-18 22:30:37 GMT 51.890278 0.248280 0 101 11 0
2022-05-18 22:30:36 GMT 51.890301 0.248165 0 92 11 0
2022-05-18 22:30:34 GMT 51.890316 0.248046 0 84 10 0
2022-05-18 22:30:32 GMT 51.890324 0.247974 0 78 10 0
2022-05-18 22:30:31 GMT 51.890316 0.247823 0 64 10 0
2022-05-18 22:30:28 GMT 51.890289 0.247688 0 59 10 0
2022-05-18 22:30:27 GMT 51.890270 0.247619 0 50 10 0
2022-05-18 22:30:26 GMT 51.890244 0.247555 0 47 10 0
2022-05-18 22:30:24 GMT 51.890190 0.247452 0 45 11 0
2022-05-18 22:30:23 GMT 51.890163 0.247402 0 45 12 0
2022-05-18 22:30:22 GMT 51.890087 0.247285 0 42 14 0
2022-05-18 22:30:20 GMT 51.890041 0.247229 0 42 14 0
2022-05-18 22:30:19 GMT 51.889996 0.247155 0 42 15 0
2022-05-18 22:30:17 GMT 51.889881 0.246983 0 42 16 0
2022-05-18 22:30:15 GMT 51.889641 0.246617 0 42 15 0
2022-05-18 22:30:12 GMT 51.889641 0.246617 0 42 15 0
2022-05-18 22:30:11 GMT 51.889534 0.246468 0 42 15 0
2022-05-18 22:30:09 GMT 51.889481 0.246376 0 42 15 0
2022-05-18 22:30:07 GMT 51.889381 0.246239 0 42 15 0
2022-05-18 22:30:06 GMT 51.889332 0.246135 0 42 15 0
2022-05-18 22:30:05 GMT 51.889172 0.245912 0 42 15 0
2022-05-18 22:30:03 GMT 51.889172 0.245912 0 42 15 0
2022-05-18 22:30:02 GMT 51.889126 0.245838 0 42 15 0
2022-05-18 22:30:00 GMT 51.889034 0.245708 0 42 15 0
2022-05-18 22:29:59 GMT 51.888977 0.245634 0 42 15 0
2022-05-18 22:29:58 GMT 51.888882 0.245495 0 42 15 0
2022-05-18 22:29:56 GMT 51.888840 0.245411 0 42 14 0
2022-05-18 22:29:51 GMT 51.888588 0.245040 0 42 14 0
2022-05-18 22:29:49 GMT 51.888531 0.244947 0 42 14 0
2022-05-18 22:29:48 GMT 51.888462 0.244854 0 42 14 0
2022-05-18 22:29:47 GMT 51.888416 0.244780 0 42 14 0
2022-05-18 22:29:44 GMT 51.888279 0.244576 0 42 14 0
2022-05-18 22:29:42 GMT 51.888195 0.244446 0 42 13 0
2022-05-18 22:29:40 GMT 51.888062 0.244242 0 42 13 0
2022-05-18 22:29:38 GMT 51.888008 0.244160 0 42 13 0
2022-05-18 22:29:37 GMT 51.887970 0.244112 0 42 13 0
2022-05-18 22:29:35 GMT 51.887871 0.243950 0 42 13 0
2022-05-18 22:29:34 GMT 51.887833 0.243893 0 42 13 0
2022-05-18 22:29:33 GMT 51.887787 0.243833 0 42 13 0
2022-05-18 22:29:31 GMT 51.887707 0.243722 0 42 14 0
2022-05-18 22:29:30 GMT 51.887661 0.243645 0 42 15 0
2022-05-18 22:29:28 GMT 51.887558 0.243499 0 42 17 0
2022-05-18 22:29:27 GMT 51.887497 0.243416 0 42 18 0
2022-05-18 22:29:25 GMT 51.887363 0.243202 0 42 20 0
2022-05-18 22:29:24 GMT 51.887306 0.243110 0 45 20 0
2022-05-18 22:29:22 GMT 51.887157 0.242901 0 42 21 0
2022-05-18 22:29:20 GMT 51.887089 0.242786 0 42 21 0
2022-05-18 22:29:19 GMT 51.886906 0.242497 0 42 21 0
2022-05-18 22:29:17 GMT 51.886826 0.242386 0 42 21 0
2022-05-18 22:29:15 GMT 51.886681 0.242176 0 42 21 0
2022-05-18 22:29:14 GMT 51.886623 0.242081 0 42 21 0
2022-05-18 22:29:13 GMT 51.886551 0.241978 0 42 21 0
2022-05-18 22:29:11 GMT 51.886402 0.241756 0 42 20 0
2022-05-18 22:29:10 GMT 51.886368 0.241699 0 42 20 0
2022-05-18 22:29:08 GMT 51.886215 0.241489 0 42 20 0
2022-05-18 22:29:07 GMT 51.886158 0.241394 0 42 20 0
2022-05-18 22:29:05 GMT 51.886021 0.241184 0 42 20 0
2022-05-18 22:29:03 GMT 51.885830 0.240901 0 42 19 0
2022-05-18 22:29:00 GMT 51.885452 0.240326 0 42 18 0
2022-05-18 22:28:56 GMT 51.885368 0.240192 0 45 18 0
2022-05-18 22:28:53 GMT 51.885246 0.240010 0 45 18 0
2022-05-18 22:28:51 GMT 51.885132 0.239843 0 45 17 0
2022-05-18 22:28:50 GMT 51.885075 0.239751 0 42 17 0
2022-05-18 22:28:49 GMT 51.885017 0.239658 0 42 17 0
2022-05-18 22:28:47 GMT 51.884914 0.239487 0 45 16 0
2022-05-18 22:28:46 GMT 51.884880 0.239454 0 45 16 0
2022-05-18 22:28:45 GMT 51.884808 0.239334 0 42 16 0
2022-05-18 22:28:43 GMT 51.884720 0.239212 0 42 16 0
2022-05-18 22:28:42 GMT 51.884659 0.239105 0 42 16 0
2022-05-18 22:28:40 GMT 51.884548 0.238953 0 42 15 0
2022-05-18 22:28:39 GMT 51.884457 0.238804 0 42 15 0
2022-05-18 22:28:37 GMT 51.884399 0.238730 0 42 15 0
2022-05-18 22:28:36 GMT 51.884354 0.238674 0 42 14 0
2022-05-18 22:28:35 GMT 51.884262 0.238514 0 42 14 0
2022-05-18 22:28:33 GMT 51.884205 0.238452 0 42 14 0
2022-05-18 22:28:32 GMT 51.884068 0.238229 0 42 14 0
2022-05-18 22:28:30 GMT 51.884068 0.238229 0 42 14 0
2022-05-18 22:28:29 GMT 51.883995 0.238132 0 42 15 0
2022-05-18 22:28:27 GMT 51.883923 0.238037 0 42 15 0
2022-05-18 22:28:26 GMT 51.883884 0.237969 0 42 15 0
2022-05-18 22:28:24 GMT 51.883770 0.237821 0 42 15 0
2022-05-18 22:28:23 GMT 51.883667 0.237656 0 42 16 0
2022-05-18 22:28:21 GMT 51.883621 0.237579 0 42 16 0
2022-05-18 22:28:20 GMT 51.883564 0.237505 0 42 17 0
2022-05-18 22:28:18 GMT 51.883469 0.237370 0 42 17 0
2022-05-18 22:28:17 GMT 51.883392 0.237245 0 42 17 0
2022-05-18 22:28:15 GMT 51.883293 0.237103 0 45 17 0
2022-05-18 22:28:14 GMT 51.883163 0.236893 0 42 18 0
2022-05-18 22:28:12 GMT 51.883110 0.236797 0 42 18 0
2022-05-18 22:28:11 GMT 51.883049 0.236726 0 42 18 0
2022-05-18 22:28:09 GMT 51.882946 0.236568 0 42 17 0
2022-05-18 22:28:08 GMT 51.882877 0.236466 0 42 17 0
2022-05-18 22:28:07 GMT 51.882816 0.236378 0 42 17 0
2022-05-18 22:28:06 GMT 51.882759 0.236301 0 42 17 0
2022-05-18 22:28:04 GMT 51.882648 0.236113 0 42 17 0
2022-05-18 22:28:02 GMT 51.882534 0.235946 0 42 16 0
2022-05-18 22:28:01 GMT 51.882500 0.235909 0 42 16 0
2022-05-18 22:28:00 GMT 51.882431 0.235798 0 42 16 0
2022-05-18 22:27:59 GMT 51.882374 0.235705 0 42 16 0
2022-05-18 22:27:57 GMT 51.882294 0.235594 0 42 15 0
2022-05-18 22:27:56 GMT 51.882236 0.235501 0 42 15 0
2022-05-18 22:27:53 GMT 51.882088 0.235278 0 45 15 0
2022-05-18 22:27:52 GMT 51.882030 0.235185 0 42 15 0
2022-05-18 22:27:50 GMT 51.881924 0.235023 0 42 15 0
2022-05-18 22:27:49 GMT 51.881824 0.234888 0 42 14 0
2022-05-18 22:27:47 GMT 51.881783 0.234814 0 42 14 0
2022-05-18 22:27:45 GMT 51.881676 0.234666 0 42 15 0
2022-05-18 22:27:43 GMT 51.881596 0.234547 0 42 15 0
2022-05-18 22:27:40 GMT 51.881447 0.234313 0 42 14 0
2022-05-18 22:27:38 GMT 51.881351 0.234184 0 42 14 0
2022-05-18 22:27:37 GMT 51.881306 0.234108 0 42 14 0
2022-05-18 22:27:36 GMT 51.881226 0.233974 0 42 13 0
2022-05-18 22:27:33 GMT 51.881119 0.233841 0 42 14 0
2022-05-18 22:27:32 GMT 51.881081 0.233775 0 42 14 0
2022-05-18 22:27:30 GMT 51.880993 0.233650 0 42 14 0
2022-05-18 22:27:29 GMT 51.880943 0.233571 0 42 14 0
2022-05-18 22:27:28 GMT 51.880909 0.233515 0 42 14 0
2022-05-18 22:27:27 GMT 51.880749 0.233269 0 42 15 0
2022-05-18 22:27:25 GMT 51.880749 0.233269 0 42 15 0
2022-05-18 22:27:24 GMT 51.880699 0.233212 0 42 15 0
2022-05-18 22:27:21 GMT 51.880596 0.233059 0 42 15 0
2022-05-18 22:27:20 GMT 51.880444 0.232830 0 42 15 0
2022-05-18 22:27:18 GMT 51.880421 0.232792 0 42 15 0
2022-05-18 22:27:17 GMT 51.880363 0.232716 0 42 15 0
2022-05-18 22:27:14 GMT 51.880268 0.232550 0 42 15 0
2022-05-18 22:27:13 GMT 51.880165 0.232402 0 42 14 0
2022-05-18 22:27:11 GMT 51.880108 0.232315 0 42 14 0
2022-05-18 22:27:09 GMT 51.880005 0.232160 0 42 14 0
2022-05-18 22:27:08 GMT 51.879902 0.231993 0 42 14 0
2022-05-18 22:27:06 GMT 51.879902 0.231993 0 42 13 0
2022-05-18 22:27:05 GMT 51.879765 0.231789 0 42 14 0
2022-05-18 22:27:03 GMT 51.879765 0.231789 0 42 14 0
2022-05-18 22:27:02 GMT 51.879711 0.231724 0 42 14 0
2022-05-18 22:26:59 GMT 51.879570 0.231511 0 42 13 0
2022-05-18 22:26:58 GMT 51.879478 0.231380 0 42 13 0
2022-05-18 22:26:55 GMT 51.879360 0.231209 0 42 12 0
2022-05-18 22:26:53 GMT 51.879318 0.231140 0 42 12 0
2022-05-18 22:26:52 GMT 51.879280 0.231075 0 42 12 0
2022-05-18 22:26:50 GMT 51.879192 0.230954 0 45 12 0
2022-05-18 22:26:49 GMT 51.879158 0.230898 0 45 12 0
2022-05-18 22:26:47 GMT 51.879082 0.230789 0 45 11 0
2022-05-18 22:26:46 GMT 51.879055 0.230731 0 42 11 0
2022-05-18 22:26:44 GMT 51.878979 0.230618 0 42 11 0
2022-05-18 22:26:43 GMT 51.878941 0.230564 0 42 11 0
2022-05-18 22:26:40 GMT 51.878838 0.230416 0 42 10 0
2022-05-18 22:26:39 GMT 51.878803 0.230360 0 42 10 0
2022-05-18 22:26:37 GMT 51.878735 0.230267 0 42 10 0
2022-05-18 22:26:36 GMT 51.878712 0.230217 0 42 10 0
2022-05-18 22:26:35 GMT 51.878674 0.230179 0 42 10 0
2022-05-18 22:26:32 GMT 51.878582 0.230045 0 42 9 0
2022-05-18 22:26:30 GMT 51.878506 0.229933 0 45 9 0
2022-05-18 22:26:28 GMT 51.878460 0.229859 0 47 9 0
2022-05-18 22:26:27 GMT 51.878403 0.229766 0 50 8 0
2022-05-18 22:26:24 GMT 51.878361 0.229702 0 50 8 0
2022-05-18 22:26:23 GMT 51.878338 0.229664 0 53 8 0
2022-05-18 22:26:22 GMT 51.878311 0.229618 0 56 8 0
2022-05-18 22:26:20 GMT 51.878265 0.229525 0 64 8 0
2022-05-18 22:26:19 GMT 51.878242 0.229492 0 67 8 0
2022-05-18 22:26:18 GMT 51.878197 0.229340 0 81 8 0
2022-05-18 22:26:16 GMT 51.878197 0.229340 0 84 8 0
2022-05-18 22:26:13 GMT 51.878174 0.229173 0 101 8 0
2022-05-18 22:26:11 GMT 51.878162 0.229073 0 112 9 0
2022-05-18 22:26:10 GMT 51.878174 0.228996 0 120 9 0
2022-05-18 22:26:09 GMT 51.878197 0.228882 0 132 9 0
2022-05-18 22:26:07 GMT 51.878220 0.228820 0 137 9 0
2022-05-18 22:26:06 GMT 51.878277 0.228727 0 149 9 0
2022-05-18 22:26:04 GMT 51.878304 0.228691 0 151 9 0
2022-05-18 22:26:03 GMT 51.878334 0.228653 0 157 10 0
2022-05-18 22:26:02 GMT 51.878426 0.228560 0 168 10 0
2022-05-18 22:26:00 GMT 51.878468 0.228539 0 174 11 0
2022-05-18 22:25:59 GMT 51.878513 0.228519 0 180 11 0
2022-05-18 22:25:56 GMT 51.878639 0.228500 0 191 12 0
2022-05-18 22:25:55 GMT 51.878803 0.228558 0 196 12 0
2022-05-18 22:25:53 GMT 51.878803 0.228558 0 196 12 0
2022-05-18 22:25:52 GMT 51.878929 0.228616 0 196 12 0
2022-05-18 22:25:50 GMT 51.878956 0.228634 0 196 12 0
2022-05-18 22:25:48 GMT 51.879246 0.228767 0 196 11 0
2022-05-18 22:25:44 GMT 51.879292 0.228806 0 196 11 0
2022-05-18 22:25:42 GMT 51.879330 0.228820 0 196 12 0
2022-05-18 22:25:41 GMT 51.879410 0.228857 0 196 12 0
2022-05-18 22:25:38 GMT 51.879570 0.228931 0 196 13 0
2022-05-18 22:25:37 GMT 51.879627 0.228977 0 196 13 0
2022-05-18 22:25:36 GMT 51.879696 0.229006 0 196 14 0
2022-05-18 22:25:35 GMT 51.879810 0.229061 0 196 15 0
2022-05-18 22:25:33 GMT 51.879875 0.229092 0 196 15 0
2022-05-18 22:25:32 GMT 51.880028 0.229173 0 199 17 0
2022-05-18 22:25:30 GMT 51.880096 0.229206 0 199 17 0
2022-05-18 22:25:29 GMT 51.880245 0.229282 0 196 18 0
2022-05-18 22:25:27 GMT 51.880318 0.229321 0 196 18 0
2022-05-18 22:25:21 GMT 51.880886 0.229626 0 199 25 0
2022-05-18 22:25:18 GMT 51.881241 0.229859 0 205 29 0
2022-05-18 22:25:15 GMT 51.882305 0.230827 0 216 31 0
2022-05-18 22:25:08 GMT 51.882305 0.230827 0 216 31 0
2022-05-18 22:25:06 GMT 51.882584 0.231209 0 222 34 0
2022-05-18 22:25:05 GMT 51.882706 0.231381 0 222 37 0
2022-05-18 22:25:02 GMT 51.883064 0.231895 0 222 41 0
2022-05-18 22:25:01 GMT 51.883995 0.233307 0 222 45 0
2022-05-18 22:24:56 GMT 51.883995 0.233307 0 222 48 0
2022-05-18 22:24:54 GMT 51.884342 0.233831 0 222 52 0
2022-05-18 22:24:48 GMT 51.885437 0.235481 0 222 58 0
2022-05-18 22:24:47 GMT 51.885822 0.236053 0 222 61 0
2022-05-18 22:24:45 GMT 51.886005 0.236301 0 222 65 0
2022-05-18 22:24:44 GMT 51.886230 0.236633 0 222 69 0
2022-05-18 22:24:41 GMT 51.886986 0.237746 0 222 82 0
2022-05-18 22:24:39 GMT 51.887520 0.238552 0 222 90 0
2022-05-18 22:24:38 GMT 51.887798 0.238971 0 222 92 0
2022-05-18 22:24:35 GMT 51.888577 0.240159 225 222 100 0
2022-05-18 22:24:34 GMT 51.888847 0.240631 225 224 103 -192
2022-05-18 22:24:33 GMT 51.889404 0.241394 225 224 103 -192
2022-05-18 22:24:25 GMT 51.892899 0.246658 375 224 131 -448
2022-05-18 22:24:20 GMT 51.894791 0.249481 375 223 130 -640
2022-05-18 22:24:17 GMT 51.896393 0.251846 375 223 130 -640
2022-05-18 22:24:16 GMT 51.896805 0.252533 375 223 130 -640
2022-05-18 22:24:15 GMT 51.898155 0.254569 400 223 130 -640
2022-05-18 22:24:13 GMT 51.898155 0.254569 400 223 130 -768
2022-05-18 22:24:12 GMT 51.898624 0.255197 425 223 130 -768
2022-05-18 22:24:10 GMT 51.899788 0.256923 450 223 130 -704
2022-05-18 22:24:09 GMT 51.899788 0.256923 450 223 130 -704
2022-05-18 22:24:08 GMT 51.900253 0.257708 475 223 130 -640
2022-05-18 22:24:07 GMT 51.901199 0.259094 500 224 130 -704
2022-05-18 22:24:05 GMT 51.901703 0.259857 500 224 130 -704
2022-05-18 22:24:04 GMT 51.903046 0.261867 550 224 130 -704
2022-05-18 22:24:02 GMT 51.903419 0.262495 550 224 130 -704
2022-05-18 22:24:00 GMT 51.903946 0.263214 575 224 130 -640
2022-05-18 22:23:58 GMT 51.905651 0.265791 600 224 130 -640
2022-05-18 22:23:55 GMT 51.905651 0.265791 600 224 130 -640
2022-05-18 22:23:54 GMT 51.906509 0.267105 625 224 130 -640
2022-05-18 22:23:52 GMT 51.906876 0.267715 650 224 130 -640
2022-05-18 22:23:50 GMT 51.907791 0.269089 650 224 130 -640
2022-05-18 22:23:48 GMT 51.908443 0.270028 675 224 129 -704
2022-05-18 22:23:47 GMT 51.908817 0.270656 700 224 129 -640
2022-05-18 22:23:46 GMT 51.909515 0.271755 700 224 128 -512
2022-05-18 22:23:45 GMT 51.909935 0.272382 725 224 127 -512
2022-05-18 22:23:44 GMT 51.910355 0.273010 725 223 126 -576
2022-05-18 22:23:41 GMT 51.911407 0.274582 750 223 125 -640
2022-05-18 22:23:40 GMT 51.912262 0.275835 750 223 125 -576
2022-05-18 22:23:39 GMT 51.912506 0.276184 775 223 124 -640
2022-05-18 22:23:37 GMT 51.913147 0.277100 800 223 124 -576
2022-05-18 22:23:36 GMT 51.913788 0.278091 800 223 124 -576
2022-05-18 22:23:35 GMT 51.914219 0.278739 825 223 124 -576
2022-05-18 22:23:33 GMT 51.915054 0.279994 825 223 123 -640
2022-05-18 22:23:32 GMT 51.915474 0.280622 850 223 123 -576
2022-05-18 22:23:30 GMT 51.916351 0.281906 875 223 122 -576
2022-05-18 22:23:29 GMT 51.916763 0.282516 875 223 122 -576
2022-05-18 22:23:28 GMT 51.917336 0.283290 900 223 122 -640
2022-05-18 22:23:27 GMT 51.918182 0.284576 900 223 122 -640
2022-05-18 22:23:24 GMT 51.919014 0.285801 925 223 122 -640
2022-05-18 22:23:23 GMT 51.919384 0.286351 950 223 122 -640
2022-05-18 22:23:22 GMT 51.919785 0.287018 950 223 122 -640
2022-05-18 22:23:21 GMT 51.920643 0.288313 975 224 121 -576
2022-05-18 22:23:19 GMT 51.921066 0.288925 975 224 121 -576
2022-05-18 22:23:17 GMT 51.921715 0.289882 1,000 224 122 -576
2022-05-18 22:23:16 GMT 51.922165 0.290527 1,000 224 122 -576
2022-05-18 22:23:14 GMT 51.922989 0.291824 1,025 224 122 -640
2022-05-18 22:23:12 GMT 51.923904 0.293198 1,050 224 122 -640
2022-05-18 22:23:10 GMT 51.924820 0.294571 1,075 224 123 -704
2022-05-18 22:23:09 GMT 51.925049 0.294952 1,075 224 123 -704
2022-05-18 22:23:08 GMT 51.925484 0.295611 1,100 224 122 -704
2022-05-18 22:23:06 GMT 51.926319 0.296866 1,125 224 122 -768
2022-05-18 22:23:05 GMT 51.926743 0.297470 1,125 224 122 -704
2022-05-18 22:23:04 GMT 51.927567 0.298767 1,150 224 122 -704
2022-05-18 22:23:02 GMT 51.927998 0.299377 1,150 224 122 -704
2022-05-18 22:23:01 GMT 51.928837 0.300633 1,175 224 122 -640
2022-05-18 22:22:59 GMT 51.929214 0.301285 1,200 224 122 -640
2022-05-18 22:22:58 GMT 51.930000 0.302516 1,225 223 122 -704
2022-05-18 22:22:56 GMT 51.930557 0.303301 1,225 223 122 -704
2022-05-18 22:22:55 GMT 51.931675 0.304949 1,250 223 122 -640
2022-05-18 22:22:52 GMT 51.932281 0.305891 1,275 223 122 -640
2022-05-18 22:22:49 GMT 51.933537 0.307774 1,300 223 122 -640
2022-05-18 22:22:47 GMT 51.934204 0.308685 1,325 223 121 -640
2022-05-18 22:22:46 GMT 51.934795 0.309579 1,350 223 121 -640
2022-05-18 22:22:45 GMT 51.935493 0.310678 1,350 224 121 -640
2022-05-18 22:22:43 GMT 51.935909 0.311227 1,375 224 121 -640
2022-05-18 22:22:42 GMT 51.936768 0.312500 1,400 224 121 -576
2022-05-18 22:22:40 GMT 51.937168 0.313189 1,400 224 121 -640
2022-05-18 22:22:39 GMT 51.938332 0.314915 1,425 224 121 -640
2022-05-18 22:22:37 GMT 51.938332 0.314915 1,450 224 121 -640
2022-05-18 22:22:35 GMT 51.939331 0.316467 1,450 224 121 -640
2022-05-18 22:22:33 GMT 51.940155 0.317688 1,475 224 121 -640
2022-05-18 22:22:31 GMT 51.940891 0.318760 1,500 224 122 -640
2022-05-18 22:22:30 GMT 51.941666 0.319977 1,525 224 122 -576
2022-05-18 22:22:28 GMT 51.942287 0.320879 1,525 224 121 -576
2022-05-18 22:22:27 GMT 51.942616 0.321429 1,550 224 121 -576
2022-05-18 22:22:25 GMT 51.943451 0.322647 1,550 224 121 -512
2022-05-18 22:22:23 GMT 51.944275 0.323944 1,575 224 121 -512
2022-05-18 22:22:21 GMT 51.945053 0.325165 1,600 224 121 -448
2022-05-18 22:22:19 GMT 51.945732 0.326215 1,625 223 121 -448
2022-05-18 22:22:17 GMT 51.946564 0.327377 1,625 223 121 -448
2022-05-18 22:22:16 GMT 51.946976 0.327988 1,625 223 121 -448
2022-05-18 22:22:15 GMT 51.947525 0.328827 1,650 223 121 -448
2022-05-18 22:22:14 GMT 51.947891 0.329361 1,650 223 120 -448
2022-05-18 22:22:13 GMT 51.949272 0.331473 1,675 223 120 -448
2022-05-18 22:22:11 GMT 51.949272 0.331473 1,675 223 120 -448
2022-05-18 22:22:10 GMT 51.949924 0.332415 1,700 223 120 -448
2022-05-18 22:22:08 GMT 51.950363 0.333023 1,700 223 120 -448
2022-05-18 22:22:07 GMT 51.951599 0.334848 1,725 223 121 -576
2022-05-18 22:22:05 GMT 51.951599 0.334848 1,725 223 121 -576
2022-05-18 22:22:03 GMT 51.952438 0.336103 1,750 223 121 -704
2022-05-18 22:22:02 GMT 51.952904 0.336809 1,775 223 121 -704
2022-05-18 22:22:00 GMT 51.953739 0.338065 1,800 223 121 -704
2022-05-18 22:21:58 GMT 51.954437 0.339085 1,825 223 121 -640
2022-05-18 22:21:56 GMT 51.955719 0.341034 1,850 223 123 -576
2022-05-18 22:21:54 GMT 51.956161 0.341675 1,850 223 123 -576
2022-05-18 22:21:52 GMT 51.957230 0.343246 1,875 223 125 -704
2022-05-18 22:21:51 GMT 51.957458 0.343628 1,875 223 125 -640
2022-05-18 22:21:50 GMT 51.958862 0.345755 1,925 223 126 -640
2022-05-18 22:21:48 GMT 51.958862 0.345755 1,925 224 127 -704
2022-05-18 22:21:47 GMT 51.959278 0.346383 1,925 224 128 -768
2022-05-18 22:21:45 GMT 51.960163 0.347717 1,950 224 130 -768
2022-05-18 22:21:44 GMT 51.960583 0.348345 2,000 224 131 -768
2022-05-18 22:21:42 GMT 51.961670 0.350037 2,000 224 133 -768
2022-05-18 22:21:40 GMT 51.962311 0.350952 2,025 224 134 -768
2022-05-18 22:21:38 GMT 51.963272 0.352402 2,025 224 136 -768
2022-05-18 22:21:37 GMT 51.963776 0.353165 2,050 224 137 -768
2022-05-18 22:21:36 GMT 51.964214 0.353838 2,050 224 137 -768
2022-05-18 22:21:34 GMT 51.965103 0.355225 2,075 224 138 -768
2022-05-18 22:21:32 GMT 51.966030 0.356663 2,100 224 139 -768
2022-05-18 22:21:31 GMT 51.966496 0.357370 2,125 224 141 -704
2022-05-18 22:21:29 GMT 51.967472 0.358861 2,125 224 141 -704
2022-05-18 22:21:27 GMT 51.968445 0.360336 2,150 224 142 -704
2022-05-18 22:21:26 GMT 51.968918 0.361058 2,175 224 142 -704
2022-05-18 22:21:25 GMT 51.970322 0.363235 2,200 224 143 -704
2022-05-18 22:21:23 GMT 51.970322 0.363235 2,200 223 142 -704
2022-05-18 22:21:21 GMT 51.971329 0.364685 2,225 223 142 -704
2022-05-18 22:21:20 GMT 51.971741 0.365295 2,250 223 142 -704
2022-05-18 22:21:19 GMT 51.972733 0.366786 2,275 223 142 -640
2022-05-18 22:21:17 GMT 51.973434 0.367889 2,275 223 142 -640
2022-05-18 22:21:15 GMT 51.973900 0.368591 2,300 223 142 -640
2022-05-18 22:21:14 GMT 51.974876 0.370004 2,325 223 142 -512
2022-05-18 22:21:11 GMT 51.977142 0.373459 2,375 224 144 -448
2022-05-18 22:21:09 GMT 51.977142 0.373459 2,375 224 144 -448
2022-05-18 22:21:06 GMT 51.978378 0.375366 2,375 224 144 -448
2022-05-18 22:21:05 GMT 51.979439 0.376910 2,400 224 145 -448
2022-05-18 22:21:02 GMT 51.980530 0.378571 2,400 224 145 -448
2022-05-18 22:21:01 GMT 51.981068 0.379499 2,400 224 145 -384
2022-05-18 22:20:58 GMT 51.982555 0.381696 2,425 224 145 -384
2022-05-18 22:20:56 GMT 51.984009 0.384064 2,450 225 146 -384
2022-05-18 22:20:55 GMT 51.984009 0.384064 2,450 225 146 -384
2022-05-18 22:20:54 GMT 51.985474 0.386353 2,475 225 147 -384
2022-05-18 22:20:52 GMT 51.985474 0.386353 2,475 225 147 -384
2022-05-18 22:20:50 GMT 51.986435 0.387878 2,475 225 147 -384
2022-05-18 22:20:49 GMT 51.986839 0.388524 2,475 225 147 -384
2022-05-18 22:20:48 GMT 51.987305 0.389230 2,500 225 148 -384
2022-05-18 22:20:46 GMT 51.988037 0.390472 2,500 225 148 -384
2022-05-18 22:20:45 GMT 51.988609 0.391349 2,500 226 147 -384
2022-05-18 22:20:43 GMT 51.989594 0.392990 2,525 226 148 -384
2022-05-18 22:20:42 GMT 51.990051 0.393753 2,525 226 148 -384
2022-05-18 22:20:40 GMT 51.991013 0.395355 2,550 227 148 -384
2022-05-18 22:20:39 GMT 51.991516 0.396118 2,550 227 149 -320
2022-05-18 22:20:37 GMT 51.992706 0.398176 2,575 228 149 -192
2022-05-18 22:20:35 GMT 51.993713 0.399933 2,575 228 149 -192
2022-05-18 22:20:34 GMT 51.994938 0.402021 2,575 228 149 -256
2022-05-18 22:20:32 GMT 51.994938 0.402021 2,575 228 150 -320
2022-05-18 22:20:31 GMT 51.995544 0.403137 2,575 228 151 -320
2022-05-18 22:20:28 GMT 51.996708 0.405239 2,600 229 152 -320
2022-05-18 22:20:27 GMT 51.998337 0.408173 2,600 229 155 -320
2022-05-18 22:20:25 GMT 51.998337 0.408173 2,625 230 157 -320
2022-05-18 22:20:24 GMT 51.999363 0.410104 2,625 231 159 -320
2022-05-18 22:20:20 GMT 52.000580 0.412521 2,650 234 164 -320
2022-05-18 22:20:19 GMT 52.001038 0.413400 2,650 235 166 -384
2022-05-18 22:20:17 GMT 52.002045 0.415802 2,650 239 170 -384
2022-05-18 22:20:15 GMT 52.002853 0.417951 2,675 241 173 -384
2022-05-18 22:20:13 GMT 52.003418 0.419769 2,700 244 174 -448
2022-05-18 22:20:12 GMT 52.004333 0.423660 2,725 255 183 -896
2022-05-18 22:20:10 GMT 52.004333 0.423660 2,725 257 186 -896
2022-05-18 22:20:08 GMT 52.004761 0.426270 2,775 260 187 -896
2022-05-18 22:20:06 GMT 52.005020 0.428848 2,800 262 189 -896
2022-05-18 22:20:05 GMT 52.005157 0.430984 2,825 264 190 -832
2022-05-18 22:20:03 GMT 52.005322 0.433568 2,850 265 190 -896
2022-05-18 22:20:02 GMT 52.005508 0.436628 2,875 265 191 -896
2022-05-18 22:20:00 GMT 52.005600 0.438041 2,875 265 191 -896
2022-05-18 22:19:59 GMT 52.005833 0.442278 2,925 265 192 -896
2022-05-18 22:19:57 GMT 52.005833 0.442278 2,925 266 193 -1024
2022-05-18 22:19:56 GMT 52.005890 0.443802 2,950 266 193 -1024
2022-05-18 22:19:53 GMT 52.006119 0.448303 3,000 266 193 -1280
2022-05-18 22:19:52 GMT 52.006210 0.450592 3,075 268 194 -1728
2022-05-18 22:19:50 GMT 52.006252 0.452244 3,075 268 194 -1728
2022-05-18 22:19:49 GMT 52.006302 0.453796 3,100 269 194 -1728
2022-05-18 22:19:47 GMT 52.006348 0.456848 3,175 272 195 -1792
2022-05-18 22:19:46 GMT 52.006348 0.458298 3,225 273 195 -1792
2022-05-18 22:19:45 GMT 52.006252 0.461190 3,250 275 196 -1728
2022-05-18 22:19:43 GMT 52.006157 0.462760 3,275 277 197 -1664
2022-05-18 22:19:42 GMT 52.005844 0.465927 3,325 281 199 -1472
2022-05-18 22:19:39 GMT 52.005249 0.469742 3,400 291 205 -1344
2022-05-18 22:19:37 GMT 52.004929 0.471344 3,425 293 207 -1408
2022-05-18 22:19:35 GMT 52.004204 0.474139 3,475 298 210 -1536
2022-05-18 22:19:34 GMT 52.003784 0.475551 3,500 301 211 -1664
2022-05-18 22:19:33 GMT 52.003098 0.477524 3,525 303 213 -1664
2022-05-18 22:19:32 GMT 52.001457 0.481515 3,600 307 216 -1536
2022-05-18 22:19:30 GMT 52.001457 0.481515 3,600 309 217 -1408
2022-05-18 22:19:28 GMT 52.000168 0.484085 3,650 313 220 -1280
2022-05-18 22:19:26 GMT 51.999481 0.485306 3,675 315 222 -1216
2022-05-18 22:19:25 GMT 51.998795 0.486526 3,675 316 223 -1088
2022-05-18 22:19:24 GMT 51.997375 0.488739 3,725 319 225 -960
2022-05-18 22:19:22 GMT 51.996597 0.489807 3,750 320 226 -896
2022-05-18 22:19:21 GMT 51.995728 0.491028 3,775 320 227 -832
2022-05-18 22:19:20 GMT 51.994080 0.493240 3,775 321 230 -768
2022-05-18 22:19:18 GMT 51.993217 0.494385 3,800 321 230 -768
2022-05-18 22:19:17 GMT 51.991589 0.496661 3,825 321 232 -704
2022-05-18 22:19:15 GMT 51.990845 0.497681 3,825 321 233 -704
2022-05-18 22:19:14 GMT 51.988312 0.501099 3,850 321 235 -704
2022-05-18 22:19:12 GMT 51.988312 0.501099 3,875 321 235 -704
2022-05-18 22:19:11 GMT 51.987579 0.502090 3,875 321 237 -704
2022-05-18 22:19:09 GMT 51.985863 0.504429 3,900 321 238 -704
2022-05-18 22:19:08 GMT 51.984650 0.505999 3,925 321 239 -704
2022-05-18 22:19:06 GMT 51.983002 0.508270 3,950 320 241 -768
2022-05-18 22:19:05 GMT 51.982132 0.509415 3,950 321 242 -768
2022-05-18 22:19:03 GMT 51.980740 0.511414 3,975 320 244 -832
2022-05-18 22:19:02 GMT 51.979797 0.512619 3,975 320 245 -832
2022-05-18 22:19:01 GMT 51.978058 0.514984 4,025 320 246 -768
2022-05-18 22:18:59 GMT 51.977062 0.516357 4,025 320 248 -768
2022-05-18 22:18:58 GMT 51.976177 0.517535 4,050 321 249 -704
2022-05-18 22:18:56 GMT 51.974224 0.520203 4,075 321 251 -640
2022-05-18 22:18:55 GMT 51.973480 0.521164 4,075 321 252 -576
2022-05-18 22:18:54 GMT 51.971878 0.523376 4,100 321 254 -512
2022-05-18 22:18:52 GMT 51.970825 0.524754 4,100 322 255 -512
2022-05-18 22:18:51 GMT 51.969955 0.525894 4,100 322 256 -512
2022-05-18 22:18:48 GMT 51.965103 0.531921 4,150 324 261 -512
2022-05-18 22:18:46 GMT 51.965103 0.531921 4,150 325 262 -576
2022-05-18 22:18:45 GMT 51.963043 0.534286 4,175 327 264 -640
2022-05-18 22:18:43 GMT 51.962128 0.535278 4,200 329 265 -640
2022-05-18 22:18:41 GMT 51.960072 0.537310 4,225 332 267 -768
2022-05-18 22:18:40 GMT 51.959095 0.538173 4,250 334 269 -896
2022-05-18 22:18:39 GMT 51.957596 0.539322 4,250 336 269 -960
2022-05-18 22:18:37 GMT 51.955627 0.540695 4,275 340 271 -1088
2022-05-18 22:18:36 GMT 51.954533 0.541391 4,325 341 272 -1152
2022-05-18 22:18:35 GMT 51.952019 0.542803 4,350 347 274 -1472
2022-05-18 22:18:33 GMT 51.950867 0.543289 4,375 347 274 -1472
2022-05-18 22:18:32 GMT 51.949631 0.543747 4,400 349 274 -1472
2022-05-18 22:18:30 GMT 51.946976 0.544586 4,450 352 275 -1472
2022-05-18 22:18:29 GMT 51.945782 0.544843 4,475 354 276 -1472
2022-05-18 22:18:27 GMT 51.943039 0.545273 4,550 359 278 -1472
2022-05-18 22:18:25 GMT 51.940426 0.545393 4,550 0 278 -1472
2022-05-18 22:18:23 GMT 51.937271 0.545197 4,650 5 278 -1472
2022-05-18 22:18:22 GMT 51.934845 0.544815 4,700 7 279 -1472
2022-05-18 22:18:20 GMT 51.933491 0.544451 4,700 9 279 -1472
2022-05-18 22:18:19 GMT 51.932419 0.544205 4,725 12 279 -1472
2022-05-18 22:18:17 GMT 51.929722 0.543195 4,775 15 279 -1408
2022-05-18 22:18:16 GMT 51.928463 0.542646 4,800 15 279 -1408
2022-05-18 22:18:14 GMT 51.925858 0.541391 4,850 18 279 -1344
2022-05-18 22:18:13 GMT 51.925110 0.540998 4,875 19 279 -1344
2022-05-18 22:18:12 GMT 51.922256 0.539322 4,925 19 279 -1408
2022-05-18 22:18:09 GMT 51.919991 0.538016 4,975 20 279 -1600
2022-05-18 22:18:07 GMT 51.917568 0.536604 5,025 20 279 -1664
2022-05-18 22:18:06 GMT 51.916397 0.535889 5,050 20 279 -1728
2022-05-18 22:18:05 GMT 51.915070 0.535126 5,075 20 279 -1728
2022-05-18 22:18:03 GMT 51.912495 0.533543 5,125 20 279 -1792
2022-05-18 22:18:02 GMT 51.911316 0.532913 5,175 20 279 -1792
2022-05-18 22:18:01 GMT 51.908958 0.531503 5,225 20 278 -1792
2022-05-18 22:17:58 GMT 51.906738 0.530167 5,275 20 278 -1792
2022-05-18 22:17:57 GMT 51.904449 0.528793 5,325 20 277 -1792
2022-05-18 22:17:55 GMT 51.903259 0.528107 5,350 20 277 -1728
2022-05-18 22:17:53 GMT 51.898994 0.525539 5,450 20 276 -1664
2022-05-18 22:17:50 GMT 51.897320 0.524519 5,500 20 275 -1600
2022-05-18 22:17:48 GMT 51.894806 0.523028 5,550 20 275 -1536
2022-05-18 22:17:47 GMT 51.891037 0.520737 5,625 20 275 -1408
2022-05-18 22:17:45 GMT 51.891037 0.520737 5,625 20 275 -1408
2022-05-18 22:17:44 GMT 51.889778 0.520020 5,650 20 275 -1344
2022-05-18 22:17:42 GMT 51.887833 0.518807 5,675 20 275 -1216
2022-05-18 22:17:40 GMT 51.885315 0.517322 5,725 20 275 -1216
2022-05-18 22:17:39 GMT 51.883987 0.516506 5,750 20 275 -1152
2022-05-18 22:17:38 GMT 51.881607 0.515021 5,775 20 275 -1088
2022-05-18 22:17:36 GMT 51.880466 0.514374 5,800 20 275 -1088
2022-05-18 22:17:35 GMT 51.879227 0.513611 5,850 20 275 -1024
2022-05-18 22:17:33 GMT 51.876652 0.512085 5,850 20 276 -896
2022-05-18 22:17:31 GMT 51.874695 0.510864 5,875 20 276 -832
2022-05-18 22:17:30 GMT 51.871582 0.509008 5,900 20 276 -704
2022-05-18 22:17:29 GMT 51.871582 0.509008 5,900 20 276 -640
2022-05-18 22:17:28 GMT 51.870552 0.508423 5,925 20 277 -576
2022-05-18 22:17:25 GMT 51.866913 0.506188 5,925 20 277 -320
2022-05-18 22:17:24 GMT 51.864685 0.504913 5,950 20 278 -192
2022-05-18 22:17:21 GMT 51.862732 0.503769 5,950 20 278 -128
2022-05-18 22:17:20 GMT 51.859707 0.501938 5,950 20 279 0
2022-05-18 22:17:17 GMT 51.857346 0.500546 5,950 20 279 0
2022-05-18 22:17:16 GMT 51.856213 0.499878 5,950 20 279 0
2022-05-18 22:17:15 GMT 51.854862 0.499039 5,950 20 279 0
2022-05-18 22:17:14 GMT 51.852402 0.497577 5,950 20 279 0
2022-05-18 22:17:12 GMT 51.851212 0.496834 5,950 20 279 0
2022-05-18 22:17:11 GMT 51.847549 0.494682 5,950 20 279 0
2022-05-18 22:17:09 GMT 51.847549 0.494682 5,950 20 279 0
2022-05-18 22:17:08 GMT 51.846359 0.493939 5,950 20 279 0
2022-05-18 22:17:06 GMT 51.843876 0.492477 5,950 20 279 0
2022-05-18 22:17:05 GMT 51.842667 0.491714 5,950 20 279 0
2022-05-18 22:17:04 GMT 51.841549 0.491104 5,950 20 279 0
2022-05-18 22:17:02 GMT 51.837917 0.488892 5,950 20 279 -64
2022-05-18 22:17:00 GMT 51.836849 0.488205 5,950 20 279 0
2022-05-18 22:16:59 GMT 51.835636 0.487518 5,950 20 279 0
2022-05-18 22:16:56 GMT 51.833267 0.486071 5,950 20 279 0
2022-05-18 22:16:55 GMT 51.831940 0.485328 5,950 20 279 0
2022-05-18 22:16:53 GMT 51.829376 0.483770 5,950 20 279 0
2022-05-18 22:16:52 GMT 51.828094 0.483017 5,950 20 279 0
2022-05-18 22:16:50 GMT 51.825443 0.481415 5,950 20 279 0
2022-05-18 22:16:49 GMT 51.824467 0.480881 5,950 20 279 0
2022-05-18 22:16:47 GMT 51.819717 0.477980 5,950 20 279 0
2022-05-18 22:16:45 GMT 51.819717 0.477980 5,950 20 279 0
2022-05-18 22:16:44 GMT 51.817108 0.476456 5,950 20 279 0
2022-05-18 22:16:42 GMT 51.815964 0.475753 5,950 20 278 0
2022-05-18 22:16:41 GMT 51.814728 0.475010 5,950 20 278 0
2022-05-18 22:16:39 GMT 51.811665 0.473175 5,950 20 278 0
2022-05-18 22:16:38 GMT 51.810379 0.472412 5,950 20 278 0
2022-05-18 22:16:37 GMT 51.809784 0.472041 5,950 20 278 0
2022-05-18 22:16:36 GMT 51.807335 0.470505 5,950 20 277 0
2022-05-18 22:16:33 GMT 51.805054 0.469131 5,950 20 277 0
2022-05-18 22:16:32 GMT 51.803284 0.468032 5,950 20 278 0
2022-05-18 22:16:31 GMT 51.802261 0.467453 5,950 20 278 0
2022-05-18 22:16:29 GMT 51.800350 0.466232 5,950 20 278 0
2022-05-18 22:16:28 GMT 51.799046 0.465469 5,950 20 278 0
2022-05-18 22:16:27 GMT 51.796555 0.463950 5,950 20 278 0
2022-05-18 22:16:25 GMT 51.795364 0.463207 5,950 20 278 0
2022-05-18 22:16:24 GMT 51.794266 0.462539 5,950 20 278 0
2022-05-18 22:16:22 GMT 51.791748 0.460980 5,950 20 278 0
2022-05-18 22:16:21 GMT 51.789368 0.459496 5,950 20 278 0
2022-05-18 22:16:19 GMT 51.788040 0.458679 5,950 20 278 0
2022-05-18 22:16:18 GMT 51.785545 0.457230 5,950 20 277 0
2022-05-18 22:16:16 GMT 51.784286 0.456452 5,950 20 277 0
2022-05-18 22:16:15 GMT 51.783031 0.455627 5,950 20 277 0
2022-05-18 22:16:13 GMT 51.780945 0.454374 5,950 20 277 0
2022-05-18 22:16:12 GMT 51.779682 0.453644 5,950 20 277 0
2022-05-18 22:16:11 GMT 51.777401 0.452194 5,950 20 277 0
2022-05-18 22:16:09 GMT 51.776138 0.451479 5,950 20 277 0
2022-05-18 22:16:08 GMT 51.774841 0.450668 5,950 20 277 0
2022-05-18 22:16:06 GMT 51.771721 0.448761 5,950 20 277 0
2022-05-18 22:16:04 GMT 51.769272 0.447322 5,950 20 277 0
2022-05-18 22:16:03 GMT 51.767067 0.445938 5,950 20 277 0
2022-05-18 22:16:01 GMT 51.765858 0.445251 5,950 20 277 0
2022-05-18 22:15:59 GMT 51.764042 0.444183 5,950 20 277 0
2022-05-18 22:15:58 GMT 51.762909 0.443462 5,950 20 277 0
2022-05-18 22:15:57 GMT 51.761810 0.442794 5,950 20 277 0
2022-05-18 22:15:55 GMT 51.759155 0.441235 5,950 20 277 0
2022-05-18 22:15:54 GMT 51.757896 0.440445 5,950 20 277 0
2022-05-18 22:15:52 GMT 51.755585 0.439008 5,950 20 276 0
2022-05-18 22:15:51 GMT 51.754452 0.438309 5,950 20 276 0
2022-05-18 22:15:50 GMT 51.753296 0.437597 5,950 20 276 0
2022-05-18 22:15:48 GMT 51.751007 0.436261 5,950 20 276 0
2022-05-18 22:15:47 GMT 51.749451 0.435296 5,950 20 276 0
2022-05-18 22:15:46 GMT 51.745701 0.432968 5,950 20 276 0
2022-05-18 22:15:44 GMT 51.745701 0.432968 5,950 20 277 0
2022-05-18 22:15:43 GMT 51.744488 0.432281 5,950 20 277 0
2022-05-18 22:15:42 GMT 51.742813 0.431213 5,950 20 277 0
2022-05-18 22:15:40 GMT 51.740906 0.430069 5,950 20 277 0
2022-05-18 22:15:38 GMT 51.738464 0.428541 5,950 20 277 0
2022-05-18 22:15:37 GMT 51.735271 0.426559 5,950 20 277 0
2022-05-18 22:15:34 GMT 51.732101 0.424607 5,950 20 277 0
2022-05-18 22:15:32 GMT 51.730774 0.423790 5,950 20 277 0
2022-05-18 22:15:30 GMT 51.728336 0.422287 5,950 20 277 0
2022-05-18 22:15:29 GMT 51.727066 0.421489 5,950 20 278 0
2022-05-18 22:15:28 GMT 51.725914 0.420837 5,950 20 278 0
2022-05-18 22:15:26 GMT 51.724007 0.419617 5,950 20 277 0
2022-05-18 22:15:24 GMT 51.722095 0.418472 5,950 20 277 0
2022-05-18 22:15:23 GMT 51.720108 0.417258 5,950 20 277 0
2022-05-18 22:15:22 GMT 51.718884 0.416412 5,950 20 277 0
2022-05-18 22:15:20 GMT 51.716465 0.414963 5,950 20 277 0
2022-05-18 22:15:19 GMT 51.715252 0.414276 5,950 20 277 0
2022-05-18 22:15:17 GMT 51.712971 0.412827 5,950 20 277 0
2022-05-18 22:15:16 GMT 51.711731 0.412062 5,950 20 277 0
2022-05-18 22:15:15 GMT 51.710632 0.411393 5,950 20 277 0
2022-05-18 22:15:13 GMT 51.708176 0.409927 5,950 20 277 0
2022-05-18 22:15:12 GMT 51.706875 0.409088 5,950 20 277 0
2022-05-18 22:15:10 GMT 51.704544 0.407682 5,950 20 277 0
2022-05-18 22:15:09 GMT 51.703354 0.406940 5,950 20 277 0
2022-05-18 22:15:08 GMT 51.702217 0.406265 5,950 20 278 0
2022-05-18 22:15:06 GMT 51.699875 0.404787 5,950 20 278 0
2022-05-18 22:15:05 GMT 51.698547 0.404044 5,950 20 278 0
2022-05-18 22:15:03 GMT 51.696716 0.402931 5,950 20 278 0
2022-05-18 22:15:02 GMT 51.693146 0.400704 5,950 20 278 0
2022-05-18 22:15:00 GMT 51.693146 0.400704 5,950 20 278 0
2022-05-18 22:14:58 GMT 51.690811 0.399246 5,950 20 278 0
2022-05-18 22:14:57 GMT 51.689465 0.398483 5,950 20 278 64
2022-05-18 22:14:56 GMT 51.686646 0.396770 5,950 20 277 0
2022-05-18 22:14:54 GMT 51.685913 0.396324 5,950 20 277 0
2022-05-18 22:14:53 GMT 51.684158 0.395279 5,950 20 278 -64
2022-05-18 22:14:51 GMT 51.681782 0.393753 5,950 20 278 0
2022-05-18 22:14:49 GMT 51.679501 0.392380 5,950 20 278 0
2022-05-18 22:14:48 GMT 51.678223 0.391648 5,950 20 278 64
2022-05-18 22:14:46 GMT 51.675659 0.390089 5,950 20 278 0
2022-05-18 22:14:45 GMT 51.674469 0.389421 5,950 20 278 0
2022-05-18 22:14:44 GMT 51.673279 0.388678 5,950 20 278 0
2022-05-18 22:14:43 GMT 51.670193 0.386810 5,950 20 278 0
2022-05-18 22:14:40 GMT 51.668564 0.385858 5,950 20 278 0
2022-05-18 22:14:39 GMT 51.667538 0.385284 5,950 20 278 0
2022-05-18 22:14:38 GMT 51.666504 0.384596 5,950 20 278 0
2022-05-18 22:14:37 GMT 51.662888 0.382443 5,950 20 278 0
2022-05-18 22:14:35 GMT 51.662888 0.382443 5,950 20 278 0
2022-05-18 22:14:33 GMT 51.661102 0.381404 5,950 20 278 0
2022-05-18 22:14:32 GMT 51.659206 0.380249 5,950 20 279 0
2022-05-18 22:14:30 GMT 51.656784 0.378799 5,950 20 279 -64
2022-05-18 22:14:27 GMT 51.653091 0.376653 5,950 20 279 0
2022-05-18 22:14:25 GMT 51.650803 0.375317 5,950 19 278 64
2022-05-18 22:14:23 GMT 51.646729 0.372925 5,950 20 279 0
2022-05-18 22:14:20 GMT 51.642929 0.370714 5,950 20 278 0
2022-05-18 22:14:18 GMT 51.641655 0.369949 5,950 20 278 0
2022-05-18 22:14:17 GMT 51.640503 0.369230 5,950 20 278 0
2022-05-18 22:14:16 GMT 51.636795 0.367077 5,950 20 278 0
2022-05-18 22:14:13 GMT 51.635696 0.366409 5,950 20 278 0
2022-05-18 22:14:11 GMT 51.633636 0.365221 5,950 20 277 0
2022-05-18 22:14:09 GMT 51.631180 0.363770 5,950 20 277 0
2022-05-18 22:14:08 GMT 51.629971 0.363007 5,950 20 277 0
2022-05-18 22:14:06 GMT 51.627594 0.361658 5,950 20 278 0
2022-05-18 22:14:05 GMT 51.625946 0.360693 5,950 20 278 0
2022-05-18 22:14:03 GMT 51.623520 0.359283 5,950 20 278 0
2022-05-18 22:14:02 GMT 51.622383 0.358582 5,950 20 278 0
2022-05-18 22:14:01 GMT 51.621170 0.357895 5,950 20 277 0
2022-05-18 22:13:59 GMT 51.619263 0.356750 5,950 20 277 0
2022-05-18 22:13:57 GMT 51.616703 0.355225 5,950 20 277 0
2022-05-18 22:13:56 GMT 51.615540 0.354538 5,950 20 277 0
2022-05-18 22:13:55 GMT 51.614326 0.353775 5,950 20 277 0
2022-05-18 22:13:53 GMT 51.612141 0.352478 5,950 20 277 0
2022-05-18 22:13:52 GMT 51.611023 0.351785 5,950 20 276 0
2022-05-18 22:13:50 GMT 51.607487 0.349731 5,950 20 276 0
2022-05-18 22:13:49 GMT 51.607487 0.349731 5,950 20 276 0
2022-05-18 22:13:47 GMT 51.604832 0.348129 5,950 20 277 0
2022-05-18 22:13:45 GMT 51.602455 0.346680 5,950 20 277 0
2022-05-18 22:13:43 GMT 51.600037 0.345230 5,950 20 277 0
2022-05-18 22:13:41 GMT 51.597290 0.343552 5,950 20 277 0
2022-05-18 22:13:39 GMT 51.595100 0.342255 5,950 20 277 0
2022-05-18 22:13:37 GMT 51.591339 0.339982 5,950 20 277 0
2022-05-18 22:13:35 GMT 51.590149 0.339240 5,950 20 277 0
2022-05-18 22:13:33 GMT 51.587791 0.337906 5,950 20 277 0
2022-05-18 22:13:32 GMT 51.586533 0.337087 5,950 20 277 0
2022-05-18 22:13:30 GMT 51.584534 0.335922 5,950 20 277 0
2022-05-18 22:13:28 GMT 51.581554 0.334167 5,950 20 277 0
2022-05-18 22:13:27 GMT 51.579575 0.332930 5,950 20 277 0
2022-05-18 22:13:25 GMT 51.578247 0.332188 5,950 20 277 0
2022-05-18 22:13:22 GMT 51.575039 0.330276 5,950 20 277 0
2022-05-18 22:13:21 GMT 51.572617 0.328773 5,950 20 277 0
2022-05-18 22:13:19 GMT 51.571518 0.328179 5,950 20 276 0
2022-05-18 22:13:18 GMT 51.570244 0.327377 5,950 20 276 0
2022-05-18 22:13:16 GMT 51.567673 0.325878 5,950 20 276 0
2022-05-18 22:13:15 GMT 51.566345 0.325062 5,950 20 276 0
2022-05-18 22:13:14 GMT 51.563911 0.323563 5,950 20 276 0
2022-05-18 22:13:12 GMT 51.562611 0.322800 5,950 20 276 0
2022-05-18 22:13:11 GMT 51.561539 0.322189 5,950 20 276 0
2022-05-18 22:13:09 GMT 51.559025 0.320663 5,950 20 276 0
2022-05-18 22:13:08 GMT 51.557953 0.319977 5,950 20 276 0
2022-05-18 22:13:07 GMT 51.554306 0.317787 5,950 20 276 0
2022-05-18 22:13:05 GMT 51.553070 0.317119 5,950 20 276 0
2022-05-18 22:13:03 GMT 51.551880 0.316377 5,950 20 276 0
2022-05-18 22:13:02 GMT 51.550827 0.315708 5,950 20 275 0
2022-05-18 22:13:00 GMT 51.548447 0.314298 5,950 20 275 0
2022-05-18 22:12:58 GMT 51.545990 0.312805 5,950 20 275 0
2022-05-18 22:12:57 GMT 51.543613 0.311356 5,950 20 275 0
2022-05-18 22:12:55 GMT 51.542404 0.310669 5,950 20 275 0
2022-05-18 22:12:54 GMT 51.541168 0.309918 5,950 20 275 0
2022-05-18 22:12:52 GMT 51.538742 0.308508 5,950 20 275 0
2022-05-18 22:12:50 GMT 51.537006 0.307465 5,950 20 275 0
2022-05-18 22:12:49 GMT 51.535095 0.306320 5,950 20 275 0
2022-05-18 22:12:47 GMT 51.533421 0.305328 5,950 20 275 0
2022-05-18 22:12:46 GMT 51.531651 0.304184 5,950 20 275 0
2022-05-18 22:12:45 GMT 51.530582 0.303574 5,950 20 275 0
2022-05-18 22:12:43 GMT 51.528206 0.302124 5,950 20 275 0
2022-05-18 22:12:41 GMT 51.525925 0.300751 5,950 20 275 0
2022-05-18 22:12:38 GMT 51.520943 0.297699 5,950 20 274 0
2022-05-18 22:12:36 GMT 51.519699 0.297002 5,950 20 274 0
2022-05-18 22:12:35 GMT 51.517731 0.295792 5,950 20 274 0
2022-05-18 22:12:33 GMT 51.516586 0.295072 5,950 20 275 0
2022-05-18 22:12:31 GMT 51.512985 0.292892 5,950 20 275 0
2022-05-18 22:12:28 GMT 51.509399 0.290680 5,950 21 274 0
2022-05-18 22:12:26 GMT 51.508327 0.290070 5,950 21 274 0
2022-05-18 22:12:24 GMT 51.505859 0.288544 5,950 21 274 0
2022-05-18 22:12:21 GMT 51.502323 0.286331 5,950 21 273 0
2022-05-18 22:12:20 GMT 51.498180 0.283737 5,950 21 273 0
2022-05-18 22:12:18 GMT 51.498180 0.283737 5,950 21 273 64
2022-05-18 22:12:16 GMT 51.496410 0.282593 5,950 21 273 0
2022-05-18 22:12:14 GMT 51.491180 0.279335 5,950 21 273 0
2022-05-18 22:12:12 GMT 51.491180 0.279335 5,950 21 273 0
2022-05-18 22:12:11 GMT 51.488777 0.277786 5,950 21 273 0
2022-05-18 22:12:08 GMT 51.486465 0.276366 5,950 21 273 0
2022-05-18 22:12:06 GMT 51.484543 0.275116 5,950 21 273 0
2022-05-18 22:12:05 GMT 51.482941 0.274139 5,950 21 273 0
2022-05-18 22:12:03 GMT 51.481003 0.272903 5,950 21 273 0
2022-05-18 22:12:02 GMT 51.479736 0.272134 5,950 21 273 0
2022-05-18 22:12:01 GMT 51.478489 0.271378 5,950 21 273 0
2022-05-18 22:11:59 GMT 51.476074 0.269833 5,950 21 273 0
2022-05-18 22:11:58 GMT 51.474953 0.269165 5,950 21 274 0
2022-05-18 22:11:56 GMT 51.472183 0.267383 5,950 21 274 0
2022-05-18 22:11:54 GMT 51.469940 0.265973 5,950 21 274 0
2022-05-18 22:11:53 GMT 51.468712 0.265198 5,950 21 274 -64
2022-05-18 22:11:52 GMT 51.467468 0.264488 5,950 21 274 0
2022-05-18 22:11:51 GMT 51.466244 0.263672 5,950 21 274 0
2022-05-18 22:11:49 GMT 51.464401 0.262558 5,950 21 274 0
2022-05-18 22:11:48 GMT 51.463074 0.261742 5,950 21 274 0
2022-05-18 22:11:46 GMT 51.460236 0.259960 5,950 21 274 0
2022-05-18 22:11:45 GMT 51.459263 0.259323 5,950 21 274 0
2022-05-18 22:11:44 GMT 51.458130 0.258624 5,950 21 274 0
2022-05-18 22:11:42 GMT 51.455727 0.257111 5,950 21 274 0
2022-05-18 22:11:40 GMT 51.454048 0.256042 5,950 21 274 0
2022-05-18 22:11:38 GMT 51.450233 0.253754 5,950 21 275 64
2022-05-18 22:11:35 GMT 51.446732 0.251572 5,950 21 275 0
2022-05-18 22:11:32 GMT 51.443893 0.249791 5,950 20 276 0
2022-05-18 22:11:30 GMT 51.441711 0.248413 5,950 20 275 0
2022-05-18 22:11:28 GMT 51.439339 0.246964 5,950 20 276 0
2022-05-18 22:11:25 GMT 51.435707 0.244827 5,950 20 276 0
2022-05-18 22:11:23 GMT 51.433193 0.243301 5,950 20 276 0
2022-05-18 22:11:21 GMT 51.430756 0.241848 5,950 20 276 0
2022-05-18 22:11:18 GMT 51.427643 0.239992 5,950 20 276 0
2022-05-18 22:11:17 GMT 51.426258 0.239105 5,950 20 276 0
2022-05-18 22:11:15 GMT 51.423744 0.237656 5,950 20 276 0
2022-05-18 22:11:13 GMT 51.421837 0.236511 5,950 20 276 0
2022-05-18 22:11:12 GMT 51.419998 0.235390 5,950 20 276 0
2022-05-18 22:11:10 GMT 51.418251 0.234299 5,950 20 276 0
2022-05-18 22:11:09 GMT 51.416340 0.233154 5,950 20 276 0
2022-05-18 22:11:08 GMT 51.415054 0.232420 5,950 20 276 0
2022-05-18 22:11:07 GMT 51.414368 0.231975 5,950 20 276 0
2022-05-18 22:11:05 GMT 51.411777 0.230408 5,950 20 276 0
2022-05-18 22:11:02 GMT 51.408195 0.228271 5,950 20 276 0
2022-05-18 22:11:01 GMT 51.405914 0.226898 5,950 20 276 0
2022-05-18 22:10:59 GMT 51.404663 0.226111 5,950 20 276 0
2022-05-18 22:10:58 GMT 51.402374 0.224774 5,950 20 276 0
2022-05-18 22:10:55 GMT 51.399815 0.223236 5,950 20 276 0
2022-05-18 22:10:54 GMT 51.398666 0.222547 5,950 20 275 0
2022-05-18 22:10:53 GMT 51.397476 0.221805 5,950 20 275 0
2022-05-18 22:10:52 GMT 51.394650 0.220108 5,950 20 276 0
2022-05-18 22:10:49 GMT 51.392212 0.218539 5,950 21 276 0
2022-05-18 22:10:47 GMT 51.390335 0.217351 5,950 21 276 64
2022-05-18 22:10:46 GMT 51.386765 0.215198 5,950 21 276 0
2022-05-18 22:10:44 GMT 51.386765 0.215198 5,950 20 276 -64
2022-05-18 22:10:42 GMT 51.384407 0.213776 5,950 21 276 0
2022-05-18 22:10:41 GMT 51.383148 0.212971 5,950 21 276 -64
2022-05-18 22:10:38 GMT 51.380264 0.211182 5,950 21 276 -64
2022-05-18 22:10:37 GMT 51.378448 0.210037 5,950 20 276 0
2022-05-18 22:10:36 GMT 51.377285 0.209351 5,950 20 276 0
2022-05-18 22:10:35 GMT 51.376144 0.208666 5,950 20 276 0
2022-05-18 22:10:33 GMT 51.373325 0.206909 5,950 20 276 0
2022-05-18 22:10:31 GMT 51.371338 0.205697 5,950 20 275 0
2022-05-18 22:10:29 GMT 51.368866 0.204212 5,950 20 275 0
2022-05-18 22:10:28 GMT 51.367599 0.203400 5,950 20 276 0
2022-05-18 22:10:27 GMT 51.366440 0.202727 5,950 20 276 0
2022-05-18 22:10:26 GMT 51.364342 0.201492 5,950 20 276 0
2022-05-18 22:10:24 GMT 51.362869 0.200575 5,950 20 276 0
2022-05-18 22:10:23 GMT 51.361771 0.199981 5,950 20 276 0
2022-05-18 22:10:21 GMT 51.359299 0.198422 5,950 20 276 0
2022-05-18 22:10:20 GMT 51.358063 0.197754 5,975 20 277 0
2022-05-18 22:10:19 GMT 51.356709 0.196915 5,975 20 276 0
2022-05-18 22:10:18 GMT 51.354355 0.195527 5,950 21 276 -64
2022-05-18 22:10:15 GMT 51.351772 0.194016 5,950 21 276 -64
2022-05-18 22:10:13 GMT 51.349541 0.192566 5,975 22 276 64
2022-05-18 22:10:11 GMT 51.345932 0.190182 5,950 24 276 64
2022-05-18 22:10:09 GMT 51.344879 0.189440 5,950 25 276 64
2022-05-18 22:10:07 GMT 51.342602 0.187759 5,950 28 276 64
2022-05-18 22:10:06 GMT 51.341625 0.186920 5,950 29 276 0
2022-05-18 22:10:04 GMT 51.339203 0.184763 5,950 31 276 -64
2022-05-18 22:10:03 GMT 51.338181 0.183716 5,950 34 275 64
2022-05-18 22:10:02 GMT 51.337097 0.182536 5,950 36 274 0
2022-05-18 22:09:59 GMT 51.334076 0.178825 5,950 42 273 0
2022-05-18 22:09:58 GMT 51.332932 0.177192 5,950 43 273 -64
2022-05-18 22:09:56 GMT 51.331284 0.174668 5,950 47 273 64
2022-05-18 22:09:55 GMT 51.330315 0.172958 5,950 49 272 64
2022-05-18 22:09:54 GMT 51.328590 0.169754 5,950 52 271 64
2022-05-18 22:09:52 GMT 51.327847 0.168152 5,950 54 271 64
2022-05-18 22:09:51 GMT 51.327072 0.166502 5,950 56 270 64
2022-05-18 22:09:49 GMT 51.325798 0.163422 5,950 59 269 0
2022-05-18 22:09:48 GMT 51.325146 0.161667 5,950 61 268 64
2022-05-18 22:09:47 GMT 51.324051 0.158263 5,950 65 267 0
2022-05-18 22:09:45 GMT 51.323517 0.156555 5,950 70 265 64
2022-05-18 22:09:43 GMT 51.322769 0.153734 5,950 70 265 64
2022-05-18 22:09:42 GMT 51.322308 0.151825 5,950 72 265 0
2022-05-18 22:09:41 GMT 51.321854 0.149726 5,950 72 265 0
2022-05-18 22:09:39 GMT 51.321049 0.145111 5,950 77 263 -64
2022-05-18 22:09:37 GMT 51.320709 0.142377 5,950 80 261 -64
2022-05-18 22:09:35 GMT 51.320114 0.136884 5,950 82 260 -64
2022-05-18 22:09:33 GMT 51.319931 0.135040 5,950 82 261 0
2022-05-18 22:09:31 GMT 51.319653 0.131226 5,950 82 261 64
2022-05-18 22:09:30 GMT 51.319466 0.129166 5,950 82 261 0
2022-05-18 22:09:28 GMT 51.319233 0.126266 5,950 82 261 0
2022-05-18 22:09:27 GMT 51.319000 0.123444 5,950 82 261 -64
2022-05-18 22:09:26 GMT 51.318859 0.121536 5,950 82 261 0
2022-05-18 22:09:25 GMT 51.318420 0.116025 5,950 82 261 0
2022-05-18 22:09:22 GMT 51.318237 0.113575 5,950 82 262 0
2022-05-18 22:09:19 GMT 51.317780 0.107636 5,950 82 262 0
2022-05-18 22:09:18 GMT 51.317467 0.103683 5,950 82 262 64
2022-05-18 22:09:15 GMT 51.317139 0.099916 5,950 82 262 64
2022-05-18 22:09:13 GMT 51.316818 0.095908 5,950 82 262 0
2022-05-18 22:09:12 GMT 51.316681 0.093829 5,950 82 262 0
2022-05-18 22:09:10 GMT 51.316406 0.090934 5,950 82 262 64
2022-05-18 22:09:09 GMT 51.316269 0.088856 5,950 82 262 0
2022-05-18 22:09:08 GMT 51.315929 0.084686 5,950 82 262 0
2022-05-18 22:09:06 GMT 51.315742 0.082550 5,950 82 262 0
2022-05-18 22:09:05 GMT 51.315556 0.080643 5,950 82 262 0
2022-05-18 22:09:04 GMT 51.315262 0.076756 5,950 82 262 0
2022-05-18 22:09:02 GMT 51.315090 0.074921 5,950 82 261 -64
2022-05-18 22:09:00 GMT 51.314716 0.070724 5,950 82 261 -64
2022-05-18 22:08:58 GMT 51.314301 0.065473 5,950 82 261 0
2022-05-18 22:08:56 GMT 51.314159 0.063858 5,950 82 260 0
2022-05-18 22:08:55 GMT 51.313972 0.061722 5,950 82 260 0
2022-05-18 22:08:53 GMT 51.313660 0.058049 5,950 82 260 0
2022-05-18 22:08:52 GMT 51.313461 0.056076 5,950 81 260 0
2022-05-18 22:08:51 GMT 51.313156 0.052556 5,950 81 259 0
2022-05-18 22:08:49 GMT 51.312996 0.050735 5,950 81 259 0
2022-05-18 22:08:47 GMT 51.312607 0.046618 5,950 81 259 -64
2022-05-18 22:08:45 GMT 51.312286 0.043055 5,950 82 259 0
2022-05-18 22:08:44 GMT 51.312111 0.040894 5,950 81 258 0
2022-05-18 22:08:42 GMT 51.311832 0.037460 5,950 81 258 0
2022-05-18 22:08:41 GMT 51.311646 0.035400 5,950 81 258 -64
2022-05-18 22:08:40 GMT 51.311462 0.033627 5,975 81 258 0
2022-05-18 22:08:39 GMT 51.311096 0.029619 5,975 81 257 -64
2022-05-18 22:08:37 GMT 51.310947 0.027695 5,975 81 257 0
2022-05-18 22:08:36 GMT 51.310593 0.023977 5,950 81 257 0
2022-05-18 22:08:34 GMT 51.310455 0.022121 5,950 81 257 0
2022-05-18 22:08:33 GMT 51.310062 0.018234 5,950 81 258 0
2022-05-18 22:08:31 GMT 51.309921 0.016403 5,950 81 258 0
2022-05-18 22:08:30 GMT 51.309784 0.014648 5,950 81 258 0
2022-05-18 22:08:29 GMT 51.309586 0.012694 5,950 81 259 0
2022-05-18 22:08:27 GMT 51.309174 0.008166 5,950 82 259 0
2022-05-18 22:08:25 GMT 51.308853 0.004425 5,950 82 259 64
2022-05-18 22:08:24 GMT 51.308533 0.000520 5,950 82 259 64
2022-05-18 22:08:21 GMT 51.308247 -0.002365 5,950 82 259 64
2022-05-18 22:08:19 GMT 51.307781 -0.008240 5,950 82 258 128
2022-05-18 22:08:16 GMT 51.307457 -0.012054 5,925 82 258 192
2022-05-18 22:08:13 GMT 51.306885 -0.018558 5,925 82 257 256
2022-05-18 22:08:10 GMT 51.306526 -0.022583 5,925 82 257 256
2022-05-18 22:08:08 GMT 51.306152 -0.027169 5,900 82 256 576
2022-05-18 22:08:06 GMT 51.305965 -0.029144 5,900 82 256 512
2022-05-18 22:08:04 GMT 51.305099 -0.039566 5,850 82 254 1024
2022-05-18 22:08:01 GMT 51.305099 -0.039566 5,825 82 254 1024
2022-05-18 22:07:58 GMT 51.304615 -0.045624 5,750 82 253 1152
2022-05-18 22:07:56 GMT 51.304382 -0.048370 5,725 82 253 1280
2022-05-18 22:07:54 GMT 51.303864 -0.054189 5,650 82 252 1664
2022-05-18 22:07:51 GMT 51.303452 -0.058792 5,525 81 251 1792
2022-05-18 22:07:48 GMT 51.302948 -0.064359 5,500 81 252 1920
2022-05-18 22:07:46 GMT 51.302708 -0.067368 5,450 81 252 2048
2022-05-18 22:07:44 GMT 51.301849 -0.076830 5,325 81 252 2368
2022-05-18 22:07:41 GMT 51.301266 -0.083008 5,150 81 252 2624
2022-05-18 22:07:38 GMT 51.301266 -0.083008 5,100 81 252 2816
2022-05-18 22:07:36 GMT 51.300938 -0.086517 4,925 81 251 3136
2022-05-18 22:07:33 GMT 51.300472 -0.091476 4,825 81 251 3328
2022-05-18 22:07:30 GMT 51.300007 -0.096054 4,725 81 252 3584
2022-05-18 22:07:28 GMT 51.299515 -0.101252 4,550 80 250 3456
2022-05-18 22:07:26 GMT 51.299057 -0.105632 4,050 80 249 3008
2022-05-18 22:07:23 GMT 51.298470 -0.111160 4,350 80 248 2624
2022-05-18 22:07:20 GMT 51.297958 -0.115891 4,175 79 247 1792
2022-05-18 22:07:18 GMT 51.297272 -0.122037 4,100 79 246 1536
2022-05-18 22:07:16 GMT 51.297272 -0.122037 4,075 79 247 1088
2022-05-18 22:07:14 GMT 51.296886 -0.125351 4,025 79 247 1216
2022-05-18 22:07:12 GMT 51.296284 -0.130615 3,975 79 248 640
2022-05-18 22:07:09 GMT 51.295773 -0.135117 3,950 79 248 384
2022-05-18 22:07:06 GMT 51.295166 -0.140686 3,950 80 250 -64
2022-05-18 22:07:04 GMT 51.294754 -0.144455 3,950 80 250 -64
2022-05-18 22:07:01 GMT 51.294113 -0.150245 3,950 79 250 0
2022-05-18 22:06:58 GMT 51.293674 -0.154190 3,950 79 250 0
2022-05-18 22:06:56 GMT 51.293152 -0.158782 3,950 79 250 0
2022-05-18 22:06:54 GMT 51.292831 -0.161751 3,950 79 250 0
2022-05-18 22:06:52 GMT 51.291870 -0.170288 3,950 79 251 0
2022-05-18 22:06:49 GMT 51.291870 -0.170288 3,950 79 251 0
2022-05-18 22:06:47 GMT 51.291210 -0.176010 3,950 79 252 0
2022-05-18 22:06:44 GMT 51.290745 -0.180435 3,950 79 252 -64
2022-05-18 22:06:42 GMT 51.290230 -0.184784 3,950 79 252 -64
2022-05-18 22:06:39 GMT 51.289581 -0.190553 3,950 79 251 0
2022-05-18 22:06:36 GMT 51.289021 -0.195007 3,975 79 252 0
2022-05-18 22:06:34 GMT 51.287903 -0.204163 3,975 78 252 0
2022-05-18 22:06:32 GMT 51.287903 -0.204163 3,975 76 254 64
2022-05-18 22:06:29 GMT 51.286926 -0.210571 3,950 75 256 64
2022-05-18 22:06:26 GMT 51.286274 -0.214157 3,950 71 259 64
2022-05-18 22:06:23 GMT 51.285206 -0.218887 3,950 65 263 64
2022-05-18 22:06:21 GMT 51.284367 -0.222092 3,950 60 267 0
2022-05-18 22:06:18 GMT 51.282898 -0.226482 3,950 58 268 128
2022-05-18 22:06:16 GMT 51.281296 -0.230490 3,925 52 272 320
2022-05-18 22:06:14 GMT 51.279385 -0.234604 3,950 49 275 -128
2022-05-18 22:06:12 GMT 51.275757 -0.240808 3,950 40 279 -128
2022-05-18 22:06:09 GMT 51.273380 -0.244141 3,950 40 279 -128
2022-05-18 22:06:07 GMT 51.273380 -0.244141 3,950 28 284 256
2022-05-18 22:06:05 GMT 51.271591 -0.246302 3,950 35 281 64
2022-05-18 22:06:03 GMT 51.268570 -0.249568 3,925 28 284 192
2022-05-18 22:06:00 GMT 51.265652 -0.252228 3,925 27 283 128
2022-05-18 22:05:58 GMT 51.263790 -0.253677 3,950 24 284 -64
2022-05-18 22:05:56 GMT 51.260834 -0.255729 3,925 19 285 64
2022-05-18 22:05:54 GMT 51.258156 -0.257263 3,950 15 284 -128
2022-05-18 22:05:52 GMT 51.255272 -0.258713 3,925 15 285 64
2022-05-18 22:05:49 GMT 51.252274 -0.260035 3,950 15 285 0
2022-05-18 22:05:47 GMT 51.249546 -0.261230 3,950 15 284 -128
2022-05-18 22:05:45 GMT 51.247696 -0.262039 3,950 15 284 -128
2022-05-18 22:05:43 GMT 51.243820 -0.263672 3,950 15 280 320
2022-05-18 22:05:40 GMT 51.240559 -0.265121 3,950 15 283 -192
2022-05-18 22:05:38 GMT 51.237946 -0.266270 3,975 15 282 64
2022-05-18 22:05:36 GMT 51.235336 -0.267458 3,975 15 281 0
2022-05-18 22:05:34 GMT 51.232738 -0.268631 3,950 15 280 384
2022-05-18 22:05:32 GMT 51.230438 -0.269685 3,950 15 281 -128
2022-05-18 22:05:29 GMT 51.226734 -0.271378 3,950 14 282 -256
2022-05-18 22:05:26 GMT 51.222290 -0.273248 3,950 14 281 -64
2022-05-18 22:05:23 GMT 51.215332 -0.275920 3,950 13 279 64
2022-05-18 22:05:20 GMT 51.212952 -0.276885 3,950 13 278 -256
2022-05-18 22:05:18 GMT 51.212952 -0.276885 3,975 12 278 -192
2022-05-18 22:05:16 GMT 51.209881 -0.278015 3,950 12 275 256
2022-05-18 22:05:13 GMT 51.207230 -0.278964 3,950 12 275 -64
2022-05-18 22:05:11 GMT 51.203522 -0.280226 3,975 11 274 0
2022-05-18 22:05:08 GMT 51.200478 -0.281296 3,950 11 274 -384
2022-05-18 22:05:06 GMT 51.198711 -0.281906 3,975 11 274 0
2022-05-18 22:05:04 GMT 51.195267 -0.283051 3,950 12 274 -128
2022-05-18 22:05:02 GMT 51.193954 -0.283492 3,950 13 276 -192
2022-05-18 22:04:59 GMT 51.186932 -0.286255 3,975 14 278 64
2022-05-18 22:04:57 GMT 51.186932 -0.286255 3,975 14 279 192
2022-05-18 22:04:55 GMT 51.185024 -0.287018 3,975 14 281 384
2022-05-18 22:04:53 GMT 51.181767 -0.288391 3,975 15 282 -64
2022-05-18 22:04:49 GMT 51.176285 -0.290841 3,975 16 282 256
2022-05-18 22:04:47 GMT 51.173759 -0.292053 3,975 18 279 256
2022-05-18 22:04:45 GMT 51.172035 -0.292969 3,950 20 278 192
2022-05-18 22:04:43 GMT 51.170059 -0.294181 3,925 25 276 384
2022-05-18 22:04:41 GMT 51.166866 -0.296555 3,950 27 276 64
2022-05-18 22:04:39 GMT 51.165253 -0.297967 3,950 33 277 64
2022-05-18 22:04:37 GMT 51.162491 -0.300751 3,950 35 277 64
2022-05-18 22:04:35 GMT 51.157650 -0.307159 3,925 40 277 64
2022-05-18 22:04:32 GMT 51.157650 -0.307159 3,925 43 276 -192
2022-05-18 22:04:29 GMT 51.154949 -0.311737 3,925 51 274 0
2022-05-18 22:04:26 GMT 51.152718 -0.316391 3,950 60 271 128
2022-05-18 22:04:23 GMT 51.151039 -0.320663 3,950 66 269 0
2022-05-18 22:04:19 GMT 51.147675 -0.332411 3,950 69 266 -192
2022-05-18 22:04:17 GMT 51.147675 -0.332411 3,950 70 265 64
2022-05-18 22:04:15 GMT 51.146294 -0.338745 3,950 71 264 64
2022-05-18 22:04:13 GMT 51.145363 -0.343399 3,950 71 264 64
2022-05-18 22:04:11 GMT 51.145363 -0.343399 3,950 72 264 192
2022-05-18 22:04:08 GMT 51.144291 -0.348740 3,925 73 264 192
2022-05-18 22:04:05 GMT 51.143173 -0.354538 3,950 74 263 -448
2022-05-18 22:04:02 GMT 51.140900 -0.367374 3,975 74 262 128
2022-05-18 22:03:58 GMT 51.140900 -0.367374 3,975 77 257 -384
2022-05-18 22:03:55 GMT 51.140076 -0.373090 3,975 80 255 128
2022-05-18 22:03:53 GMT 51.139729 -0.376129 3,950 81 254 512
2022-05-18 22:03:50 GMT 51.139297 -0.387268 3,950 89 248 -128
2022-05-18 22:03:47 GMT 51.139435 -0.391722 3,925 97 240 -128
2022-05-18 22:03:45 GMT 51.139435 -0.391722 3,925 97 240 -128
2022-05-18 22:03:43 GMT 51.139664 -0.394172 3,950 103 237 -64
2022-05-18 22:03:41 GMT 51.140148 -0.398254 3,950 102 236 0
2022-05-18 22:03:38 GMT 51.140762 -0.402708 3,950 103 237 -256
2022-05-18 22:03:36 GMT 51.141678 -0.408647 3,975 103 240 448
2022-05-18 22:03:32 GMT 51.143463 -0.420153 3,950 103 241 -192
2022-05-18 22:03:28 GMT 51.143463 -0.420153 3,950 103 241 -256
2022-05-18 22:03:26 GMT 51.144894 -0.429535 3,950 103 239 64
2022-05-18 22:03:23 GMT 51.145176 -0.431213 3,950 104 237 -384
2022-05-18 22:03:18 GMT 51.146255 -0.437968 3,975 105 236 -192
2022-05-18 22:03:15 GMT 51.146896 -0.441513 3,975 106 235 -192
2022-05-18 22:03:13 GMT 51.147690 -0.445709 3,975 108 235 320
2022-05-18 22:03:11 GMT 51.148270 -0.448732 3,950 136 208 192
2022-05-18 22:03:08 GMT 51.149551 -0.454330 3,950 114 230 -128
2022-05-18 22:03:05 GMT 51.150715 -0.458298 3,950 117 227 -128
2022-05-18 22:03:03 GMT 51.151737 -0.461197 3,950 127 216 -128
2022-05-18 22:03:01 GMT 51.154858 -0.468063 3,950 131 212 -192
2022-05-18 22:02:58 GMT 51.154858 -0.468063 3,950 134 210 0
2022-05-18 22:02:56 GMT 51.156143 -0.470185 3,950 136 208 192
2022-05-18 22:02:53 GMT 51.158443 -0.473099 3,925 148 200 0
2022-05-18 22:02:50 GMT 51.160400 -0.474936 3,950 176 189 128
2022-05-18 22:02:47 GMT 51.162964 -0.476792 3,925 160 194 64
2022-05-18 22:02:45 GMT 51.164749 -0.477757 3,950 165 192 -384
2022-05-18 22:02:43 GMT 51.167984 -0.478668 3,950 172 189 -192
2022-05-18 22:02:38 GMT 51.171204 -0.479167 3,950 176 189 -64
2022-05-18 22:02:36 GMT 51.172966 -0.479279 3,950 176 189 -128
2022-05-18 22:02:34 GMT 51.174316 -0.479464 3,950 176 189 0
2022-05-18 22:02:32 GMT 51.175827 -0.479613 3,975 176 189 0
2022-05-18 22:02:30 GMT 51.177567 -0.479761 3,950 176 189 128
2022-05-18 22:02:27 GMT 51.180134 -0.480042 3,975 176 189 -64
2022-05-18 22:02:25 GMT 51.182232 -0.480270 3,950 176 189 128
2022-05-18 22:02:22 GMT 51.184509 -0.480499 3,950 175 191 128
2022-05-18 22:02:20 GMT 51.187164 -0.480804 3,950 175 192 -128
2022-05-18 22:02:16 GMT 51.190201 -0.481171 3,950 175 193 64
2022-05-18 22:02:14 GMT 51.192055 -0.481339 3,975 175 193 64
2022-05-18 22:02:12 GMT 51.193356 -0.481567 4,025 176 193 -256
2022-05-18 22:02:10 GMT 51.196476 -0.481873 4,000 176 192 192
2022-05-18 22:02:07 GMT 51.197826 -0.482025 4,000 176 192 -128
2022-05-18 22:02:05 GMT 51.200943 -0.482330 4,000 176 192 -128
2022-05-18 22:02:02 GMT 51.203087 -0.482559 4,000 178 192 -256
2022-05-18 22:01:59 GMT 51.205181 -0.482712 4,050 178 192 -256
2022-05-18 22:01:56 GMT 51.208008 -0.482730 4,025 183 192 -576
2022-05-18 22:01:54 GMT 51.212494 -0.482062 4,075 193 193 -832
2022-05-18 22:01:51 GMT 51.212494 -0.482062 4,075 190 192 -832
2022-05-18 22:01:48 GMT 51.214417 -0.481246 4,250 207 195 -1280
2022-05-18 22:01:45 GMT 51.217621 -0.478945 4,225 212 197 -1216
2022-05-18 22:01:43 GMT 51.219147 -0.477448 4,250 218 199 -1216
2022-05-18 22:01:41 GMT 51.220642 -0.475678 4,300 218 199 -1280
2022-05-18 22:01:39 GMT 51.222031 -0.473633 4,350 226 200 -1280
2022-05-18 22:01:37 GMT 51.222733 -0.472412 4,400 231 203 -1408
2022-05-18 22:01:35 GMT 51.224079 -0.469666 4,425 236 205 -1472
2022-05-18 22:01:32 GMT 51.225712 -0.465393 4,500 243 209 -1472
2022-05-18 22:01:30 GMT 51.226456 -0.463028 4,600 251 212 -1280
2022-05-18 22:01:27 GMT 51.227509 -0.458605 4,725 252 213 -1024
2022-05-18 22:01:25 GMT 51.229248 -0.450439 4,700 252 213 -1152
2022-05-18 22:01:22 GMT 51.229248 -0.450439 4,750 252 214 -1024
2022-05-18 22:01:20 GMT 51.229900 -0.447235 4,775 252 214 -960
2022-05-18 22:01:17 GMT 51.230690 -0.443344 4,825 252 214 -1024
2022-05-18 22:01:15 GMT 51.231400 -0.439973 4,850 252 214 -1024
2022-05-18 22:01:12 GMT 51.232368 -0.435562 5,050 251 214 -1216
2022-05-18 22:01:09 GMT 51.233917 -0.428541 5,025 251 212 -1664
2022-05-18 22:01:07 GMT 51.234558 -0.425572 5,025 251 212 -1664
2022-05-18 22:01:05 GMT 51.234558 -0.425572 5,075 251 212 -1664
2022-05-18 22:01:02 GMT 51.235626 -0.420761 5,175 251 210 -1664
2022-05-18 22:01:00 GMT 51.236252 -0.417777 5,350 252 209 -1600
2022-05-18 22:00:57 GMT 51.237900 -0.410354 5,325 252 209 -1664
2022-05-18 22:00:55 GMT 51.237900 -0.410354 5,375 252 209 -1536
2022-05-18 22:00:52 GMT 51.238724 -0.406123 5,425 254 210 -1408
2022-05-18 22:00:49 GMT 51.239456 -0.401892 5,525 261 212 -1728
2022-05-18 22:00:46 GMT 51.240326 -0.394840 5,600 263 213 -1728
2022-05-18 22:00:44 GMT 51.240326 -0.394840 5,625 265 214 -1728
2022-05-18 22:00:42 GMT 51.240467 -0.391006 5,675 270 217 -1536
2022-05-18 22:00:40 GMT 51.240463 -0.387491 5,775 279 224 -1216
2022-05-18 22:00:38 GMT 51.240326 -0.384979 5,825 278 222 -1280
2022-05-18 22:00:35 GMT 51.239365 -0.374649 5,875 280 225 -960
2022-05-18 22:00:32 GMT 51.239025 -0.371323 5,900 280 225 -960
2022-05-18 22:00:30 GMT 51.239025 -0.371323 5,950 280 224 -1088
2022-05-18 22:00:27 GMT 51.238541 -0.366335 5,975 279 224 -1152
2022-05-18 22:00:25 GMT 51.238186 -0.362778 6,050 279 224 -1216
2022-05-18 22:00:22 GMT 51.237854 -0.359431 6,100 279 224 -1216
2022-05-18 22:00:20 GMT 51.236938 -0.349781 6,150 279 223 -1408
2022-05-18 22:00:17 GMT 51.236938 -0.349781 6,200 279 223 -1472
2022-05-18 22:00:14 GMT 51.236526 -0.345624 6,250 279 223 -1472
2022-05-18 22:00:12 GMT 51.236137 -0.341568 6,325 279 222 -1408
2022-05-18 22:00:10 GMT 51.235840 -0.338423 6,350 279 222 -1216
2022-05-18 22:00:07 GMT 51.235439 -0.334320 6,450 279 222 -1280
2022-05-18 22:00:05 GMT 51.235062 -0.330184 6,475 280 222 -1152
2022-05-18 22:00:02 GMT 51.234554 -0.325241 6,525 280 222 -1152
2022-05-18 22:00:00 GMT 51.234329 -0.322909 6,575 281 224 -1024
2022-05-18 21:59:57 GMT 51.233719 -0.317307 6,600 282 225 -1024
2022-05-18 21:59:55 GMT 51.233322 -0.314075 6,650 287 230 -1280
2022-05-18 21:59:52 GMT 51.232738 -0.309982 6,675 286 229 -1216
2022-05-18 21:59:50 GMT 51.232407 -0.307766 6,725 287 230 -1280
2022-05-18 21:59:48 GMT 51.231575 -0.303497 6,775 291 232 -1152
2022-05-18 21:59:45 GMT 51.230225 -0.297699 6,850 295 235 -1024
2022-05-18 21:59:43 GMT 51.229481 -0.295181 6,875 297 237 -960
2022-05-18 21:59:41 GMT 51.228607 -0.292400 6,925 300 240 -768
2022-05-18 21:59:38 GMT 51.226643 -0.286789 6,950 301 242 -640
2022-05-18 21:59:36 GMT 51.226036 -0.285110 7,000 301 242 -512
2022-05-18 21:59:34 GMT 51.224594 -0.281296 7,000 302 243 -384
2022-05-18 21:59:31 GMT 51.222870 -0.276718 7,000 302 243 -256
2022-05-18 21:59:29 GMT 51.221558 -0.273396 7,000 304 245 -64
2022-05-18 21:59:26 GMT 51.220139 -0.269982 7,000 306 246 64
2022-05-18 21:59:24 GMT 51.218914 -0.267181 7,000 306 247 0
2022-05-18 21:59:22 GMT 51.217117 -0.263301 7,000 308 248 64
2022-05-18 21:59:20 GMT 51.213593 -0.256100 7,000 309 249 0
2022-05-18 21:59:17 GMT 51.213593 -0.256100 7,000 309 249 0
2022-05-18 21:59:15 GMT 51.212082 -0.253057 7,000 309 248 -192
2022-05-18 21:59:13 GMT 51.211044 -0.251007 7,000 309 247 -64
2022-05-18 21:59:11 GMT 51.209137 -0.247116 7,000 309 246 -64
2022-05-18 21:59:09 GMT 51.207687 -0.244223 7,000 309 246 0
2022-05-18 21:59:06 GMT 51.206112 -0.241013 7,000 309 245 0
2022-05-18 21:59:04 GMT 51.204300 -0.237394 7,000 309 244 -64
2022-05-18 21:59:01 GMT 51.201050 -0.230787 7,025 308 243 0
2022-05-18 21:58:59 GMT 51.199364 -0.227356 7,025 308 241 128
2022-05-18 21:58:56 GMT 51.199364 -0.227356 7,025 308 241 128
2022-05-18 21:58:54 GMT 51.197754 -0.224032 7,000 308 239 128
2022-05-18 21:58:52 GMT 51.194427 -0.217209 7,000 309 239 -64
2022-05-18 21:58:50 GMT 51.194427 -0.217209 7,000 309 239 -64
2022-05-18 21:58:47 GMT 51.192612 -0.213623 7,000 309 240 0
2022-05-18 21:58:45 GMT 51.191208 -0.210744 7,000 309 239 256
2022-05-18 21:58:43 GMT 51.190285 -0.208893 7,000 309 240 192
2022-05-18 21:58:41 GMT 51.188599 -0.205474 7,000 308 240 -192
2022-05-18 21:58:39 GMT 51.187363 -0.202950 7,000 308 247 64
2022-05-18 21:58:36 GMT 51.185162 -0.198517 7,000 308 244 -64
2022-05-18 21:58:34 GMT 51.183472 -0.195007 7,000 308 246 64
2022-05-18 21:58:31 GMT 51.179855 -0.187584 7,000 308 246 0
2022-05-18 21:58:29 GMT 51.179855 -0.187584 7,000 308 246 0
2022-05-18 21:58:26 GMT 51.178322 -0.184326 7,000 307 246 0
2022-05-18 21:58:23 GMT 51.176178 -0.179901 7,000 308 247 64
2022-05-18 21:58:21 GMT 51.175140 -0.177637 7,000 308 247 64
2022-05-18 21:58:19 GMT 51.173386 -0.173950 7,000 308 246 -128
2022-05-18 21:58:16 GMT 51.171158 -0.169249 7,000 308 246 0
2022-05-18 21:58:14 GMT 51.169785 -0.166354 7,000 308 244 -64
2022-05-18 21:58:11 GMT 51.168045 -0.162791 7,000 308 244 0
2022-05-18 21:58:09 GMT 51.166729 -0.159988 7,000 308 244 0
2022-05-18 21:58:07 GMT 51.164658 -0.155664 7,000 308 244 0
2022-05-18 21:58:04 GMT 51.163284 -0.152769 7,000 308 244 0
2022-05-18 21:58:01 GMT 51.161316 -0.148612 7,000 308 244 64
2022-05-18 21:57:59 GMT 51.159931 -0.145721 7,000 308 244 64
2022-05-18 21:57:56 GMT 51.157516 -0.140595 7,000 308 244 0
2022-05-18 21:57:53 GMT 51.155136 -0.135622 7,000 307 245 0
2022-05-18 21:57:50 GMT 51.151428 -0.127827 7,000 308 245 0
2022-05-18 21:57:47 GMT 51.149368 -0.123448 7,000 307 246 0
2022-05-18 21:57:44 GMT 51.149368 -0.123448 7,000 307 247 0
2022-05-18 21:57:41 GMT 51.145920 -0.116119 7,000 307 247 -64
2022-05-18 21:57:39 GMT 51.145920 -0.116119 7,000 307 248 -64
2022-05-18 21:57:36 GMT 51.144104 -0.112381 7,000 308 249 0
2022-05-18 21:57:34 GMT 51.140350 -0.104370 7,025 308 251 -64
2022-05-18 21:57:31 GMT 51.140350 -0.104370 7,025 308 250 -64
2022-05-18 21:57:29 GMT 51.139683 -0.102997 7,000 308 250 -64
2022-05-18 21:57:27 GMT 51.135677 -0.094681 7,025 308 251 64
2022-05-18 21:57:24 GMT 51.135677 -0.094681 7,025 308 251 64
2022-05-18 21:57:22 GMT 51.134605 -0.092468 7,025 308 251 0
2022-05-18 21:57:20 GMT 51.132797 -0.088707 7,025 308 252 0
2022-05-18 21:57:17 GMT 51.129501 -0.081729 7,000 307 256 -64
2022-05-18 21:57:15 GMT 51.127945 -0.078389 7,000 307 256 -64
2022-05-18 21:57:13 GMT 51.127945 -0.078389 7,000 307 255 64
2022-05-18 21:57:11 GMT 51.125107 -0.072376 7,000 307 260 -64
2022-05-18 21:57:07 GMT 51.122955 -0.067700 7,000 307 264 64
2022-05-18 21:57:04 GMT 51.121353 -0.064285 7,000 307 265 64
2022-05-18 21:57:02 GMT 51.120224 -0.061874 6,975 307 269 64
2022-05-18 21:57:00 GMT 51.118378 -0.057752 6,975 307 271 0
2022-05-18 21:56:57 GMT 51.116318 -0.053299 6,975 306 274 0
2022-05-18 21:56:54 GMT 51.114124 -0.048447 7,000 306 276 -64
2022-05-18 21:56:52 GMT 51.112541 -0.045013 7,000 306 276 -64
2022-05-18 21:56:49 GMT 51.108444 -0.036002 7,000 306 277 0
2022-05-18 21:56:46 GMT 51.108444 -0.036002 7,000 306 277 0
2022-05-18 21:56:44 GMT 51.106567 -0.031846 7,000 306 277 0
2022-05-18 21:56:42 GMT 51.105186 -0.028839 7,000 306 277 0
2022-05-18 21:56:40 GMT 51.103977 -0.026169 7,000 306 277 0
2022-05-18 21:56:38 GMT 51.102722 -0.023383 7,000 306 277 0
2022-05-18 21:56:36 GMT 51.100204 -0.017816 7,000 306 277 0
2022-05-18 21:56:33 GMT 51.098373 -0.013807 7,000 306 278 0
2022-05-18 21:56:31 GMT 51.094761 -0.005798 7,000 306 278 0
2022-05-18 21:56:28 GMT 51.093548 -0.003128 7,000 306 278 0
2022-05-18 21:56:26 GMT 51.093548 -0.003128 7,000 306 278 64
2022-05-18 21:56:24 GMT 51.091312 0.001831 7,000 306 278 0
2022-05-18 21:56:22 GMT 51.090134 0.004380 7,000 306 278 0
2022-05-18 21:56:19 GMT 51.087776 0.009613 7,000 306 278 0
2022-05-18 21:56:16 GMT 51.086147 0.013275 7,000 306 278 0
2022-05-18 21:56:14 GMT 51.083820 0.018463 7,000 306 280 64
2022-05-18 21:56:12 GMT 51.081528 0.023606 7,000 306 280 64
2022-05-18 21:56:09 GMT 51.080704 0.025387 7,000 306 280 0
2022-05-18 21:56:07 GMT 51.078606 0.030060 7,000 306 281 0
2022-05-18 21:56:05 GMT 51.077114 0.033340 7,000 306 281 64
2022-05-18 21:56:03 GMT 51.076035 0.035780 7,000 306 281 0
2022-05-18 21:56:01 GMT 51.074184 0.039902 7,000 306 281 0
2022-05-18 21:55:58 GMT 51.071899 0.045013 7,000 306 282 0
2022-05-18 21:55:55 GMT 51.069672 0.049958 7,000 306 282 0
2022-05-18 21:55:52 GMT 51.066315 0.057526 7,000 306 282 0
2022-05-18 21:55:50 GMT 51.066315 0.057526 7,000 306 282 0
2022-05-18 21:55:48 GMT 51.062080 0.066986 7,000 306 283 0
2022-05-18 21:55:45 GMT 51.062080 0.066986 7,000 306 283 0
2022-05-18 21:55:42 GMT 51.059784 0.072153 7,000 306 282 0
2022-05-18 21:55:40 GMT 51.055389 0.081952 7,000 306 282 0
2022-05-18 21:55:38 GMT 51.055389 0.081952 7,000 306 282 0
2022-05-18 21:55:35 GMT 51.054245 0.084476 7,000 306 281 0
2022-05-18 21:55:33 GMT 51.053513 0.086183 7,000 306 281 0
2022-05-18 21:55:31 GMT 51.051140 0.091476 7,000 306 281 64
2022-05-18 21:55:28 GMT 51.049210 0.095759 7,000 306 281 0
2022-05-18 21:55:25 GMT 51.047043 0.100555 7,000 306 281 64
2022-05-18 21:55:23 GMT 51.046051 0.102811 7,000 306 280 0
2022-05-18 21:55:21 GMT 51.044403 0.106523 7,000 306 280 0
2022-05-18 21:55:18 GMT 51.041641 0.112610 7,000 306 280 -64
2022-05-18 21:55:16 GMT 51.040421 0.115356 7,000 306 280 0
2022-05-18 21:55:14 GMT 51.037079 0.122833 7,000 306 280 0
2022-05-18 21:55:12 GMT 51.036392 0.124487 7,000 306 280 0
2022-05-18 21:55:10 GMT 51.033962 0.129929 7,000 306 280 0
2022-05-18 21:55:08 GMT 51.033962 0.129929 7,000 306 280 0
2022-05-18 21:55:05 GMT 51.032749 0.132599 7,000 306 280 0
2022-05-18 21:55:03 GMT 51.030796 0.136948 7,000 306 279 64
2022-05-18 21:55:01 GMT 51.029305 0.140305 7,000 306 279 64
2022-05-18 21:54:59 GMT 51.027420 0.144604 7,000 306 279 64
2022-05-18 21:54:56 GMT 51.025497 0.148909 7,000 306 278 0
2022-05-18 21:54:53 GMT 51.023209 0.154106 7,000 306 277 0
2022-05-18 21:54:51 GMT 51.021393 0.158157 7,000 306 277 -64
2022-05-18 21:54:48 GMT 51.019997 0.161362 7,000 306 278 -64
2022-05-18 21:54:46 GMT 51.017807 0.166280 7,000 306 278 -64
2022-05-18 21:54:43 GMT 51.015793 0.170808 7,000 305 279 0
2022-05-18 21:54:41 GMT 51.014694 0.173332 7,000 305 279 0
2022-05-18 21:54:38 GMT 51.012501 0.178299 7,000 305 280 -64
2022-05-18 21:54:36 GMT 51.009659 0.184763 7,025 305 280 0
2022-05-18 21:54:34 GMT 51.007370 0.189960 7,025 305 280 0
2022-05-18 21:54:32 GMT 51.007370 0.189960 7,025 305 280 0
2022-05-18 21:54:30 GMT 51.006588 0.191727 7,025 305 280 64
2022-05-18 21:54:28 GMT 51.004761 0.195898 7,000 305 281 0
2022-05-18 21:54:26 GMT 51.003052 0.199890 7,025 305 281 -64
2022-05-18 21:54:23 GMT 51.000916 0.204732 7,025 305 282 -192
2022-05-18 21:54:21 GMT 50.997528 0.212526 7,025 305 281 -320
2022-05-18 21:54:18 GMT 50.997528 0.212526 7,050 305 281 -384
2022-05-18 21:54:16 GMT 50.995651 0.216832 7,050 305 281 -640
2022-05-18 21:54:13 GMT 50.993362 0.222028 7,075 305 281 -640
2022-05-18 21:54:10 GMT 50.991806 0.225591 7,125 305 282 -768
2022-05-18 21:54:08 GMT 50.990204 0.229377 7,150 305 282 -960
2022-05-18 21:54:06 GMT 50.986084 0.238953 7,200 305 282 -960
2022-05-18 21:54:03 GMT 50.986084 0.238953 7,225 305 282 -960
2022-05-18 21:54:01 GMT 50.984894 0.241776 7,250 305 282 -960
2022-05-18 21:53:58 GMT 50.982567 0.247269 7,300 304 281 -1024
2022-05-18 21:53:56 GMT 50.981125 0.250702 7,325 304 281 -1024
2022-05-18 21:53:54 GMT 50.979813 0.254096 7,375 302 279 -960
2022-05-18 21:53:52 GMT 50.978760 0.256694 7,400 300 277 -960
2022-05-18 21:53:50 GMT 50.975510 0.266567 7,450 294 271 -1024
2022-05-18 21:53:47 GMT 50.975510 0.266567 7,525 292 269 -1024
2022-05-18 21:53:44 GMT 50.974190 0.271988 7,550 288 265 -1024
2022-05-18 21:53:42 GMT 50.973541 0.275549 7,600 285 260 -1024
2022-05-18 21:53:40 GMT 50.972946 0.279483 7,750 279 252 -960
2022-05-18 21:53:37 GMT 50.972534 0.284011 7,675 273 244 -960
2022-05-18 21:53:35 GMT 50.972374 0.288391 7,725 267 236 -832
2022-05-18 21:53:32 GMT 50.972374 0.292130 7,750 261 228 -832
2022-05-18 21:53:30 GMT 50.972744 0.297699 7,800 259 226 -832
2022-05-18 21:53:27 GMT 50.973583 0.303268 7,825 253 220 -896
2022-05-18 21:53:24 GMT 50.974457 0.307172 7,875 241 214 -1024
2022-05-18 21:53:22 GMT 50.975143 0.309399 7,900 241 214 -1024
2022-05-18 21:53:19 GMT 50.976421 0.312881 7,900 238 213 -1024
2022-05-18 21:53:17 GMT 50.978394 0.317045 8,000 221 210 -1024
2022-05-18 21:53:14 GMT 50.980179 0.319865 8,025 223 210 -1024
2022-05-18 21:53:12 GMT 50.981403 0.321579 8,100 214 208 -1024
2022-05-18 21:53:09 GMT 50.983337 0.323651 8,100 211 208 -1024
2022-05-18 21:53:07 GMT 50.985443 0.325581 8,175 204 208 -960
2022-05-18 21:53:04 GMT 50.988327 0.327363 8,175 196 208 -960
2022-05-18 21:53:02 GMT 50.992630 0.328848 8,275 189 209 -960
2022-05-18 21:52:59 GMT 50.994186 0.329070 8,275 184 209 -960
2022-05-18 21:52:57 GMT 50.996162 0.329056 8,325 178 210 -960
2022-05-18 21:52:55 GMT 50.996162 0.329056 8,325 175 210 -960
2022-05-18 21:52:53 GMT 50.997696 0.328903 8,425 173 210 -960
2022-05-18 21:52:51 GMT 50.999588 0.328476 8,400 166 212 -960
2022-05-18 21:52:49 GMT 51.003517 0.326614 8,450 146 218 -960
2022-05-18 21:52:45 GMT 51.005844 0.324860 8,500 148 217 -960
2022-05-18 21:52:42 GMT 51.008377 0.322464 8,550 139 221 -1024
2022-05-18 21:52:39 GMT 51.010731 0.319519 8,575 137 222 -1088
2022-05-18 21:52:37 GMT 51.012127 0.317383 8,600 132 224 -1024
2022-05-18 21:52:35 GMT 51.013988 0.313950 8,750 116 233 -1024
2022-05-18 21:52:32 GMT 51.015480 0.310516 8,700 121 230 -1024
2022-05-18 21:52:29 GMT 51.016922 0.306396 8,750 116 233 -1024
2022-05-18 21:52:27 GMT 51.017807 0.303163 8,775 110 236 -1024
2022-05-18 21:52:25 GMT 51.019485 0.293808 8,850 99 242 -1088
2022-05-18 21:52:22 GMT 51.019867 0.288540 8,900 91 247 -960
2022-05-18 21:52:19 GMT 51.019867 0.288540 8,950 91 247 -960
2022-05-18 21:52:17 GMT 51.019913 0.284234 8,975 87 249 -704
2022-05-18 21:52:14 GMT 51.019730 0.280003 9,000 84 251 -512
2022-05-18 21:52:12 GMT 51.019455 0.276143 9,000 80 253 -192
2022-05-18 21:52:09 GMT 51.018879 0.271683 9,000 72 258 -64
2022-05-18 21:52:07 GMT 51.018181 0.267868 9,000 72 258 -64
2022-05-18 21:52:05 GMT 51.017075 0.263078 9,000 64 262 0
2022-05-18 21:52:03 GMT 51.016296 0.260480 9,000 61 264 0
2022-05-18 21:52:01 GMT 51.014362 0.254974 9,000 53 267 0
2022-05-18 21:51:58 GMT 51.013290 0.252380 9,000 51 267 0
2022-05-18 21:51:56 GMT 51.011353 0.248454 9,000 48 269 64
2022-05-18 21:51:54 GMT 51.010174 0.246277 9,000 46 269 64
2022-05-18 21:51:52 GMT 51.007736 0.242442 9,000 40 270 0
2022-05-18 21:51:49 GMT 51.004715 0.238581 9,000 35 271 64
2022-05-18 21:51:46 GMT 51.000584 0.234299 9,000 29 271 64
2022-05-18 21:51:44 GMT 50.997253 0.231678 9,000 26 272 0
2022-05-18 21:51:42 GMT 50.997253 0.231678 9,000 22 272 0
2022-05-18 21:51:40 GMT 50.995377 0.230490 9,000 20 273 0
2022-05-18 21:51:38 GMT 50.993134 0.229228 9,000 16 273 0
2022-05-18 21:51:36 GMT 50.990761 0.228119 9,000 14 273 -64
2022-05-18 21:51:34 GMT 50.985035 0.226593 9,000 7 273 0
2022-05-18 21:51:32 GMT 50.985035 0.226593 9,000 3 272 0
2022-05-18 21:51:29 GMT 50.979355 0.226364 9,000 357 271 0
2022-05-18 21:51:27 GMT 50.979355 0.226364 9,000 357 271 0
2022-05-18 21:51:25 GMT 50.973907 0.227432 9,000 350 268 0
2022-05-18 21:51:23 GMT 50.972626 0.227818 9,000 348 268 0
2022-05-18 21:51:21 GMT 50.972626 0.227818 9,000 342 267 64
2022-05-18 21:51:19 GMT 50.967484 0.230331 9,000 338 266 64
2022-05-18 21:51:17 GMT 50.967484 0.230331 9,000 338 266 64
2022-05-18 21:51:14 GMT 50.963387 0.233307 9,000 331 263 0
2022-05-18 21:51:11 GMT 50.960724 0.235835 9,000 320 259 0
2022-05-18 21:51:08 GMT 50.957432 0.239563 9,000 320 259 0
2022-05-18 21:51:06 GMT 50.955566 0.242233 9,000 316 257 0
2022-05-18 21:51:03 GMT 50.953354 0.245708 9,000 313 256 0
2022-05-18 21:51:00 GMT 50.950562 0.250830 9,000 308 254 0
2022-05-18 21:50:57 GMT 50.948818 0.254440 9,000 307 254 -64
2022-05-18 21:50:54 GMT 50.946072 0.260239 9,000 307 254 -64
2022-05-18 21:50:51 GMT 50.944748 0.263004 9,000 307 254 0
2022-05-18 21:50:48 GMT 50.942905 0.266953 9,000 307 254 0
2022-05-18 21:50:46 GMT 50.941509 0.269928 9,000 307 254 0
2022-05-18 21:50:44 GMT 50.938995 0.275345 9,000 307 253 0
2022-05-18 21:50:41 GMT 50.937645 0.278168 9,000 307 253 0
2022-05-18 21:50:39 GMT 50.936108 0.281448 9,000 307 253 64
2022-05-18 21:50:36 GMT 50.934311 0.285199 9,000 307 253 64
2022-05-18 21:50:34 GMT 50.932896 0.288239 9,000 307 252 0
2022-05-18 21:50:32 GMT 50.931610 0.290989 9,000 307 252 0
2022-05-18 21:50:30 GMT 50.929962 0.294418 9,000 307 252 0
2022-05-18 21:50:27 GMT 50.927719 0.299081 9,000 308 254 -64
2022-05-18 21:50:25 GMT 50.925842 0.303089 9,000 308 254 -64
2022-05-18 21:50:21 GMT 50.923168 0.308685 9,000 308 254 -64
2022-05-18 21:50:18 GMT 50.920422 0.314407 9,000 308 254 -64
2022-05-18 21:50:14 GMT 50.917831 0.319865 9,000 307 253 0
2022-05-18 21:50:11 GMT 50.915771 0.324097 9,000 308 254 0
2022-05-18 21:50:08 GMT 50.914078 0.327660 9,000 307 253 0
2022-05-18 21:50:06 GMT 50.910324 0.335751 9,000 306 252 64
2022-05-18 21:50:03 GMT 50.910324 0.335751 9,000 306 252 64
2022-05-18 21:50:00 GMT 50.908596 0.339584 9,000 304 252 64
2022-05-18 21:49:57 GMT 50.906921 0.343552 9,000 300 249 0
2022-05-18 21:49:55 GMT 50.906021 0.346069 9,000 297 248 0
2022-05-18 21:49:53 GMT 50.904594 0.350494 9,000 288 243 0
2022-05-18 21:49:50 GMT 50.903503 0.354903 9,000 288 243 0
2022-05-18 21:49:47 GMT 50.902359 0.360794 9,000 283 240 0
2022-05-18 21:49:45 GMT 50.901947 0.363588 9,000 275 236 -64
2022-05-18 21:49:42 GMT 50.901474 0.368347 9,000 273 236 0
2022-05-18 21:49:40 GMT 50.901260 0.372719 9,000 272 235 0
2022-05-18 21:49:37 GMT 50.901352 0.380958 9,000 269 234 0
2022-05-18 21:49:35 GMT 50.901352 0.380958 9,000 264 231 0
2022-05-18 21:49:33 GMT 50.901627 0.384447 9,000 262 231 0
2022-05-18 21:49:30 GMT 50.902126 0.388641 9,000 253 227 0
2022-05-18 21:49:28 GMT 50.902733 0.392609 9,000 253 227 0
2022-05-18 21:49:25 GMT 50.903412 0.395805 9,000 243 224 0
2022-05-18 21:49:23 GMT 50.904602 0.400407 9,000 243 224 0
2022-05-18 21:49:20 GMT 50.907303 0.408276 9,000 240 222 0
2022-05-18 21:49:17 GMT 50.907303 0.408276 9,000 237 222 0
2022-05-18 21:49:15 GMT 50.908737 0.411530 9,000 233 220 0
2022-05-18 21:49:12 GMT 50.910645 0.415344 9,000 225 218 0
2022-05-18 21:49:10 GMT 50.911949 0.417557 9,000 222 217 0
2022-05-18 21:49:07 GMT 50.915359 0.422602 9,000 219 216 0
2022-05-18 21:49:03 GMT 50.916962 0.424607 9,000 215 217 0
2022-05-18 21:49:00 GMT 50.920166 0.428021 9,000 187 215 0
2022-05-18 21:48:57 GMT 50.921677 0.429358 9,000 208 216 0
2022-05-18 21:48:55 GMT 50.923958 0.431137 9,000 204 215 -64
2022-05-18 21:48:53 GMT 50.929092 0.434331 9,000 198 215 0
2022-05-18 21:48:50 GMT 50.929092 0.434331 9,000 197 215 0
2022-05-18 21:48:47 GMT 50.931610 0.435370 9,000 194 215 0
2022-05-18 21:48:45 GMT 50.936600 0.436781 9,000 188 214 0
2022-05-18 21:48:42 GMT 50.936600 0.436781 9,000 185 215 0
2022-05-18 21:48:40 GMT 50.938293 0.437003 9,000 181 216 -64
2022-05-18 21:48:38 GMT 50.940811 0.437164 9,000 177 216 0
2022-05-18 21:48:36 GMT 50.942734 0.437078 9,000 176 216 0
2022-05-18 21:48:33 GMT 50.945343 0.436781 9,000 170 217 0
2022-05-18 21:48:30 GMT 50.947906 0.436187 9,000 167 217 0
2022-05-18 21:48:28 GMT 50.950401 0.435333 9,000 162 217 0
2022-05-18 21:48:25 GMT 50.954170 0.433502 9,000 157 219 64
2022-05-18 21:48:22 GMT 50.956375 0.432104 9,000 140 224 0
2022-05-18 21:48:19 GMT 50.959244 0.429764 9,000 147 221 64
2022-05-18 21:48:16 GMT 50.961060 0.428009 9,000 144 222 64
2022-05-18 21:48:14 GMT 50.963562 0.425201 9,000 140 224 0
2022-05-18 21:48:11 GMT 50.965389 0.422745 9,000 137 225 0
2022-05-18 21:48:09 GMT 50.967270 0.419930 9,000 134 227 0
2022-05-18 21:48:06 GMT 50.968788 0.417252 9,000 129 229 -64
2022-05-18 21:48:04 GMT 50.970463 0.414047 9,000 126 230 -64
2022-05-18 21:48:02 GMT 50.971722 0.411301 9,000 126 230 -64
2022-05-18 21:47:59 GMT 50.973541 0.407459 9,000 126 230 0
2022-05-18 21:47:56 GMT 50.975307 0.403595 9,000 125 230 0
2022-05-18 21:47:54 GMT 50.976608 0.400696 9,000 125 230 0
2022-05-18 21:47:52 GMT 50.978165 0.397364 9,000 125 229 0
2022-05-18 21:47:49 GMT 50.979767 0.393800 9,000 125 230 0
2022-05-18 21:47:46 GMT 50.982056 0.388753 9,000 125 229 0
2022-05-18 21:47:43 GMT 50.984940 0.382295 9,000 125 229 0
2022-05-18 21:47:41 GMT 50.984940 0.382295 9,000 125 229 0
2022-05-18 21:47:39 GMT 50.986130 0.379548 9,000 125 229 0
2022-05-18 21:47:37 GMT 50.987175 0.377274 9,000 125 229 0
2022-05-18 21:47:35 GMT 50.989517 0.371976 9,000 125 228 0
2022-05-18 21:47:33 GMT 50.990715 0.369339 9,000 125 228 0
2022-05-18 21:47:31 GMT 50.990715 0.369339 9,000 125 229 0
2022-05-18 21:47:29 GMT 50.992809 0.364685 9,000 125 229 0
2022-05-18 21:47:26 GMT 50.993649 0.362778 9,000 125 229 0
2022-05-18 21:47:24 GMT 50.995277 0.359192 9,025 127 229 0
2022-05-18 21:47:21 GMT 50.996750 0.355868 9,000 125 229 0
2022-05-18 21:47:19 GMT 50.999588 0.349707 9,000 126 229 -64
2022-05-18 21:47:16 GMT 51.000259 0.348282 9,000 126 230 -64
2022-05-18 21:47:13 GMT 51.002213 0.344086 9,000 126 230 0
2022-05-18 21:47:11 GMT 51.003471 0.341415 9,000 127 229 -64
2022-05-18 21:47:09 GMT 51.004681 0.338898 9,000 126 230 0
2022-05-18 21:47:06 GMT 51.006542 0.335007 9,000 127 229 0
2022-05-18 21:47:03 GMT 51.008778 0.330276 9,000 127 229 0
2022-05-18 21:47:00 GMT 51.012314 0.322723 9,000 125 230 64
2022-05-18 21:46:57 GMT 51.012314 0.322723 9,000 122 231 0
2022-05-18 21:46:55 GMT 51.013760 0.318985 9,000 120 232 0
2022-05-18 21:46:52 GMT 51.015198 0.314669 9,000 114 234 0
2022-05-18 21:46:49 GMT 51.016502 0.309830 9,000 109 237 0
2022-05-18 21:46:46 GMT 51.017807 0.302963 9,000 102 240 0
2022-05-18 21:46:41 GMT 51.018555 0.296631 9,000 96 244 0
2022-05-18 21:46:39 GMT 51.018723 0.294775 9,000 90 247 0
2022-05-18 21:46:37 GMT 51.018925 0.289688 9,000 87 249 0
2022-05-18 21:46:35 GMT 51.018906 0.287797 9,000 87 249 0
2022-05-18 21:46:33 GMT 51.018723 0.282675 9,000 80 252 0
2022-05-18 21:46:31 GMT 51.018402 0.278815 9,000 80 252 0
2022-05-18 21:46:29 GMT 51.018036 0.275920 9,000 73 256 0
2022-05-18 21:46:27 GMT 51.017342 0.271454 9,000 69 257 0
2022-05-18 21:46:24 GMT 51.016552 0.267715 9,000 67 258 0
2022-05-18 21:46:22 GMT 51.015060 0.262299 9,000 60 262 0
2022-05-18 21:46:19 GMT 51.012966 0.256271 9,000 55 263 0
2022-05-18 21:46:16 GMT 51.011353 0.252537 9,000 51 265 0
2022-05-18 21:46:14 GMT 51.010574 0.250978 9,000 49 266 0
2022-05-18 21:46:12 GMT 51.008240 0.246747 9,000 46 267 0
2022-05-18 21:46:10 GMT 51.006821 0.244520 9,000 42 268 0
2022-05-18 21:46:08 GMT 51.001888 0.238342 9,000 36 269 0
2022-05-18 21:46:05 GMT 51.001888 0.238342 9,000 32 270 0
2022-05-18 21:46:02 GMT 50.998768 0.235443 9,000 26 271 0
2022-05-18 21:46:00 GMT 50.994141 0.232198 9,000 19 271 0
2022-05-18 21:45:58 GMT 50.994141 0.232198 9,000 19 271 0
2022-05-18 21:45:55 GMT 50.990524 0.230416 9,000 11 272 64
2022-05-18 21:45:53 GMT 50.987503 0.229492 9,000 356 270 64
2022-05-18 21:45:50 GMT 50.981552 0.228709 9,000 0 271 64
2022-05-18 21:45:48 GMT 50.981552 0.228709 9,000 0 271 64
2022-05-18 21:45:45 GMT 50.978378 0.228958 9,000 355 270 0
2022-05-18 21:45:43 GMT 50.975258 0.229568 9,000 345 268 0
2022-05-18 21:45:40 GMT 50.969627 0.231705 9,000 342 267 -64
2022-05-18 21:45:36 GMT 50.966995 0.233237 9,000 336 264 -64
2022-05-18 21:45:34 GMT 50.964661 0.234870 9,000 333 263 0
2022-05-18 21:45:32 GMT 50.961945 0.237274 9,000 329 262 0
2022-05-18 21:45:29 GMT 50.959305 0.239843 9,000 324 260 0
2022-05-18 21:45:26 GMT 50.956779 0.242844 9,075 310 253 -384
2022-05-18 21:45:24 GMT 50.954910 0.245411 9,025 315 255 -128
2022-05-18 21:45:22 GMT 50.952728 0.248718 9,025 315 255 -128
2022-05-18 21:45:19 GMT 50.950790 0.252017 9,050 311 253 -256
2022-05-18 21:45:17 GMT 50.948910 0.255508 9,050 310 253 -320
2022-05-18 21:45:14 GMT 50.947002 0.259247 9,050 309 254 -448
2022-05-18 21:45:12 GMT 50.945160 0.262781 9,075 309 256 -1024
2022-05-18 21:45:09 GMT 50.942997 0.267029 9,125 310 256 -960
2022-05-18 21:45:06 GMT 50.940670 0.271530 9,275 309 256 -1088
2022-05-18 21:45:04 GMT 50.939182 0.274506 9,200 309 256 -1024
2022-05-18 21:45:02 GMT 50.938110 0.276588 9,225 309 256 -1088
2022-05-18 21:44:59 GMT 50.935501 0.281710 9,275 309 257 -1216
2022-05-18 21:44:56 GMT 50.931828 0.289001 9,375 309 257 -1280
2022-05-18 21:44:54 GMT 50.931828 0.289001 9,400 309 257 -1280
2022-05-18 21:44:52 GMT 50.930786 0.290989 9,425 309 257 -1280
2022-05-18 21:44:49 GMT 50.925308 0.301971 9,525 309 257 -1344
2022-05-18 21:44:45 GMT 50.925308 0.301971 9,600 309 257 -1408
2022-05-18 21:44:43 GMT 50.924053 0.304489 9,650 309 257 -1472
2022-05-18 21:44:40 GMT 50.921814 0.308953 9,700 309 256 -1536
2022-05-18 21:44:38 GMT 50.919891 0.312813 9,800 309 255 -1536
2022-05-18 21:44:35 GMT 50.915817 0.321053 9,875 309 254 -1472
2022-05-18 21:44:32 GMT 50.915817 0.321053 9,900 309 254 -1472
2022-05-18 21:44:30 GMT 50.912979 0.326769 10,000 309 254 -1472
2022-05-18 21:44:25 GMT 50.910549 0.331650 10,075 309 252 -1408
2022-05-18 21:44:23 GMT 50.909729 0.333301 10,100 309 252 -1344
2022-05-18 21:44:21 GMT 50.907524 0.337753 10,200 309 252 -1216
2022-05-18 21:44:18 GMT 50.903568 0.345764 10,275 309 252 -1216
2022-05-18 21:44:15 GMT 50.903568 0.345764 10,300 308 253 -1152
2022-05-18 21:44:13 GMT 50.902359 0.348148 10,325 308 253 -1152
2022-05-18 21:44:10 GMT 50.900162 0.352676 10,400 308 253 -1152
2022-05-18 21:44:08 GMT 50.898819 0.355377 10,725 309 255 -1088
2022-05-18 21:44:06 GMT 50.897003 0.359039 10,475 308 253 -1152
2022-05-18 21:44:03 GMT 50.893700 0.365753 10,600 308 253 -1152
2022-05-18 21:43:59 GMT 50.891884 0.369415 10,600 308 255 -1152
2022-05-18 21:43:56 GMT 50.889816 0.373609 10,650 308 255 -1088
2022-05-18 21:43:53 GMT 50.885414 0.382462 10,725 309 256 -1024
2022-05-18 21:43:50 GMT 50.885414 0.382462 10,775 309 256 -1024
2022-05-18 21:43:48 GMT 50.883911 0.385486 10,825 309 256 -960
2022-05-18 21:43:45 GMT 50.882481 0.388336 10,825 309 256 -896
2022-05-18 21:43:43 GMT 50.879700 0.393875 10,875 309 258 -832
2022-05-18 21:43:40 GMT 50.877872 0.397491 10,925 309 258 -832
2022-05-18 21:43:38 GMT 50.876724 0.399813 10,950 309 261 -768
2022-05-18 21:43:35 GMT 50.874435 0.404267 10,975 309 261 -768
2022-05-18 21:43:33 GMT 50.872845 0.407410 11,000 309 263 -768
2022-05-18 21:43:30 GMT 50.870499 0.411987 11,050 309 263 -768
2022-05-18 21:43:27 GMT 50.868469 0.415955 11,100 310 266 -640
2022-05-18 21:43:24 GMT 50.866013 0.420747 11,100 310 266 -640
2022-05-18 21:43:22 GMT 50.862789 0.427017 11,150 310 270 -640
2022-05-18 21:43:20 GMT 50.862789 0.427017 11,150 310 270 -640
2022-05-18 21:43:17 GMT 50.860153 0.432178 11,225 310 272 -512
2022-05-18 21:43:14 GMT 50.856689 0.438843 11,225 309 273 -448
2022-05-18 21:43:12 GMT 50.856689 0.438843 11,225 309 274 -384
2022-05-18 21:43:09 GMT 50.853561 0.445021 11,275 309 277 -512
2022-05-18 21:43:06 GMT 50.851456 0.449178 11,275 309 278 -512
2022-05-18 21:43:04 GMT 50.849846 0.452423 11,275 309 278 -512
2022-05-18 21:43:01 GMT 50.847931 0.456155 11,325 309 281 -512
2022-05-18 21:42:59 GMT 50.846741 0.458531 11,325 309 281 -512
2022-05-18 21:42:56 GMT 50.843750 0.464401 11,375 309 287 -576
2022-05-18 21:42:53 GMT 50.841793 0.468292 11,375 309 285 -576
2022-05-18 21:42:51 GMT 50.839279 0.473303 11,400 309 287 -576
2022-05-18 21:42:48 GMT 50.836487 0.478870 11,450 309 290 -576
2022-05-18 21:42:45 GMT 50.834793 0.482136 11,450 309 290 -576
2022-05-18 21:42:43 GMT 50.833191 0.485328 11,475 309 291 -640
2022-05-18 21:42:41 GMT 50.827881 0.495869 11,525 309 297 -768
2022-05-18 21:42:38 GMT 50.827881 0.495869 11,575 309 296 -640
2022-05-18 21:42:35 GMT 50.826340 0.499039 11,575 309 297 -768
2022-05-18 21:42:33 GMT 50.824814 0.501956 11,600 309 298 -832
2022-05-18 21:42:31 GMT 50.822433 0.506782 11,625 309 299 -960
2022-05-18 21:42:28 GMT 50.819775 0.512009 11,650 309 300 -1024
2022-05-18 21:42:25 GMT 50.816189 0.519028 11,750 309 302 -1152
2022-05-18 21:42:21 GMT 50.814049 0.523300 11,825 309 303 -1024
2022-05-18 21:42:19 GMT 50.812317 0.526676 11,850 309 304 -896
2022-05-18 21:42:17 GMT 50.810326 0.530624 11,875 309 305 -768
2022-05-18 21:42:15 GMT 50.808834 0.533524 11,900 309 307 -704
2022-05-18 21:42:12 GMT 50.806595 0.538033 11,975 309 312 -768
2022-05-18 21:42:10 GMT 50.804367 0.542297 11,975 309 311 -768
2022-05-18 21:42:07 GMT 50.801193 0.548574 12,000 309 313 -768
2022-05-18 21:42:04 GMT 50.798687 0.553513 12,025 309 315 -768
2022-05-18 21:42:01 GMT 50.795940 0.558853 12,075 309 317 -768
2022-05-18 21:41:59 GMT 50.794235 0.562159 12,100 309 317 -832
2022-05-18 21:41:57 GMT 50.790665 0.569211 12,150 309 320 -832
2022-05-18 21:41:54 GMT 50.790070 0.570324 12,175 309 321 -896
2022-05-18 21:41:52 GMT 50.788071 0.574265 12,175 309 322 -896
2022-05-18 21:41:50 GMT 50.785309 0.579677 12,250 309 324 -1088
2022-05-18 21:41:47 GMT 50.780777 0.588511 12,375 310 325 -1472
2022-05-18 21:41:45 GMT 50.780777 0.588511 12,350 310 325 -1536
2022-05-18 21:41:43 GMT 50.777252 0.595340 12,425 310 327 -1600
2022-05-18 21:41:41 GMT 50.777252 0.595340 12,500 310 327 -1536
2022-05-18 21:41:38 GMT 50.772617 0.604324 12,675 310 334 -768
2022-05-18 21:41:36 GMT 50.772617 0.604324 12,600 310 330 -1152
2022-05-18 21:41:33 GMT 50.769470 0.610335 12,625 310 330 -1024
2022-05-18 21:41:31 GMT 50.767548 0.614047 12,675 310 334 -768
2022-05-18 21:41:28 GMT 50.765030 0.618946 12,675 310 334 -768
2022-05-18 21:41:25 GMT 50.762005 0.624695 12,725 310 336 -832
2022-05-18 21:41:23 GMT 50.759441 0.629654 12,775 310 339 -832
2022-05-18 21:41:21 GMT 50.757397 0.633698 12,800 310 340 -960
2022-05-18 21:41:19 GMT 50.755829 0.636687 12,825 309 342 -1024
2022-05-18 21:41:17 GMT 50.754135 0.639954 12,925 309 345 -1408
2022-05-18 21:41:15 GMT 50.748550 0.650866 12,925 309 344 -1216
2022-05-18 21:41:12 GMT 50.748550 0.650866 12,950 310 346 -1600
2022-05-18 21:41:08 GMT 50.745758 0.656281 13,050 309 347 -1856
2022-05-18 21:41:04 GMT 50.741753 0.664139 13,175 309 348 -1920
2022-05-18 21:41:02 GMT 50.738754 0.670018 13,300 309 348 -1920
2022-05-18 21:41:00 GMT 50.736771 0.673828 13,325 309 348 -1920
2022-05-18 21:40:58 GMT 50.734165 0.678940 13,700 309 349 -2304
2022-05-18 21:40:55 GMT 50.729694 0.687637 13,500 309 349 -2176
2022-05-18 21:40:50 GMT 50.727127 0.692733 13,675 309 349 -2432
2022-05-18 21:40:47 GMT 50.723503 0.699768 13,800 310 349 -2496
2022-05-18 21:40:45 GMT 50.719894 0.706762 13,925 310 349 -2432
2022-05-18 21:40:43 GMT 50.716965 0.712478 14,000 310 349 -2304
2022-05-18 21:40:41 GMT 50.714539 0.717155 14,125 310 349 -2240
2022-05-18 21:40:38 GMT 50.714539 0.717155 14,175 310 349 -2240
2022-05-18 21:40:35 GMT 50.711540 0.722961 14,650 308 352 -1856
2022-05-18 21:40:33 GMT 50.709400 0.727158 14,325 310 349 -1984
2022-05-18 21:40:31 GMT 50.707256 0.731277 14,400 309 351 -1920
2022-05-18 21:40:29 GMT 50.705704 0.734377 14,550 309 349 -1984
2022-05-18 21:40:27 GMT 50.702316 0.740909 14,600 309 351 -1920
2022-05-18 21:40:24 GMT 50.700577 0.744249 14,625 309 350 -1984
2022-05-18 21:40:22 GMT 50.698601 0.748138 14,675 309 350 -1984
2022-05-18 21:40:20 GMT 50.696548 0.752192 14,825 309 350 -1920
2022-05-18 21:40:18 GMT 50.694397 0.756424 14,825 309 351 -1920
2022-05-18 21:40:16 GMT 50.692383 0.760358 15,025 309 352 -1856
2022-05-18 21:40:13 GMT 50.689335 0.766525 14,975 308 352 -1856
2022-05-18 21:40:10 GMT 50.686913 0.771332 15,050 309 351 -1856
2022-05-18 21:40:08 GMT 50.684074 0.776978 15,150 308 352 -1856
2022-05-18 21:40:06 GMT 50.682400 0.780411 15,200 308 353 -1792
2022-05-18 21:40:03 GMT 50.678970 0.787452 15,300 308 353 -1792
2022-05-18 21:40:00 GMT 50.676407 0.792797 16,075 308 362 -1856
2022-05-18 21:39:57 GMT 50.672836 0.800220 15,500 308 356 -1664
2022-05-18 21:39:54 GMT 50.670296 0.805417 15,550 308 357 -1664
2022-05-18 21:39:52 GMT 50.668350 0.809447 15,575 308 357 -1664
2022-05-18 21:39:50 GMT 50.665920 0.814547 15,675 308 358 -1728
2022-05-18 21:39:47 GMT 50.663498 0.819521 15,725 308 359 -1728
2022-05-18 21:39:44 GMT 50.660248 0.826288 15,875 308 361 -1792
2022-05-18 21:39:41 GMT 50.657261 0.832437 15,925 308 361 -1792
2022-05-18 21:39:37 GMT 50.652374 0.842458 16,200 308 363 -1920
2022-05-18 21:39:34 GMT 50.649811 0.847754 16,250 308 363 -1984
2022-05-18 21:39:31 GMT 50.646694 0.854187 16,250 308 363 -1984
2022-05-18 21:39:29 GMT 50.645157 0.857305 16,300 308 363 -1984
2022-05-18 21:39:27 GMT 50.643265 0.861198 16,350 308 364 -1984
2022-05-18 21:39:24 GMT 50.639877 0.868137 16,550 308 365 -2176
2022-05-18 21:39:21 GMT 50.636684 0.874823 16,575 308 365 -2240
2022-05-18 21:39:18 GMT 50.633652 0.881002 16,725 308 365 -2240
2022-05-18 21:39:16 GMT 50.632507 0.883315 16,825 308 365 -2240
2022-05-18 21:39:13 GMT 50.628296 0.891989 17,000 308 365 -2240
2022-05-18 21:39:10 GMT 50.626072 0.896499 16,975 308 366 -2176
2022-05-18 21:39:07 GMT 50.622208 0.904421 17,075 308 367 -2176
2022-05-18 21:39:03 GMT 50.617950 0.913094 17,250 308 367 -2112
2022-05-18 21:39:00 GMT 50.615021 0.919021 17,300 308 367 -2112
2022-05-18 21:38:58 GMT 50.612991 0.923148 17,525 308 369 -2048
2022-05-18 21:38:56 GMT 50.611496 0.926249 17,525 308 370 -2048
2022-05-18 21:38:53 GMT 50.605263 0.938886 17,700 308 370 -1984
2022-05-18 21:38:50 GMT 50.602142 0.945270 17,700 308 370 -1984
2022-05-18 21:38:48 GMT 50.600098 0.949450 18,125 308 375 -1920
2022-05-18 21:38:45 GMT 50.600098 0.949450 17,825 308 372 -1856
2022-05-18 21:38:43 GMT 50.597992 0.953714 17,875 308 373 -1792
2022-05-18 21:38:41 GMT 50.592087 0.965785 18,000 308 374 -1792
2022-05-18 21:38:38 GMT 50.592087 0.965785 18,025 308 375 -1920
2022-05-18 21:38:35 GMT 50.589527 0.971102 18,475 308 376 -2112
2022-05-18 21:38:32 GMT 50.586456 0.977338 18,300 308 377 -2112
2022-05-18 21:38:30 GMT 50.583755 0.982915 18,325 308 377 -2048
2022-05-18 21:38:28 GMT 50.581238 0.988119 18,400 308 378 -1984
2022-05-18 21:38:25 GMT 50.579052 0.992630 18,450 308 378 -1984
2022-05-18 21:38:22 GMT 50.574024 1.002874 18,625 308 380 -1984
2022-05-18 21:38:19 GMT 50.571930 1.007253 18,675 308 380 -2048
2022-05-18 21:38:16 GMT 50.567741 1.015790 18,825 308 381 -2048
2022-05-18 21:38:13 GMT 50.565445 1.020500 18,900 308 381 -1984
2022-05-18 21:38:09 GMT 50.561142 1.029318 19,025 308 383 -1920
2022-05-18 21:38:06 GMT 50.557732 1.036278 20,000 308 392 -2624
2022-05-18 21:38:03 GMT 50.555264 1.041400 19,250 308 385 -1984
2022-05-18 21:38:01 GMT 50.549816 1.052461 19,300 308 388 -1920
2022-05-18 21:37:56 GMT 50.547043 1.058157 19,450 308 388 -1920
2022-05-18 21:37:53 GMT 50.543720 1.064932 19,550 308 388 -1984
2022-05-18 21:37:51 GMT 50.542648 1.067233 19,575 308 388 -1984
2022-05-18 21:37:49 GMT 50.539856 1.072902 19,650 308 390 -1984
2022-05-18 21:37:46 GMT 50.535919 1.080997 19,775 308 391 -1984
2022-05-18 21:37:44 GMT 50.533756 1.085420 19,850 308 391 -2112
2022-05-18 21:37:42 GMT 50.532166 1.088658 19,925 308 391 -2112
2022-05-18 21:37:39 GMT 50.528458 1.096392 20,125 308 391 -2944
2022-05-18 21:37:35 GMT 50.524384 1.104776 20,475 308 391 -2944
2022-05-18 21:37:32 GMT 50.521133 1.111571 20,250 308 392 -2624
2022-05-18 21:37:28 GMT 50.516418 1.121328 20,625 308 389 -2880
2022-05-18 21:37:25 GMT 50.511383 1.131736 20,625 308 391 -3136
2022-05-18 21:37:23 GMT 50.511383 1.131736 20,725 308 391 -3136
2022-05-18 21:37:21 GMT 50.508636 1.137374 20,850 308 390 -3200
2022-05-18 21:37:18 GMT 50.505501 1.143766 22,525 308 389 -2880
2022-05-18 21:37:15 GMT 50.502426 1.150001 21,400 308 389 -2368
2022-05-18 21:37:12 GMT 50.499527 1.155950 21,225 308 389 -2624
2022-05-18 21:37:10 GMT 50.496284 1.162547 21,575 308 389 -2496
2022-05-18 21:37:07 GMT 50.494003 1.167223 21,650 308 389 -2432
2022-05-18 21:37:05 GMT 50.491116 1.173013 21,575 308 389 -2432
2022-05-18 21:37:03 GMT 50.488678 1.178067 21,700 308 390 -2368
2022-05-18 21:37:01 GMT 50.486343 1.182693 21,725 308 390 -2304
2022-05-18 21:36:58 GMT 50.484085 1.187340 21,825 308 390 -2368
2022-05-18 21:36:55 GMT 50.480164 1.195269 21,975 308 392 -2304
2022-05-18 21:36:52 GMT 50.477104 1.201370 22,100 308 392 -2240
2022-05-18 21:36:50 GMT 50.474915 1.205898 22,175 308 394 -2112
2022-05-18 21:36:48 GMT 50.468948 1.217892 22,600 308 394 -2176
2022-05-18 21:36:45 GMT 50.468948 1.217892 22,325 308 394 -2112
2022-05-18 21:36:42 GMT 50.464783 1.226204 22,450 308 395 -2176
2022-05-18 21:36:39 GMT 50.461990 1.231842 22,550 308 395 -2176
2022-05-18 21:36:37 GMT 50.460484 1.234923 22,600 308 395 -2176
2022-05-18 21:36:35 GMT 50.457092 1.241816 22,700 308 397 -2240
2022-05-18 21:36:32 GMT 50.452522 1.251031 22,800 308 397 -2368
2022-05-18 21:36:30 GMT 50.452522 1.251031 22,975 308 397 -2496
2022-05-18 21:36:27 GMT 50.449219 1.257718 23,350 308 397 -2496
2022-05-18 21:36:24 GMT 50.445969 1.264295 23,350 308 397 -2496
2022-05-18 21:36:22 GMT 50.443119 1.270109 23,225 308 397 -2432
2022-05-18 21:36:19 GMT 50.439926 1.276655 23,325 308 398 -2432
2022-05-18 21:36:15 GMT 50.435760 1.285111 23,775 308 398 -2368
2022-05-18 21:36:12 GMT 50.432228 1.292304 23,675 308 400 -2240
2022-05-18 21:36:09 GMT 50.426685 1.303513 23,850 308 400 -2240
2022-05-18 21:36:07 GMT 50.426685 1.303513 23,825 308 401 -2304
2022-05-18 21:36:04 GMT 50.423264 1.310481 23,925 308 401 -2304
2022-05-18 21:36:02 GMT 50.421570 1.313950 23,950 308 401 -2304
2022-05-18 21:36:00 GMT 50.418732 1.319660 24,125 308 402 -2240
2022-05-18 21:35:57 GMT 50.416260 1.324669 24,125 308 402 -2240
2022-05-18 21:35:55 GMT 50.413055 1.331225 24,750 308 408 -2240
2022-05-18 21:35:52 GMT 50.409790 1.337808 24,375 308 404 -2240
2022-05-18 21:35:50 GMT 50.406250 1.344934 24,500 308 405 -2240
2022-05-18 21:35:47 GMT 50.404434 1.348646 24,500 308 405 -2240
2022-05-18 21:35:45 GMT 50.401657 1.354354 24,600 308 405 -2240
2022-05-18 21:35:42 GMT 50.398151 1.361414 24,700 308 405 -2240
2022-05-18 21:35:40 GMT 50.392750 1.372326 24,825 308 407 -2240
2022-05-18 21:35:37 GMT 50.388840 1.380269 24,950 308 407 -2240
2022-05-18 21:35:34 GMT 50.388840 1.380269 25,025 308 408 -2240
2022-05-18 21:35:31 GMT 50.386139 1.385723 25,125 308 408 -2240
2022-05-18 21:35:29 GMT 50.383629 1.390736 25,300 308 409 -2304
2022-05-18 21:35:26 GMT 50.380043 1.398010 25,300 308 409 -2304
2022-05-18 21:35:24 GMT 50.377155 1.403875 25,425 308 409 -2368
2022-05-18 21:35:22 GMT 50.374969 1.408328 25,500 308 410 -2368
2022-05-18 21:35:19 GMT 50.371616 1.415158 25,600 308 411 -2432
2022-05-18 21:35:17 GMT 50.369202 1.419911 25,725 308 411 -2432
2022-05-18 21:35:14 GMT 50.366180 1.426054 25,800 308 412 -2432
2022-05-18 21:35:12 GMT 50.363331 1.431786 25,950 308 412 -2432
2022-05-18 21:35:10 GMT 50.361740 1.435017 25,950 308 412 -2432
2022-05-18 21:35:07 GMT 50.357277 1.444034 26,075 308 413 -2368
2022-05-18 21:35:05 GMT 50.354874 1.448894 26,250 308 415 -2240
2022-05-18 21:35:02 GMT 50.347000 1.464723 26,400 308 415 -2240
2022-05-18 21:34:59 GMT 50.347000 1.464723 26,500 308 416 -2368
2022-05-18 21:34:56 GMT 50.342613 1.473653 26,900 308 417 -2624
2022-05-18 21:34:54 GMT 50.342613 1.473653 26,900 308 416 -2432
2022-05-18 21:34:51 GMT 50.338936 1.481002 26,750 308 416 -2560
2022-05-18 21:34:48 GMT 50.334793 1.489316 26,850 308 416 -2560
2022-05-18 21:34:46 GMT 50.331573 1.495803 27,025 308 418 -2624
2022-05-18 21:34:43 GMT 50.326649 1.505721 27,075 308 418 -2624
2022-05-18 21:34:41 GMT 50.323200 1.512624 27,200 308 418 -2624
2022-05-18 21:34:38 GMT 50.320862 1.517270 27,350 308 418 -2624
2022-05-18 21:34:36 GMT 50.320862 1.517270 27,500 308 419 -2496
2022-05-18 21:34:33 GMT 50.317795 1.523413 27,475 308 419 -2560
2022-05-18 21:34:31 GMT 50.314819 1.529413 27,550 308 419 -2496
2022-05-18 21:34:29 GMT 50.312073 1.534906 27,950 308 419 -2304
2022-05-18 21:34:24 GMT 50.302860 1.553452 27,900 308 421 -2112
2022-05-18 21:34:21 GMT 50.302860 1.553452 27,975 308 423 -2304
2022-05-18 21:34:18 GMT 50.299229 1.560652 28,075 308 422 -2176
2022-05-18 21:34:16 GMT 50.296387 1.566368 28,300 308 423 -2368
2022-05-18 21:34:13 GMT 50.288658 1.581809 28,275 309 423 -2496
2022-05-18 21:34:10 GMT 50.288658 1.581809 28,625 308 426 -2560
2022-05-18 21:34:06 GMT 50.286144 1.586856 28,525 308 424 -2560
2022-05-18 21:34:03 GMT 50.281128 1.596921 28,700 309 425 -2560
2022-05-18 21:34:01 GMT 50.279022 1.601109 28,775 308 426 -2560
2022-05-18 21:33:59 GMT 50.276917 1.605377 28,850 308 426 -2560
2022-05-18 21:33:56 GMT 50.272739 1.613728 29,200 308 428 -2304
2022-05-18 21:33:53 GMT 50.269573 1.619964 29,200 308 428 -2304
2022-05-18 21:33:51 GMT 50.267155 1.624863 29,350 308 427 -2432
2022-05-18 21:33:48 GMT 50.262871 1.633326 29,350 308 427 -2304
2022-05-18 21:33:46 GMT 50.261124 1.636891 29,350 308 428 -2240
2022-05-18 21:33:44 GMT 50.258331 1.642456 29,475 309 429 -2176
2022-05-18 21:33:42 GMT 50.256397 1.646242 29,525 309 431 -2304
2022-05-18 21:33:39 GMT 50.252487 1.654036 30,300 309 431 -2432
2022-05-18 21:33:36 GMT 50.248810 1.661385 29,900 309 431 -2432
2022-05-18 21:33:34 GMT 50.245132 1.668734 29,950 309 433 -2496
2022-05-18 21:33:31 GMT 50.242527 1.673856 29,950 309 433 -2496
2022-05-18 21:33:29 GMT 50.240021 1.678884 30,225 308 433 -2752
2022-05-18 21:33:26 GMT 50.236523 1.685882 30,175 308 433 -2688
2022-05-18 21:33:23 GMT 50.230984 1.697017 31,800 308 431 -3968
2022-05-18 21:33:18 GMT 50.227066 1.704760 30,525 308 433 -2880
2022-05-18 21:33:16 GMT 50.223953 1.710972 30,650 308 433 -2944
2022-05-18 21:33:14 GMT 50.220566 1.717770 30,825 308 433 -3008
2022-05-18 21:33:10 GMT 50.216923 1.725002 31,250 308 433 -3264
2022-05-18 21:33:07 GMT 50.212360 1.734133 31,275 308 433 -3136
2022-05-18 21:33:05 GMT 50.210499 1.737844 31,200 308 433 -3328
2022-05-18 21:33:03 GMT 50.208172 1.742521 31,300 308 432 -3456
2022-05-18 21:33:01 GMT 50.202347 1.754126 31,475 308 429 -4096
2022-05-18 21:32:59 GMT 50.202347 1.754126 31,575 308 431 -3776
2022-05-18 21:32:56 GMT 50.199142 1.760559 31,750 308 430 -4032
2022-05-18 21:32:53 GMT 50.196159 1.766498 31,925 308 429 -4160
2022-05-18 21:32:49 GMT 50.188526 1.781789 32,625 308 426 -3968
2022-05-18 21:32:46 GMT 50.187149 1.784628 32,525 308 424 -3648
2022-05-18 21:32:43 GMT 50.184586 1.789687 32,625 308 423 -3264
2022-05-18 21:32:41 GMT 50.181496 1.795819 32,675 308 424 -3456
2022-05-18 21:32:38 GMT 50.178452 1.801902 32,950 309 420 -3008
2022-05-18 21:32:35 GMT 50.174561 1.809701 32,975 308 421 -3008
2022-05-18 21:32:33 GMT 50.169159 1.820390 33,200 309 420 -2944
2022-05-18 21:32:31 GMT 50.169159 1.820390 33,275 309 420 -3008
2022-05-18 21:32:29 GMT 50.166824 1.825031 33,325 309 420 -2880
2022-05-18 21:32:27 GMT 50.165112 1.828556 33,475 309 420 -2752
2022-05-18 21:32:24 GMT 50.157852 1.842884 33,650 309 420 -2368
2022-05-18 21:32:21 GMT 50.157852 1.842884 33,650 309 420 -2496
2022-05-18 21:32:19 GMT 50.154831 1.848811 33,850 309 419 -2240
2022-05-18 21:32:16 GMT 50.151798 1.854908 33,875 309 419 -2240
2022-05-18 21:32:14 GMT 50.149338 1.859725 33,925 309 419 -2176
2022-05-18 21:32:12 GMT 50.146957 1.864496 34,025 309 419 -1984
2022-05-18 21:32:09 GMT 50.142792 1.872808 34,250 308 417 -1088
2022-05-18 21:32:06 GMT 50.139404 1.879457 34,200 309 418 -1536
2022-05-18 21:32:04 GMT 50.137024 1.884155 34,250 309 416 -1024
2022-05-18 21:32:02 GMT 50.134781 1.888637 34,275 309 418 -1408
2022-05-18 21:31:59 GMT 50.130386 1.897382 34,425 309 415 -1024
2022-05-18 21:31:56 GMT 50.126659 1.904792 34,425 309 416 -896
2022-05-18 21:31:53 GMT 50.123913 1.910211 34,525 309 416 -960
2022-05-18 21:31:50 GMT 50.118988 1.920005 34,500 309 415 -960
2022-05-18 21:31:47 GMT 50.117203 1.923547 34,550 309 415 -960
2022-05-18 21:31:45 GMT 50.114788 1.928323 34,575 309 415 -960
2022-05-18 21:31:42 GMT 50.109283 1.939231 34,650 309 415 -1024
2022-05-18 21:31:40 GMT 50.109283 1.939231 34,800 309 414 -64
2022-05-18 21:31:37 GMT 50.104752 1.948194 34,700 309 415 -1024
2022-05-18 21:31:35 GMT 50.100632 1.956434 34,750 309 415 -1024
2022-05-18 21:31:33 GMT 50.100632 1.956434 34,775 309 415 -1024
2022-05-18 21:31:31 GMT 50.097519 1.962505 34,925 309 415 -896
2022-05-18 21:31:29 GMT 50.096375 1.964890 34,825 309 415 -1088
2022-05-18 21:31:27 GMT 50.089142 1.979201 34,875 309 415 -576
2022-05-18 21:31:24 GMT 50.089142 1.979201 34,950 309 415 -768
2022-05-18 21:31:22 GMT 50.087219 1.982960 34,950 309 415 -640
2022-05-18 21:31:20 GMT 50.079685 1.997879 35,000 309 415 -384
2022-05-18 21:31:16 GMT 50.079685 1.997879 35,000 309 415 -192
2022-05-18 21:31:14 GMT 50.077377 2.002403 35,000 309 414 -128
2022-05-18 21:31:12 GMT 50.074905 2.007318 35,025 309 414 0
2022-05-18 21:31:09 GMT 50.071774 2.013542 35,025 309 414 0
2022-05-18 21:31:07 GMT 50.070053 2.016931 35,025 309 414 0
2022-05-18 21:31:04 GMT 50.065491 2.025938 35,025 309 414 0
2022-05-18 21:31:02 GMT 50.063324 2.030230 35,025 309 413 -64
2022-05-18 21:30:58 GMT 50.058929 2.038903 35,025 309 413 0
2022-05-18 21:30:55 GMT 50.052658 2.051263 35,025 309 413 0
2022-05-18 21:30:53 GMT 50.052658 2.051263 35,025 309 413 0
2022-05-18 21:30:51 GMT 50.046844 2.062683 35,025 309 414 0
2022-05-18 21:30:48 GMT 50.046844 2.062683 35,025 309 414 0
2022-05-18 21:30:45 GMT 50.043934 2.068399 35,025 309 414 0
2022-05-18 21:30:43 GMT 50.040768 2.074709 35,025 309 414 0
2022-05-18 21:30:41 GMT 50.038925 2.078295 35,025 309 414 0
2022-05-18 21:30:38 GMT 50.030762 2.094232 35,025 309 414 0
2022-05-18 21:30:35 GMT 50.030762 2.094232 35,025 309 414 0
2022-05-18 21:30:32 GMT 50.028946 2.097883 35,025 309 414 0
2022-05-18 21:30:30 GMT 50.025284 2.105038 35,025 309 413 0
2022-05-18 21:30:28 GMT 50.023361 2.108797 35,025 309 413 0
2022-05-18 21:30:25 GMT 50.019032 2.117244 35,025 309 414 64
2022-05-18 21:30:22 GMT 50.013748 2.127589 35,025 309 413 64
2022-05-18 21:30:20 GMT 50.013748 2.127589 35,025 309 413 64
2022-05-18 21:30:17 GMT 50.007797 2.139154 35,000 309 413 0
2022-05-18 21:30:15 GMT 50.007797 2.139154 35,000 309 413 0
2022-05-18 21:30:13 GMT 50.004913 2.144719 35,000 309 414 -64
2022-05-18 21:30:11 GMT 50.002457 2.149460 35,025 309 414 -64
2022-05-18 21:30:07 GMT 49.998230 2.157657 35,025 309 414 -64
2022-05-18 21:30:04 GMT 49.995255 2.163439 35,025 309 414 -64
2022-05-18 21:30:02 GMT 49.992233 2.169222 35,025 309 414 -64
2022-05-18 21:30:00 GMT 49.988754 2.175943 35,025 309 413 0
2022-05-18 21:29:57 GMT 49.985779 2.181726 35,025 309 413 0
2022-05-18 21:29:54 GMT 49.982895 2.187291 35,025 309 413 0
2022-05-18 21:29:52 GMT 49.980377 2.192134 35,025 309 413 0
2022-05-18 21:29:50 GMT 49.977924 2.196820 35,025 309 413 0
2022-05-18 21:29:48 GMT 49.974804 2.202833 35,025 309 413 0
2022-05-18 21:29:45 GMT 49.971966 2.208326 35,025 309 413 0
2022-05-18 21:29:43 GMT 49.966427 2.218941 35,025 309 414 0
2022-05-18 21:29:41 GMT 49.966427 2.218941 35,025 309 413 0
2022-05-18 21:29:38 GMT 49.963394 2.224804 35,025 309 413 0
2022-05-18 21:29:35 GMT 49.959778 2.231742 35,025 309 414 0
2022-05-18 21:29:32 GMT 49.956043 2.239058 35,025 309 414 0
2022-05-18 21:29:30 GMT 49.953232 2.244463 35,025 309 413 0
2022-05-18 21:29:27 GMT 49.951015 2.248708 35,025 309 413 0
2022-05-18 21:29:24 GMT 49.946129 2.258210 35,025 309 413 0
2022-05-18 21:29:21 GMT 49.942593 2.265188 35,025 309 413 0
2022-05-18 21:29:17 GMT 49.939007 2.272166 35,025 309 413 0
2022-05-18 21:29:15 GMT 49.936447 2.277288 35,000 308 414 0
2022-05-18 21:29:12 GMT 49.932209 2.285750 35,025 308 415 0
2022-05-18 21:29:09 GMT 49.928879 2.292456 35,025 308 415 0
2022-05-18 21:29:05 GMT 49.922436 2.305496 35,025 308 415 64
2022-05-18 21:29:03 GMT 49.920013 2.310469 35,025 308 415 64
2022-05-18 21:29:01 GMT 49.920013 2.310469 35,025 308 415 0
2022-05-18 21:28:58 GMT 49.916565 2.317465 35,000 308 415 64
2022-05-18 21:28:55 GMT 49.912098 2.326503 35,025 308 414 0
2022-05-18 21:28:52 GMT 49.909164 2.332442 35,000 308 414 64
2022-05-18 21:28:49 GMT 49.903931 2.343124 35,000 308 414 0
2022-05-18 21:28:47 GMT 49.903931 2.343124 35,000 308 414 64
2022-05-18 21:28:45 GMT 49.900600 2.349887 35,000 308 414 0
2022-05-18 21:28:42 GMT 49.897293 2.356567 35,000 308 413 0
2022-05-18 21:28:39 GMT 49.894318 2.362711 35,000 308 413 0
2022-05-18 21:28:36 GMT 49.891476 2.368444 35,000 308 413 0
2022-05-18 21:28:34 GMT 49.888962 2.373481 35,000 308 413 0
2022-05-18 21:28:31 GMT 49.885391 2.380781 35,025 308 413 0
2022-05-18 21:28:29 GMT 49.882828 2.385985 35,025 308 413 0
2022-05-18 21:28:27 GMT 49.880348 2.391011 35,025 308 413 0
2022-05-18 21:28:24 GMT 49.875824 2.400296 35,025 308 412 0
2022-05-18 21:28:21 GMT 49.873878 2.404150 35,025 308 412 0
2022-05-18 21:28:19 GMT 49.870808 2.410460 35,025 308 411 64
2022-05-18 21:28:17 GMT 49.868408 2.415258 35,025 308 411 -64
2022-05-18 21:28:13 GMT 49.864380 2.423425 35,025 308 411 -64
2022-05-18 21:28:11 GMT 49.862244 2.427756 35,025 308 411 -64
2022-05-18 21:28:08 GMT 49.858658 2.435031 35,025 308 412 -64
2022-05-18 21:28:05 GMT 49.854652 2.443196 35,025 308 412 -128
2022-05-18 21:28:03 GMT 49.853531 2.445398 35,025 308 412 -128
2022-05-18 21:28:01 GMT 49.850742 2.451139 35,050 308 412 -128
2022-05-18 21:27:59 GMT 49.847717 2.457226 35,050 308 411 -192
2022-05-18 21:27:57 GMT 49.845436 2.461903 35,050 308 411 -192
2022-05-18 21:27:53 GMT 49.840759 2.471418 35,075 308 411 -320
2022-05-18 21:27:51 GMT 49.838638 2.475710 35,075 308 411 -384
2022-05-18 21:27:49 GMT 49.835194 2.482762 35,100 308 411 -512
2022-05-18 21:27:46 GMT 49.829361 2.494547 35,150 308 412 -896
2022-05-18 21:27:43 GMT 49.829361 2.494547 35,150 308 411 -896
2022-05-18 21:27:41 GMT 49.827621 2.498089 35,200 308 412 -896
2022-05-18 21:27:39 GMT 49.824554 2.504377 35,400 308 411 -960
2022-05-18 21:27:37 GMT 49.822449 2.508641 35,400 308 411 -960
2022-05-18 21:27:34 GMT 49.815968 2.521808 35,325 308 412 -960
2022-05-18 21:27:31 GMT 49.815968 2.521808 35,425 308 412 -960
2022-05-18 21:27:28 GMT 49.812424 2.528952 35,400 308 412 -960
2022-05-18 21:27:26 GMT 49.805511 2.542974 35,675 308 412 -1024
2022-05-18 21:27:22 GMT 49.805511 2.542974 35,500 308 411 -960
2022-05-18 21:27:20 GMT 49.803314 2.547383 35,500 308 411 -960
2022-05-18 21:27:17 GMT 49.799286 2.555550 35,575 308 411 -960
2022-05-18 21:27:13 GMT 49.795120 2.563934 35,625 308 412 -1024
2022-05-18 21:27:11 GMT 49.792786 2.568632 35,650 308 412 -1024
2022-05-18 21:27:09 GMT 49.789993 2.574364 35,700 308 412 -1024
2022-05-18 21:27:06 GMT 49.786827 2.580599 35,950 308 412 -1024
2022-05-18 21:27:03 GMT 49.783241 2.587874 35,800 308 412 -1024
2022-05-18 21:27:01 GMT 49.776031 2.602459 35,875 308 412 -1024
2022-05-18 21:26:57 GMT 49.776031 2.602459 35,925 308 411 -1024
2022-05-18 21:26:54 GMT 49.769440 2.615758 36,000 308 412 -1024
2022-05-18 21:26:51 GMT 49.769440 2.615758 36,025 308 412 -960
2022-05-18 21:26:49 GMT 49.767380 2.619950 36,050 308 412 -960
2022-05-18 21:26:46 GMT 49.760330 2.634189 36,125 308 411 -960
2022-05-18 21:26:43 GMT 49.760330 2.634189 36,125 308 411 -960
2022-05-18 21:26:40 GMT 49.756302 2.642356 36,175 308 411 -1024
2022-05-18 21:26:38 GMT 49.755173 2.644587 36,200 308 410 -960
2022-05-18 21:26:36 GMT 49.751450 2.652114 36,350 308 407 -960
2022-05-18 21:26:33 GMT 49.749214 2.656613 36,300 308 408 -960
2022-05-18 21:26:30 GMT 49.745728 2.663679 36,325 308 408 -896
2022-05-18 21:26:28 GMT 49.743439 2.668304 36,425 308 407 -960
2022-05-18 21:26:25 GMT 49.740414 2.674429 36,400 308 407 -960
2022-05-18 21:26:23 GMT 49.738083 2.679146 36,425 308 406 -960
2022-05-18 21:26:21 GMT 49.735565 2.684206 36,500 308 406 -896
2022-05-18 21:26:19 GMT 49.733734 2.687892 36,500 308 406 -896
2022-05-18 21:26:15 GMT 49.726135 2.703287 36,600 308 405 -960
2022-05-18 21:26:13 GMT 49.726135 2.703287 36,600 308 404 -960
2022-05-18 21:26:09 GMT 49.721375 2.712900 36,650 308 404 -1024
2022-05-18 21:26:06 GMT 49.718487 2.718745 36,725 308 404 -1024
2022-05-18 21:26:04 GMT 49.715698 2.724320 36,725 308 404 -1024
2022-05-18 21:26:00 GMT 49.711086 2.733591 36,800 308 404 -1088
2022-05-18 21:25:57 GMT 49.707184 2.741450 36,875 308 405 -1088
2022-05-18 21:25:54 GMT 49.704384 2.747102 36,900 308 405 -1024
2022-05-18 21:25:50 GMT 49.698006 2.759870 36,975 308 405 -576
2022-05-18 21:25:48 GMT 49.698006 2.759870 37,000 308 404 -256
2022-05-18 21:25:45 GMT 49.691299 2.773181 37,000 308 404 -128
2022-05-18 21:25:43 GMT 49.691299 2.773181 37,025 308 404 -64
2022-05-18 21:25:40 GMT 49.687866 2.780047 37,025 308 404 0
2022-05-18 21:25:37 GMT 49.685120 2.785468 37,025 308 404 0
2022-05-18 21:25:34 GMT 49.681526 2.792606 37,025 309 403 192
2022-05-18 21:25:32 GMT 49.679665 2.796243 37,000 309 402 256
2022-05-18 21:25:30 GMT 49.676590 2.802256 37,000 309 401 384
2022-05-18 21:25:28 GMT 49.674683 2.805995 36,975 309 401 384
2022-05-18 21:25:26 GMT 49.672165 2.810910 36,975 309 400 192
2022-05-18 21:25:24 GMT 49.669235 2.816657 36,950 309 401 64
2022-05-18 21:25:21 GMT 49.666443 2.822113 36,950 308 400 0
2022-05-18 21:25:19 GMT 49.664627 2.825862 36,950 306 398 0
2022-05-18 21:25:17 GMT 49.662579 2.830241 36,975 306 398 -64
2022-05-18 21:25:14 GMT 49.658901 2.838407 36,975 304 397 -64
2022-05-18 21:25:12 GMT 49.657364 2.841896 36,975 303 396 -64
2022-05-18 21:25:10 GMT 49.655136 2.847266 36,975 303 396 -64
2022-05-18 21:25:08 GMT 49.651657 2.856156 36,975 300 393 0
2022-05-18 21:25:04 GMT 49.649368 2.862228 36,975 300 393 -64
2022-05-18 21:25:02 GMT 49.647491 2.867359 36,975 300 394 0
2022-05-18 21:25:00 GMT 49.645775 2.872182 36,975 300 393 0
2022-05-18 21:24:57 GMT 49.642048 2.882426 36,975 300 394 0
2022-05-18 21:24:53 GMT 49.639908 2.888291 36,975 300 394 0
2022-05-18 21:24:50 GMT 49.636917 2.896415 36,975 300 394 0
2022-05-18 21:24:48 GMT 49.635086 2.901547 36,975 300 394 0
2022-05-18 21:24:46 GMT 49.633118 2.906968 36,975 300 394 -128
2022-05-18 21:24:43 GMT 49.628815 2.918677 36,975 300 394 0
2022-05-18 21:24:41 GMT 49.628815 2.918677 36,975 300 394 0
2022-05-18 21:24:39 GMT 49.627029 2.923592 36,975 300 394 -64
2022-05-18 21:24:36 GMT 49.624924 2.929447 36,975 300 395 -64
2022-05-18 21:24:33 GMT 49.622078 2.937135 36,975 300 394 -128
2022-05-18 21:24:30 GMT 49.619053 2.945449 36,975 300 394 -128
2022-05-18 21:24:28 GMT 49.617325 2.950263 36,975 300 394 -128
2022-05-18 21:24:26 GMT 49.615654 2.954728 37,000 300 394 -64
2022-05-18 21:24:23 GMT 49.613388 2.960960 37,000 300 394 -64
2022-05-18 21:24:21 GMT 49.609322 2.972099 37,000 300 395 -64
2022-05-18 21:24:19 GMT 49.605148 2.983511 37,000 300 395 0
2022-05-18 21:24:15 GMT 49.605148 2.983511 37,000 300 396 0
2022-05-18 21:24:12 GMT 49.603638 2.987703 37,000 300 395 -64
2022-05-18 21:24:09 GMT 49.600803 2.995408 37,000 300 395 0
2022-05-18 21:24:07 GMT 49.598969 3.000424 37,000 300 396 0
2022-05-18 21:24:05 GMT 49.597126 3.005429 37,000 300 396 0
2022-05-18 21:24:03 GMT 49.594757 3.011989 37,000 300 396 0
2022-05-18 21:23:59 GMT 49.591167 3.021983 37,000 300 397 0
2022-05-18 21:23:56 GMT 49.588467 3.029332 37,000 300 398 -64
2022-05-18 21:23:53 GMT 49.586243 3.035407 37,000 300 398 -64
2022-05-18 21:23:50 GMT 49.583130 3.044008 37,000 300 398 -64
2022-05-18 21:23:48 GMT 49.581718 3.047815 37,000 300 398 -64
2022-05-18 21:23:45 GMT 49.579056 3.055139 37,025 300 400 0
2022-05-18 21:23:42 GMT 49.576317 3.062662 37,025 300 400 0
2022-05-18 21:23:39 GMT 49.571800 3.075058 37,025 300 400 0
2022-05-18 21:23:37 GMT 49.571800 3.075058 37,025 300 400 0
2022-05-18 21:23:35 GMT 49.569988 3.080032 37,025 300 400 0
2022-05-18 21:23:32 GMT 49.566448 3.089682 37,000 300 406 64
2022-05-18 21:23:29 GMT 49.564682 3.094458 37,025 300 400 0
2022-05-18 21:23:27 GMT 49.562817 3.099555 37,025 300 400 64
2022-05-18 21:23:25 GMT 49.559967 3.107324 37,025 300 400 64
2022-05-18 21:23:22 GMT 49.555603 3.119375 37,025 300 400 64
2022-05-18 21:23:19 GMT 49.555603 3.119375 37,025 300 400 0
2022-05-18 21:23:17 GMT 49.553692 3.124571 37,025 300 401 0
2022-05-18 21:23:14 GMT 49.550854 3.132291 37,025 300 401 0
2022-05-18 21:23:11 GMT 49.548019 3.140138 37,025 300 401 0
2022-05-18 21:23:09 GMT 49.546280 3.144836 37,025 300 401 0
2022-05-18 21:23:07 GMT 49.544754 3.148919 37,025 300 402 0
2022-05-18 21:23:05 GMT 49.540878 3.159509 37,000 300 404 64
2022-05-18 21:23:03 GMT 49.539139 3.164207 37,000 300 405 64
2022-05-18 21:23:01 GMT 49.539139 3.164207 37,000 300 404 64
2022-05-18 21:22:59 GMT 49.536236 3.172080 37,000 300 404 64
2022-05-18 21:22:56 GMT 49.534748 3.176088 37,000 300 405 64
2022-05-18 21:22:53 GMT 49.531162 3.185887 37,000 300 406 0
2022-05-18 21:22:50 GMT 49.529617 3.190010 37,000 300 406 0
2022-05-18 21:22:48 GMT 49.527237 3.196516 37,025 300 406 0
2022-05-18 21:22:46 GMT 49.524506 3.203925 37,025 300 406 64
2022-05-18 21:22:43 GMT 49.522736 3.208676 37,025 300 406 64
2022-05-18 21:22:40 GMT 49.519501 3.217332 37,000 300 406 64
2022-05-18 21:22:38 GMT 49.518036 3.221307 37,000 300 406 64
2022-05-18 21:22:36 GMT 49.516068 3.226583 37,000 300 406 0
2022-05-18 21:22:33 GMT 49.513332 3.233989 37,000 300 406 0
2022-05-18 21:22:30 GMT 49.510262 3.242229 37,000 300 406 0
2022-05-18 21:22:28 GMT 49.508865 3.246015 37,000 300 406 0
2022-05-18 21:22:25 GMT 49.504990 3.256362 37,000 300 407 -64
2022-05-18 21:22:22 GMT 49.501007 3.267132 37,000 300 407 -64
2022-05-18 21:22:20 GMT 49.501007 3.267132 37,000 300 407 -64
2022-05-18 21:22:18 GMT 49.499275 3.271773 37,000 300 407 -64
2022-05-18 21:22:15 GMT 49.496387 3.279567 37,000 300 408 0
2022-05-18 21:22:12 GMT 49.493080 3.288327 37,000 300 408 0
2022-05-18 21:22:10 GMT 49.491592 3.292335 37,000 300 407 -64
2022-05-18 21:22:07 GMT 49.487217 3.304138 37,000 300 408 0
2022-05-18 21:22:05 GMT 49.485168 3.309559 37,025 300 408 0
2022-05-18 21:22:03 GMT 49.485168 3.309559 37,000 300 408 0
2022-05-18 21:22:00 GMT 49.482235 3.317500 37,025 300 408 -64
2022-05-18 21:21:58 GMT 49.477394 3.330565 37,025 300 408 -64
2022-05-18 21:21:54 GMT 49.477394 3.330565 37,025 300 408 -64
2022-05-18 21:21:51 GMT 49.473576 3.340883 37,050 300 407 -64
2022-05-18 21:21:49 GMT 49.472179 3.344669 37,050 300 407 -128
2022-05-18 21:21:47 GMT 49.470383 3.349529 37,050 300 407 -128
2022-05-18 21:21:45 GMT 49.468689 3.354245 37,050 300 406 -128
2022-05-18 21:21:42 GMT 49.465290 3.363524 37,050 300 406 -192
2022-05-18 21:21:40 GMT 49.463470 3.368394 37,050 300 406 -256
2022-05-18 21:21:38 GMT 49.461704 3.373322 37,075 300 406 -448
2022-05-18 21:21:35 GMT 49.459808 3.378440 37,075 300 406 -512
2022-05-18 21:21:33 GMT 49.456970 3.386247 37,550 303 408 -1024
2022-05-18 21:21:31 GMT 49.455654 3.389876 37,150 300 407 -960
2022-05-18 21:21:28 GMT 49.452896 3.397594 37,175 300 406 -1024
2022-05-18 21:21:26 GMT 49.451183 3.402199 37,200 300 406 -1024
2022-05-18 21:21:23 GMT 49.447998 3.410893 38,000 308 412 -1024
2022-05-18 21:21:19 GMT 49.445179 3.418233 37,350 302 408 -1024
2022-05-18 21:21:17 GMT 49.443130 3.423429 37,350 303 408 -1024
2022-05-18 21:21:15 GMT 49.440434 3.429739 37,400 308 411 -1024
2022-05-18 21:21:13 GMT 49.435265 3.441170 37,450 306 410 -1024
2022-05-18 21:21:10 GMT 49.435265 3.441170 37,450 306 410 -1024
2022-05-18 21:21:08 GMT 49.432297 3.447394 37,500 307 411 -960
2022-05-18 21:21:06 GMT 49.429916 3.452309 37,575 308 411 -960
2022-05-18 21:21:03 GMT 49.426327 3.459609 37,575 308 411 -960
2022-05-18 21:21:00 GMT 49.424103 3.464144 37,625 308 411 -1024
2022-05-18 21:20:58 GMT 49.417389 3.477751 37,675 308 412 -1024
2022-05-18 21:20:55 GMT 49.417389 3.477751 37,725 308 412 -1024
2022-05-18 21:20:51 GMT 49.412220 3.488159 37,775 308 412 -1088
2022-05-18 21:20:47 GMT 49.405289 3.502244 37,925 308 411 -256
2022-05-18 21:20:42 GMT 49.402176 3.508582 37,925 308 412 -640
2022-05-18 21:20:40 GMT 49.400398 3.512156 37,950 308 412 -512
2022-05-18 21:20:37 GMT 49.397049 3.519005 38,000 308 409 0
2022-05-18 21:20:35 GMT 49.394852 3.523442 37,975 308 411 -128
2022-05-18 21:20:32 GMT 49.390202 3.532827 38,000 308 411 -64
2022-05-18 21:20:29 GMT 49.388386 3.536513 38,000 308 411 0
2022-05-18 21:20:27 GMT 49.386013 3.541428 38,000 308 409 0
2022-05-18 21:20:25 GMT 49.383316 3.546823 38,000 308 409 0
2022-05-18 21:20:23 GMT 49.380020 3.553584 38,000 308 409 0
2022-05-18 21:20:20 GMT 49.376656 3.560365 38,000 308 409 0
2022-05-18 21:20:17 GMT 49.374142 3.565497 38,000 308 409 0
2022-05-18 21:20:15 GMT 49.372559 3.568677 38,000 308 409 0
2022-05-18 21:20:12 GMT 49.369171 3.575557 38,000 307 409 0
2022-05-18 21:20:10 GMT 49.366562 3.580839 38,000 307 409 0
2022-05-18 21:20:08 GMT 49.363762 3.586530 38,000 307 409 0
2022-05-18 21:20:06 GMT 49.361385 3.591373 38,000 307 408 0
2022-05-18 21:20:02 GMT 49.356171 3.601998 38,000 307 409 0
2022-05-18 21:19:59 GMT 49.353836 3.606685 38,000 307 409 0
2022-05-18 21:19:56 GMT 49.350166 3.614213 38,000 307 408 0
2022-05-18 21:19:54 GMT 49.348446 3.617682 38,000 307 408 0
2022-05-18 21:19:51 GMT 49.344910 3.624995 38,000 307 408 0
2022-05-18 21:19:48 GMT 49.342018 3.630837 38,000 307 408 0
2022-05-18 21:19:46 GMT 49.339600 3.635841 38,000 307 408 0
2022-05-18 21:19:44 GMT 49.337219 3.640700 38,000 307 408 0
2022-05-18 21:19:41 GMT 49.334431 3.646304 38,000 307 408 0
2022-05-18 21:19:39 GMT 49.331638 3.652087 38,000 307 408 0
2022-05-18 21:19:36 GMT 49.328293 3.658940 38,000 307 408 0
2022-05-18 21:19:34 GMT 49.325363 3.664926 38,000 307 408 0
2022-05-18 21:19:32 GMT 49.321060 3.673659 38,000 307 408 0
2022-05-18 21:19:30 GMT 49.321060 3.673659 38,000 307 408 0
2022-05-18 21:19:27 GMT 49.317535 3.680998 38,000 307 408 0
2022-05-18 21:19:25 GMT 49.315796 3.684575 38,000 307 408 0
2022-05-18 21:19:22 GMT 49.311859 3.692603 38,000 307 408 0
2022-05-18 21:19:19 GMT 49.305771 3.705069 38,000 307 408 -64
2022-05-18 21:19:16 GMT 49.305771 3.705069 38,000 307 408 -64
2022-05-18 21:19:14 GMT 49.303009 3.710705 38,000 307 408 0
2022-05-18 21:19:11 GMT 49.296677 3.723642 38,000 307 407 0
2022-05-18 21:19:06 GMT 49.290527 3.736197 38,000 307 407 0
2022-05-18 21:19:04 GMT 49.290527 3.736197 38,000 307 407 0
2022-05-18 21:19:01 GMT 49.284622 3.748169 38,000 307 407 0
2022-05-18 21:18:58 GMT 49.284622 3.748169 38,000 308 408 0
2022-05-18 21:18:56 GMT 49.282433 3.752626 38,000 308 408 0
2022-05-18 21:18:54 GMT 49.280548 3.756409 38,000 308 408 0
2022-05-18 21:18:51 GMT 49.277161 3.763310 38,000 308 408 0
2022-05-18 21:18:48 GMT 49.273315 3.771128 38,000 308 408 0
2022-05-18 21:18:45 GMT 49.266560 3.784790 38,000 308 408 0
2022-05-18 21:18:42 GMT 49.266560 3.784790 38,000 308 408 0
2022-05-18 21:18:38 GMT 49.262512 3.792959 38,000 308 408 0
2022-05-18 21:18:36 GMT 49.259716 3.798595 38,000 308 408 0
2022-05-18 21:18:32 GMT 49.255432 3.807341 38,000 307 407 -64
2022-05-18 21:18:28 GMT 49.247635 3.823101 38,000 307 407 -64
2022-05-18 21:18:25 GMT 49.245983 3.826422 38,000 307 407 -64
2022-05-18 21:18:23 GMT 49.245983 3.826422 38,000 307 407 -64
2022-05-18 21:18:21 GMT 49.243011 3.832538 38,000 307 407 -64
2022-05-18 21:18:19 GMT 49.240631 3.837327 38,000 307 407 -64
2022-05-18 21:18:16 GMT 49.236954 3.844853 38,000 307 407 -64
2022-05-18 21:18:14 GMT 49.231972 3.854900 38,000 308 408 0
2022-05-18 21:18:11 GMT 49.231972 3.854900 38,000 308 408 0
2022-05-18 21:18:09 GMT 49.228821 3.861272 38,000 308 408 -64
2022-05-18 21:18:06 GMT 49.225525 3.867962 38,025 308 408 -64
2022-05-18 21:18:02 GMT 49.217972 3.883315 38,025 307 409 -64
2022-05-18 21:17:59 GMT 49.217972 3.883315 38,025 308 408 -64
2022-05-18 21:17:56 GMT 49.214539 3.890217 38,025 308 408 -64
2022-05-18 21:17:54 GMT 49.212158 3.895076 38,025 308 409 0
2022-05-18 21:17:52 GMT 49.209778 3.899935 38,025 308 409 0
2022-05-18 21:17:50 GMT 49.207397 3.904724 38,025 308 409 0
2022-05-18 21:17:47 GMT 49.204880 3.909795 38,025 308 409 0
2022-05-18 21:17:44 GMT 49.201851 3.915903 38,025 308 409 0
2022-05-18 21:17:41 GMT 49.196686 3.926345 38,025 308 409 0
2022-05-18 21:17:37 GMT 49.192959 3.933828 38,025 308 409 0
2022-05-18 21:17:34 GMT 49.190025 3.939827 38,025 308 409 0
2022-05-18 21:17:31 GMT 49.186203 3.947543 38,025 308 409 0
2022-05-18 21:17:28 GMT 49.182114 3.955729 38,025 308 411 0
2022-05-18 21:17:25 GMT 49.179832 3.960354 38,025 308 411 0
2022-05-18 21:17:23 GMT 49.176525 3.967076 38,025 308 411 0
2022-05-18 21:17:20 GMT 49.174164 3.971769 38,025 308 411 0
2022-05-18 21:17:17 GMT 49.170101 3.979942 38,025 308 411 -64
2022-05-18 21:17:14 GMT 49.166611 3.987051 38,050 308 411 -64
2022-05-18 21:17:11 GMT 49.163132 3.993953 38,050 308 411 -64
2022-05-18 21:17:09 GMT 49.161530 3.997192 38,050 308 412 0
2022-05-18 21:17:07 GMT 49.158646 4.002967 38,050 308 411 0
2022-05-18 21:17:04 GMT 49.152412 4.015575 38,050 308 412 0
2022-05-18 21:17:02 GMT 49.152412 4.015575 38,050 308 411 0
2022-05-18 21:16:58 GMT 49.144867 4.030644 38,050 308 412 0
2022-05-18 21:16:55 GMT 49.144867 4.030644 38,050 308 412 0
2022-05-18 21:16:53 GMT 49.142349 4.035785 38,050 308 412 0
2022-05-18 21:16:51 GMT 49.139603 4.041349 38,050 308 412 0
2022-05-18 21:16:48 GMT 49.137314 4.045997 38,050 307 412 64
2022-05-18 21:16:44 GMT 49.132050 4.056631 38,025 307 412 64
2022-05-18 21:16:42 GMT 49.126949 4.066965 38,025 307 413 0
2022-05-18 21:16:37 GMT 49.124344 4.072314 38,050 307 413 -64
2022-05-18 21:16:34 GMT 49.120804 4.079542 38,025 307 413 0
2022-05-18 21:16:32 GMT 49.118382 4.084457 38,050 307 413 -64
2022-05-18 21:16:27 GMT 49.112656 4.096093 38,050 307 413 0
2022-05-18 21:16:24 GMT 49.108932 4.103675 38,050 307 413 0
2022-05-18 21:16:22 GMT 49.106644 4.108323 38,050 307 413 0
2022-05-18 21:16:20 GMT 49.104977 4.111633 38,050 307 413 0
2022-05-18 21:16:17 GMT 49.100006 4.121775 38,050 307 413 0
2022-05-18 21:16:14 GMT 49.098225 4.125366 38,050 307 413 0
2022-05-18 21:16:11 GMT 49.094604 4.132690 38,025 307 414 0
2022-05-18 21:16:08 GMT 49.090256 4.141564 38,050 307 414 0
2022-05-18 21:16:04 GMT 49.086823 4.148536 38,050 307 414 0
2022-05-18 21:16:02 GMT 49.083984 4.154381 38,025 307 414 0
2022-05-18 21:16:00 GMT 49.083298 4.155790 38,025 307 414 0
2022-05-18 21:15:57 GMT 49.078766 4.164975 38,050 307 414 0
2022-05-18 21:15:54 GMT 49.075516 4.171636 38,025 307 414 0
2022-05-18 21:15:51 GMT 49.071087 4.180659 38,025 307 413 64
2022-05-18 21:15:48 GMT 49.065826 4.191356 38,025 307 414 0
2022-05-18 21:15:46 GMT 49.065826 4.191356 38,025 307 413 0
2022-05-18 21:15:43 GMT 49.062893 4.197428 38,025 307 414 0
2022-05-18 21:15:40 GMT 49.054962 4.213679 38,025 307 414 0
2022-05-18 21:15:37 GMT 49.054962 4.213679 38,025 307 414 0
2022-05-18 21:15:33 GMT 49.052124 4.219525 38,025 307 414 0
2022-05-18 21:15:31 GMT 49.049149 4.225581 38,025 307 414 0
2022-05-18 21:15:28 GMT 49.044876 4.234362 38,025 307 414 0
2022-05-18 21:15:26 GMT 49.043152 4.237976 38,025 307 412 64
2022-05-18 21:15:23 GMT 49.039337 4.245782 38,025 307 413 0
2022-05-18 21:15:20 GMT 49.037109 4.250371 38,025 307 413 0
2022-05-18 21:15:17 GMT 49.032990 4.258752 38,025 307 413 0
2022-05-18 21:15:14 GMT 49.026306 4.272484 38,025 307 413 0
2022-05-18 21:15:11 GMT 49.023975 4.277296 38,025 307 414 0
2022-05-18 21:15:09 GMT 49.023975 4.277296 38,025 307 414 0
2022-05-18 21:15:07 GMT 49.021637 4.282062 38,025 307 414 0
2022-05-18 21:15:04 GMT 49.018295 4.288932 38,025 307 414 -64
2022-05-18 21:15:02 GMT 49.015923 4.293847 38,025 307 414 -64
2022-05-18 21:15:00 GMT 49.013779 4.298329 38,025 307 413 -64
2022-05-18 21:14:57 GMT 49.010475 4.305050 38,025 307 413 -64
2022-05-18 21:14:54 GMT 49.006485 4.313331 38,025 307 413 -64
2022-05-18 21:14:50 GMT 49.001862 4.322831 38,025 307 413 -64
2022-05-18 21:14:48 GMT 48.997440 4.331866 38,025 307 413 0
2022-05-18 21:14:46 GMT 48.997440 4.331866 38,025 307 413 0
2022-05-18 21:14:43 GMT 48.993252 4.340467 38,025 307 413 0
2022-05-18 21:14:40 GMT 48.989853 4.347478 38,025 307 412 64
2022-05-18 21:14:37 GMT 48.987991 4.351290 38,025 307 412 64
2022-05-18 21:14:34 GMT 48.983986 4.359621 38,025 307 412 64
2022-05-18 21:14:31 GMT 48.980759 4.366220 38,025 307 412 0
2022-05-18 21:14:27 GMT 48.972767 4.382605 38,025 307 412 0
2022-05-18 21:14:24 GMT 48.972767 4.382605 38,025 307 412 0
2022-05-18 21:14:22 GMT 48.971100 4.386010 38,025 307 412 0
2022-05-18 21:14:20 GMT 48.968670 4.390990 38,025 307 412 0
2022-05-18 21:14:17 GMT 48.965332 4.397912 38,025 307 412 0
2022-05-18 21:14:14 GMT 48.961224 4.406385 38,025 307 412 64
2022-05-18 21:14:12 GMT 48.959545 4.409854 38,025 307 412 64
2022-05-18 21:14:09 GMT 48.956242 4.416648 38,025 307 412 64
2022-05-18 21:14:06 GMT 48.952332 4.424673 38,025 307 412 64
2022-05-18 21:14:03 GMT 48.949402 4.430659 38,025 307 412 64
2022-05-18 21:14:01 GMT 48.947071 4.435441 38,025 307 412 64
2022-05-18 21:13:59 GMT 48.945465 4.438829 38,025 307 412 0
2022-05-18 21:13:57 GMT 48.942169 4.445590 38,025 307 412 0
2022-05-18 21:13:54 GMT 48.937622 4.455028 38,025 307 412 0
2022-05-18 21:13:51 GMT 48.935341 4.459654 38,000 307 412 0
2022-05-18 21:13:49 GMT 48.932602 4.465379 38,000 307 412 0
2022-05-18 21:13:46 GMT 48.929939 4.470857 38,025 307 412 0
2022-05-18 21:13:43 GMT 48.926743 4.477492 38,000 307 412 0
2022-05-18 21:13:40 GMT 48.923283 4.484590 38,000 307 412 0
2022-05-18 21:13:37 GMT 48.918640 4.494253 38,000 307 412 -64
2022-05-18 21:13:33 GMT 48.915161 4.501437 38,000 307 412 0
2022-05-18 21:13:31 GMT 48.912643 4.506578 38,000 307 412 -64
2022-05-18 21:13:29 GMT 48.910248 4.511550 38,025 307 412 0
2022-05-18 21:13:27 GMT 48.905174 4.522030 38,025 307 412 -64
2022-05-18 21:13:21 GMT 48.901520 4.529677 38,025 307 412 0
2022-05-18 21:13:18 GMT 48.898636 4.535663 38,025 307 411 0
2022-05-18 21:13:16 GMT 48.892651 4.548195 38,025 307 410 0
2022-05-18 21:13:13 GMT 48.892651 4.548195 38,025 307 411 0
2022-05-18 21:13:11 GMT 48.890278 4.553038 38,025 307 411 0
2022-05-18 21:13:09 GMT 48.888042 4.557736 38,025 307 411 0
2022-05-18 21:13:05 GMT 48.884216 4.565735 38,000 307 410 64
2022-05-18 21:13:02 GMT 48.880779 4.572842 38,000 307 410 64
2022-05-18 21:13:00 GMT 48.877396 4.579961 38,025 307 410 0
2022-05-18 21:12:57 GMT 48.875153 4.584609 38,000 307 410 0
2022-05-18 21:12:53 GMT 48.870209 4.594820 38,025 307 410 0
2022-05-18 21:12:51 GMT 48.866348 4.602838 38,000 307 411 0
2022-05-18 21:12:49 GMT 48.861881 4.612162 38,025 307 410 0
2022-05-18 21:12:46 GMT 48.861881 4.612162 38,025 307 410 -64
2022-05-18 21:12:42 GMT 48.858391 4.619317 38,025 307 411 0
2022-05-18 21:12:40 GMT 48.856018 4.624329 38,025 307 410 0
2022-05-18 21:12:37 GMT 48.852997 4.630596 38,025 307 410 0
2022-05-18 21:12:34 GMT 48.849518 4.637780 38,025 307 410 -64
2022-05-18 21:12:31 GMT 48.844254 4.648766 38,025 307 410 -64
2022-05-18 21:12:26 GMT 48.840839 4.655818 38,025 306 410 0
2022-05-18 21:12:24 GMT 48.838604 4.660444 38,025 307 410 64
2022-05-18 21:12:20 GMT 48.833904 4.670201 38,025 307 410 64
2022-05-18 21:12:17 GMT 48.830460 4.677357 38,025 307 410 64
2022-05-18 21:12:15 GMT 48.828598 4.681232 38,025 307 410 64
2022-05-18 21:12:13 GMT 48.825256 4.688204 38,025 307 410 64
2022-05-18 21:12:09 GMT 48.821285 4.696366 38,025 307 410 0
2022-05-18 21:12:06 GMT 48.818356 4.702438 38,025 307 410 0
2022-05-18 21:12:04 GMT 48.816029 4.707280 38,025 306 410 0
2022-05-18 21:12:01 GMT 48.810150 4.719473 38,025 307 410 0
2022-05-18 21:11:59 GMT 48.810150 4.719473 38,025 307 410 0
2022-05-18 21:11:56 GMT 48.806622 4.726795 38,025 307 410 0
2022-05-18 21:11:52 GMT 48.802689 4.735037 38,025 307 410 0
2022-05-18 21:11:50 GMT 48.800674 4.739192 38,025 307 410 0
2022-05-18 21:11:48 GMT 48.798382 4.743925 38,025 307 410 0
2022-05-18 21:11:46 GMT 48.791656 4.757925 38,025 306 410 0
2022-05-18 21:11:42 GMT 48.791656 4.757925 38,025 306 410 0
2022-05-18 21:11:39 GMT 48.787399 4.766728 38,025 306 410 0
2022-05-18 21:11:36 GMT 48.784836 4.772081 38,025 307 409 0
2022-05-18 21:11:33 GMT 48.781998 4.777969 38,025 307 410 0
2022-05-18 21:11:30 GMT 48.778645 4.784907 38,025 307 410 0
2022-05-18 21:11:28 GMT 48.775108 4.792352 38,025 307 410 0
2022-05-18 21:11:25 GMT 48.772797 4.797082 38,025 307 410 0
2022-05-18 21:11:22 GMT 48.769196 4.804567 38,025 307 409 0
2022-05-18 21:11:20 GMT 48.764557 4.814195 38,025 307 410 0
2022-05-18 21:11:18 GMT 48.764557 4.814195 38,025 307 410 0
2022-05-18 21:11:15 GMT 48.757553 4.828773 38,025 307 410 0
2022-05-18 21:11:12 GMT 48.757553 4.828773 38,025 307 410 0
2022-05-18 21:11:10 GMT 48.755230 4.833551 38,025 307 410 0
2022-05-18 21:11:08 GMT 48.753693 4.836731 38,025 307 410 0
2022-05-18 21:11:05 GMT 48.749725 4.844971 38,025 307 410 0
2022-05-18 21:11:02 GMT 48.746429 4.851765 38,025 307 410 0
2022-05-18 21:11:00 GMT 48.744690 4.855323 38,025 307 410 0
2022-05-18 21:10:58 GMT 48.742428 4.860077 38,025 307 410 0
2022-05-18 21:10:55 GMT 48.738647 4.867788 38,025 307 410 0
2022-05-18 21:10:52 GMT 48.735214 4.874972 38,025 307 410 0
2022-05-18 21:10:50 GMT 48.733521 4.878493 38,025 307 410 0
2022-05-18 21:10:47 GMT 48.730232 4.885302 38,025 306 410 -64
2022-05-18 21:10:44 GMT 48.726425 4.893282 38,025 306 410 -64
2022-05-18 21:10:42 GMT 48.724133 4.898023 38,025 306 410 -64
2022-05-18 21:10:39 GMT 48.720978 4.904621 38,025 306 410 0
2022-05-18 21:10:36 GMT 48.715164 4.916664 38,025 306 409 0
2022-05-18 21:10:34 GMT 48.715164 4.916664 38,025 306 410 0
2022-05-18 21:10:32 GMT 48.712772 4.921586 38,025 306 410 0
2022-05-18 21:10:29 GMT 48.708771 4.929898 38,025 306 409 0
2022-05-18 21:10:26 GMT 48.706833 4.933988 38,025 306 408 0
2022-05-18 21:10:23 GMT 48.703465 4.941029 38,025 306 408 0
2022-05-18 21:10:20 GMT 48.697769 4.952933 38,025 306 408 0
2022-05-18 21:10:18 GMT 48.697769 4.952933 38,025 306 408 0
2022-05-18 21:10:16 GMT 48.695526 4.957581 38,025 306 408 0
2022-05-18 21:10:14 GMT 48.693420 4.961947 38,025 306 408 0
2022-05-18 21:10:11 GMT 48.687469 4.974412 38,025 306 409 0
2022-05-18 21:10:09 GMT 48.684517 4.980565 38,025 306 409 0
2022-05-18 21:10:06 GMT 48.684517 4.980565 38,025 306 409 0
2022-05-18 21:10:03 GMT 48.681210 4.987504 38,025 306 409 0
2022-05-18 21:10:00 GMT 48.676620 4.997089 38,025 306 409 64
2022-05-18 21:09:57 GMT 48.674881 5.000659 38,025 306 409 64
2022-05-18 21:09:54 GMT 48.666267 5.018728 38,025 306 409 0
2022-05-18 21:09:50 GMT 48.666267 5.018728 38,025 306 409 0
2022-05-18 21:09:48 GMT 48.662170 5.027257 38,025 306 409 0
2022-05-18 21:09:46 GMT 48.662170 5.027257 38,025 306 409 0
2022-05-18 21:09:44 GMT 48.659985 5.031883 38,025 306 409 0
2022-05-18 21:09:41 GMT 48.656937 5.038288 38,025 306 409 -64
2022-05-18 21:09:39 GMT 48.654678 5.043014 38,025 306 409 -64
2022-05-18 21:09:37 GMT 48.652489 5.047640 38,025 306 409 0
2022-05-18 21:09:34 GMT 48.649044 5.054795 38,025 306 409 0
2022-05-18 21:09:32 GMT 48.646912 5.059275 38,025 306 409 0
2022-05-18 21:09:29 GMT 48.643738 5.065926 38,025 306 408 0
2022-05-18 21:09:27 GMT 48.640640 5.072514 38,025 306 408 0
2022-05-18 21:09:24 GMT 48.637756 5.078501 38,025 306 408 128
2022-05-18 21:09:21 GMT 48.635078 5.084140 38,025 306 408 64
2022-05-18 21:09:19 GMT 48.631622 5.091459 38,025 306 408 128
2022-05-18 21:09:16 GMT 48.629333 5.096318 38,025 306 407 128
2022-05-18 21:09:13 GMT 48.626419 5.102427 38,000 306 407 128
2022-05-18 21:09:10 GMT 48.622368 5.110955 38,000 306 408 128
2022-05-18 21:09:08 GMT 48.620224 5.115474 38,000 306 408 64
2022-05-18 21:09:05 GMT 48.617249 5.121742 38,000 306 408 64
2022-05-18 21:09:02 GMT 48.613804 5.129025 38,000 306 408 -64
2022-05-18 21:08:59 GMT 48.610977 5.134911 38,000 306 408 0
2022-05-18 21:08:57 GMT 48.607754 5.141746 38,000 306 408 -64
2022-05-18 21:08:54 GMT 48.604523 5.148574 38,000 306 408 0
2022-05-18 21:08:50 GMT 48.600586 5.156884 38,000 306 408 0
2022-05-18 21:08:46 GMT 48.596905 5.164586 38,000 306 408 0
2022-05-18 21:08:44 GMT 48.594086 5.170476 38,000 306 408 64
2022-05-18 21:08:40 GMT 48.586853 5.185758 38,000 306 408 64
2022-05-18 21:08:37 GMT 48.586853 5.185758 38,000 306 408 64
2022-05-18 21:08:34 GMT 48.579449 5.201304 38,000 306 408 64
2022-05-18 21:08:31 GMT 48.579449 5.201304 38,000 306 407 0
2022-05-18 21:08:29 GMT 48.577820 5.204773 38,000 306 407 0
2022-05-18 21:08:27 GMT 48.574905 5.210900 38,000 306 407 0
2022-05-18 21:08:24 GMT 48.570370 5.220457 38,000 306 407 0
2022-05-18 21:08:20 GMT 48.567490 5.226605 38,000 306 406 64
2022-05-18 21:08:17 GMT 48.563782 5.234422 37,975 306 406 64
2022-05-18 21:08:15 GMT 48.558884 5.244845 37,975 306 407 0
2022-05-18 21:08:12 GMT 48.558884 5.244845 37,975 306 407 0
2022-05-18 21:08:08 GMT 48.553936 5.255296 37,975 306 407 -64
2022-05-18 21:08:05 GMT 48.548164 5.267511 38,000 306 406 -64
2022-05-18 21:08:02 GMT 48.548164 5.267511 37,975 306 406 -64
2022-05-18 21:07:59 GMT 48.540390 5.284072 38,000 306 406 -64
2022-05-18 21:07:56 GMT 48.540390 5.284072 38,000 306 406 0
2022-05-18 21:07:53 GMT 48.538239 5.288649 38,000 306 406 -64
2022-05-18 21:07:50 GMT 48.535873 5.293603 38,000 306 406 -64
2022-05-18 21:07:47 GMT 48.531548 5.302855 38,000 306 406 0
2022-05-18 21:07:43 GMT 48.528351 5.309636 38,000 306 406 0
2022-05-18 21:07:41 GMT 48.525169 5.316443 38,000 306 406 0
2022-05-18 21:07:38 GMT 48.521759 5.323721 38,000 306 406 0
2022-05-18 21:07:34 GMT 48.518093 5.331405 38,000 306 406 0
2022-05-18 21:07:32 GMT 48.514973 5.338127 38,000 306 406 0
2022-05-18 21:07:29 GMT 48.512878 5.342595 38,000 306 406 0
2022-05-18 21:07:27 GMT 48.510410 5.347812 38,000 306 406 -64
2022-05-18 21:07:25 GMT 48.508362 5.352221 38,000 306 406 -64
2022-05-18 21:07:22 GMT 48.505142 5.359004 38,000 306 406 -64
2022-05-18 21:07:19 GMT 48.501572 5.366610 38,000 306 406 -64
2022-05-18 21:07:16 GMT 48.498322 5.373512 38,000 306 406 -64
2022-05-18 21:07:14 GMT 48.496170 5.378160 38,025 306 406 -64
2022-05-18 21:07:10 GMT 48.491650 5.387710 38,025 306 406 -64
2022-05-18 21:07:07 GMT 48.488251 5.394991 38,025 306 406 -64
2022-05-18 21:07:05 GMT 48.486511 5.398653 38,025 306 406 -64
2022-05-18 21:07:02 GMT 48.483582 5.404921 38,025 306 406 0
2022-05-18 21:06:59 GMT 48.480385 5.411706 38,025 306 406 64
2022-05-18 21:06:56 GMT 48.476852 5.419218 38,025 306 406 64
2022-05-18 21:06:54 GMT 48.474518 5.424138 38,025 306 406 64
2022-05-18 21:06:52 GMT 48.471306 5.431077 38,025 306 406 64
2022-05-18 21:06:49 GMT 48.463669 5.447317 38,025 306 406 64
2022-05-18 21:06:44 GMT 48.463669 5.447317 38,000 306 406 0
2022-05-18 21:06:42 GMT 48.461609 5.451754 38,025 306 407 0
2022-05-18 21:06:39 GMT 48.458450 5.458444 38,000 306 407 0
2022-05-18 21:06:36 GMT 48.454559 5.466755 38,025 306 407 0
2022-05-18 21:06:32 GMT 48.450684 5.474950 38,025 306 407 0
2022-05-18 21:06:29 GMT 48.447426 5.481889 38,025 306 407 0
2022-05-18 21:06:26 GMT 48.444305 5.488611 38,025 306 408 0
2022-05-18 21:06:24 GMT 48.441700 5.494104 38,025 306 408 0
2022-05-18 21:06:21 GMT 48.438538 5.500981 38,025 306 407 0
2022-05-18 21:06:18 GMT 48.432201 5.514486 38,025 306 407 0
2022-05-18 21:06:15 GMT 48.432201 5.514486 38,025 306 407 0
2022-05-18 21:06:12 GMT 48.429199 5.520912 38,025 306 407 -64
2022-05-18 21:06:10 GMT 48.426956 5.525771 38,025 306 407 -64
2022-05-18 21:06:07 GMT 48.423065 5.534081 38,025 306 407 -64
2022-05-18 21:06:05 GMT 48.421967 5.536405 38,025 306 408 -64
2022-05-18 21:06:03 GMT 48.418655 5.543470 38,025 306 407 -64
2022-05-18 21:06:00 GMT 48.415375 5.550561 38,025 306 408 -64
2022-05-18 21:05:56 GMT 48.411301 5.559299 38,025 306 408 -64
2022-05-18 21:05:54 GMT 48.405109 5.572454 38,050 306 408 -64
2022-05-18 21:05:51 GMT 48.405109 5.572454 38,050 306 408 -64
2022-05-18 21:05:48 GMT 48.402374 5.578379 38,050 306 408 64
2022-05-18 21:05:45 GMT 48.400314 5.582815 38,025 306 408 0
2022-05-18 21:05:42 GMT 48.395706 5.592619 38,025 305 409 0
2022-05-18 21:05:38 GMT 48.393005 5.598474 38,025 305 409 0
2022-05-18 21:05:35 GMT 48.388824 5.607394 38,025 306 409 64
2022-05-18 21:05:32 GMT 48.382671 5.620446 38,025 306 409 64
2022-05-18 21:05:29 GMT 48.382671 5.620446 38,025 305 409 0
2022-05-18 21:05:26 GMT 48.378574 5.629337 38,050 305 409 0
2022-05-18 21:05:23 GMT 48.376373 5.634085 38,025 305 409 0
2022-05-18 21:05:20 GMT 48.371964 5.643503 38,025 305 409 0
2022-05-18 21:05:17 GMT 48.369324 5.649226 38,025 305 409 0
2022-05-18 21:05:14 GMT 48.365662 5.657114 38,025 305 409 -64
2022-05-18 21:05:11 GMT 48.362610 5.663814 38,025 305 409 -64
2022-05-18 21:05:08 GMT 48.356094 5.677889 38,025 305 409 -64
2022-05-18 21:05:05 GMT 48.356094 5.677889 38,025 305 409 -64
2022-05-18 21:05:02 GMT 48.353764 5.682967 38,025 305 409 -64
2022-05-18 21:04:58 GMT 48.349319 5.692608 38,025 305 409 -64
2022-05-18 21:04:55 GMT 48.345802 5.700170 38,025 305 410 -64
2022-05-18 21:04:53 GMT 48.343597 5.705003 38,050 305 410 -64
2022-05-18 21:04:51 GMT 48.341583 5.709440 38,050 305 409 -64
2022-05-18 21:04:48 GMT 48.338013 5.717116 38,050 305 409 -64
2022-05-18 21:04:44 GMT 48.333572 5.726694 38,050 305 409 -64
2022-05-18 21:04:41 GMT 48.330395 5.733562 38,050 305 409 -64
2022-05-18 21:04:38 GMT 48.327209 5.740427 38,050 305 409 0
2022-05-18 21:04:34 GMT 48.322807 5.749825 38,050 305 410 0
2022-05-18 21:04:31 GMT 48.319061 5.757822 38,050 305 410 0
2022-05-18 21:04:28 GMT 48.316849 5.762618 38,050 305 410 0
2022-05-18 21:04:25 GMT 48.313019 5.770921 38,050 305 410 0
2022-05-18 21:04:21 GMT 48.309219 5.779020 38,050 305 410 64
2022-05-18 21:04:17 GMT 48.303909 5.790429 38,025 305 410 0
2022-05-18 21:04:12 GMT 48.299065 5.800854 38,025 305 410 0
2022-05-18 21:04:09 GMT 48.295120 5.809373 38,025 305 410 0
2022-05-18 21:04:06 GMT 48.292328 5.815430 38,025 305 410 0
2022-05-18 21:04:03 GMT 48.286469 5.828036 38,025 305 411 0
2022-05-18 21:04:01 GMT 48.284260 5.832801 38,050 305 411 0
2022-05-18 21:03:58 GMT 48.280930 5.839938 38,025 305 411 0
2022-05-18 21:03:55 GMT 48.280930 5.839938 38,050 305 411 0
2022-05-18 21:03:51 GMT 48.276581 5.849352 38,025 305 411 0
2022-05-18 21:03:48 GMT 48.273415 5.856147 38,025 306 411 0
2022-05-18 21:03:45 GMT 48.270294 5.862941 38,025 305 411 0
2022-05-18 21:03:41 GMT 48.265732 5.872771 38,025 305 411 0
2022-05-18 21:03:38 GMT 48.262474 5.879709 38,025 305 411 0
2022-05-18 21:03:36 GMT 48.256897 5.891771 38,025 305 411 0
2022-05-18 21:03:33 GMT 48.253723 5.898646 38,025 305 411 0
2022-05-18 21:03:30 GMT 48.253723 5.898646 38,025 305 411 0
2022-05-18 21:03:26 GMT 48.249626 5.907537 38,025 305 411 0
2022-05-18 21:03:23 GMT 48.242844 5.922124 38,025 305 411 0
2022-05-18 21:03:20 GMT 48.242844 5.922124 38,025 306 411 0
2022-05-18 21:03:17 GMT 48.239758 5.928786 38,025 305 410 0
2022-05-18 21:03:14 GMT 48.236572 5.935716 38,025 305 410 0
2022-05-18 21:03:12 GMT 48.234375 5.940364 38,025 305 410 0
2022-05-18 21:03:10 GMT 48.231995 5.945435 38,025 306 411 0
2022-05-18 21:03:06 GMT 48.227875 5.954308 38,025 306 411 0
2022-05-18 21:03:03 GMT 48.224346 5.961890 38,025 306 411 0
2022-05-18 21:03:00 GMT 48.220947 5.969118 38,025 306 411 0
2022-05-18 21:02:57 GMT 48.217758 5.975929 38,025 306 410 0
2022-05-18 21:02:54 GMT 48.214291 5.983284 38,025 306 410 0
2022-05-18 21:02:52 GMT 48.209080 5.994415 38,025 306 410 0
2022-05-18 21:02:49 GMT 48.209080 5.994415 38,025 306 411 -64
2022-05-18 21:02:45 GMT 48.205627 6.001775 38,025 306 410 -64
2022-05-18 21:02:42 GMT 48.201828 6.009874 38,025 306 410 -64
2022-05-18 21:02:40 GMT 48.198837 6.016243 38,050 306 410 -64
2022-05-18 21:02:37 GMT 48.193298 6.028097 38,050 305 410 0
2022-05-18 21:02:34 GMT 48.191162 6.032621 38,050 305 410 64
2022-05-18 21:02:32 GMT 48.191162 6.032621 38,050 305 410 0
2022-05-18 21:02:30 GMT 48.187943 6.039517 38,050 305 410 64
2022-05-18 21:02:27 GMT 48.184174 6.047612 38,025 305 410 64
2022-05-18 21:02:24 GMT 48.182465 6.051213 38,025 305 410 0
2022-05-18 21:02:22 GMT 48.177612 6.061636 38,025 305 410 0
2022-05-18 21:02:20 GMT 48.177612 6.061636 38,025 305 410 0
2022-05-18 21:02:17 GMT 48.174305 6.068718 38,025 305 410 0
2022-05-18 21:02:14 GMT 48.170563 6.076778 38,025 305 410 0
2022-05-18 21:02:11 GMT 48.168365 6.081426 38,025 305 410 0
2022-05-18 21:02:08 GMT 48.164619 6.089389 38,025 306 409 0
2022-05-18 21:02:05 GMT 48.157516 6.104553 38,025 305 410 64
2022-05-18 21:02:02 GMT 48.157516 6.104553 38,025 305 409 64
2022-05-18 21:01:59 GMT 48.155365 6.109222 38,025 305 410 64
2022-05-18 21:01:56 GMT 48.150654 6.119244 38,025 305 410 64
2022-05-18 21:01:53 GMT 48.148315 6.124260 38,025 306 409 64
2022-05-18 21:01:50 GMT 48.141670 6.138470 38,000 306 409 0
2022-05-18 21:01:47 GMT 48.138245 6.145752 38,000 306 409 0
2022-05-18 21:01:44 GMT 48.138245 6.145752 38,025 306 409 0
2022-05-18 21:01:41 GMT 48.134125 6.154541 38,000 306 409 0
2022-05-18 21:01:38 GMT 48.132156 6.158730 38,000 306 409 0
2022-05-18 21:01:35 GMT 48.128731 6.166006 38,000 306 409 0
2022-05-18 21:01:32 GMT 48.125427 6.173012 38,000 306 409 0
2022-05-18 21:01:30 GMT 48.123596 6.176926 38,000 306 409 0
2022-05-18 21:01:27 GMT 48.119797 6.185028 38,000 306 409 0
2022-05-18 21:01:23 GMT 48.116486 6.192064 38,000 306 409 0
2022-05-18 21:01:21 GMT 48.111179 6.203402 38,000 306 409 0
2022-05-18 21:01:19 GMT 48.111179 6.203402 38,000 306 408 0
2022-05-18 21:01:16 GMT 48.105560 6.215240 38,000 306 408 0
2022-05-18 21:01:13 GMT 48.102859 6.221008 38,025 306 408 0
2022-05-18 21:01:11 GMT 48.102859 6.221008 38,025 306 408 0
2022-05-18 21:01:08 GMT 48.099354 6.228473 38,000 306 408 0
2022-05-18 21:01:05 GMT 48.096176 6.235291 38,000 306 407 0
2022-05-18 21:01:02 GMT 48.090603 6.247136 38,025 306 407 0
2022-05-18 21:01:00 GMT 48.090603 6.247136 38,000 306 407 0
2022-05-18 21:00:57 GMT 48.088509 6.251502 38,000 306 407 0
2022-05-18 21:00:54 GMT 48.084412 6.260235 38,000 306 407 0
2022-05-18 21:00:51 GMT 48.081116 6.267288 38,000 306 407 0
2022-05-18 21:00:48 GMT 48.078499 6.272912 38,000 306 407 0
2022-05-18 21:00:45 GMT 48.074497 6.281433 38,000 306 407 0
2022-05-18 21:00:42 GMT 48.069839 6.291293 38,000 306 407 0
2022-05-18 21:00:38 GMT 48.067047 6.297279 38,000 306 407 0
2022-05-18 21:00:35 GMT 48.064270 6.303131 38,025 306 407 -64
2022-05-18 21:00:31 GMT 48.059784 6.312744 38,000 306 407 -64
2022-05-18 21:00:29 GMT 48.057495 6.317619 38,025 305 406 -64
2022-05-18 21:00:26 GMT 48.054245 6.324486 38,025 305 406 -64
2022-05-18 21:00:23 GMT 48.047867 6.338125 38,025 305 406 -64
2022-05-18 21:00:18 GMT 48.045639 6.342819 38,025 306 406 0
2022-05-18 21:00:15 GMT 48.042526 6.349480 38,025 306 406 0
2022-05-18 21:00:12 GMT 48.039207 6.356436 38,025 306 406 0
2022-05-18 21:00:10 GMT 48.038086 6.358818 38,025 306 406 0
2022-05-18 21:00:08 GMT 48.034836 6.365685 38,025 306 406 0
2022-05-18 21:00:05 GMT 48.031670 6.372422 38,025 306 406 -64
2022-05-18 21:00:02 GMT 48.028503 6.379113 38,025 306 406 -64
2022-05-18 21:00:00 GMT 48.025223 6.386078 38,025 306 406 -64
2022-05-18 20:59:57 GMT 48.019821 6.397476 38,025 306 406 0
2022-05-18 20:59:54 GMT 48.019821 6.397476 38,025 306 406 0
2022-05-18 20:59:50 GMT 48.012302 6.413339 38,025 306 406 0
2022-05-18 20:59:47 GMT 48.009464 6.419255 38,025 306 406 0
2022-05-18 20:59:44 GMT 48.009464 6.419255 38,025 306 405 0
2022-05-18 20:59:41 GMT 48.003250 6.432426 38,025 306 405 0
2022-05-18 20:59:39 GMT 48.003250 6.432426 38,025 306 405 0
2022-05-18 20:59:36 GMT 48.000000 6.439224 38,050 306 405 -64
2022-05-18 20:59:33 GMT 47.996338 6.446983 38,050 306 405 -64
2022-05-18 20:59:30 GMT 47.993271 6.453369 38,050 306 405 0
2022-05-18 20:59:27 GMT 47.990891 6.458382 38,050 306 405 -64
2022-05-18 20:59:24 GMT 47.986038 6.468613 38,050 306 405 0
2022-05-18 20:59:21 GMT 47.984325 6.472144 38,050 306 405 0
2022-05-18 20:59:19 GMT 47.982182 6.476722 38,050 306 405 0
2022-05-18 20:59:16 GMT 47.978760 6.483856 38,050 306 405 0
2022-05-18 20:59:14 GMT 47.976551 6.488554 38,050 306 405 0
2022-05-18 20:59:11 GMT 47.971848 6.498272 38,050 306 405 0
2022-05-18 20:59:08 GMT 47.969707 6.502850 38,050 306 405 0
2022-05-18 20:59:05 GMT 47.965656 6.511230 38,025 306 406 64
2022-05-18 20:59:02 GMT 47.963516 6.515808 38,025 306 406 64
2022-05-18 20:59:00 GMT 47.959885 6.523273 38,025 306 406 0
2022-05-18 20:58:57 GMT 47.957275 6.528766 38,025 306 405 0
2022-05-18 20:58:54 GMT 47.951645 6.540598 38,025 306 405 0
2022-05-18 20:58:51 GMT 47.951645 6.540598 38,025 306 405 0
2022-05-18 20:58:49 GMT 47.948620 6.546936 38,025 306 405 0
2022-05-18 20:58:46 GMT 47.945499 6.553556 38,025 306 405 0
2022-05-18 20:58:43 GMT 47.942799 6.559260 38,025 306 405 0
2022-05-18 20:58:40 GMT 47.936188 6.573134 38,025 306 405 0
2022-05-18 20:58:37 GMT 47.936188 6.573134 38,025 306 405 0
2022-05-18 20:58:34 GMT 47.932838 6.580177 38,025 306 405 64
2022-05-18 20:58:31 GMT 47.929825 6.586441 38,025 306 405 64
2022-05-18 20:58:29 GMT 47.924923 6.596727 38,025 306 405 64
2022-05-18 20:58:26 GMT 47.921402 6.604156 38,025 306 405 64
2022-05-18 20:58:23 GMT 47.921402 6.604156 38,025 306 405 64
2022-05-18 20:58:20 GMT 47.918472 6.610268 38,025 306 405 64
2022-05-18 20:58:17 GMT 47.911098 6.625812 38,025 306 404 64
2022-05-18 20:58:14 GMT 47.911098 6.625812 38,000 306 404 64
2022-05-18 20:58:11 GMT 47.908257 6.631728 38,000 306 404 0
2022-05-18 20:58:09 GMT 47.906212 6.636024 38,000 306 404 0
2022-05-18 20:58:06 GMT 47.902439 6.643982 38,000 306 404 64
2022-05-18 20:58:03 GMT 47.898560 6.652016 38,000 306 404 0
2022-05-18 20:58:00 GMT 47.896820 6.655655 38,000 306 404 0
2022-05-18 20:57:57 GMT 47.893223 6.663208 38,000 306 404 64
2022-05-18 20:57:54 GMT 47.889450 6.671166 38,000 306 404 64
2022-05-18 20:57:50 GMT 47.885120 6.680251 38,000 306 404 64
2022-05-18 20:57:48 GMT 47.881943 6.686897 38,000 306 404 0
2022-05-18 20:57:45 GMT 47.880791 6.689265 38,000 306 404 0
2022-05-18 20:57:42 GMT 47.876862 6.697540 38,000 306 404 64
2022-05-18 20:57:39 GMT 47.870453 6.710930 38,000 306 403 0
2022-05-18 20:57:36 GMT 47.870453 6.710930 38,000 306 403 0
2022-05-18 20:57:33 GMT 47.866058 6.720200 38,000 306 404 0
2022-05-18 20:57:30 GMT 47.863770 6.724937 38,000 306 404 0
2022-05-18 20:57:27 GMT 47.860382 6.731941 38,000 306 404 0
2022-05-18 20:57:24 GMT 47.857330 6.738352 38,000 306 404 0
2022-05-18 20:57:21 GMT 47.850906 6.751662 38,000 306 404 0
2022-05-18 20:57:18 GMT 47.850906 6.751662 38,000 306 404 0
2022-05-18 20:57:15 GMT 47.845779 6.762360 37,975 306 404 0
2022-05-18 20:57:10 GMT 47.841934 6.770256 37,975 306 404 0
2022-05-18 20:57:07 GMT 47.837494 6.779526 38,000 306 404 0
2022-05-18 20:57:04 GMT 47.835571 6.783577 37,975 306 404 0
2022-05-18 20:57:02 GMT 47.832333 6.790185 38,000 306 404 0
2022-05-18 20:56:59 GMT 47.828934 6.797310 38,000 306 404 0
2022-05-18 20:56:56 GMT 47.825626 6.804199 38,000 306 403 0
2022-05-18 20:56:53 GMT 47.822525 6.810631 38,000 306 403 0
2022-05-18 20:56:50 GMT 47.819344 6.817228 38,000 306 403 0
2022-05-18 20:56:47 GMT 47.815945 6.824200 38,000 306 403 0
2022-05-18 20:56:44 GMT 47.814285 6.827728 38,000 306 403 0
2022-05-18 20:56:41 GMT 47.810577 6.835350 38,000 306 403 0
2022-05-18 20:56:39 GMT 47.804352 6.848285 38,000 306 403 0
2022-05-18 20:56:35 GMT 47.804352 6.848285 38,000 306 403 0
2022-05-18 20:56:32 GMT 47.801094 6.854976 38,000 306 403 0
2022-05-18 20:56:29 GMT 47.797604 6.862159 38,000 306 403 0
2022-05-18 20:56:26 GMT 47.790161 6.877579 38,000 306 403 -64
2022-05-18 20:56:23 GMT 47.790161 6.877579 38,000 306 403 -64
2022-05-18 20:56:20 GMT 47.788479 6.881033 38,000 306 403 -64
2022-05-18 20:56:17 GMT 47.784058 6.890259 38,000 306 403 -64
2022-05-18 20:56:14 GMT 47.781189 6.896255 38,000 306 402 -64
2022-05-18 20:56:11 GMT 47.776794 6.905330 38,000 306 402 -64
2022-05-18 20:56:07 GMT 47.774094 6.910964 38,000 306 402 0
2022-05-18 20:56:04 GMT 47.770248 6.918915 38,000 306 403 -64
2022-05-18 20:56:00 GMT 47.762238 6.935600 38,000 306 402 -64
2022-05-18 20:55:57 GMT 47.762238 6.935600 38,000 306 402 -64
2022-05-18 20:55:54 GMT 47.759525 6.941317 38,025 306 402 -64
2022-05-18 20:55:51 GMT 47.755611 6.949416 38,025 306 403 -64
2022-05-18 20:55:48 GMT 47.753494 6.953796 38,025 306 403 -64
2022-05-18 20:55:46 GMT 47.748119 6.964909 38,025 306 403 -64
2022-05-18 20:55:43 GMT 47.748119 6.964909 38,025 306 403 -64
2022-05-18 20:55:40 GMT 47.744579 6.972304 38,025 306 403 -64
2022-05-18 20:55:37 GMT 47.741089 6.979487 38,025 306 404 -64
2022-05-18 20:55:34 GMT 47.737736 6.986460 38,025 306 404 -64
2022-05-18 20:55:31 GMT 47.734104 6.993854 38,025 306 404 0
2022-05-18 20:55:26 GMT 47.728958 7.004539 38,050 306 404 0
2022-05-18 20:55:23 GMT 47.726212 7.010101 38,050 306 404 0
2022-05-18 20:55:20 GMT 47.722374 7.018080 38,050 306 404 0
2022-05-18 20:55:17 GMT 47.719116 7.024841 38,050 306 404 0
2022-05-18 20:55:13 GMT 47.713856 7.035616 38,050 306 404 0
2022-05-18 20:55:10 GMT 47.711609 7.040245 38,050 306 404 -64
2022-05-18 20:55:05 GMT 47.706455 7.050899 38,050 306 404 -64
2022-05-18 20:55:02 GMT 47.703232 7.057549 38,050 306 404 -64
2022-05-18 20:54:59 GMT 47.699844 7.064484 38,050 306 405 0
2022-05-18 20:54:56 GMT 47.696167 7.072026 38,050 306 405 0
2022-05-18 20:54:53 GMT 47.693939 7.076637 38,050 306 405 0
2022-05-18 20:54:51 GMT 47.690643 7.083366 38,050 306 405 0
2022-05-18 20:54:48 GMT 47.688263 7.088379 38,050 306 405 64
2022-05-18 20:54:45 GMT 47.684006 7.097099 38,050 306 405 64
2022-05-18 20:54:42 GMT 47.681408 7.102379 38,025 306 405 64
2022-05-18 20:54:39 GMT 47.677593 7.110267 38,050 306 405 0
2022-05-18 20:54:36 GMT 47.674751 7.116112 38,025 306 405 0
2022-05-18 20:54:33 GMT 47.671555 7.122780 38,050 306 405 0
2022-05-18 20:54:30 GMT 47.666885 7.132310 38,050 306 405 0
2022-05-18 20:54:27 GMT 47.664734 7.136719 38,025 306 405 0
2022-05-18 20:54:25 GMT 47.661896 7.142624 38,025 306 406 64
2022-05-18 20:54:22 GMT 47.655712 7.155339 38,025 306 406 64
2022-05-18 20:54:19 GMT 47.655712 7.155339 38,025 306 406 0
2022-05-18 20:54:16 GMT 47.652145 7.162605 38,025 306 406 0
2022-05-18 20:54:13 GMT 47.649799 7.167452 38,025 306 406 0
2022-05-18 20:54:10 GMT 47.646423 7.174278 38,025 306 406 0
2022-05-18 20:54:08 GMT 47.644226 7.178810 38,025 306 406 0
2022-05-18 20:54:05 GMT 47.640610 7.186226 38,025 306 406 0
2022-05-18 20:54:02 GMT 47.637791 7.191960 38,025 306 406 64
2022-05-18 20:54:00 GMT 47.635181 7.197383 38,025 306 406 64
2022-05-18 20:53:57 GMT 47.631969 7.203862 38,025 306 406 64
2022-05-18 20:53:54 GMT 47.628479 7.211045 38,000 306 406 0
2022-05-18 20:53:51 GMT 47.625778 7.216576 38,025 306 406 64
2022-05-18 20:53:48 GMT 47.620846 7.226539 38,025 306 406 0
2022-05-18 20:53:45 GMT 47.619213 7.229919 38,025 306 406 0
2022-05-18 20:53:42 GMT 47.615295 7.237930 38,025 306 406 0
2022-05-18 20:53:40 GMT 47.613163 7.242314 38,025 306 406 0
2022-05-18 20:53:35 GMT 47.607697 7.253448 38,025 306 406 0
2022-05-18 20:53:32 GMT 47.604538 7.259972 38,000 306 406 64
2022-05-18 20:53:29 GMT 47.601105 7.266907 38,025 306 406 64
2022-05-18 20:53:26 GMT 47.597755 7.273794 38,000 306 406 0
2022-05-18 20:53:23 GMT 47.594448 7.280555 38,000 306 406 0
2022-05-18 20:53:20 GMT 47.590633 7.288443 38,000 306 406 0
2022-05-18 20:53:17 GMT 47.587830 7.294167 38,000 306 406 0
2022-05-18 20:53:14 GMT 47.582199 7.305634 38,000 306 406 -64
2022-05-18 20:53:12 GMT 47.582199 7.305634 38,025 306 406 -64
2022-05-18 20:53:09 GMT 47.578354 7.313530 38,025 306 406 -64
2022-05-18 20:53:05 GMT 47.571407 7.327810 38,025 306 406 0
2022-05-18 20:53:02 GMT 47.571407 7.327810 38,025 306 406 -64
2022-05-18 20:52:59 GMT 47.568466 7.333786 38,025 306 406 0
2022-05-18 20:52:57 GMT 47.566238 7.338374 38,025 306 406 -64
2022-05-18 20:52:54 GMT 47.561722 7.347600 38,025 306 406 -64
2022-05-18 20:52:51 GMT 47.559448 7.352188 38,025 306 406 -64
2022-05-18 20:52:48 GMT 47.555695 7.359879 38,025 306 406 -64
2022-05-18 20:52:44 GMT 47.551392 7.368599 38,025 306 406 0
2022-05-18 20:52:41 GMT 47.547867 7.375809 38,025 306 406 0
2022-05-18 20:52:38 GMT 47.544022 7.383636 38,025 306 406 0
2022-05-18 20:52:35 GMT 47.541008 7.389855 38,025 306 406 0
2022-05-18 20:52:32 GMT 47.538208 7.395584 38,025 306 406 0
2022-05-18 20:52:29 GMT 47.535324 7.401421 38,025 306 406 0
2022-05-18 20:52:27 GMT 47.532028 7.408150 38,025 306 406 0
2022-05-18 20:52:24 GMT 47.529373 7.413506 38,025 306 406 0
2022-05-18 20:52:21 GMT 47.522945 7.426617 38,025 306 406 0
2022-05-18 20:52:18 GMT 47.519733 7.433096 38,025 306 406 0
2022-05-18 20:52:15 GMT 47.519733 7.433096 38,025 306 406 0
2022-05-18 20:52:12 GMT 47.516739 7.439323 38,025 306 406 0
2022-05-18 20:52:09 GMT 47.510937 7.451054 38,025 306 406 -64
2022-05-18 20:52:07 GMT 47.510937 7.451054 38,025 306 406 -64
2022-05-18 20:52:04 GMT 47.507446 7.458138 38,025 306 406 -64
2022-05-18 20:52:01 GMT 47.504230 7.464787 38,025 306 406 -64
2022-05-18 20:51:58 GMT 47.501251 7.470844 38,025 306 406 -64
2022-05-18 20:51:55 GMT 47.497154 7.479154 38,050 306 406 0
2022-05-18 20:51:52 GMT 47.494408 7.484718 38,050 306 406 0
2022-05-18 20:51:49 GMT 47.490692 7.492264 38,050 306 406 0
2022-05-18 20:51:47 GMT 47.489567 7.494577 38,050 306 406 0
2022-05-18 20:51:44 GMT 47.485062 7.503662 38,050 306 406 0
2022-05-18 20:51:41 GMT 47.477921 7.518219 38,050 306 406 0
2022-05-18 20:51:38 GMT 47.477921 7.518219 38,050 306 406 0
2022-05-18 20:51:34 GMT 47.474625 7.524948 38,050 307 405 0
2022-05-18 20:51:31 GMT 47.471226 7.531762 38,050 307 405 0
2022-05-18 20:51:28 GMT 47.467503 7.539368 38,050 307 405 0
2022-05-18 20:51:25 GMT 47.464848 7.544720 38,050 307 405 0
2022-05-18 20:51:22 GMT 47.460938 7.552689 38,050 307 405 0
2022-05-18 20:51:19 GMT 47.457504 7.559555 38,050 307 405 0
2022-05-18 20:51:15 GMT 47.453064 7.568550 38,050 307 405 0
2022-05-18 20:51:12 GMT 47.449219 7.576309 38,050 307 406 0
2022-05-18 20:51:09 GMT 47.446411 7.582045 38,050 307 406 0
2022-05-18 20:51:06 GMT 47.442829 7.589158 38,050 307 406 0
2022-05-18 20:51:03 GMT 47.440155 7.594643 38,050 307 406 0
2022-05-18 20:51:00 GMT 47.437363 7.600204 38,050 307 407 0
2022-05-18 20:50:57 GMT 47.433750 7.607469 38,050 307 407 0
2022-05-18 20:50:54 GMT 47.429188 7.616624 38,050 307 406 0
2022-05-18 20:50:51 GMT 47.426861 7.621272 38,050 307 406 0
2022-05-18 20:50:48 GMT 47.422943 7.629181 38,050 307 406 0
2022-05-18 20:50:45 GMT 47.419464 7.636116 38,050 307 406 0
2022-05-18 20:50:42 GMT 47.416618 7.641766 38,050 307 406 64
2022-05-18 20:50:39 GMT 47.413502 7.647963 38,050 307 406 64
2022-05-18 20:50:36 GMT 47.410217 7.654518 38,050 307 406 64
2022-05-18 20:50:33 GMT 47.407837 7.659187 38,050 307 406 64
2022-05-18 20:50:31 GMT 47.404331 7.666133 38,050 307 406 64
2022-05-18 20:50:28 GMT 47.397308 7.679993 38,025 307 406 64
2022-05-18 20:50:25 GMT 47.397308 7.679993 38,025 307 406 64
2022-05-18 20:50:22 GMT 47.393902 7.686768 38,025 307 406 128
2022-05-18 20:50:20 GMT 47.392090 7.690430 38,025 307 405 64
2022-05-18 20:50:17 GMT 47.387852 7.699022 38,025 305 406 0
2022-05-18 20:50:14 GMT 47.385818 7.703476 38,025 304 406 0
2022-05-18 20:50:11 GMT 47.382935 7.709999 38,025 303 406 0
2022-05-18 20:50:08 GMT 47.379936 7.717121 38,025 301 405 0
2022-05-18 20:50:06 GMT 47.377533 7.723183 38,025 300 405 0
2022-05-18 20:50:03 GMT 47.375107 7.729431 38,025 300 405 0
2022-05-18 20:50:00 GMT 47.372253 7.736981 38,025 300 405 0
2022-05-18 20:49:57 GMT 47.366043 7.753189 38,025 300 404 64
2022-05-18 20:49:54 GMT 47.366043 7.753189 38,025 300 404 64
2022-05-18 20:49:51 GMT 47.363571 7.759712 38,025 300 404 64
2022-05-18 20:49:49 GMT 47.362106 7.763489 38,000 300 404 64
2022-05-18 20:49:46 GMT 47.356110 7.779076 38,000 299 404 64
2022-05-18 20:49:43 GMT 47.356110 7.779076 38,000 299 404 64
2022-05-18 20:49:40 GMT 47.353409 7.786285 38,000 290 404 0
2022-05-18 20:49:37 GMT 47.350746 7.793673 38,000 297 404 64
2022-05-18 20:49:34 GMT 47.348747 7.799589 38,000 290 403 64
2022-05-18 20:49:32 GMT 47.346745 7.805786 38,000 295 404 0
2022-05-18 20:49:30 GMT 47.345161 7.811068 38,000 293 404 0
2022-05-18 20:49:27 GMT 47.343658 7.816292 38,000 293 404 0
2022-05-18 20:49:24 GMT 47.341324 7.824944 38,000 291 404 0
2022-05-18 20:49:22 GMT 47.339668 7.831491 38,000 290 404 0
2022-05-18 20:49:19 GMT 47.337845 7.839157 38,000 290 403 64
2022-05-18 20:49:16 GMT 47.334454 7.853253 38,000 290 403 64
2022-05-18 20:49:13 GMT 47.334454 7.853253 38,000 290 403 0
2022-05-18 20:49:10 GMT 47.332870 7.860014 38,000 290 403 0
2022-05-18 20:49:07 GMT 47.330933 7.868134 37,975 290 403 0
2022-05-18 20:49:03 GMT 47.326355 7.887479 38,000 290 403 0
2022-05-18 20:49:00 GMT 47.324478 7.895325 37,975 290 403 0
2022-05-18 20:48:57 GMT 47.324478 7.895325 37,975 290 403 0
2022-05-18 20:48:55 GMT 47.323235 7.900649 37,975 290 402 0
2022-05-18 20:48:52 GMT 47.321411 7.908302 38,000 290 402 0
2022-05-18 20:48:48 GMT 47.319138 7.917973 38,000 290 403 0
2022-05-18 20:48:46 GMT 47.317787 7.923678 38,000 290 403 0
2022-05-18 20:48:42 GMT 47.315647 7.932692 38,000 290 402 0
2022-05-18 20:48:39 GMT 47.313740 7.940721 38,000 290 402 0
2022-05-18 20:48:36 GMT 47.309971 7.956707 38,000 290 402 0
2022-05-18 20:48:33 GMT 47.309971 7.956707 38,000 290 402 0
2022-05-18 20:48:30 GMT 47.308292 7.963961 38,000 290 402 0
2022-05-18 20:48:27 GMT 47.306488 7.971542 38,000 290 402 0
2022-05-18 20:48:24 GMT 47.304886 7.978271 38,000 290 402 0
2022-05-18 20:48:20 GMT 47.302101 7.989948 38,000 290 402 0
2022-05-18 20:48:17 GMT 47.300007 7.998751 38,000 290 402 0
2022-05-18 20:48:14 GMT 47.298889 8.003540 38,000 290 402 -64
2022-05-18 20:48:11 GMT 47.296047 8.015512 38,000 290 401 0
2022-05-18 20:48:07 GMT 47.294003 8.024245 38,000 290 401 0
2022-05-18 20:48:04 GMT 47.292252 8.031624 38,000 290 401 0
2022-05-18 20:48:01 GMT 47.290695 8.038189 38,000 290 401 0
2022-05-18 20:47:58 GMT 47.288589 8.047073 38,000 290 401 0
2022-05-18 20:47:55 GMT 47.286648 8.055162 38,000 290 401 0
2022-05-18 20:47:52 GMT 47.285343 8.060584 38,000 290 401 0
2022-05-18 20:47:49 GMT 47.283051 8.070213 38,000 290 401 0
2022-05-18 20:47:46 GMT 47.281448 8.076874 38,000 290 401 0
2022-05-18 20:47:43 GMT 47.279572 8.084740 38,000 290 401 0
2022-05-18 20:47:40 GMT 47.277191 8.094658 38,000 290 401 0
2022-05-18 20:47:37 GMT 47.275429 8.101994 38,000 290 401 0
2022-05-18 20:47:34 GMT 47.273254 8.111137 38,000 290 401 0
2022-05-18 20:47:31 GMT 47.272076 8.116150 38,000 290 401 0
2022-05-18 20:47:29 GMT 47.270737 8.121712 38,000 290 401 0
2022-05-18 20:47:26 GMT 47.268353 8.131573 38,000 290 402 0
2022-05-18 20:47:23 GMT 47.267166 8.136612 38,025 290 402 0
2022-05-18 20:47:20 GMT 47.264626 8.147278 38,000 290 402 0
2022-05-18 20:47:17 GMT 47.263371 8.152419 38,000 290 402 0
2022-05-18 20:47:15 GMT 47.259739 8.167631 38,025 290 402 0
2022-05-18 20:47:12 GMT 47.259739 8.167631 38,000 290 402 0
2022-05-18 20:47:09 GMT 47.257923 8.175377 38,000 290 402 0
2022-05-18 20:47:06 GMT 47.256760 8.180307 38,000 290 402 0
2022-05-18 20:47:04 GMT 47.255455 8.185730 38,000 290 402 0
2022-05-18 20:47:01 GMT 47.252243 8.199111 38,000 290 402 0
2022-05-18 20:46:59 GMT 47.252243 8.199111 38,000 290 402 0
2022-05-18 20:46:56 GMT 47.250366 8.206993 38,000 290 402 0
2022-05-18 20:46:53 GMT 47.248566 8.214604 38,000 290 402 0
2022-05-18 20:46:50 GMT 47.245773 8.226154 38,000 290 402 0
2022-05-18 20:46:48 GMT 47.245773 8.226154 38,000 290 402 0
2022-05-18 20:46:46 GMT 47.242653 8.239112 38,000 290 402 0
2022-05-18 20:46:44 GMT 47.242653 8.239112 38,000 290 402 0
2022-05-18 20:46:41 GMT 47.241211 8.245239 38,000 290 402 0
2022-05-18 20:46:39 GMT 47.240341 8.248741 38,000 290 402 -64
2022-05-18 20:46:36 GMT 47.237392 8.261014 38,000 290 402 -64
2022-05-18 20:46:33 GMT 47.236496 8.264740 38,025 290 402 -64
2022-05-18 20:46:30 GMT 47.233994 8.275170 38,025 290 402 0
2022-05-18 20:46:27 GMT 47.232319 8.282142 38,025 290 402 -64
2022-05-18 20:46:25 GMT 47.231388 8.286015 38,025 290 402 0
2022-05-18 20:46:22 GMT 47.229668 8.293269 38,025 290 403 0
2022-05-18 20:46:20 GMT 47.227200 8.303551 38,025 290 403 0
2022-05-18 20:46:18 GMT 47.227200 8.303551 38,025 290 403 0
2022-05-18 20:46:15 GMT 47.224590 8.314397 38,025 290 403 0
2022-05-18 20:46:12 GMT 47.223335 8.319538 38,025 290 403 0
2022-05-18 20:46:10 GMT 47.222218 8.324186 38,025 290 403 0
2022-05-18 20:46:07 GMT 47.220356 8.331933 38,025 290 403 0
2022-05-18 20:46:04 GMT 47.218449 8.339961 38,025 290 403 0
2022-05-18 20:46:01 GMT 47.216904 8.346313 38,025 290 405 0
2022-05-18 20:45:58 GMT 47.214203 8.357643 38,025 290 404 0
2022-05-18 20:45:55 GMT 47.212463 8.364922 38,025 290 404 0
2022-05-18 20:45:51 GMT 47.208626 8.380808 38,025 290 404 0
2022-05-18 20:45:48 GMT 47.208626 8.380808 38,025 290 405 0
2022-05-18 20:45:45 GMT 47.206715 8.388766 38,025 290 405 0
2022-05-18 20:45:42 GMT 47.202713 8.405316 38,025 290 405 0
2022-05-18 20:45:39 GMT 47.200523 8.414401 38,025 290 405 0
2022-05-18 20:45:36 GMT 47.198849 8.421373 38,025 290 405 0
2022-05-18 20:45:33 GMT 47.198849 8.421373 38,025 290 405 0
2022-05-18 20:45:30 GMT 47.197495 8.426926 38,025 290 405 0
2022-05-18 20:45:28 GMT 47.196259 8.432076 38,025 290 405 0
2022-05-18 20:45:26 GMT 47.195030 8.437148 38,025 290 405 0
2022-05-18 20:45:23 GMT 47.192551 8.447388 38,025 290 405 0
2022-05-18 20:45:21 GMT 47.191544 8.451508 38,025 290 405 0
2022-05-18 20:45:18 GMT 47.190002 8.457853 38,025 290 405 0
2022-05-18 20:45:16 GMT 47.187836 8.466751 38,025 290 405 0
2022-05-18 20:45:13 GMT 47.186234 8.473346 38,025 290 405 0
2022-05-18 20:45:10 GMT 47.184952 8.478630 38,025 290 405 -64
2022-05-18 20:45:07 GMT 47.183113 8.486305 38,025 290 405 -64
2022-05-18 20:45:05 GMT 47.181763 8.491727 38,025 290 405 -64
2022-05-18 20:45:03 GMT 47.180008 8.499092 38,025 290 405 -64
2022-05-18 20:45:00 GMT 47.176224 8.514545 38,025 290 405 -64
2022-05-18 20:44:57 GMT 47.176224 8.514545 38,050 290 405 -64
2022-05-18 20:44:54 GMT 47.171803 8.532926 38,050 290 406 0
2022-05-18 20:44:50 GMT 47.170670 8.537476 38,050 290 406 0
2022-05-18 20:44:48 GMT 47.170670 8.537476 38,050 290 406 0
2022-05-18 20:44:45 GMT 47.168243 8.547569 38,050 290 406 0
2022-05-18 20:44:41 GMT 47.163700 8.566096 38,050 290 406 0
2022-05-18 20:44:38 GMT 47.163700 8.566096 38,050 290 406 0
2022-05-18 20:44:35 GMT 47.162567 8.570915 38,050 290 406 0
2022-05-18 20:44:32 GMT 47.160782 8.578194 38,050 290 407 0
2022-05-18 20:44:29 GMT 47.158493 8.587532 38,050 290 406 0
2022-05-18 20:44:26 GMT 47.156254 8.596731 38,050 290 407 0
2022-05-18 20:44:23 GMT 47.154903 8.602154 38,025 290 407 64
2022-05-18 20:44:20 GMT 47.151031 8.618156 38,025 290 407 64
2022-05-18 20:44:16 GMT 47.151031 8.618156 38,025 290 408 0
2022-05-18 20:44:13 GMT 47.148571 8.628141 38,025 290 408 64
2022-05-18 20:44:10 GMT 47.146683 8.635803 38,025 290 408 64
2022-05-18 20:44:08 GMT 47.145355 8.641228 38,025 290 408 -64
2022-05-18 20:44:05 GMT 47.143387 8.649330 38,025 290 408 0
2022-05-18 20:44:02 GMT 47.141544 8.656734 38,025 290 408 -64
2022-05-18 20:43:59 GMT 47.139076 8.666875 38,025 290 408 -64
2022-05-18 20:43:56 GMT 47.137711 8.672470 38,025 290 408 -64
2022-05-18 20:43:53 GMT 47.135147 8.682907 38,025 290 408 -64
2022-05-18 20:43:50 GMT 47.134003 8.687650 38,025 290 408 0
2022-05-18 20:43:47 GMT 47.130230 8.703003 38,025 290 408 -64
2022-05-18 20:43:44 GMT 47.130230 8.703003 38,050 290 408 -64
2022-05-18 20:43:41 GMT 47.128693 8.709412 38,050 290 408 -64
2022-05-18 20:43:38 GMT 47.126366 8.718919 38,050 290 408 0
2022-05-18 20:43:35 GMT 47.123619 8.730117 38,050 290 408 0
2022-05-18 20:43:30 GMT 47.120918 8.741033 38,050 290 408 0
2022-05-18 20:43:27 GMT 47.118988 8.748962 38,050 290 408 0
2022-05-18 20:43:24 GMT 47.116917 8.757371 38,050 290 408 0
2022-05-18 20:43:21 GMT 47.115662 8.762583 38,050 290 408 0
2022-05-18 20:43:19 GMT 47.114403 8.767794 38,050 290 408 0
2022-05-18 20:43:16 GMT 47.112488 8.775467 38,050 290 408 0
2022-05-18 20:43:13 GMT 47.110931 8.781990 38,050 290 408 0
2022-05-18 20:43:10 GMT 47.108688 8.791054 38,050 290 408 0
2022-05-18 20:43:07 GMT 47.104843 8.806709 38,050 290 408 0
2022-05-18 20:43:04 GMT 47.104843 8.806709 38,050 290 408 0
2022-05-18 20:43:01 GMT 47.102905 8.814627 38,050 290 408 0
2022-05-18 20:42:58 GMT 47.098206 8.833763 38,050 290 408 0
2022-05-18 20:42:54 GMT 47.098206 8.833763 38,050 290 408 0
2022-05-18 20:42:51 GMT 47.096573 8.840332 38,050 290 408 0
2022-05-18 20:42:49 GMT 47.093307 8.853470 38,050 290 408 0
2022-05-18 20:42:46 GMT 47.093307 8.853470 38,025 290 408 0
2022-05-18 20:42:43 GMT 47.090660 8.864277 38,025 290 408 0
2022-05-18 20:42:40 GMT 47.089554 8.868782 38,025 290 408 0
2022-05-18 20:42:38 GMT 47.087860 8.875580 38,025 290 408 0
2022-05-18 20:42:35 GMT 47.086212 8.882309 38,025 290 408 0
2022-05-18 20:42:32 GMT 47.084518 8.889107 38,025 290 408 0
2022-05-18 20:42:29 GMT 47.082275 8.898170 38,025 290 408 0
2022-05-18 20:42:25 GMT 47.077606 8.917191 38,050 290 408 0
2022-05-18 20:42:22 GMT 47.077606 8.917191 38,050 290 408 0
2022-05-18 20:42:19 GMT 47.072983 8.935867 38,025 291 408 0
2022-05-18 20:42:15 GMT 47.072983 8.935867 38,025 291 408 0
2022-05-18 20:42:13 GMT 47.069618 8.949209 38,025 291 408 64
2022-05-18 20:42:10 GMT 47.069618 8.949209 38,025 291 408 64
2022-05-18 20:42:07 GMT 47.067432 8.958013 38,025 291 408 64
2022-05-18 20:42:04 GMT 47.066128 8.963224 38,025 291 408 64
2022-05-18 20:42:01 GMT 47.063919 8.972191 38,025 291 408 64
2022-05-18 20:41:58 GMT 47.062218 8.978999 38,025 291 408 64
2022-05-18 20:41:55 GMT 47.059982 8.987984 38,025 291 408 64
2022-05-18 20:41:52 GMT 47.058792 8.992653 38,025 291 408 0
2022-05-18 20:41:49 GMT 47.056870 9.000412 38,025 291 408 0
2022-05-18 20:41:47 GMT 47.054768 9.008859 38,025 291 408 0
2022-05-18 20:41:44 GMT 47.053558 9.013789 38,025 291 408 0
2022-05-18 20:41:41 GMT 47.051697 9.021217 38,025 291 408 0
2022-05-18 20:41:38 GMT 47.048904 9.032452 38,025 291 408 -64
2022-05-18 20:41:35 GMT 47.047276 9.039001 38,025 291 408 0
2022-05-18 20:41:33 GMT 47.045975 9.044289 38,025 290 408 0
2022-05-18 20:41:29 GMT 47.043961 9.052322 38,025 290 407 0
2022-05-18 20:41:26 GMT 47.041550 9.062030 38,025 290 407 0
2022-05-18 20:41:23 GMT 47.039173 9.071608 38,025 290 407 0
2022-05-18 20:41:20 GMT 47.037872 9.076904 38,025 290 407 0
2022-05-18 20:41:17 GMT 47.035858 9.084938 38,025 290 407 0
2022-05-18 20:41:14 GMT 47.034073 9.092148 38,025 290 407 0
2022-05-18 20:41:12 GMT 47.032516 9.098396 38,025 290 407 0
2022-05-18 20:41:09 GMT 47.030331 9.107314 38,000 290 406 0
2022-05-18 20:41:06 GMT 47.028763 9.113571 38,025 290 406 0
2022-05-18 20:41:03 GMT 47.024872 9.129089 38,025 290 406 0
2022-05-18 20:41:00 GMT 47.024872 9.129089 38,025 290 406 0
2022-05-18 20:40:56 GMT 47.021626 9.142104 38,025 290 406 0
2022-05-18 20:40:53 GMT 47.019669 9.150132 38,025 290 406 0
2022-05-18 20:40:50 GMT 47.018414 9.154992 38,025 290 406 0
2022-05-18 20:40:47 GMT 47.016548 9.162457 38,025 290 406 0
2022-05-18 20:40:44 GMT 47.014343 9.171387 38,000 291 405 0
2022-05-18 20:40:40 GMT 47.012081 9.180486 38,000 291 405 64
2022-05-18 20:40:37 GMT 47.010040 9.188622 38,000 291 405 0
2022-05-18 20:40:34 GMT 47.008072 9.196587 38,000 291 405 0
2022-05-18 20:40:31 GMT 47.006123 9.204501 38,000 291 405 0
2022-05-18 20:40:28 GMT 47.004593 9.210526 38,000 291 405 0
2022-05-18 20:40:25 GMT 47.002632 9.218374 38,000 291 405 0
2022-05-18 20:40:22 GMT 47.000629 9.226332 38,000 291 405 0
2022-05-18 20:40:19 GMT 46.998718 9.234079 38,000 291 405 0
2022-05-18 20:40:17 GMT 46.997131 9.240326 38,000 291 405 0
2022-05-18 20:40:14 GMT 46.994949 9.248939 38,000 291 405 0
2022-05-18 20:40:11 GMT 46.993275 9.255629 38,000 291 405 0
2022-05-18 20:40:08 GMT 46.990948 9.264925 38,000 291 404 0
2022-05-18 20:40:05 GMT 46.989735 9.269785 38,000 291 404 0
2022-05-18 20:40:02 GMT 46.987968 9.276686 38,000 291 404 0
2022-05-18 20:39:59 GMT 46.985081 9.288236 38,000 291 404 0
2022-05-18 20:39:56 GMT 46.983826 9.293096 38,000 291 404 0
2022-05-18 20:39:53 GMT 46.981613 9.301987 38,000 291 404 0
2022-05-18 20:39:50 GMT 46.979187 9.311462 38,000 291 404 0
2022-05-18 20:39:46 GMT 46.976097 9.323660 38,000 291 404 0
2022-05-18 20:39:43 GMT 46.974792 9.328903 38,000 291 404 0
2022-05-18 20:39:40 GMT 46.972778 9.336868 38,000 291 404 0
2022-05-18 20:39:37 GMT 46.971497 9.342018 38,000 291 404 0
2022-05-18 20:39:34 GMT 46.969254 9.350844 38,000 291 404 0
2022-05-18 20:39:32 GMT 46.968369 9.354436 38,000 291 404 0
2022-05-18 20:39:29 GMT 46.966187 9.363029 38,000 291 404 0
2022-05-18 20:39:26 GMT 46.964584 9.369415 38,000 291 404 0
2022-05-18 20:39:23 GMT 46.962223 9.378803 38,000 291 404 0
2022-05-18 20:39:20 GMT 46.959896 9.388029 38,000 291 404 -64
2022-05-18 20:39:17 GMT 46.959198 9.390846 38,000 291 404 -64
2022-05-18 20:39:15 GMT 46.957077 9.399216 38,000 291 404 -64
2022-05-18 20:39:12 GMT 46.954868 9.408029 38,000 291 404 -64
2022-05-18 20:39:08 GMT 46.953148 9.414931 38,000 291 404 -64
2022-05-18 20:39:05 GMT 46.950397 9.425706 38,000 291 404 0
2022-05-18 20:39:02 GMT 46.948769 9.432115 38,000 291 404 0
2022-05-18 20:38:59 GMT 46.946640 9.440689 38,000 291 404 0
2022-05-18 20:38:55 GMT 46.943928 9.451341 38,000 291 404 0
2022-05-18 20:38:52 GMT 46.942429 9.457306 38,000 291 404 0
2022-05-18 20:38:49 GMT 46.940762 9.463877 38,000 291 404 0
2022-05-18 20:38:46 GMT 46.938435 9.473102 38,000 291 404 0
2022-05-18 20:38:43 GMT 46.936798 9.479622 38,000 291 404 0
2022-05-18 20:38:40 GMT 46.934570 9.488455 38,025 291 405 0
2022-05-18 20:38:37 GMT 46.933037 9.494652 38,000 291 405 0
2022-05-18 20:38:34 GMT 46.930801 9.503315 38,000 291 405 0
2022-05-18 20:38:31 GMT 46.928833 9.511139 38,000 291 405 0
2022-05-18 20:38:28 GMT 46.926498 9.520340 38,000 291 405 0
2022-05-18 20:38:25 GMT 46.925076 9.525851 38,000 291 405 -64
2022-05-18 20:38:22 GMT 46.920837 9.542471 38,000 291 405 -64
2022-05-18 20:38:19 GMT 46.920837 9.542471 38,025 291 405 0
2022-05-18 20:38:16 GMT 46.918854 9.550346 38,000 291 405 -64
2022-05-18 20:38:12 GMT 46.913681 9.570534 38,025 291 405 -64
2022-05-18 20:38:09 GMT 46.913681 9.570534 38,025 291 405 0
2022-05-18 20:38:06 GMT 46.911804 9.577950 38,025 291 405 0
2022-05-18 20:38:03 GMT 46.908142 9.592300 38,025 291 405 0
2022-05-18 20:38:00 GMT 46.908142 9.592300 38,025 291 405 0
2022-05-18 20:37:57 GMT 46.906174 9.599991 38,025 291 405 0
2022-05-18 20:37:54 GMT 46.905075 9.604317 38,025 291 405 0
2022-05-18 20:37:51 GMT 46.902374 9.614822 38,025 291 405 0
2022-05-18 20:37:48 GMT 46.900543 9.621964 38,025 291 405 0
2022-05-18 20:37:45 GMT 46.898960 9.628249 38,025 291 405 0
2022-05-18 20:37:42 GMT 46.896469 9.637825 38,025 291 405 0
2022-05-18 20:37:39 GMT 46.892029 9.655266 38,025 291 405 0
2022-05-18 20:37:36 GMT 46.892029 9.655266 38,025 291 405 0
2022-05-18 20:37:33 GMT 46.890747 9.660072 38,025 291 406 -64
2022-05-18 20:37:30 GMT 46.888950 9.667124 38,025 291 406 -64
2022-05-18 20:37:27 GMT 46.886158 9.678180 38,025 291 406 -128
2022-05-18 20:37:24 GMT 46.885227 9.681772 38,050 291 406 0
2022-05-18 20:37:21 GMT 46.883011 9.690353 38,025 291 406 -128
2022-05-18 20:37:18 GMT 46.878986 9.706139 38,050 291 406 -128
2022-05-18 20:37:15 GMT 46.878986 9.706139 38,050 291 406 -128
2022-05-18 20:37:12 GMT 46.876282 9.716858 38,050 291 406 -64
2022-05-18 20:37:09 GMT 46.874798 9.722619 38,050 291 406 -64
2022-05-18 20:37:06 GMT 46.872482 9.731689 38,050 291 406 0
2022-05-18 20:37:02 GMT 46.870796 9.738253 38,050 291 406 0
2022-05-18 20:37:00 GMT 46.869370 9.743774 38,050 291 406 0
2022-05-18 20:36:57 GMT 46.866623 9.754587 38,050 291 407 64
2022-05-18 20:36:54 GMT 46.863392 9.767258 38,050 291 407 0
2022-05-18 20:36:51 GMT 46.863392 9.767258 38,050 291 407 0
2022-05-18 20:36:47 GMT 46.860695 9.777832 38,050 291 407 0
2022-05-18 20:36:44 GMT 46.858738 9.785248 38,050 291 408 -64
2022-05-18 20:36:39 GMT 46.855408 9.798264 38,050 291 408 -64
2022-05-18 20:36:36 GMT 46.851837 9.812198 38,050 291 408 -64
2022-05-18 20:36:30 GMT 46.849869 9.819902 38,075 291 408 -64
2022-05-18 20:36:27 GMT 46.847565 9.828781 38,075 291 408 0
2022-05-18 20:36:24 GMT 46.845245 9.837654 38,075 291 408 0
2022-05-18 20:36:20 GMT 46.842453 9.848439 38,075 291 409 0
2022-05-18 20:36:17 GMT 46.840988 9.854133 38,050 291 409 64
2022-05-18 20:36:14 GMT 46.838440 9.864006 38,050 291 409 64
2022-05-18 20:36:11 GMT 46.836113 9.873070 38,050 291 409 64
2022-05-18 20:36:08 GMT 46.835136 9.876915 38,050 291 409 64
2022-05-18 20:36:05 GMT 46.830414 9.895064 38,050 291 409 64
2022-05-18 20:36:02 GMT 46.830414 9.895064 38,050 291 409 64
2022-05-18 20:35:59 GMT 46.828812 9.901294 38,050 291 409 64
2022-05-18 20:35:56 GMT 46.826431 9.910539 38,050 291 409 64
2022-05-18 20:35:52 GMT 46.824383 9.918388 38,050 291 409 64
2022-05-18 20:35:49 GMT 46.822380 9.926147 38,025 291 409 64
2022-05-18 20:35:46 GMT 46.819260 9.938301 38,025 291 409 64
2022-05-18 20:35:43 GMT 46.818283 9.942024 38,025 291 410 64
2022-05-18 20:35:39 GMT 46.815353 9.953345 38,025 291 410 64
2022-05-18 20:35:36 GMT 46.813751 9.959575 38,025 291 410 64
2022-05-18 20:35:33 GMT 46.811581 9.967964 38,025 291 409 64
2022-05-18 20:35:30 GMT 46.809265 9.976859 38,025 291 409 64
2022-05-18 20:35:27 GMT 46.807388 9.984027 38,025 291 409 64
2022-05-18 20:35:24 GMT 46.805435 9.991653 38,000 291 409 64
2022-05-18 20:35:21 GMT 46.802967 10.001198 38,000 291 409 64
2022-05-18 20:35:19 GMT 46.802353 10.003655 38,000 291 409 64
2022-05-18 20:35:16 GMT 46.800156 10.012162 38,000 291 409 0
2022-05-18 20:35:13 GMT 46.797226 10.023484 38,000 291 409 0
2022-05-18 20:35:10 GMT 46.795845 10.028801 38,000 291 408 0
2022-05-18 20:35:07 GMT 46.794170 10.035187 38,000 291 409 0
2022-05-18 20:35:04 GMT 46.791378 10.046036 38,000 291 409 0
2022-05-18 20:35:01 GMT 46.789948 10.051552 38,000 291 408 0
2022-05-18 20:34:58 GMT 46.787476 10.061065 38,000 291 408 0
2022-05-18 20:34:55 GMT 46.786118 10.066360 38,000 291 408 0
2022-05-18 20:34:53 GMT 46.785141 10.070042 38,000 291 408 0
2022-05-18 20:34:50 GMT 46.780579 10.087646 38,000 291 408 0
2022-05-18 20:34:47 GMT 46.780579 10.087646 38,000 291 408 0
2022-05-18 20:34:44 GMT 46.777954 10.097842 38,000 291 408 -64
2022-05-18 20:34:41 GMT 46.775551 10.106941 38,000 291 408 -64
2022-05-18 20:34:39 GMT 46.775551 10.106941 38,000 291 407 -64
2022-05-18 20:34:36 GMT 46.773239 10.115729 38,000 291 407 -64
2022-05-18 20:34:33 GMT 46.771267 10.123283 38,000 291 406 0
2022-05-18 20:34:30 GMT 46.769218 10.131248 38,000 291 407 0
2022-05-18 20:34:26 GMT 46.766556 10.141319 38,000 291 406 0
2022-05-18 20:34:23 GMT 46.764542 10.149023 38,000 291 406 0
2022-05-18 20:34:20 GMT 46.762234 10.157822 38,000 291 406 0
2022-05-18 20:34:17 GMT 46.760651 10.163933 38,000 291 406 0
2022-05-18 20:34:14 GMT 46.758884 10.170593 38,000 291 406 0
2022-05-18 20:34:11 GMT 46.756531 10.179637 38,000 291 406 0
2022-05-18 20:34:09 GMT 46.755344 10.184120 38,000 291 406 0
2022-05-18 20:34:06 GMT 46.753342 10.191742 38,000 291 406 0
2022-05-18 20:34:03 GMT 46.751480 10.198952 38,000 291 406 0
2022-05-18 20:34:00 GMT 46.749062 10.208084 38,000 291 405 0
2022-05-18 20:33:57 GMT 46.746689 10.217151 38,000 291 406 0
2022-05-18 20:33:54 GMT 46.744995 10.223515 38,000 291 406 0
2022-05-18 20:33:51 GMT 46.743393 10.229678 38,000 291 406 0
2022-05-18 20:33:48 GMT 46.738632 10.247766 38,025 291 406 0
2022-05-18 20:33:45 GMT 46.738632 10.247766 38,025 291 406 0
2022-05-18 20:33:42 GMT 46.736893 10.254398 38,025 291 406 -64
2022-05-18 20:33:39 GMT 46.735653 10.259102 38,025 291 406 -64
2022-05-18 20:33:36 GMT 46.733185 10.268509 38,025 292 407 0
2022-05-18 20:33:33 GMT 46.731491 10.275030 38,025 291 406 0
2022-05-18 20:33:29 GMT 46.727924 10.288422 38,025 292 407 0
2022-05-18 20:33:26 GMT 46.726528 10.293777 38,025 292 407 0
2022-05-18 20:33:23 GMT 46.724712 10.300644 38,025 292 407 -64
2022-05-18 20:33:20 GMT 46.722519 10.308927 38,025 292 407 0
2022-05-18 20:33:17 GMT 46.720898 10.315201 38,025 292 407 0
2022-05-18 20:33:14 GMT 46.718430 10.324402 38,025 292 407 0
2022-05-18 20:33:11 GMT 46.715775 10.334564 38,025 291 409 -64
2022-05-18 20:33:08 GMT 46.714508 10.339341 38,025 291 409 -64
2022-05-18 20:33:05 GMT 46.712608 10.346581 38,025 291 407 0
2022-05-18 20:33:02 GMT 46.710571 10.354413 38,025 291 407 0
2022-05-18 20:32:59 GMT 46.707863 10.364708 38,025 291 407 0
2022-05-18 20:32:56 GMT 46.706818 10.368682 38,025 291 407 0
2022-05-18 20:32:53 GMT 46.704346 10.378195 38,025 291 407 0
2022-05-18 20:32:50 GMT 46.702183 10.386475 38,025 291 407 0
2022-05-18 20:32:47 GMT 46.700455 10.392999 38,025 291 407 0
2022-05-18 20:32:44 GMT 46.698738 10.399521 38,025 291 408 0
2022-05-18 20:32:41 GMT 46.695572 10.411537 38,025 291 408 0
2022-05-18 20:32:38 GMT 46.694221 10.416687 38,025 291 408 0
2022-05-18 20:32:35 GMT 46.691616 10.426643 38,025 291 408 0
2022-05-18 20:32:31 GMT 46.689514 10.434734 38,025 291 407 64
2022-05-18 20:32:28 GMT 46.687195 10.443535 38,025 291 407 64
2022-05-18 20:32:25 GMT 46.685211 10.451080 38,025 291 407 64
2022-05-18 20:32:22 GMT 46.683468 10.457611 38,025 291 408 64
2022-05-18 20:32:19 GMT 46.680817 10.467842 38,025 291 407 64
2022-05-18 20:32:15 GMT 46.677155 10.481828 38,000 291 408 0
2022-05-18 20:32:12 GMT 46.677155 10.481828 38,025 291 408 -64
2022-05-18 20:32:09 GMT 46.674545 10.491809 38,000 291 409 0
2022-05-18 20:32:05 GMT 46.670433 10.507599 38,025 291 408 -64
2022-05-18 20:32:02 GMT 46.670433 10.507599 38,025 291 409 -64
2022-05-18 20:31:59 GMT 46.665527 10.527046 38,025 291 409 -64
2022-05-18 20:31:56 GMT 46.665527 10.527046 38,025 291 408 -64
2022-05-18 20:31:53 GMT 46.664196 10.532318 38,025 291 409 0
2022-05-18 20:31:50 GMT 46.662231 10.540243 38,025 291 408 64
2022-05-18 20:31:48 GMT 46.660892 10.545502 38,025 291 408 64
2022-05-18 20:31:45 GMT 46.658936 10.553105 38,025 293 407 64
2022-05-18 20:31:42 GMT 46.656281 10.562531 38,025 296 406 64
2022-05-18 20:31:38 GMT 46.652893 10.573068 38,025 299 405 64
2022-05-18 20:31:35 GMT 46.651207 10.577774 38,000 301 405 0
2022-05-18 20:31:32 GMT 46.647491 10.587404 38,000 303 404 -64
2022-05-18 20:31:28 GMT 46.644333 10.594706 38,025 304 403 -64
2022-05-18 20:31:25 GMT 46.642178 10.599335 38,025 305 403 -64
2022-05-18 20:31:22 GMT 46.639198 10.605583 38,025 306 403 0
2022-05-18 20:31:19 GMT 46.634857 10.614468 38,025 306 403 0
2022-05-18 20:31:16 GMT 46.632542 10.619247 38,025 306 403 0
2022-05-18 20:31:13 GMT 46.628815 10.626861 38,025 306 403 0
2022-05-18 20:31:10 GMT 46.625793 10.633024 38,025 306 403 0
2022-05-18 20:31:07 GMT 46.621414 10.641907 38,025 306 403 0
2022-05-18 20:31:03 GMT 46.617599 10.649771 38,025 306 403 0
2022-05-18 20:31:00 GMT 46.614944 10.655159 38,025 306 403 64
2022-05-18 20:30:57 GMT 46.611465 10.662298 38,025 306 403 64
2022-05-18 20:30:54 GMT 46.608707 10.667931 38,025 306 403 64
2022-05-18 20:30:51 GMT 46.605515 10.674424 38,000 306 403 0
2022-05-18 20:30:48 GMT 46.601532 10.682596 38,000 306 403 64
2022-05-18 20:30:45 GMT 46.598789 10.688187 38,000 306 403 64
2022-05-18 20:30:42 GMT 46.594116 10.697803 38,000 306 403 0
2022-05-18 20:30:38 GMT 46.589767 10.706646 38,000 306 403 0
2022-05-18 20:30:35 GMT 46.587990 10.710228 38,025 306 403 -64
2022-05-18 20:30:32 GMT 46.584545 10.717300 38,025 306 403 -64
2022-05-18 20:30:29 GMT 46.581333 10.723961 38,025 306 403 -64
2022-05-18 20:30:27 GMT 46.579193 10.728216 38,025 306 403 -64
2022-05-18 20:30:24 GMT 46.576027 10.734741 38,025 306 403 0
2022-05-18 20:30:21 GMT 46.572674 10.741539 38,025 306 403 0
2022-05-18 20:30:18 GMT 46.569092 10.748886 38,025 306 404 -64
2022-05-18 20:30:15 GMT 46.565689 10.755816 38,025 306 403 64
2022-05-18 20:30:11 GMT 46.561874 10.763580 38,025 306 403 64
2022-05-18 20:30:08 GMT 46.558685 10.770085 38,000 306 403 64
2022-05-18 20:30:05 GMT 46.554424 10.778824 38,000 306 403 64
2022-05-18 20:30:02 GMT 46.547974 10.791924 38,000 306 403 0
2022-05-18 20:29:58 GMT 46.545685 10.796546 38,000 306 403 0
2022-05-18 20:29:56 GMT 46.542274 10.803474 38,000 306 403 0
2022-05-18 20:29:53 GMT 46.542274 10.803474 38,000 306 404 0
2022-05-18 20:29:49 GMT 46.538364 10.811440 38,000 306 404 0
2022-05-18 20:29:47 GMT 46.535934 10.816375 38,000 306 404 -64
2022-05-18 20:29:44 GMT 46.532043 10.824280 38,000 306 404 -64
2022-05-18 20:29:41 GMT 46.528152 10.832252 38,000 306 404 0
2022-05-18 20:29:38 GMT 46.521793 10.845085 38,000 306 404 0
2022-05-18 20:29:35 GMT 46.521793 10.845085 38,000 306 404 0
2022-05-18 20:29:32 GMT 46.515739 10.857445 38,000 306 404 0
2022-05-18 20:29:28 GMT 46.515739 10.857445 38,000 306 404 0
2022-05-18 20:29:26 GMT 46.513596 10.861727 38,000 306 404 0
2022-05-18 20:29:23 GMT 46.509224 10.870628 38,000 306 404 0
2022-05-18 20:29:20 GMT 46.507416 10.874254 38,000 306 404 0
2022-05-18 20:29:17 GMT 46.502518 10.884169 38,000 306 404 0
2022-05-18 20:29:14 GMT 46.500458 10.888389 38,000 306 404 0
2022-05-18 20:29:11 GMT 46.496700 10.895966 38,000 306 404 0
2022-05-18 20:29:08 GMT 46.493729 10.901988 38,000 306 404 0
2022-05-18 20:29:05 GMT 46.490509 10.908531 38,000 306 404 0
2022-05-18 20:29:02 GMT 46.486359 10.916994 38,025 306 405 0
2022-05-18 20:28:59 GMT 46.483154 10.923500 38,025 306 405 0
2022-05-18 20:28:55 GMT 46.478073 10.933741 38,025 306 405 0
2022-05-18 20:28:51 GMT 46.475555 10.938832 38,025 306 405 0
2022-05-18 20:28:48 GMT 46.471985 10.946067 38,025 306 404 0
2022-05-18 20:28:45 GMT 46.468536 10.953026 38,025 306 404 0
2022-05-18 20:28:41 GMT 46.463554 10.963120 38,025 306 404 0
2022-05-18 20:28:38 GMT 46.460220 10.969849 38,025 306 404 0
2022-05-18 20:28:33 GMT 46.455456 10.979462 38,025 306 405 0
2022-05-18 20:28:30 GMT 46.448730 10.992960 38,025 306 406 0
2022-05-18 20:28:27 GMT 46.444748 11.001022 38,025 306 406 0
2022-05-18 20:28:24 GMT 46.444748 11.001022 38,025 306 406 0
2022-05-18 20:28:20 GMT 46.441956 11.006626 38,025 306 406 0
2022-05-18 20:28:17 GMT 46.437767 11.015099 38,025 306 406 0
2022-05-18 20:28:14 GMT 46.433762 11.023173 38,025 306 406 0
2022-05-18 20:28:10 GMT 46.426174 11.038513 38,025 306 406 -64
2022-05-18 20:28:07 GMT 46.426174 11.038513 38,025 306 406 -64
2022-05-18 20:28:03 GMT 46.422821 11.045212 38,025 306 407 0
2022-05-18 20:28:00 GMT 46.419052 11.052864 45,225 306 407 0
2022-05-18 20:27:57 GMT 46.415886 11.059250 45,225 306 407 0
2022-05-18 20:27:54 GMT 46.408203 11.074699 38,025 306 407 64
2022-05-18 20:27:50 GMT 46.408203 11.074699 38,025 306 407 0
2022-05-18 20:27:47 GMT 46.405365 11.080467 38,025 306 407 0
2022-05-18 20:27:43 GMT 46.400894 11.089462 38,025 306 407 -64
2022-05-18 20:27:40 GMT 46.397095 11.097129 38,025 306 407 -64
2022-05-18 20:27:37 GMT 46.394257 11.102823 38,025 306 407 -64
2022-05-18 20:27:33 GMT 46.390320 11.110795 38,025 306 407 0
2022-05-18 20:27:30 GMT 46.385860 11.119743 38,025 306 407 0
2022-05-18 20:27:27 GMT 46.379063 11.133476 38,025 306 407 0
2022-05-18 20:27:24 GMT 46.379063 11.133476 38,025 306 407 0
2022-05-18 20:27:19 GMT 46.374454 11.142746 38,025 306 407 0
2022-05-18 20:27:16 GMT 46.371151 11.149338 38,025 306 407 0
2022-05-18 20:27:13 GMT 46.366634 11.158401 38,025 306 407 64
2022-05-18 20:27:10 GMT 46.364365 11.162913 38,025 306 408 0
2022-05-18 20:27:07 GMT 46.360611 11.170416 38,025 306 408 0
2022-05-18 20:27:03 GMT 46.356812 11.178040 38,025 306 408 64
2022-05-18 20:26:59 GMT 46.349487 11.192724 38,025 306 409 0
2022-05-18 20:26:56 GMT 46.349487 11.192724 38,025 306 408 0
2022-05-18 20:26:53 GMT 46.345734 11.200227 38,025 306 409 0
2022-05-18 20:26:50 GMT 46.342529 11.206658 38,025 306 409 0
2022-05-18 20:26:46 GMT 46.333721 11.224251 38,025 306 409 0
2022-05-18 20:26:43 GMT 46.333721 11.224251 38,025 306 409 -64
2022-05-18 20:26:40 GMT 46.330582 11.230573 38,025 306 409 -64
2022-05-18 20:26:36 GMT 46.326187 11.239416 38,025 306 409 -64
2022-05-18 20:26:34 GMT 46.323853 11.244038 38,025 306 409 0
2022-05-18 20:26:31 GMT 46.316265 11.259201 38,025 306 409 0
2022-05-18 20:26:27 GMT 46.316265 11.259201 38,025 306 409 0
2022-05-18 20:26:24 GMT 46.313873 11.264001 38,025 306 409 0
2022-05-18 20:26:21 GMT 46.309479 11.272844 38,025 306 409 0
2022-05-18 20:26:18 GMT 46.305836 11.280006 38,025 306 409 0
2022-05-18 20:26:15 GMT 46.304031 11.283629 38,025 306 410 0
2022-05-18 20:26:12 GMT 46.299683 11.292271 38,025 306 410 0
2022-05-18 20:26:09 GMT 46.297413 11.296829 38,025 306 410 0
2022-05-18 20:26:06 GMT 46.293549 11.304520 38,025 306 409 -64
2022-05-18 20:26:03 GMT 46.290752 11.310081 38,025 306 409 -64
2022-05-18 20:26:00 GMT 46.286911 11.317660 38,025 306 409 -64
2022-05-18 20:25:57 GMT 46.282982 11.325531 38,025 306 409 -64
2022-05-18 20:25:54 GMT 46.276840 11.337824 38,050 306 410 -64
2022-05-18 20:25:51 GMT 46.276840 11.337824 38,050 306 410 -64
2022-05-18 20:25:47 GMT 46.271988 11.347604 38,050 306 409 64
2022-05-18 20:25:44 GMT 46.265430 11.360756 38,050 306 409 64
2022-05-18 20:25:40 GMT 46.265430 11.360756 38,050 306 409 64
2022-05-18 20:25:37 GMT 46.261368 11.368907 38,050 306 409 64
2022-05-18 20:25:35 GMT 46.259659 11.372292 38,025 306 409 64
2022-05-18 20:25:33 GMT 46.256287 11.379089 38,025 306 409 0
2022-05-18 20:25:29 GMT 46.252487 11.386711 38,050 306 409 -64
2022-05-18 20:25:26 GMT 46.248001 11.395703 38,025 306 409 -64
2022-05-18 20:25:23 GMT 46.246353 11.398985 38,025 306 409 -64
2022-05-18 20:25:20 GMT 46.242462 11.406756 38,050 306 409 -64
2022-05-18 20:25:16 GMT 46.238335 11.415001 38,050 306 409 0
2022-05-18 20:25:10 GMT 46.232006 11.427635 38,050 306 410 0
2022-05-18 20:25:07 GMT 46.228180 11.435227 38,050 306 410 0
2022-05-18 20:25:03 GMT 46.222321 11.446861 38,050 306 410 0
2022-05-18 20:24:59 GMT 46.220135 11.451256 38,050 306 410 0
2022-05-18 20:24:56 GMT 46.215897 11.459633 38,050 306 410 0
2022-05-18 20:24:53 GMT 46.213570 11.464302 38,050 306 410 0
2022-05-18 20:24:50 GMT 46.205193 11.480782 38,050 307 409 64
2022-05-18 20:24:47 GMT 46.200897 11.489288 38,050 307 409 64
2022-05-18 20:24:43 GMT 46.200897 11.489288 38,025 307 409 0
2022-05-18 20:24:40 GMT 46.197838 11.495338 38,025 307 409 -64
2022-05-18 20:24:37 GMT 46.190872 11.509117 38,025 307 409 0
2022-05-18 20:24:34 GMT 46.186569 11.517691 38,025 307 409 0
2022-05-18 20:24:30 GMT 46.186569 11.517691 38,050 307 409 0
2022-05-18 20:24:27 GMT 46.183823 11.523079 38,050 307 409 0
2022-05-18 20:24:24 GMT 46.177963 11.534640 38,050 307 408 0
2022-05-18 20:24:22 GMT 46.177963 11.534640 38,050 307 409 0
2022-05-18 20:24:18 GMT 46.174328 11.541756 38,050 307 408 0
2022-05-18 20:24:15 GMT 46.169724 11.550851 38,050 307 409 0
2022-05-18 20:24:13 GMT 46.166969 11.556244 38,050 307 409 0
2022-05-18 20:24:09 GMT 46.163910 11.562306 38,050 307 409 0
2022-05-18 20:24:05 GMT 46.159290 11.571419 38,050 307 409 0
2022-05-18 20:24:02 GMT 46.156498 11.576912 38,050 307 409 -64
2022-05-18 20:23:59 GMT 46.151608 11.586594 38,050 307 409 -64
2022-05-18 20:23:55 GMT 46.148849 11.591983 38,050 307 409 -64
2022-05-18 20:23:53 GMT 46.144958 11.599620 38,050 307 409 -64
2022-05-18 20:23:50 GMT 46.142670 11.604172 38,050 307 410 -64
2022-05-18 20:23:47 GMT 46.138138 11.613018 38,050 307 410 0
2022-05-18 20:23:44 GMT 46.135967 11.617355 38,050 307 409 0
2022-05-18 20:23:41 GMT 46.132614 11.623947 38,050 307 409 0
2022-05-18 20:23:38 GMT 46.128799 11.631507 38,050 307 409 0
2022-05-18 20:23:34 GMT 46.123817 11.641251 38,050 306 408 0
2022-05-18 20:23:31 GMT 46.121490 11.645920 38,050 306 408 64
2022-05-18 20:23:27 GMT 46.116898 11.655020 38,050 306 408 64
2022-05-18 20:23:24 GMT 46.113529 11.661713 38,050 306 408 64
2022-05-18 20:23:21 GMT 46.110874 11.667000 38,050 306 408 64
2022-05-18 20:23:18 GMT 46.106918 11.674782 38,050 307 408 64
2022-05-18 20:23:14 GMT 46.102386 11.683759 38,050 307 408 0
2022-05-18 20:23:11 GMT 46.099239 11.690002 38,050 307 408 0
2022-05-18 20:23:08 GMT 46.094971 11.698430 38,050 307 408 0
2022-05-18 20:23:05 GMT 46.092636 11.703052 38,050 307 408 -64
2022-05-18 20:23:02 GMT 46.089695 11.708885 38,050 307 408 -64
2022-05-18 20:22:59 GMT 46.085785 11.716507 38,050 307 407 -64
2022-05-18 20:22:56 GMT 46.082897 11.722206 38,050 307 408 -64
2022-05-18 20:22:53 GMT 46.079544 11.728910 38,050 307 407 -64
2022-05-18 20:22:50 GMT 46.076382 11.735115 38,050 307 407 0
2022-05-18 20:22:47 GMT 46.071911 11.743904 38,050 307 406 0
2022-05-18 20:22:44 GMT 46.065022 11.757431 38,050 307 407 0
2022-05-18 20:22:41 GMT 46.065022 11.757431 38,050 307 406 0
2022-05-18 20:22:38 GMT 46.063019 11.761345 38,050 307 406 0
2022-05-18 20:22:35 GMT 46.059219 11.768836 38,050 307 406 0
2022-05-18 20:22:33 GMT 46.056923 11.773293 38,050 307 406 64
2022-05-18 20:22:30 GMT 46.050823 11.785309 38,050 307 406 64
2022-05-18 20:22:27 GMT 46.050823 11.785309 38,050 307 406 64
2022-05-18 20:22:24 GMT 46.047287 11.792244 38,050 307 406 64
2022-05-18 20:22:21 GMT 46.039417 11.807693 38,050 307 406 0
2022-05-18 20:22:17 GMT 46.039417 11.807693 38,050 307 406 0
2022-05-18 20:22:14 GMT 46.035835 11.814629 38,050 307 406 0
2022-05-18 20:22:12 GMT 46.029373 11.827318 38,050 307 405 0
2022-05-18 20:22:08 GMT 46.029373 11.827318 38,050 307 406 0
2022-05-18 20:22:05 GMT 46.026524 11.832893 38,050 307 406 0
2022-05-18 20:22:02 GMT 46.019447 11.846764 38,025 307 404 0
2022-05-18 20:21:59 GMT 46.019447 11.846764 38,050 307 406 0
2022-05-18 20:21:56 GMT 46.015045 11.855387 38,050 307 405 0
2022-05-18 20:21:53 GMT 46.012325 11.860703 38,050 307 405 0
2022-05-18 20:21:50 GMT 46.005066 11.874881 38,050 307 405 0
2022-05-18 20:21:46 GMT 46.005066 11.874881 38,050 307 405 0
2022-05-18 20:21:43 GMT 46.001862 11.881178 38,050 307 405 0
2022-05-18 20:21:40 GMT 45.995148 11.894279 38,025 307 404 0
2022-05-18 20:21:37 GMT 45.995148 11.894279 38,050 307 405 64
2022-05-18 20:21:33 GMT 45.988586 11.907170 38,025 307 405 64
2022-05-18 20:21:31 GMT 45.988586 11.907170 38,025 307 404 0
2022-05-18 20:21:28 GMT 45.980858 11.922157 38,025 307 405 64
2022-05-18 20:21:25 GMT 45.980858 11.922157 38,025 307 404 64
2022-05-18 20:21:22 GMT 45.978607 11.926597 38,025 307 404 64
2022-05-18 20:21:19 GMT 45.974571 11.934517 38,025 307 404 0
2022-05-18 20:21:15 GMT 45.970707 11.942070 38,025 307 404 0
2022-05-18 20:21:12 GMT 45.966339 11.950579 38,025 307 404 0
2022-05-18 20:21:09 GMT 45.960651 11.961708 38,025 307 403 64
2022-05-18 20:21:06 GMT 45.956322 11.970085 38,025 307 403 64
2022-05-18 20:21:03 GMT 45.956322 11.970085 38,025 307 403 64
2022-05-18 20:21:00 GMT 45.954300 11.974093 38,025 307 402 128
2022-05-18 20:20:56 GMT 45.950363 11.981689 38,000 307 402 192
2022-05-18 20:20:53 GMT 45.941895 11.998075 38,000 307 402 256
2022-05-18 20:20:50 GMT 45.941895 11.998075 37,975 307 403 192
2022-05-18 20:20:46 GMT 45.935097 12.011284 37,975 307 403 0
2022-05-18 20:20:43 GMT 45.935097 12.011284 37,975 307 403 0
2022-05-18 20:20:41 GMT 45.932999 12.015404 37,975 307 403 0
2022-05-18 20:20:38 GMT 45.929169 12.022794 37,975 307 403 0
2022-05-18 20:20:35 GMT 45.926807 12.027351 37,975 307 403 0
2022-05-18 20:20:32 GMT 45.921825 12.037033 37,975 307 403 0
2022-05-18 20:20:29 GMT 45.918613 12.043213 37,975 307 402 0
2022-05-18 20:20:26 GMT 45.917080 12.046234 37,975 307 402 0
2022-05-18 20:20:23 GMT 45.912983 12.054131 37,975 307 402 0
2022-05-18 20:20:21 GMT 45.910812 12.058299 37,975 307 402 0
2022-05-18 20:20:18 GMT 45.902927 12.073631 37,975 307 402 0
2022-05-18 20:20:15 GMT 45.901199 12.076922 37,975 307 402 0
2022-05-18 20:20:12 GMT 45.901199 12.076922 37,975 307 402 0
2022-05-18 20:20:09 GMT 45.896736 12.085648 37,975 307 402 0
2022-05-18 20:20:05 GMT 45.893829 12.091325 37,975 307 402 0
2022-05-18 20:20:02 GMT 45.890305 12.098158 37,975 307 402 0
2022-05-18 20:19:58 GMT 45.885132 12.108206 37,975 307 402 0
2022-05-18 20:19:54 GMT 45.880535 12.117096 37,975 307 402 0
2022-05-18 20:19:51 GMT 45.872715 12.132271 38,000 307 402 0
2022-05-18 20:19:47 GMT 45.872715 12.132271 37,975 307 402 -64
2022-05-18 20:19:44 GMT 45.870438 12.136677 37,975 307 402 0
2022-05-18 20:19:41 GMT 45.867176 12.142982 37,975 307 402 -64
2022-05-18 20:19:38 GMT 45.859543 12.157846 38,000 307 402 0
2022-05-18 20:19:35 GMT 45.859543 12.157846 38,000 307 402 0
2022-05-18 20:19:32 GMT 45.851765 12.172920 38,000 307 402 0
2022-05-18 20:19:28 GMT 45.851765 12.172920 38,000 307 402 -64
2022-05-18 20:19:25 GMT 45.848419 12.179484 38,000 307 402 -64
2022-05-18 20:19:22 GMT 45.846272 12.183632 38,000 307 402 -64
2022-05-18 20:19:20 GMT 45.843620 12.188782 38,000 307 403 -64
2022-05-18 20:19:15 GMT 45.838547 12.198669 38,000 307 403 -64
2022-05-18 20:19:12 GMT 45.835190 12.205208 38,025 307 403 -64
2022-05-18 20:19:08 GMT 45.829979 12.215424 38,025 307 402 0
2022-05-18 20:19:05 GMT 45.824066 12.226845 38,025 307 403 0
2022-05-18 20:19:02 GMT 45.824066 12.226845 38,025 307 403 0
2022-05-18 20:18:58 GMT 45.819553 12.235542 38,025 307 403 -64
2022-05-18 20:18:55 GMT 45.812569 12.249001 38,025 307 403 -64
2022-05-18 20:18:52 GMT 45.812569 12.249001 38,025 307 404 -64
2022-05-18 20:18:50 GMT 45.804062 12.265431 38,025 307 404 -64
2022-05-18 20:18:45 GMT 45.804062 12.265431 38,025 307 404 -64
2022-05-18 20:18:42 GMT 45.801315 12.270791 38,025 307 404 -64
2022-05-18 20:18:38 GMT 45.796600 12.279900 38,025 307 404 -64
2022-05-18 20:18:34 GMT 45.792831 12.287247 38,025 307 405 0
2022-05-18 20:18:31 GMT 45.790039 12.292603 38,050 307 406 0
2022-05-18 20:18:27 GMT 45.784332 12.303683 38,025 307 405 0
2022-05-18 20:18:24 GMT 45.781052 12.310043 38,050 307 405 -64
2022-05-18 20:18:21 GMT 45.778427 12.315071 38,025 307 405 -64
2022-05-18 20:18:19 GMT 45.775700 12.320343 38,050 307 406 0
2022-05-18 20:18:16 GMT 45.772907 12.325699 38,050 307 406 -128
2022-05-18 20:18:13 GMT 45.768856 12.333458 38,050 307 406 -128
2022-05-18 20:18:10 GMT 45.764061 12.342728 38,050 307 406 0
2022-05-18 20:18:08 GMT 45.759659 12.351245 38,050 307 406 0
2022-05-18 20:18:05 GMT 45.759659 12.351245 38,050 307 406 0
2022-05-18 20:18:02 GMT 45.756893 12.356461 38,050 307 407 0
2022-05-18 20:17:59 GMT 45.753307 12.363396 38,050 307 408 0
2022-05-18 20:17:56 GMT 45.749863 12.369936 38,050 307 408 0
2022-05-18 20:17:52 GMT 45.744976 12.379326 38,050 307 408 0
2022-05-18 20:17:47 GMT 45.739288 12.390233 38,075 307 408 0
2022-05-18 20:17:44 GMT 45.736221 12.396062 38,075 307 408 0
2022-05-18 20:17:41 GMT 45.733292 12.401689 38,075 307 408 0
2022-05-18 20:17:39 GMT 45.731049 12.405976 38,075 307 408 0
2022-05-18 20:17:36 GMT 45.726727 12.414276 38,075 307 408 64
2022-05-18 20:17:33 GMT 45.723724 12.420044 38,050 307 408 64
2022-05-18 20:17:30 GMT 45.718735 12.429490 38,050 307 408 0
2022-05-18 20:17:28 GMT 45.718735 12.429490 38,050 307 408 0
2022-05-18 20:17:25 GMT 45.715321 12.436111 38,050 307 408 0
2022-05-18 20:17:22 GMT 45.710808 12.444763 38,050 307 408 0
2022-05-18 20:17:19 GMT 45.709084 12.447990 38,050 307 408 0
2022-05-18 20:17:16 GMT 45.704147 12.457535 38,050 307 409 0
2022-05-18 20:17:13 GMT 45.701843 12.461980 38,050 307 409 0
2022-05-18 20:17:10 GMT 45.698547 12.468277 38,050 307 409 0
2022-05-18 20:17:06 GMT 45.694519 12.476047 38,050 307 409 0
2022-05-18 20:17:03 GMT 45.690308 12.484086 38,050 307 409 0
2022-05-18 20:16:59 GMT 45.686691 12.491053 38,050 307 409 0
2022-05-18 20:16:56 GMT 45.683121 12.497953 38,050 307 410 0
2022-05-18 20:16:53 GMT 45.674450 12.514526 38,050 307 409 0
2022-05-18 20:16:50 GMT 45.671219 12.520730 38,050 307 410 0
2022-05-18 20:16:46 GMT 45.671219 12.520730 38,050 307 410 64
2022-05-18 20:16:43 GMT 45.666779 12.529103 38,050 307 410 0
2022-05-18 20:16:40 GMT 45.663849 12.534730 38,050 307 410 0
2022-05-18 20:16:37 GMT 45.660950 12.540276 38,050 307 410 64
2022-05-18 20:16:33 GMT 45.655746 12.550071 38,050 307 410 64
2022-05-18 20:16:30 GMT 45.653313 12.554695 38,050 307 410 64
2022-05-18 20:16:27 GMT 45.648750 12.563347 38,050 307 410 64
2022-05-18 20:16:24 GMT 45.645950 12.568627 38,050 307 410 64
2022-05-18 20:16:21 GMT 45.642654 12.574924 38,050 307 410 64
2022-05-18 20:16:19 GMT 45.639488 12.580788 38,025 307 410 64
2022-05-18 20:16:15 GMT 45.636703 12.586112 38,025 307 410 64
2022-05-18 20:16:12 GMT 45.632355 12.594284 38,025 307 410 0
2022-05-18 20:16:08 GMT 45.627136 12.604199 38,025 307 410 0
2022-05-18 20:16:05 GMT 45.623703 12.610697 38,025 307 410 0
2022-05-18 20:16:02 GMT 45.620960 12.616013 38,025 307 410 64
2022-05-18 20:15:58 GMT 45.616722 12.623978 38,025 307 409 64
2022-05-18 20:15:55 GMT 45.613174 12.630794 38,025 307 410 64
2022-05-18 20:15:52 GMT 45.606903 12.642792 38,025 307 410 64
2022-05-18 20:15:49 GMT 45.606903 12.642792 38,025 307 410 0
2022-05-18 20:15:46 GMT 45.599579 12.656719 38,025 307 409 0
2022-05-18 20:15:43 GMT 45.599579 12.656719 38,025 307 409 0
2022-05-18 20:15:39 GMT 45.590839 12.673485 38,025 307 409 0
2022-05-18 20:15:36 GMT 45.590839 12.673485 38,025 307 408 0
2022-05-18 20:15:32 GMT 45.582870 12.688673 38,025 307 409 0
2022-05-18 20:15:29 GMT 45.582870 12.688673 38,025 307 409 0
2022-05-18 20:15:25 GMT 45.579483 12.695171 38,025 307 408 0
2022-05-18 20:15:22 GMT 45.576595 12.700676 38,025 307 408 0
2022-05-18 20:15:19 GMT 45.572174 12.709053 38,025 307 409 0
2022-05-18 20:15:16 GMT 45.569870 12.713459 38,025 307 408 0
2022-05-18 20:15:13 GMT 45.566402 12.720039 38,025 307 408 0
2022-05-18 20:15:10 GMT 45.561951 12.728532 38,025 307 408 0
2022-05-18 20:15:07 GMT 45.557968 12.736102 38,025 307 408 0
2022-05-18 20:15:03 GMT 45.551422 12.748562 38,025 307 408 0
2022-05-18 20:15:00 GMT 45.548340 12.754303 38,025 307 407 0
2022-05-18 20:14:58 GMT 45.548340 12.754303 38,025 307 407 0
2022-05-18 20:14:55 GMT 45.544800 12.761089 38,025 307 407 0
2022-05-18 20:14:51 GMT 45.539749 12.770626 38,025 307 407 64
2022-05-18 20:14:48 GMT 45.536888 12.776095 38,025 307 407 64
2022-05-18 20:14:44 GMT 45.532230 12.784870 38,025 307 407 64
2022-05-18 20:14:41 GMT 45.529449 12.790113 38,025 307 407 64
2022-05-18 20:14:38 GMT 45.526134 12.796393 38,000 308 407 64
2022-05-18 20:14:34 GMT 45.521896 12.804435 38,000 308 407 64
2022-05-18 20:14:31 GMT 45.518314 12.811197 38,000 307 406 64
2022-05-18 20:14:28 GMT 45.514893 12.817710 38,000 307 406 64
2022-05-18 20:14:24 GMT 45.510307 12.826337 38,000 307 406 0
2022-05-18 20:14:21 GMT 45.507278 12.832098 38,000 307 406 64
2022-05-18 20:14:18 GMT 45.502857 12.840472 38,000 307 406 64
2022-05-18 20:14:15 GMT 45.499557 12.846745 38,000 307 406 0
2022-05-18 20:14:12 GMT 45.495548 12.854339 38,000 307 406 0
2022-05-18 20:14:09 GMT 45.493732 12.857755 38,000 307 406 0
2022-05-18 20:14:07 GMT 45.491501 12.861976 38,000 307 406 -64
2022-05-18 20:14:02 GMT 45.485493 12.873297 38,000 307 405 0
2022-05-18 20:13:59 GMT 45.482700 12.878656 38,000 307 405 0
2022-05-18 20:13:57 GMT 45.479767 12.884149 38,000 307 405 64
2022-05-18 20:13:52 GMT 45.473808 12.895471 38,000 307 405 64
2022-05-18 20:13:49 GMT 45.467709 12.906926 38,000 307 405 64
2022-05-18 20:13:46 GMT 45.467709 12.906926 38,000 307 405 64
2022-05-18 20:13:42 GMT 45.460171 12.921128 37,975 307 405 0
2022-05-18 20:13:39 GMT 45.460171 12.921128 37,975 307 405 0
2022-05-18 20:13:37 GMT 45.456585 12.927961 37,975 307 405 0
2022-05-18 20:13:34 GMT 45.454117 12.932650 38,000 307 405 -64
2022-05-18 20:13:31 GMT 45.450256 12.939998 38,000 307 405 -64
2022-05-18 20:13:27 GMT 45.443069 12.953600 38,000 307 405 -64
2022-05-18 20:13:24 GMT 45.443069 12.953600 38,000 307 405 -64
2022-05-18 20:13:21 GMT 45.434101 12.970432 38,000 307 405 -64
2022-05-18 20:13:17 GMT 45.434101 12.970432 38,000 308 404 0
2022-05-18 20:13:14 GMT 45.431763 12.974788 38,000 308 404 0
2022-05-18 20:13:11 GMT 45.428055 12.981785 38,000 308 405 64
2022-05-18 20:13:07 GMT 45.423347 12.990596 38,000 308 404 64
2022-05-18 20:13:05 GMT 45.421600 12.993883 38,000 308 404 64
2022-05-18 20:13:02 GMT 45.417801 13.001077 38,000 308 404 64
2022-05-18 20:12:59 GMT 45.412174 13.011564 38,000 308 404 64
2022-05-18 20:12:57 GMT 45.409332 13.016968 37,975 308 404 64
2022-05-18 20:12:52 GMT 45.403049 13.028713 37,975 308 404 0
2022-05-18 20:12:49 GMT 45.398941 13.036455 37,975 308 404 0
2022-05-18 20:12:45 GMT 45.398941 13.036455 37,975 308 404 0
2022-05-18 20:12:42 GMT 45.395042 13.043786 37,975 307 405 0
2022-05-18 20:12:39 GMT 45.391617 13.050254 37,975 307 405 0
2022-05-18 20:12:36 GMT 45.389408 13.054370 37,975 307 405 -64
2022-05-18 20:12:34 GMT 45.386570 13.059663 37,975 308 404 -64
2022-05-18 20:12:31 GMT 45.382519 13.067299 37,975 308 405 -64
2022-05-18 20:12:28 GMT 45.379761 13.072488 38,000 308 405 -64
2022-05-18 20:12:25 GMT 45.375305 13.080831 38,000 308 405 -64
2022-05-18 20:12:21 GMT 45.371208 13.088468 38,000 308 405 -64
2022-05-18 20:12:18 GMT 45.367809 13.094832 38,000 308 405 -64
2022-05-18 20:12:15 GMT 45.362549 13.104597 38,000 308 404 -64
2022-05-18 20:12:13 GMT 45.358639 13.111915 38,000 308 405 64
2022-05-18 20:12:09 GMT 45.358639 13.111915 38,000 308 405 -64
2022-05-18 20:12:06 GMT 45.354774 13.119083 38,000 308 405 -64
2022-05-18 20:12:04 GMT 45.352570 13.123169 38,025 308 405 -64
2022-05-18 20:11:59 GMT 45.346664 13.134155 38,025 308 404 -64
2022-05-18 20:11:56 GMT 45.343464 13.140184 38,000 308 406 0
2022-05-18 20:11:53 GMT 45.340668 13.145338 38,025 308 404 0
2022-05-18 20:11:50 GMT 45.336525 13.153046 38,025 308 404 64
2022-05-18 20:11:47 GMT 45.332611 13.160313 38,000 308 404 64
2022-05-18 20:11:44 GMT 45.328903 13.167245 38,000 308 404 64
2022-05-18 20:11:41 GMT 45.327301 13.170253 38,000 308 405 64
2022-05-18 20:11:38 GMT 45.320419 13.182991 38,000 308 406 0
2022-05-18 20:11:36 GMT 45.320419 13.182991 38,000 308 406 0
2022-05-18 20:11:33 GMT 45.317486 13.188484 38,000 308 406 0
2022-05-18 20:11:30 GMT 45.312653 13.197457 38,000 308 406 -64
2022-05-18 20:11:27 GMT 45.310272 13.201904 38,000 308 406 -64
2022-05-18 20:11:25 GMT 45.308441 13.205305 38,025 308 406 -64
2022-05-18 20:11:22 GMT 45.304504 13.212694 38,025 308 406 -64
2022-05-18 20:11:17 GMT 45.299423 13.222113 38,025 308 406 -64
2022-05-18 20:11:15 GMT 45.296722 13.227204 38,025 308 406 -64
2022-05-18 20:11:12 GMT 45.293335 13.233425 38,025 308 406 0
2022-05-18 20:11:08 GMT 45.288849 13.241926 38,025 308 406 0
2022-05-18 20:11:05 GMT 45.284805 13.249445 38,025 308 407 -64
2022-05-18 20:11:01 GMT 45.280991 13.256680 38,025 307 407 -64
2022-05-18 20:10:57 GMT 45.276333 13.265388 38,050 307 406 -64
2022-05-18 20:10:54 GMT 45.271866 13.273839 38,050 307 407 -64
2022-05-18 20:10:51 GMT 45.270142 13.277112 38,050 307 407 -64
2022-05-18 20:10:47 GMT 45.265720 13.285418 38,050 307 407 -64
2022-05-18 20:10:44 GMT 45.261902 13.292720 38,050 307 407 -64
2022-05-18 20:10:41 GMT 45.253197 13.309133 38,050 307 408 -64
2022-05-18 20:10:37 GMT 45.253197 13.309133 38,050 307 408 0
2022-05-18 20:10:33 GMT 45.249298 13.316541 38,050 307 408 0
2022-05-18 20:10:30 GMT 45.245819 13.323146 38,050 307 408 0
2022-05-18 20:10:26 GMT 45.242256 13.329899 38,050 307 408 0
2022-05-18 20:10:24 GMT 45.239502 13.335114 38,050 307 408 0
2022-05-18 20:10:21 GMT 45.236160 13.341489 38,050 307 409 0
2022-05-18 20:10:18 GMT 45.232994 13.347518 38,050 307 409 0
2022-05-18 20:10:15 GMT 45.228943 13.355222 38,050 307 409 0
2022-05-18 20:10:12 GMT 45.224945 13.362841 38,050 307 409 0
2022-05-18 20:10:09 GMT 45.222610 13.367353 38,050 307 409 0
2022-05-18 20:10:06 GMT 45.219131 13.374089 38,050 307 410 0
2022-05-18 20:10:03 GMT 45.214508 13.382917 38,050 307 410 0
2022-05-18 20:10:00 GMT 45.212559 13.386707 38,050 307 410 0
2022-05-18 20:09:57 GMT 45.208042 13.395349 38,050 307 410 0
2022-05-18 20:09:54 GMT 45.205715 13.399904 38,050 307 411 0
2022-05-18 20:09:51 GMT 45.199524 13.411828 38,050 307 411 0
2022-05-18 20:09:45 GMT 45.195148 13.420269 38,050 307 411 0
2022-05-18 20:09:41 GMT 45.191620 13.427059 38,025 307 411 64
2022-05-18 20:09:38 GMT 45.183975 13.441638 38,025 307 411 64
2022-05-18 20:09:35 GMT 45.183975 13.441638 38,025 307 410 64
2022-05-18 20:09:32 GMT 45.180668 13.447869 38,025 308 411 64
2022-05-18 20:09:29 GMT 45.177132 13.454501 38,025 309 410 0
2022-05-18 20:09:26 GMT 45.172943 13.462204 38,025 308 411 0
2022-05-18 20:09:23 GMT 45.171112 13.465445 38,025 309 410 0
2022-05-18 20:09:20 GMT 45.165493 13.475401 38,025 310 410 0
2022-05-18 20:09:17 GMT 45.161728 13.481925 38,025 310 410 0
2022-05-18 20:09:13 GMT 45.158745 13.486924 38,025 312 409 0
2022-05-18 20:09:10 GMT 45.153946 13.494677 38,025 312 408 0
2022-05-18 20:09:07 GMT 45.150738 13.499786 38,025 313 409 0
2022-05-18 20:09:04 GMT 45.146988 13.505598 38,025 313 408 0
2022-05-18 20:09:02 GMT 45.145149 13.508494 38,025 313 408 0
2022-05-18 20:08:59 GMT 45.140671 13.515472 38,025 313 408 0
2022-05-18 20:08:56 GMT 45.137562 13.520352 38,025 313 408 0
2022-05-18 20:08:53 GMT 45.133209 13.527113 38,025 313 408 0
2022-05-18 20:08:49 GMT 45.127991 13.535222 38,025 313 409 0
2022-05-18 20:08:46 GMT 45.124249 13.541051 38,025 313 409 0
2022-05-18 20:08:42 GMT 45.119823 13.547951 38,025 313 409 -64
2022-05-18 20:08:39 GMT 45.115448 13.554775 38,025 313 409 -64
2022-05-18 20:08:36 GMT 45.112381 13.559549 38,025 313 409 -64
2022-05-18 20:08:34 GMT 45.108444 13.565630 38,025 313 409 -64
2022-05-18 20:08:29 GMT 45.103134 13.573935 38,050 313 408 -64
2022-05-18 20:08:26 GMT 45.098557 13.581063 38,050 313 408 -64
2022-05-18 20:08:23 GMT 45.094986 13.586557 38,050 313 408 -64
2022-05-18 20:08:21 GMT 45.091755 13.591562 38,050 313 408 0
2022-05-18 20:08:18 GMT 45.089035 13.595777 38,050 313 408 0
2022-05-18 20:08:15 GMT 45.085285 13.601610 38,050 313 408 64
2022-05-18 20:08:12 GMT 45.082169 13.606437 38,050 313 408 64
2022-05-18 20:08:10 GMT 45.078598 13.611930 38,050 313 408 64
2022-05-18 20:08:07 GMT 45.075230 13.617152 38,050 313 408 0
2022-05-18 20:08:04 GMT 45.070667 13.624253 38,050 313 408 0
2022-05-18 20:08:01 GMT 45.066895 13.630148 38,050 313 407 0
2022-05-18 20:07:58 GMT 45.062332 13.637249 38,050 313 407 0
2022-05-18 20:07:55 GMT 45.059692 13.641292 38,025 313 407 0
2022-05-18 20:07:52 GMT 45.055527 13.647766 38,025 313 407 0
2022-05-18 20:07:49 GMT 45.051811 13.653527 38,025 313 407 0
2022-05-18 20:07:45 GMT 45.047058 13.660910 38,025 313 407 0
2022-05-18 20:07:42 GMT 45.043259 13.666796 38,025 313 407 0
2022-05-18 20:07:39 GMT 45.039104 13.673222 38,050 313 407 0
2022-05-18 20:07:36 GMT 45.035286 13.679050 38,050 313 407 0
2022-05-18 20:07:34 GMT 45.032593 13.683275 38,050 313 406 0
2022-05-18 20:07:30 GMT 45.026367 13.692889 38,025 313 406 0
2022-05-18 20:07:26 GMT 45.022251 13.699281 38,025 313 406 64
2022-05-18 20:07:23 GMT 45.018997 13.704202 38,050 313 406 64
2022-05-18 20:07:21 GMT 45.011826 13.715292 38,025 313 406 64
2022-05-18 20:07:18 GMT 45.011826 13.715292 38,025 313 406 64
2022-05-18 20:07:15 GMT 45.005913 13.724469 38,025 313 406 64
2022-05-18 20:07:13 GMT 45.005913 13.724469 38,025 313 406 64
2022-05-18 20:07:11 GMT 45.003937 13.727482 38,025 313 406 64
2022-05-18 20:07:07 GMT 44.997952 13.736796 38,025 313 405 0
2022-05-18 20:07:03 GMT 44.993389 13.743829 38,000 313 406 0
2022-05-18 20:07:00 GMT 44.990456 13.748318 38,000 313 406 0
2022-05-18 20:06:57 GMT 44.986176 13.754950 38,025 313 406 -64
2022-05-18 20:06:54 GMT 44.982422 13.760703 38,025 313 405 -64
2022-05-18 20:06:51 GMT 44.971882 13.776989 38,025 313 405 -64
2022-05-18 20:06:47 GMT 44.971882 13.776989 38,025 313 404 0
2022-05-18 20:06:44 GMT 44.968506 13.782152 38,025 313 404 0
2022-05-18 20:06:41 GMT 44.965988 13.786011 38,025 313 404 0
2022-05-18 20:06:38 GMT 44.960953 13.793793 38,025 313 404 0
2022-05-18 20:06:35 GMT 44.958298 13.797913 38,025 313 404 0
2022-05-18 20:06:32 GMT 44.954704 13.803450 38,025 313 404 0
2022-05-18 20:06:28 GMT 44.949234 13.811907 38,025 313 404 0
2022-05-18 20:06:24 GMT 44.945255 13.818054 38,025 313 404 0
2022-05-18 20:06:22 GMT 44.942093 13.822959 38,025 313 404 0
2022-05-18 20:06:20 GMT 44.937759 13.829710 38,025 313 404 0
2022-05-18 20:06:15 GMT 44.933304 13.836561 38,025 313 403 0
2022-05-18 20:06:11 GMT 44.928078 13.844649 38,025 313 403 0
2022-05-18 20:06:08 GMT 44.923599 13.851471 38,025 313 403 64
2022-05-18 20:06:05 GMT 44.920486 13.856310 38,025 313 402 64
2022-05-18 20:06:00 GMT 44.913803 13.866577 38,000 313 402 64
2022-05-18 20:05:57 GMT 44.910480 13.871713 38,000 313 402 64
2022-05-18 20:05:54 GMT 44.906021 13.878544 38,000 313 402 64
2022-05-18 20:05:51 GMT 44.903641 13.882272 38,000 313 402 64
2022-05-18 20:05:47 GMT 44.898880 13.889596 38,000 313 402 64
2022-05-18 20:05:44 GMT 44.894623 13.896136 38,000 313 402 0
2022-05-18 20:05:41 GMT 44.890926 13.901858 38,000 313 402 -64
2022-05-18 20:05:37 GMT 44.885948 13.909562 38,000 313 402 -64
2022-05-18 20:05:34 GMT 44.882549 13.914787 38,000 313 402 -64
2022-05-18 20:05:31 GMT 44.878464 13.921051 38,000 313 401 -64
2022-05-18 20:05:28 GMT 44.874775 13.926712 38,000 313 401 0
2022-05-18 20:05:24 GMT 44.869514 13.934817 38,000 313 401 0
2022-05-18 20:05:21 GMT 44.865883 13.940378 38,000 313 400 0
2022-05-18 20:05:16 GMT 44.856171 13.955253 38,000 313 400 0
2022-05-18 20:05:11 GMT 44.853127 13.959939 38,000 313 400 0
2022-05-18 20:05:06 GMT 44.847153 13.968985 38,000 313 400 0
2022-05-18 20:05:03 GMT 44.843071 13.975212 38,000 313 400 0
2022-05-18 20:05:01 GMT 44.840420 13.979165 38,000 313 399 0
2022-05-18 20:04:57 GMT 44.835438 13.986802 38,000 313 399 0
2022-05-18 20:04:54 GMT 44.831360 13.992985 38,000 313 399 0
2022-05-18 20:04:51 GMT 44.827469 13.998871 38,000 313 398 0
2022-05-18 20:04:48 GMT 44.822495 14.006363 38,000 313 398 0
2022-05-18 20:04:44 GMT 44.818039 14.013127 38,000 313 398 0
2022-05-18 20:04:40 GMT 44.808197 14.028102 38,000 313 397 -64
2022-05-18 20:04:36 GMT 44.808197 14.028102 38,000 313 397 0
2022-05-18 20:04:33 GMT 44.805645 14.031953 38,000 313 397 -64
2022-05-18 20:04:30 GMT 44.801834 14.037781 38,000 313 397 -64
2022-05-18 20:04:27 GMT 44.798058 14.043542 38,000 313 397 0
2022-05-18 20:04:24 GMT 44.793354 14.050777 38,025 313 397 0
2022-05-18 20:04:21 GMT 44.790161 14.055634 38,025 313 397 0
2022-05-18 20:04:15 GMT 44.782608 14.067208 38,025 313 397 0
2022-05-18 20:04:12 GMT 44.779999 14.071198 38,025 313 397 0
2022-05-18 20:04:10 GMT 44.776596 14.076434 38,025 313 397 0
2022-05-18 20:04:05 GMT 44.770706 14.085454 38,025 313 397 0
2022-05-18 20:04:02 GMT 44.767593 14.090227 38,025 313 397 0
2022-05-18 20:03:59 GMT 44.763187 14.097000 38,000 313 397 0
2022-05-18 20:03:56 GMT 44.760071 14.101756 38,025 313 398 0
2022-05-18 20:03:52 GMT 44.754856 14.109728 38,025 313 398 -64
2022-05-18 20:03:49 GMT 44.750977 14.115731 38,025 313 398 -64
2022-05-18 20:03:44 GMT 44.745033 14.124801 38,025 313 398 -64
2022-05-18 20:03:41 GMT 44.741364 14.130445 38,025 313 398 0
2022-05-18 20:03:38 GMT 44.735538 14.139270 38,025 313 398 64
2022-05-18 20:03:33 GMT 44.730743 14.146532 38,025 313 398 64
2022-05-18 20:03:30 GMT 44.726990 14.152222 38,025 313 398 64
2022-05-18 20:03:28 GMT 44.724319 14.156353 38,025 313 398 64
2022-05-18 20:03:25 GMT 44.716507 14.168178 38,025 313 399 -64
2022-05-18 20:03:22 GMT 44.713470 14.172832 38,025 313 398 0
2022-05-18 20:03:19 GMT 44.713470 14.172832 38,025 313 398 0
2022-05-18 20:03:13 GMT 44.705795 14.184527 38,025 313 399 -64
2022-05-18 20:03:10 GMT 44.701599 14.190919 38,025 313 399 -64
2022-05-18 20:03:05 GMT 44.696106 14.199293 38,025 313 399 -64
2022-05-18 20:03:02 GMT 44.691730 14.205925 38,025 313 398 -64
2022-05-18 20:02:59 GMT 44.684517 14.216978 38,025 313 398 0
2022-05-18 20:02:53 GMT 44.676697 14.228970 38,025 313 398 0
2022-05-18 20:02:50 GMT 44.676697 14.228970 38,025 313 398 0
2022-05-18 20:02:44 GMT 44.670132 14.239018 38,025 313 397 0
2022-05-18 20:02:41 GMT 44.666931 14.243840 38,025 313 397 0
2022-05-18 20:02:39 GMT 44.663956 14.248417 38,025 313 397 0
2022-05-18 20:02:37 GMT 44.661484 14.252210 38,025 313 397 0
2022-05-18 20:02:34 GMT 44.657730 14.257900 38,025 313 397 0
2022-05-18 20:02:31 GMT 44.650345 14.269231 38,025 313 397 0
2022-05-18 20:02:25 GMT 44.645920 14.275949 38,050 313 396 0
2022-05-18 20:02:20 GMT 44.639778 14.285308 38,025 313 398 0
2022-05-18 20:02:17 GMT 44.636581 14.290139 38,025 313 398 0
2022-05-18 20:02:14 GMT 44.632282 14.296696 38,025 313 397 0
2022-05-18 20:02:10 GMT 44.626740 14.305115 38,025 313 397 0
2022-05-18 20:02:07 GMT 44.623489 14.310019 38,025 313 397 0
2022-05-18 20:02:04 GMT 44.620178 14.315052 38,025 313 397 0
2022-05-18 20:02:01 GMT 44.615112 14.322641 38,025 313 397 0
2022-05-18 20:01:58 GMT 44.608913 14.332000 38,025 313 397 64
2022-05-18 20:01:55 GMT 44.605270 14.337551 38,025 313 396 64
2022-05-18 20:01:52 GMT 44.605270 14.337551 38,025 313 397 64
2022-05-18 20:01:49 GMT 44.600674 14.344460 38,025 313 397 64
2022-05-18 20:01:47 GMT 44.598358 14.347883 38,025 313 397 64
2022-05-18 20:01:44 GMT 44.591553 14.358193 38,025 314 396 64
2022-05-18 20:01:41 GMT 44.591553 14.358193 38,025 314 396 64
2022-05-18 20:01:38 GMT 44.588242 14.363120 38,025 314 396 0
2022-05-18 20:01:36 GMT 44.584991 14.368025 38,025 314 396 0
2022-05-18 20:01:33 GMT 44.581264 14.373534 38,025 314 396 0
2022-05-18 20:01:30 GMT 44.571945 14.387512 38,025 314 396 0
2022-05-18 20:01:27 GMT 44.566879 14.395104 38,025 314 396 0
2022-05-18 20:01:22 GMT 44.566879 14.395104 38,025 314 396 0
2022-05-18 20:01:18 GMT 44.563015 14.400932 38,025 314 396 0
2022-05-18 20:01:15 GMT 44.558731 14.407297 38,025 314 396 0
2022-05-18 20:01:11 GMT 44.553890 14.414598 38,025 313 396 0
2022-05-18 20:01:09 GMT 44.549885 14.420628 38,025 313 396 0
2022-05-18 20:01:05 GMT 44.546219 14.426161 38,025 313 396 0
2022-05-18 20:01:01 GMT 44.540955 14.434073 38,025 313 396 0
2022-05-18 20:00:58 GMT 44.534058 14.444476 38,025 313 395 0
2022-05-18 20:00:56 GMT 44.534058 14.444476 38,025 314 395 0
2022-05-18 20:00:50 GMT 44.527634 14.454150 38,025 313 395 0
2022-05-18 20:00:47 GMT 44.524429 14.458989 38,025 313 395 -64
2022-05-18 20:00:45 GMT 44.521118 14.463970 38,025 313 395 0
2022-05-18 20:00:41 GMT 44.515392 14.472612 38,025 313 395 0
2022-05-18 20:00:38 GMT 44.511337 14.478673 38,025 313 395 0
2022-05-18 20:00:35 GMT 44.508728 14.482596 38,025 313 395 0
2022-05-18 20:00:30 GMT 44.502544 14.491838 38,025 313 394 0
2022-05-18 20:00:28 GMT 44.499561 14.496326 38,025 314 395 0
2022-05-18 20:00:26 GMT 44.496212 14.501350 38,025 313 394 0
2022-05-18 20:00:23 GMT 44.494537 14.503915 38,025 313 394 0
2022-05-18 20:00:20 GMT 44.486996 14.515150 38,025 313 394 0
2022-05-18 20:00:18 GMT 44.486996 14.515150 38,025 313 394 0
2022-05-18 20:00:14 GMT 44.482590 14.521768 38,025 314 394 0
2022-05-18 20:00:11 GMT 44.477543 14.529285 38,025 314 394 0
2022-05-18 20:00:08 GMT 44.475311 14.532634 38,025 314 394 0
2022-05-18 20:00:05 GMT 44.472153 14.537397 38,025 314 394 64
2022-05-18 20:00:01 GMT 44.465927 14.546683 38,025 313 393 0
2022-05-18 19:59:57 GMT 44.462128 14.552503 38,025 313 393 64
2022-05-18 19:59:55 GMT 44.458878 14.557277 38,025 313 393 64
2022-05-18 19:59:51 GMT 44.449657 14.571154 38,025 313 393 -64
2022-05-18 19:59:47 GMT 44.449657 14.571154 38,025 313 393 0
2022-05-18 19:59:45 GMT 44.445877 14.576830 38,025 313 393 0
2022-05-18 19:59:39 GMT 44.436722 14.590563 38,025 313 393 0
2022-05-18 19:59:37 GMT 44.436722 14.590563 38,025 313 393 0
2022-05-18 19:59:35 GMT 44.433693 14.595136 38,025 313 392 0
2022-05-18 19:59:30 GMT 44.427406 14.604582 38,025 313 392 0
2022-05-18 19:59:26 GMT 44.422394 14.612078 38,025 313 392 0
2022-05-18 19:59:23 GMT 44.419727 14.616104 38,025 313 392 0
2022-05-18 19:59:19 GMT 44.414791 14.623540 38,025 313 392 0
2022-05-18 19:59:16 GMT 44.411179 14.629015 38,025 313 392 0
2022-05-18 19:59:13 GMT 44.407471 14.634574 38,025 313 392 0
2022-05-18 19:59:09 GMT 44.399460 14.646672 38,025 313 392 0
2022-05-18 19:59:07 GMT 44.395248 14.652950 38,025 313 392 0
2022-05-18 19:59:04 GMT 44.395248 14.652950 38,025 313 392 -64
2022-05-18 19:58:56 GMT 44.384674 14.668825 38,025 314 392 0
2022-05-18 19:58:53 GMT 44.382343 14.672308 38,025 314 392 0
2022-05-18 19:58:50 GMT 44.378815 14.677604 38,025 314 392 0
2022-05-18 19:58:47 GMT 44.374466 14.684078 38,025 314 391 64
2022-05-18 19:58:43 GMT 44.369961 14.690797 38,025 314 391 0
2022-05-18 19:58:39 GMT 44.363983 14.699707 38,025 314 391 0
2022-05-18 19:58:35 GMT 44.361374 14.703565 38,025 314 391 0
2022-05-18 19:58:33 GMT 44.358231 14.708282 38,025 314 391 0
2022-05-18 19:58:30 GMT 44.353764 14.714847 38,025 314 391 0
2022-05-18 19:58:26 GMT 44.349804 14.720742 38,025 314 391 0
2022-05-18 19:58:23 GMT 44.344894 14.728023 38,025 314 390 0
2022-05-18 19:58:20 GMT 44.340729 14.734235 38,025 314 391 0
2022-05-18 19:58:15 GMT 44.335701 14.741710 38,025 314 391 0
2022-05-18 19:58:13 GMT 44.332115 14.747002 38,025 314 391 0
2022-05-18 19:58:09 GMT 44.328827 14.751892 38,025 314 391 0
2022-05-18 19:58:06 GMT 44.323830 14.759261 38,025 314 391 0
2022-05-18 19:58:01 GMT 44.317123 14.769175 38,025 314 390 0
2022-05-18 19:57:58 GMT 44.314728 14.772753 38,000 314 390 0
2022-05-18 19:57:54 GMT 44.308605 14.781770 38,025 314 389 0
2022-05-18 19:57:51 GMT 44.306000 14.785588 38,025 314 390 64
2022-05-18 19:57:48 GMT 44.301392 14.792354 38,025 314 389 0
2022-05-18 19:57:45 GMT 44.297974 14.797407 38,025 314 389 0
2022-05-18 19:57:42 GMT 44.294174 14.803031 38,025 314 389 0
2022-05-18 19:57:37 GMT 44.289009 14.810575 38,025 314 389 0
2022-05-18 19:57:35 GMT 44.282070 14.820825 38,025 314 389 0
2022-05-18 19:57:32 GMT 44.282070 14.820825 38,025 314 389 0
2022-05-18 19:57:29 GMT 44.278564 14.825984 38,025 314 389 0
2022-05-18 19:57:25 GMT 44.273087 14.834089 38,025 314 389 0
2022-05-18 19:57:22 GMT 44.268723 14.840567 38,025 314 389 0
2022-05-18 19:57:17 GMT 44.264336 14.847085 38,025 314 389 0
2022-05-18 19:57:15 GMT 44.261078 14.851881 38,025 314 389 0
2022-05-18 19:57:12 GMT 44.256180 14.859205 38,025 314 389 -64
2022-05-18 19:57:09 GMT 44.253845 14.862671 38,025 314 390 -64
2022-05-18 19:57:04 GMT 44.246880 14.873077 38,050 314 391 -128
2022-05-18 19:57:02 GMT 44.240826 14.882053 38,050 314 391 -64
2022-05-18 19:56:59 GMT 44.240826 14.882053 38,050 314 392 -64
2022-05-18 19:56:52 GMT 44.231377 14.896121 38,050 313 394 0
2022-05-18 19:56:49 GMT 44.228348 14.900665 38,050 314 395 64
2022-05-18 19:56:44 GMT 44.223083 14.908447 38,025 313 397 64
2022-05-18 19:56:41 GMT 44.216152 14.918831 38,000 314 403 -192
2022-05-18 19:56:38 GMT 44.216152 14.918831 38,000 314 401 -64
2022-05-18 19:56:33 GMT 44.208939 14.929504 38,000 314 403 -192
2022-05-18 19:56:31 GMT 44.204796 14.935645 38,025 314 405 0
2022-05-18 19:56:28 GMT 44.202885 14.938459 38,050 314 405 0
2022-05-18 19:56:23 GMT 44.196323 14.948172 38,050 314 405 0
2022-05-18 19:56:21 GMT 44.193558 14.952265 38,050 314 405 0
2022-05-18 19:56:18 GMT 44.190125 14.957375 38,050 314 405 0
2022-05-18 19:56:14 GMT 44.183754 14.966714 38,025 314 405 0
2022-05-18 19:56:11 GMT 44.180634 14.971292 38,050 314 406 0
2022-05-18 19:56:08 GMT 44.176620 14.977240 38,050 314 406 0
2022-05-18 19:56:04 GMT 44.170990 14.985671 38,050 314 406 0
2022-05-18 19:56:01 GMT 44.167007 14.991547 38,050 314 406 0
2022-05-18 19:55:58 GMT 44.163803 14.996338 38,050 314 406 0
2022-05-18 19:55:52 GMT 44.156250 15.007580 38,050 314 406 0
2022-05-18 19:55:48 GMT 44.151215 15.015106 38,050 314 406 0
2022-05-18 19:55:43 GMT 44.144695 15.024785 38,050 314 406 0
2022-05-18 19:55:38 GMT 44.138180 15.034528 38,050 314 406 0
2022-05-18 19:55:34 GMT 44.133152 15.041983 38,050 314 406 64
2022-05-18 19:55:31 GMT 44.130432 15.046032 38,050 314 406 64
2022-05-18 19:55:28 GMT 44.125237 15.053755 38,025 314 406 64
2022-05-18 19:55:23 GMT 44.118813 15.063237 38,025 314 406 64
2022-05-18 19:55:21 GMT 44.117569 15.065066 38,025 314 406 64
2022-05-18 19:55:18 GMT 44.112621 15.072392 38,025 314 406 0
2022-05-18 19:55:15 GMT 44.109970 15.076244 38,025 314 406 64
2022-05-18 19:55:12 GMT 44.105347 15.083079 38,025 314 406 0
2022-05-18 19:55:10 GMT 44.102707 15.086975 38,025 314 406 0
2022-05-18 19:55:07 GMT 44.099354 15.091945 38,025 314 406 0
2022-05-18 19:55:03 GMT 44.087997 15.108756 38,025 314 406 0
2022-05-18 19:55:00 GMT 44.085995 15.111694 38,025 314 406 0
2022-05-18 19:54:57 GMT 44.085995 15.111694 38,025 314 406 0
2022-05-18 19:54:53 GMT 44.080490 15.119742 38,025 314 406 0
2022-05-18 19:54:50 GMT 44.077473 15.124185 38,025 314 406 0
2022-05-18 19:54:46 GMT 44.072525 15.131495 38,025 314 406 0
2022-05-18 19:54:42 GMT 44.065884 15.141253 38,025 314 406 0
2022-05-18 19:54:38 GMT 44.060394 15.149252 38,025 314 406 0
2022-05-18 19:54:34 GMT 44.056000 15.155704 38,025 314 406 0
2022-05-18 19:54:31 GMT 44.052658 15.160558 38,025 314 406 0
2022-05-18 19:54:27 GMT 44.046707 15.169245 38,025 314 406 -64
2022-05-18 19:54:22 GMT 44.037186 15.183233 38,025 314 406 0
2022-05-18 19:54:19 GMT 44.037186 15.183233 38,025 314 405 0
2022-05-18 19:54:15 GMT 44.032059 15.190770 38,025 314 405 0
2022-05-18 19:54:12 GMT 44.027851 15.196904 38,025 314 405 0
2022-05-18 19:54:09 GMT 44.023891 15.202789 38,025 314 404 0
2022-05-18 19:54:06 GMT 44.019333 15.209485 38,025 314 404 0
2022-05-18 19:53:58 GMT 44.009789 15.223585 38,025 314 404 0
2022-05-18 19:53:56 GMT 44.008018 15.226201 38,025 314 404 0
2022-05-18 19:53:50 GMT 43.999466 15.238676 38,025 314 403 64
2022-05-18 19:53:46 GMT 43.994377 15.246146 38,025 314 404 64
2022-05-18 19:53:42 GMT 43.988800 15.254261 38,025 314 403 0
2022-05-18 19:53:40 GMT 43.986790 15.257198 38,025 314 403 -64
2022-05-18 19:53:35 GMT 43.981018 15.265634 38,025 314 403 0
2022-05-18 19:53:30 GMT 43.974918 15.274397 38,025 314 403 0
2022-05-18 19:53:28 GMT 43.971405 15.279555 38,025 314 403 64
2022-05-18 19:53:25 GMT 43.966599 15.286454 38,025 314 403 0
2022-05-18 19:53:21 GMT 43.962753 15.292075 38,025 314 403 64
2022-05-18 19:53:16 GMT 43.955383 15.302678 38,025 314 403 0
2022-05-18 19:53:10 GMT 43.948757 15.312326 38,025 314 403 0
2022-05-18 19:53:08 GMT 43.944756 15.318080 38,025 314 403 0
2022-05-18 19:53:04 GMT 43.940826 15.323756 38,025 314 403 64
2022-05-18 19:53:00 GMT 43.927158 15.343715 38,025 314 403 128
2022-05-18 19:52:55 GMT 43.927158 15.343715 38,025 314 403 128
2022-05-18 19:52:50 GMT 43.922104 15.351094 38,000 314 403 64
2022-05-18 19:52:46 GMT 43.917343 15.358056 38,000 314 404 64
2022-05-18 19:52:43 GMT 43.914139 15.362719 38,000 314 404 64
2022-05-18 19:52:39 GMT 43.908024 15.371639 38,000 314 405 0
2022-05-18 19:52:36 GMT 43.904812 15.376413 38,000 314 405 0
2022-05-18 19:52:33 GMT 43.901413 15.381370 38,000 314 405 0
2022-05-18 19:52:31 GMT 43.897594 15.386941 38,000 314 405 -64
2022-05-18 19:52:27 GMT 43.892944 15.393826 38,000 314 404 0
2022-05-18 19:52:24 GMT 43.888321 15.400596 38,000 314 403 64
2022-05-18 19:52:20 GMT 43.883072 15.408129 38,000 314 403 64
2022-05-18 19:52:15 GMT 43.877106 15.416884 38,000 314 403 0
2022-05-18 19:52:12 GMT 43.874313 15.420972 38,000 314 403 64
2022-05-18 19:52:09 GMT 43.870876 15.425916 38,000 314 403 64
2022-05-18 19:52:04 GMT 43.863567 15.436576 37,975 314 403 64
2022-05-18 19:52:00 GMT 43.858887 15.443392 37,975 314 403 0
2022-05-18 19:51:57 GMT 43.854301 15.450047 37,975 314 403 0
2022-05-18 19:51:54 GMT 43.849960 15.456295 37,975 314 403 0
2022-05-18 19:51:52 GMT 43.847225 15.460249 37,975 314 404 0
2022-05-18 19:51:48 GMT 43.842865 15.466514 37,975 314 403 -64
2022-05-18 19:51:45 GMT 43.839661 15.471177 37,975 314 403 -64
2022-05-18 19:51:40 GMT 43.830517 15.484249 37,975 314 403 -64
2022-05-18 19:51:33 GMT 43.824696 15.492619 37,975 314 403 -64
2022-05-18 19:51:30 GMT 43.819668 15.499878 37,975 314 402 0
2022-05-18 19:51:24 GMT 43.812378 15.510332 37,975 314 402 0
2022-05-18 19:51:19 GMT 43.805515 15.520216 37,975 314 402 0
2022-05-18 19:51:16 GMT 43.800064 15.528089 37,975 314 402 0
2022-05-18 19:51:13 GMT 43.798141 15.530899 37,975 314 402 0
2022-05-18 19:51:10 GMT 43.793552 15.537480 37,975 314 402 0
2022-05-18 19:51:03 GMT 43.785358 15.549382 37,975 314 402 0
2022-05-18 19:50:59 GMT 43.779587 15.557687 37,975 314 402 -64
2022-05-18 19:50:53 GMT 43.771858 15.568869 38,000 314 402 -64
2022-05-18 19:50:49 GMT 43.766418 15.576697 38,000 314 402 -64
2022-05-18 19:50:44 GMT 43.760101 15.585831 38,000 314 402 -64
2022-05-18 19:50:39 GMT 43.754402 15.594046 38,000 314 402 -64
2022-05-18 19:50:35 GMT 43.748348 15.602809 38,025 314 403 -128
2022-05-18 19:50:28 GMT 43.738201 15.617458 38,025 314 403 -128
2022-05-18 19:50:25 GMT 43.734337 15.623082 38,025 314 403 -64
2022-05-18 19:50:18 GMT 43.726456 15.634503 38,050 314 403 -64
2022-05-18 19:50:14 GMT 43.721191 15.642168 38,025 314 403 -64
2022-05-18 19:50:09 GMT 43.715286 15.650727 38,050 314 403 -64
2022-05-18 19:50:02 GMT 43.707756 15.661599 38,050 314 404 -64
2022-05-18 19:49:58 GMT 43.701195 15.671147 38,050 314 404 -64
2022-05-18 19:49:52 GMT 43.694347 15.681022 38,050 314 404 0
2022-05-18 19:49:49 GMT 43.689148 15.688540 38,050 314 404 0
2022-05-18 19:49:43 GMT 43.682053 15.698824 38,050 314 405 0
2022-05-18 19:49:38 GMT 43.674519 15.709730 38,050 314 405 0
2022-05-18 19:49:32 GMT 43.668560 15.718297 38,050 314 405 0
2022-05-18 19:49:27 GMT 43.661388 15.728564 38,050 314 405 0
2022-05-18 19:49:22 GMT 43.655014 15.737719 38,050 314 406 0
2022-05-18 19:49:18 GMT 43.649094 15.746219 38,050 314 406 0
2022-05-18 19:49:11 GMT 43.639572 15.759888 38,050 315 407 64
2022-05-18 19:49:07 GMT 43.634529 15.767081 38,050 314 408 128
2022-05-18 19:49:03 GMT 43.629829 15.773751 38,025 314 408 128
2022-05-18 19:48:58 GMT 43.622681 15.783968 38,025 314 409 0
2022-05-18 19:48:56 GMT 43.620209 15.787545 38,025 314 409 -64
2022-05-18 19:48:53 GMT 43.616329 15.793043 38,025 314 409 0
2022-05-18 19:48:51 GMT 43.614883 15.795135 38,025 314 409 0
2022-05-18 19:48:47 GMT 43.608974 15.803571 38,025 314 410 -64
2022-05-18 19:48:41 GMT 43.601524 15.814296 38,050 314 410 -64
2022-05-18 19:48:37 GMT 43.596264 15.821882 38,050 314 410 -64
2022-05-18 19:48:32 GMT 43.589905 15.830979 38,050 314 410 -64
2022-05-18 19:48:26 GMT 43.582443 15.841710 38,075 314 409 -64
2022-05-18 19:48:22 GMT 43.576759 15.849936 38,075 314 409 0
2022-05-18 19:48:16 GMT 43.568848 15.861320 38,050 314 409 0
2022-05-18 19:48:11 GMT 43.561386 15.871987 38,050 314 409 0
2022-05-18 19:48:07 GMT 43.556740 15.878710 38,050 314 409 0
2022-05-18 19:48:01 GMT 43.548733 15.890154 38,050 314 409 0
2022-05-18 19:47:55 GMT 43.539597 15.903157 38,050 315 410 0
2022-05-18 19:47:51 GMT 43.535606 15.908857 38,050 315 410 0
2022-05-18 19:47:46 GMT 43.529415 15.917685 38,050 315 410 0
2022-05-18 19:47:42 GMT 43.523361 15.926317 38,050 314 410 0
2022-05-18 19:47:37 GMT 43.516937 15.935538 38,050 314 410 0
2022-05-18 19:47:32 GMT 43.509796 15.945761 38,050 314 410 0
2022-05-18 19:47:26 GMT 43.502426 15.956300 38,050 314 410 0
2022-05-18 19:47:21 GMT 43.496593 15.964704 38,050 314 410 -64
2022-05-18 19:47:14 GMT 43.486725 15.978764 38,050 314 409 -64
2022-05-18 19:47:10 GMT 43.482880 15.984277 38,075 315 410 0
2022-05-18 19:47:06 GMT 43.476765 15.993020 38,075 315 410 64
2022-05-18 19:47:00 GMT 43.468918 16.004143 38,050 315 410 128
2022-05-18 19:46:50 GMT 43.455505 16.023239 38,025 315 410 128
2022-05-18 19:46:45 GMT 43.442322 16.041956 38,025 315 411 64
2022-05-18 19:46:41 GMT 43.442322 16.041956 38,000 315 411 64
2022-05-18 19:46:33 GMT 43.434265 16.053389 38,000 315 411 0
2022-05-18 19:46:30 GMT 43.428864 16.061117 38,025 315 411 -64
2022-05-18 19:46:24 GMT 43.414433 16.081631 38,025 315 410 -64
2022-05-18 19:46:19 GMT 43.414433 16.081631 38,025 315 410 -64
2022-05-18 19:46:14 GMT 43.408752 16.089674 38,025 315 410 64
2022-05-18 19:46:10 GMT 43.401993 16.099251 38,025 315 409 128
2022-05-18 19:46:04 GMT 43.394989 16.109152 38,000 315 409 64
2022-05-18 19:46:00 GMT 43.389294 16.117205 38,000 315 409 64
2022-05-18 19:45:54 GMT 43.381165 16.128696 38,025 315 408 -64
2022-05-18 19:45:49 GMT 43.374985 16.137383 38,025 315 408 -64
2022-05-18 19:45:45 GMT 43.369370 16.145325 38,025 315 408 -64
2022-05-18 19:45:43 GMT 43.366699 16.149136 38,025 315 408 0
2022-05-18 19:45:35 GMT 43.357132 16.162678 38,025 315 408 0
2022-05-18 19:45:33 GMT 43.354523 16.166382 38,025 315 408 64
2022-05-18 19:45:28 GMT 43.348068 16.175451 38,025 315 407 64
2022-05-18 19:45:24 GMT 43.341484 16.184822 38,000 315 407 64
2022-05-18 19:45:18 GMT 43.334919 16.194109 38,000 315 407 0
2022-05-18 19:45:11 GMT 43.325657 16.207254 38,000 315 407 -64
2022-05-18 19:45:08 GMT 43.321930 16.212563 38,000 315 407 0
2022-05-18 19:45:02 GMT 43.314156 16.223602 38,000 315 407 0
2022-05-18 19:44:57 GMT 43.307281 16.233322 38,025 315 407 0
2022-05-18 19:44:50 GMT 43.298126 16.246288 38,000 315 406 64
2022-05-18 19:44:44 GMT 43.290298 16.257338 38,000 315 406 0
2022-05-18 19:44:42 GMT 43.287483 16.261335 38,000 315 405 64
2022-05-18 19:44:37 GMT 43.280090 16.271709 38,000 315 405 64
2022-05-18 19:44:32 GMT 43.273842 16.280497 38,000 315 406 64
2022-05-18 19:44:28 GMT 43.269279 16.286903 38,000 315 406 0
2022-05-18 19:44:20 GMT 43.258713 16.301731 38,000 315 406 0
2022-05-18 19:44:18 GMT 43.255417 16.306330 38,000 315 406 -64
2022-05-18 19:44:11 GMT 43.241211 16.326338 38,000 315 406 -64
2022-05-18 19:44:07 GMT 43.241211 16.326338 38,000 315 406 -64
2022-05-18 19:43:59 GMT 43.231842 16.339479 38,025 315 406 0
2022-05-18 19:43:57 GMT 43.228642 16.344061 38,000 315 405 64
2022-05-18 19:43:50 GMT 43.219795 16.356615 38,000 315 405 0
2022-05-18 19:43:47 GMT 43.215912 16.362028 38,000 315 405 0
2022-05-18 19:43:40 GMT 43.204971 16.377548 38,025 315 406 -64
2022-05-18 19:43:37 GMT 43.202087 16.381573 38,025 315 406 -64
2022-05-18 19:43:31 GMT 43.194054 16.392908 38,025 315 406 -64
2022-05-18 19:43:27 GMT 43.189213 16.399776 38,025 315 406 -64
2022-05-18 19:43:19 GMT 43.174850 16.419962 38,025 315 407 -64
2022-05-18 19:43:16 GMT 43.174850 16.419962 38,025 315 407 -64
2022-05-18 19:43:09 GMT 43.165695 16.432928 38,050 315 408 -64
2022-05-18 19:43:06 GMT 43.161621 16.438614 38,050 315 408 -64
2022-05-18 19:42:57 GMT 43.149456 16.455688 38,000 315 407 0
2022-05-18 19:42:49 GMT 43.139214 16.470076 38,025 315 408 64
2022-05-18 19:42:47 GMT 43.137352 16.472691 38,025 315 408 64
2022-05-18 19:42:38 GMT 43.124550 16.490479 38,025 315 408 0
2022-05-18 19:42:30 GMT 43.114216 16.504801 38,025 315 408 0
2022-05-18 19:42:20 GMT 43.100784 16.523438 38,025 315 408 64
2022-05-18 19:42:17 GMT 43.096664 16.529121 38,025 315 408 64
2022-05-18 19:42:10 GMT 43.086796 16.542860 38,000 315 408 64
2022-05-18 19:42:06 GMT 43.082245 16.549179 38,000 315 408 0
2022-05-18 19:41:58 GMT 43.072998 16.562080 38,000 315 408 -64
2022-05-18 19:41:47 GMT 43.052208 16.591057 38,025 315 407 0
2022-05-18 19:41:36 GMT 43.042786 16.604174 38,025 315 408 64
2022-05-18 19:41:29 GMT 43.033634 16.616886 38,025 315 408 64
2022-05-18 19:41:24 GMT 43.027676 16.625193 38,025 315 408 64
2022-05-18 19:41:20 GMT 43.020691 16.634935 38,025 315 408 64
2022-05-18 19:41:17 GMT 43.017334 16.639624 38,000 315 408 128
2022-05-18 19:41:14 GMT 43.014084 16.644156 38,000 315 409 128
2022-05-18 19:41:08 GMT 43.006256 16.655210 38,000 315 410 64
2022-05-18 19:41:03 GMT 42.999664 16.664471 37,975 315 410 0
2022-05-18 19:40:57 GMT 42.992203 16.674957 37,975 315 410 -64
2022-05-18 19:40:53 GMT 42.986435 16.682995 38,000 315 410 -64
2022-05-18 19:40:47 GMT 42.977966 16.694811 38,000 315 409 -64
2022-05-18 19:40:44 GMT 42.973164 16.701508 38,025 315 408 -64
2022-05-18 19:40:37 GMT 42.965424 16.712185 38,025 315 408 0
2022-05-18 19:40:33 GMT 42.959148 16.720930 38,025 315 408 64
2022-05-18 19:40:27 GMT 42.951096 16.732046 38,000 315 408 0
2022-05-18 19:40:23 GMT 42.945877 16.739332 38,000 315 408 0
2022-05-18 19:40:17 GMT 42.937969 16.750227 38,000 315 409 -64
2022-05-18 19:40:13 GMT 42.933220 16.756832 38,025 315 409 -64
2022-05-18 19:40:06 GMT 42.925049 16.768139 38,025 315 409 -64
2022-05-18 19:40:03 GMT 42.920013 16.775101 38,025 315 409 -64
2022-05-18 19:39:56 GMT 42.911133 16.787365 38,025 315 409 0
2022-05-18 19:39:52 GMT 42.905823 16.794710 38,025 315 409 0
2022-05-18 19:39:47 GMT 42.898212 16.805223 38,025 315 409 64
2022-05-18 19:39:44 GMT 42.892765 16.812744 38,025 315 409 0
2022-05-18 19:39:34 GMT 42.881790 16.827925 38,025 315 410 0
2022-05-18 19:39:32 GMT 42.878357 16.832714 38,025 315 410 0
2022-05-18 19:39:25 GMT 42.868839 16.845835 38,025 315 410 0
2022-05-18 19:39:22 GMT 42.865997 16.849770 38,025 315 410 -64
2022-05-18 19:39:17 GMT 42.858456 16.860222 38,025 315 410 0
2022-05-18 19:39:12 GMT 42.851799 16.869375 38,025 315 410 -64
2022-05-18 19:39:06 GMT 42.843338 16.881132 38,025 315 410 0
2022-05-18 19:39:03 GMT 42.838627 16.887621 38,025 315 410 0
2022-05-18 19:38:51 GMT 42.824066 16.907831 38,025 315 410 0
2022-05-18 19:38:46 GMT 42.817352 16.917114 38,050 315 411 -64
2022-05-18 19:38:41 GMT 42.811569 16.925140 38,050 315 411 -64
2022-05-18 19:38:35 GMT 42.803467 16.936424 38,050 315 411 0
2022-05-18 19:38:30 GMT 42.796280 16.946411 38,050 315 411 0
2022-05-18 19:38:26 GMT 42.790771 16.954077 38,050 315 412 -64
2022-05-18 19:38:15 GMT 42.776688 16.973501 38,050 315 412 -64
2022-05-18 19:38:09 GMT 42.769318 16.983677 38,050 315 412 -64
2022-05-18 19:38:04 GMT 42.761627 16.994164 38,050 315 412 -64
2022-05-18 19:38:00 GMT 42.755630 17.002466 38,050 315 412 -64
2022-05-18 19:37:48 GMT 42.740124 17.023699 38,075 315 412 0
2022-05-18 19:37:38 GMT 42.727020 17.041668 38,075 315 412 64
2022-05-18 19:37:16 GMT 42.697311 17.082241 38,050 315 414 64
2022-05-18 19:37:12 GMT 42.690777 17.091213 38,050 315 414 -64
2022-05-18 19:37:00 GMT 42.675476 17.112143 38,050 315 414 0
2022-05-18 19:36:52 GMT 42.664673 17.126875 38,050 315 414 0
2022-05-18 19:36:22 GMT 42.624985 17.181057 38,000 315 412 64
2022-05-18 19:36:14 GMT 42.611938 17.198847 38,000 315 412 64
2022-05-18 19:36:07 GMT 42.604050 17.209509 38,000 315 412 0
2022-05-18 19:36:03 GMT 42.598892 17.216576 38,000 315 412 -64
2022-05-18 19:35:51 GMT 42.582230 17.239235 38,025 315 411 -64
2022-05-18 19:35:42 GMT 42.570419 17.255215 38,000 316 410 128
2022-05-18 19:35:31 GMT 42.555634 17.275188 38,000 315 411 64
2022-05-18 19:35:23 GMT 42.543686 17.291418 37,975 315 411 -64
2022-05-18 19:35:12 GMT 42.530266 17.309790 38,000 315 410 -64
2022-05-18 19:35:01 GMT 42.516251 17.328890 38,000 315 409 64
2022-05-18 19:34:51 GMT 42.502518 17.347605 37,975 315 409 0
2022-05-18 19:34:22 GMT 42.464218 17.399721 38,025 315 408 0
2022-05-18 19:34:19 GMT 42.460018 17.405411 38,025 315 408 0
2022-05-18 19:34:11 GMT 42.448563 17.420820 38,025 315 408 64
2022-05-18 19:34:01 GMT 42.434830 17.439360 38,000 316 409 0
2022-05-18 19:33:53 GMT 42.425034 17.452532 38,000 316 409 0
2022-05-18 19:33:50 GMT 42.420319 17.458836 38,000 316 410 0
2022-05-18 19:33:44 GMT 42.411987 17.470011 38,025 316 410 0
2022-05-18 19:33:39 GMT 42.405945 17.478125 38,025 316 410 0
2022-05-18 19:33:29 GMT 42.392937 17.495537 38,025 316 410 0
2022-05-18 19:33:19 GMT 42.378967 17.514315 38,000 315 410 0
2022-05-18 19:33:08 GMT 42.363979 17.534628 38,025 315 411 -64
2022-05-18 19:32:58 GMT 42.351505 17.551554 38,025 315 410 0
2022-05-18 19:32:48 GMT 42.337555 17.570572 38,025 315 411 128
2022-05-18 19:32:37 GMT 42.323479 17.589878 38,000 315 412 -64
2022-05-18 19:32:28 GMT 42.309311 17.609150 38,025 315 413 -64
2022-05-18 19:32:17 GMT 42.295898 17.627127 38,025 316 414 -64
2022-05-18 19:32:06 GMT 42.280743 17.647364 38,025 316 414 0
2022-05-18 19:31:57 GMT 42.268360 17.663908 38,025 316 414 -64
2022-05-18 19:31:47 GMT 42.254425 17.682558 38,050 316 415 -64
2022-05-18 19:31:36 GMT 42.240372 17.701284 38,050 316 415 -64
2022-05-18 19:31:25 GMT 42.225494 17.721134 38,075 316 415 -64
2022-05-18 19:31:15 GMT 42.211853 17.739363 38,075 316 416 0
2022-05-18 19:31:05 GMT 42.196857 17.759399 38,075 316 417 64
2022-05-18 19:30:54 GMT 42.183216 17.777796 38,050 315 419 0
2022-05-18 19:30:45 GMT 42.170181 17.795298 38,075 315 420 -64
2022-05-18 19:30:37 GMT 42.159428 17.809668 38,075 316 420 64
2022-05-18 19:30:34 GMT 42.155983 17.814266 38,075 316 420 64
2022-05-18 19:30:25 GMT 42.141647 17.833366 38,050 316 420 64
2022-05-18 19:30:16 GMT 42.130325 17.848351 38,050 316 421 0
2022-05-18 19:30:13 GMT 42.126892 17.852970 38,050 316 421 0
2022-05-18 19:30:06 GMT 42.116879 17.866323 38,050 316 421 0
2022-05-18 19:30:03 GMT 42.113297 17.871115 38,050 316 421 0
2022-05-18 19:29:56 GMT 42.102997 17.884806 38,050 316 420 64
2022-05-18 19:29:51 GMT 42.095856 17.894356 38,025 316 419 64
2022-05-18 19:29:44 GMT 42.084686 17.909151 38,025 316 419 64
2022-05-18 19:29:33 GMT 42.070934 17.927387 38,025 316 419 64
2022-05-18 19:29:25 GMT 42.056225 17.946997 38,025 316 420 64
2022-05-18 19:29:22 GMT 42.056225 17.946997 38,025 316 420 64
2022-05-18 19:29:13 GMT 42.042442 17.965328 38,000 316 419 64
2022-05-18 19:29:02 GMT 42.028015 17.984369 38,000 316 419 0
2022-05-18 19:28:52 GMT 42.014648 18.002096 38,000 316 419 0
2022-05-18 19:28:42 GMT 42.000408 18.020964 38,000 316 418 0
2022-05-18 19:28:32 GMT 41.986038 18.039988 38,000 316 417 0
2022-05-18 19:28:21 GMT 41.972168 18.058340 38,000 316 416 0
2022-05-18 19:28:12 GMT 41.956322 18.079218 38,000 316 415 0
2022-05-18 19:28:03 GMT 41.946945 18.091549 38,000 316 415 0
2022-05-18 19:28:00 GMT 41.943558 18.096106 38,000 316 414 64
2022-05-18 19:27:51 GMT 41.929504 18.114645 38,000 316 414 64
2022-05-18 19:27:41 GMT 41.916687 18.131624 37,975 316 414 64
2022-05-18 19:27:31 GMT 41.903996 18.148520 37,975 316 414 0
2022-05-18 19:27:23 GMT 41.893570 18.162273 37,975 316 414 -64
2022-05-18 19:27:20 GMT 41.887985 18.169640 37,975 316 413 0
2022-05-18 19:27:10 GMT 41.875740 18.185694 37,975 316 412 -64
2022-05-18 19:27:06 GMT 41.870087 18.193110 37,975 316 412 0
2022-05-18 19:27:01 GMT 41.862797 18.202684 38,000 316 412 -64
2022-05-18 19:26:57 GMT 41.858093 18.208839 38,000 316 412 -64
2022-05-18 19:26:51 GMT 41.849121 18.220699 38,000 316 412 0
2022-05-18 19:26:48 GMT 41.845249 18.225807 38,000 316 412 -64
2022-05-18 19:26:38 GMT 41.831001 18.244715 38,000 316 413 -64
2022-05-18 19:26:28 GMT 41.818085 18.261837 38,000 316 412 -64
2022-05-18 19:26:20 GMT 41.806747 18.276842 38,025 316 412 -64
2022-05-18 19:26:17 GMT 41.802704 18.282124 38,025 316 412 -64
2022-05-18 19:26:10 GMT 41.792599 18.295494 38,025 316 412 -64
2022-05-18 19:26:07 GMT 41.789429 18.299665 38,025 316 412 -64
2022-05-18 19:25:58 GMT 41.775513 18.317953 38,050 316 413 -64
2022-05-18 19:25:49 GMT 41.765030 18.331751 38,050 316 413 -64
2022-05-18 19:25:46 GMT 41.760681 18.337494 38,050 316 413 -64
2022-05-18 19:25:37 GMT 41.748280 18.353683 38,050 316 415 64
2022-05-18 19:25:27 GMT 41.735641 18.370327 38,050 316 415 0
2022-05-18 19:25:23 GMT 41.729736 18.378004 38,050 316 415 0
2022-05-18 19:25:19 GMT 41.722771 18.387089 38,050 316 415 0
2022-05-18 19:25:16 GMT 41.720020 18.390665 38,050 316 416 0
2022-05-18 19:25:06 GMT 41.705933 18.409092 38,050 316 416 0
2022-05-18 19:24:58 GMT 41.694901 18.423510 38,050 316 417 64
2022-05-18 19:24:55 GMT 41.691422 18.428005 38,050 316 417 64
2022-05-18 19:24:46 GMT 41.677048 18.446669 38,025 316 417 64
2022-05-18 19:24:38 GMT 41.666489 18.460417 38,025 316 418 0
2022-05-18 19:24:35 GMT 41.663555 18.464186 38,025 316 418 -64
2022-05-18 19:24:25 GMT 41.649261 18.482874 38,050 316 417 -64
2022-05-18 19:24:17 GMT 41.637772 18.497793 38,050 316 417 0
2022-05-18 19:24:14 GMT 41.634785 18.501678 38,050 316 418 64
2022-05-18 19:24:04 GMT 41.619423 18.521608 38,025 316 419 0
2022-05-18 19:23:56 GMT 41.609894 18.533998 38,025 316 420 -64
2022-05-18 19:23:53 GMT 41.605503 18.539684 38,025 316 420 -64
2022-05-18 19:23:47 GMT 41.595337 18.553038 38,050 316 420 0
2022-05-18 19:23:43 GMT 41.591820 18.557632 38,050 316 420 64
2022-05-18 19:23:36 GMT 41.581375 18.571327 38,050 316 419 0
2022-05-18 19:23:33 GMT 41.577572 18.576347 38,050 316 419 64
2022-05-18 19:23:24 GMT 41.563004 18.595318 38,025 316 420 64
2022-05-18 19:23:13 GMT 41.549549 18.612885 38,025 316 420 -64
2022-05-18 19:23:03 GMT 41.535255 18.631472 38,025 316 420 -64
2022-05-18 19:22:55 GMT 41.524933 18.644922 38,025 316 420 -64
2022-05-18 19:22:52 GMT 41.520824 18.650249 38,025 316 420 -64
2022-05-18 19:22:44 GMT 41.509701 18.664621 38,025 316 419 0
2022-05-18 19:22:36 GMT 41.497787 18.680004 38,025 316 419 64
2022-05-18 19:22:32 GMT 41.492474 18.686914 38,025 316 419 64
2022-05-18 19:22:24 GMT 41.479256 18.703968 38,025 316 419 0
2022-05-18 19:22:21 GMT 41.477097 18.706783 38,025 316 419 0
2022-05-18 19:22:12 GMT 41.463913 18.723824 38,025 316 419 -64
2022-05-18 19:22:03 GMT 41.448994 18.743187 38,050 316 419 -64
2022-05-18 19:21:52 GMT 41.433151 18.763775 38,050 316 418 0
2022-05-18 19:21:42 GMT 41.423439 18.776402 38,050 316 418 128
2022-05-18 19:21:39 GMT 41.419189 18.781878 38,025 316 417 64
2022-05-18 19:21:31 GMT 41.406864 18.797670 38,025 316 418 64
2022-05-18 19:21:21 GMT 41.394066 18.814152 38,025 316 418 -64
2022-05-18 19:21:16 GMT 41.387779 18.822199 38,025 316 418 -64
2022-05-18 19:21:12 GMT 41.380703 18.831314 38,025 316 418 -64
2022-05-18 19:21:09 GMT 41.377911 18.834873 38,025 316 418 -64
2022-05-18 19:21:00 GMT 41.364132 18.852539 38,025 317 417 0
2022-05-18 19:20:49 GMT 41.349838 18.870829 38,025 316 417 64
2022-05-18 19:20:39 GMT 41.335327 18.889465 38,025 316 417 0
2022-05-18 19:20:29 GMT 41.321503 18.907288 38,025 316 417 0
2022-05-18 19:20:19 GMT 41.306732 18.926260 38,025 316 417 0
2022-05-18 19:20:10 GMT 41.295372 18.940866 38,025 316 417 0
2022-05-18 19:20:07 GMT 41.291702 18.945557 38,025 316 417 0
2022-05-18 19:19:58 GMT 41.278614 18.962339 38,025 316 417 0
2022-05-18 19:19:47 GMT 41.264008 18.981018 38,025 317 416 0
2022-05-18 19:19:40 GMT 41.252243 18.996094 38,025 317 416 -64
2022-05-18 19:19:37 GMT 41.250183 18.998779 38,025 316 415 -64
2022-05-18 19:19:27 GMT 41.235695 19.017208 38,025 316 415 0
2022-05-18 19:19:19 GMT 41.225220 19.030630 38,025 316 415 0
2022-05-18 19:19:16 GMT 41.221497 19.035437 38,025 316 415 0
2022-05-18 19:19:11 GMT 41.214249 19.044678 38,025 316 415 0
2022-05-18 19:19:07 GMT 41.207748 19.052979 38,025 316 415 0
2022-05-18 19:19:01 GMT 41.200150 19.062744 38,025 316 415 0
2022-05-18 19:18:56 GMT 41.193562 19.071079 38,025 316 415 0
2022-05-18 19:18:50 GMT 41.185089 19.081970 38,025 316 415 0
2022-05-18 19:18:46 GMT 41.179363 19.089308 38,025 316 415 64
2022-05-18 19:18:39 GMT 41.170521 19.100605 38,025 316 415 0
2022-05-18 19:18:35 GMT 41.165028 19.107721 38,025 316 415 0
2022-05-18 19:18:30 GMT 41.157158 19.117771 38,025 317 415 0
2022-05-18 19:18:26 GMT 41.150574 19.126160 38,025 317 415 0
2022-05-18 19:18:19 GMT 41.142776 19.136124 38,025 317 415 0
2022-05-18 19:18:15 GMT 41.136814 19.143677 38,025 317 415 0
2022-05-18 19:18:08 GMT 41.127178 19.156036 38,025 317 415 0
2022-05-18 19:18:05 GMT 41.122200 19.162340 38,025 316 415 0
2022-05-18 19:17:58 GMT 41.113495 19.173452 38,025 316 414 64
2022-05-18 19:17:54 GMT 41.108459 19.179871 38,025 316 414 64
2022-05-18 19:17:47 GMT 41.097702 19.193604 38,000 317 414 64
2022-05-18 19:17:44 GMT 41.094269 19.197998 38,000 317 414 64
2022-05-18 19:17:36 GMT 41.079300 19.216980 38,000 317 415 0
2022-05-18 19:17:33 GMT 41.079300 19.216980 38,000 317 415 0
2022-05-18 19:17:30 GMT 41.074947 19.222515 38,000 317 415 0
2022-05-18 19:17:27 GMT 41.070805 19.227760 38,000 317 415 0
2022-05-18 19:17:23 GMT 41.064426 19.235811 38,000 317 414 0
2022-05-18 19:17:17 GMT 41.056320 19.246033 38,000 317 414 0
2022-05-18 19:17:14 GMT 41.051533 19.252104 38,000 317 414 0
2022-05-18 19:17:06 GMT 41.041801 19.264277 38,000 317 413 -64
2022-05-18 19:17:03 GMT 41.036823 19.270580 38,000 317 413 0
2022-05-18 19:16:56 GMT 41.027557 19.282316 38,000 317 413 -64
2022-05-18 19:16:53 GMT 41.022717 19.288433 38,000 317 413 -64
2022-05-18 19:16:44 GMT 41.011093 19.303223 38,000 317 413 0
2022-05-18 19:16:41 GMT 41.006889 19.308535 38,000 317 413 0
2022-05-18 19:16:34 GMT 40.997040 19.321045 38,000 317 413 0
2022-05-18 19:16:31 GMT 40.993149 19.325928 38,000 316 413 0
2022-05-18 19:16:24 GMT 40.983948 19.337708 38,000 316 413 0
2022-05-18 19:16:21 GMT 40.979141 19.343811 38,000 316 413 -64
2022-05-18 19:16:14 GMT 40.969803 19.355713 38,025 317 413 0
2022-05-18 19:16:11 GMT 40.954193 19.375427 38,025 317 413 0
2022-05-18 19:16:03 GMT 40.954193 19.375427 38,025 317 413 0
2022-05-18 19:16:00 GMT 40.950714 19.379761 38,025 317 413 0
2022-05-18 19:15:54 GMT 40.941422 19.391357 38,025 317 413 0
2022-05-18 19:15:50 GMT 40.936111 19.397949 38,025 317 413 0
2022-05-18 19:15:43 GMT 40.922211 19.415464 38,025 317 414 0
2022-05-18 19:15:40 GMT 40.922211 19.415464 38,025 317 413 0
2022-05-18 19:15:32 GMT 40.911549 19.428947 38,025 317 414 -64
2022-05-18 19:15:29 GMT 40.907730 19.433716 38,025 317 415 -64
2022-05-18 19:15:22 GMT 40.898163 19.445801 38,025 317 415 0
2022-05-18 19:15:19 GMT 40.893951 19.451168 38,025 317 415 0
2022-05-18 19:15:12 GMT 40.883652 19.464172 38,025 317 415 0
2022-05-18 19:15:09 GMT 40.879662 19.469147 38,025 317 415 0
2022-05-18 19:15:02 GMT 40.866070 19.486250 38,025 317 415 0
2022-05-18 19:14:59 GMT 40.866070 19.486250 38,025 317 415 0
2022-05-18 19:14:54 GMT 40.857735 19.496799 38,025 317 415 0
2022-05-18 19:14:49 GMT 40.851498 19.504665 38,025 317 415 0
2022-05-18 19:14:43 GMT 40.843231 19.515076 38,025 317 415 0
2022-05-18 19:14:39 GMT 40.837830 19.521912 38,025 317 416 0
2022-05-18 19:14:33 GMT 40.829178 19.532837 38,025 317 416 -64
2022-05-18 19:14:29 GMT 40.823502 19.539978 38,025 317 416 -64
2022-05-18 19:14:22 GMT 40.813889 19.552124 38,025 317 416 0
2022-05-18 19:14:18 GMT 40.808304 19.559143 38,025 317 416 0
2022-05-18 19:14:12 GMT 40.798553 19.571411 38,025 317 416 64
2022-05-18 19:14:08 GMT 40.795212 19.575623 38,025 317 417 64
2022-05-18 19:14:02 GMT 40.786697 19.586304 38,025 317 417 64
2022-05-18 19:13:59 GMT 40.781342 19.593056 38,000 317 418 0
2022-05-18 19:13:51 GMT 40.771523 19.605289 38,025 317 418 -64
2022-05-18 19:13:48 GMT 40.766495 19.611593 38,025 317 418 -64
2022-05-18 19:13:42 GMT 40.757648 19.622705 38,025 317 418 0
2022-05-18 19:13:37 GMT 40.751862 19.629944 38,025 317 418 0
2022-05-18 19:13:29 GMT 40.740280 19.644531 38,025 317 418 64
2022-05-18 19:13:26 GMT 40.736755 19.648926 38,025 317 418 64
2022-05-18 19:13:22 GMT 40.729019 19.658724 38,025 317 418 -64
2022-05-18 19:13:17 GMT 40.723663 19.665466 38,000 317 418 -64
2022-05-18 19:13:10 GMT 40.713730 19.678040 38,025 317 419 -64
2022-05-18 19:13:06 GMT 40.708832 19.684204 38,025 317 419 -64
2022-05-18 19:13:00 GMT 40.699860 19.695435 38,025 317 419 -64
2022-05-18 19:12:57 GMT 40.694988 19.701546 38,025 317 419 -64
2022-05-18 19:12:50 GMT 40.685726 19.713156 38,050 317 419 -64
2022-05-18 19:12:46 GMT 40.680138 19.720146 38,050 317 418 -64
2022-05-18 19:12:39 GMT 40.668640 19.734566 38,050 317 419 0
2022-05-18 19:12:36 GMT 40.665798 19.738062 38,050 317 419 0
2022-05-18 19:12:29 GMT 40.656815 19.749235 38,050 317 418 0
2022-05-18 19:12:25 GMT 40.651184 19.756227 38,050 317 419 64
2022-05-18 19:12:19 GMT 40.642479 19.767088 38,050 317 419 0
2022-05-18 19:12:15 GMT 40.636799 19.774080 38,050 317 420 -64
2022-05-18 19:12:09 GMT 40.628468 19.784443 38,050 317 420 -64
2022-05-18 19:12:05 GMT 40.621902 19.792603 38,050 317 420 -64
2022-05-18 19:11:54 GMT 40.607208 19.810791 38,050 317 420 0
2022-05-18 19:11:44 GMT 40.592697 19.828857 38,050 317 420 64
2022-05-18 19:11:34 GMT 40.578140 19.846863 38,050 317 420 128
2022-05-18 19:11:26 GMT 40.563061 19.865591 38,025 317 421 0
2022-05-18 19:11:23 GMT 40.563061 19.865591 38,025 317 421 0
2022-05-18 19:11:18 GMT 40.555481 19.874939 38,025 317 420 -64
2022-05-18 19:11:13 GMT 40.548248 19.883911 38,050 317 420 0
2022-05-18 19:11:09 GMT 40.541412 19.892431 38,025 317 420 128
2022-05-18 19:11:05 GMT 40.537079 19.897766 38,025 317 421 64
2022-05-18 19:11:02 GMT 40.532803 19.903107 38,025 317 421 64
2022-05-18 19:10:58 GMT 40.527054 19.910217 38,025 317 421 0
2022-05-18 19:10:54 GMT 40.521629 19.916964 38,025 317 421 -64
2022-05-18 19:10:51 GMT 40.518230 19.921209 38,025 317 421 -64
2022-05-18 19:10:45 GMT 40.504578 19.938110 38,025 317 420 -64
2022-05-18 19:10:42 GMT 40.504578 19.938110 38,050 317 420 -64
2022-05-18 19:10:33 GMT 40.492264 19.953308 38,050 317 420 0
2022-05-18 19:10:30 GMT 40.488808 19.957602 38,050 317 420 0
2022-05-18 19:10:24 GMT 40.479218 19.969461 38,025 317 420 0
2022-05-18 19:10:21 GMT 40.474842 19.974892 38,025 317 419 0
2022-05-18 19:10:13 GMT 40.463345 19.989248 38,025 317 419 64
2022-05-18 19:10:10 GMT 40.460365 19.992931 38,025 317 419 0
2022-05-18 19:10:03 GMT 40.450195 20.005554 38,025 317 419 64
2022-05-18 19:10:00 GMT 40.445747 20.011097 38,025 317 419 64
2022-05-18 19:09:52 GMT 40.434036 20.025635 38,025 317 418 0
2022-05-18 19:09:49 GMT 40.430431 20.030136 38,025 317 418 0
2022-05-18 19:09:42 GMT 40.420670 20.042236 38,025 317 418 0
2022-05-18 19:09:39 GMT 40.416653 20.047176 38,025 317 418 0
2022-05-18 19:09:33 GMT 40.407440 20.058533 38,025 317 418 0
2022-05-18 19:09:29 GMT 40.402267 20.064941 38,025 317 418 0
2022-05-18 19:09:22 GMT 40.392746 20.076721 38,025 317 416 64
2022-05-18 19:09:19 GMT 40.387604 20.083071 38,025 317 416 128
2022-05-18 19:09:10 GMT 40.375351 20.098145 38,000 317 415 64
2022-05-18 19:09:07 GMT 40.371460 20.102966 38,000 317 415 0
2022-05-18 19:09:01 GMT 40.363537 20.112720 38,025 317 416 -128
2022-05-18 19:08:57 GMT 40.357903 20.119650 38,025 317 415 -128
2022-05-18 19:08:51 GMT 40.348129 20.131697 38,050 317 414 0
2022-05-18 19:08:47 GMT 40.343193 20.137690 38,050 317 414 0
2022-05-18 19:08:40 GMT 40.333557 20.149549 38,025 317 415 64
2022-05-18 19:08:37 GMT 40.329163 20.154968 38,025 317 415 0
2022-05-18 19:08:30 GMT 40.319450 20.166842 38,025 317 415 0
2022-05-18 19:08:26 GMT 40.314377 20.173082 38,025 317 415 -64
2022-05-18 19:08:19 GMT 40.304462 20.185255 38,025 317 415 0
2022-05-18 19:08:16 GMT 40.299911 20.190857 38,025 317 415 0
2022-05-18 19:08:10 GMT 40.290588 20.202358 38,025 317 416 0
2022-05-18 19:08:06 GMT 40.285656 20.208351 38,025 317 415 0
2022-05-18 19:07:59 GMT 40.275555 20.220774 38,025 317 417 -64
2022-05-18 19:07:55 GMT 40.270760 20.226643 38,025 317 417 -64
2022-05-18 19:07:48 GMT 40.260727 20.238953 38,025 317 416 0
2022-05-18 19:07:45 GMT 40.256142 20.244556 38,025 317 416 0
2022-05-18 19:07:38 GMT 40.246811 20.255981 38,025 317 415 64
2022-05-18 19:07:34 GMT 40.241245 20.262783 38,025 317 414 64
2022-05-18 19:07:29 GMT 40.232445 20.273521 38,000 318 413 0
2022-05-18 19:07:24 GMT 40.226761 20.280396 38,000 317 413 0
2022-05-18 19:07:18 GMT 40.218658 20.290283 38,000 317 411 0
2022-05-18 19:07:13 GMT 40.212055 20.298302 38,025 317 411 0
2022-05-18 19:07:08 GMT 40.204189 20.307915 38,025 317 408 0
2022-05-18 19:07:03 GMT 40.197857 20.315718 38,025 317 407 0
2022-05-18 19:06:58 GMT 40.190369 20.324890 38,025 317 405 0
2022-05-18 19:06:53 GMT 40.184280 20.332397 38,025 317 403 0
2022-05-18 19:06:47 GMT 40.176132 20.342407 38,025 317 401 -64
2022-05-18 19:06:42 GMT 40.169357 20.350708 38,025 318 399 -64
2022-05-18 19:06:36 GMT 40.160568 20.360786 38,050 320 398 0
2022-05-18 19:06:32 GMT 40.155441 20.366150 38,025 323 397 64
2022-05-18 19:06:26 GMT 40.146278 20.375082 38,025 324 397 0
2022-05-18 19:06:21 GMT 40.139832 20.381226 38,025 324 398 0
2022-05-18 19:06:17 GMT 40.132095 20.388550 38,025 324 398 0
2022-05-18 19:06:11 GMT 40.124634 20.395630 38,025 324 398 0
2022-05-18 19:06:06 GMT 40.116028 20.403870 38,025 324 399 0
2022-05-18 19:06:01 GMT 40.109161 20.410400 38,025 324 399 0
2022-05-18 19:05:55 GMT 40.100693 20.418518 38,025 324 399 0
2022-05-18 19:05:51 GMT 40.093826 20.425049 38,025 324 399 64
2022-05-18 19:05:45 GMT 40.086040 20.432510 38,025 324 399 64
2022-05-18 19:05:40 GMT 40.077518 20.440624 38,025 324 399 -64
2022-05-18 19:05:36 GMT 40.071030 20.446777 38,025 324 399 -64
2022-05-18 19:05:30 GMT 40.062763 20.454670 38,025 324 399 -64
2022-05-18 19:05:24 GMT 40.054779 20.462219 38,025 324 399 0
2022-05-18 19:05:19 GMT 40.046608 20.469900 38,025 324 399 0
2022-05-18 19:05:14 GMT 40.039078 20.477051 38,025 324 398 0
2022-05-18 19:05:09 GMT 40.031246 20.484446 38,025 324 398 0
2022-05-18 19:05:04 GMT 40.024933 20.490417 38,025 324 397 0
2022-05-18 19:04:58 GMT 40.015457 20.499390 38,025 324 396 0
2022-05-18 19:04:55 GMT 40.009689 20.504883 38,025 324 396 64
2022-05-18 19:04:47 GMT 39.999344 20.514709 38,025 324 395 64
2022-05-18 19:04:44 GMT 39.994308 20.519470 38,000 324 395 0
2022-05-18 19:04:40 GMT 39.988327 20.525208 38,000 324 396 64
2022-05-18 19:04:35 GMT 39.980968 20.532261 37,975 324 397 320
2022-05-18 19:04:31 GMT 39.973663 20.539307 37,950 324 398 512
2022-05-18 19:04:27 GMT 39.970078 20.542810 37,950 324 397 640
2022-05-18 19:04:23 GMT 39.964096 20.548584 37,900 325 398 704
2022-05-18 19:04:17 GMT 39.954155 20.557480 37,825 328 397 512
2022-05-18 19:04:14 GMT 39.950108 20.560850 37,800 329 397 512
2022-05-18 19:04:09 GMT 39.942238 20.566969 37,775 330 397 448
2022-05-18 19:04:06 GMT 39.938282 20.569963 37,750 330 396 448
2022-05-18 19:04:02 GMT 39.931767 20.574833 37,725 330 395 512
2022-05-18 19:03:59 GMT 39.926552 20.578766 37,700 330 395 640
2022-05-18 19:03:56 GMT 39.921570 20.582527 37,650 330 395 640
2022-05-18 19:03:52 GMT 39.916122 20.586670 37,500 330 395 704
2022-05-18 19:03:49 GMT 39.910583 20.590820 37,575 330 395 704
2022-05-18 19:03:46 GMT 39.906300 20.594055 37,525 330 395 640
2022-05-18 19:03:43 GMT 39.899178 20.599365 37,500 331 394 640
2022-05-18 19:03:39 GMT 39.894516 20.602888 37,475 331 394 640
2022-05-18 19:03:35 GMT 39.888199 20.607605 37,400 330 393 704
2022-05-18 19:03:32 GMT 39.883301 20.611246 37,375 331 393 960
2022-05-18 19:03:28 GMT 39.877304 20.615725 37,325 331 393 1024
2022-05-18 19:03:24 GMT 39.870987 20.620441 37,250 331 393 1024
2022-05-18 19:03:21 GMT 39.866032 20.624146 37,200 331 394 1088
2022-05-18 19:03:17 GMT 39.860027 20.628662 37,150 331 394 1088
2022-05-18 19:03:13 GMT 39.853134 20.633757 37,075 331 394 832
2022-05-18 19:03:02 GMT 39.836006 20.646545 36,900 331 392 896
2022-05-18 19:02:59 GMT 39.829285 20.651550 36,900 331 392 896
2022-05-18 19:02:53 GMT 39.822052 20.656923 36,825 331 392 896
2022-05-18 19:02:50 GMT 39.817711 20.660156 36,775 331 392 1088
2022-05-18 19:02:43 GMT 39.806763 20.668268 36,650 331 393 1344
2022-05-18 19:02:40 GMT 39.802048 20.671791 36,575 331 393 1472
2022-05-18 19:02:34 GMT 39.792622 20.678772 36,450 331 394 1408
2022-05-18 19:02:30 GMT 39.786148 20.683594 36,350 331 394 1344
2022-05-18 19:02:27 GMT 39.779892 20.688271 36,275 331 396 -64
2022-05-18 19:02:24 GMT 39.775860 20.691284 36,200 331 395 1344
2022-05-18 19:02:21 GMT 39.769669 20.695862 36,150 331 396 1088
2022-05-18 19:02:12 GMT 39.757660 20.704895 36,050 331 394 192
2022-05-18 19:02:09 GMT 39.752724 20.708557 36,025 331 394 128
2022-05-18 19:02:03 GMT 39.742435 20.716187 36,025 331 395 0
2022-05-18 19:02:00 GMT 39.737595 20.719797 36,000 331 395 0
2022-05-18 19:01:53 GMT 39.726654 20.727978 36,025 331 395 -64
2022-05-18 19:01:49 GMT 39.721302 20.731934 36,025 331 396 -64
2022-05-18 19:01:41 GMT 39.707565 20.742128 36,025 331 396 -64
2022-05-18 19:01:38 GMT 39.702484 20.745890 36,025 331 396 -64
2022-05-18 19:01:32 GMT 39.693836 20.752319 36,025 331 396 -64
2022-05-18 19:01:28 GMT 39.685085 20.758789 36,050 331 395 -64
2022-05-18 19:01:22 GMT 39.672501 20.768162 36,050 331 395 0
2022-05-18 19:01:19 GMT 39.672501 20.768162 36,050 331 395 0
2022-05-18 19:01:09 GMT 39.656082 20.780396 36,050 331 396 0
2022-05-18 19:01:02 GMT 39.645813 20.787985 36,050 331 396 -64
2022-05-18 19:00:59 GMT 39.640999 20.791565 36,050 331 396 0
2022-05-18 19:00:54 GMT 39.632629 20.797775 36,050 331 396 -64
2022-05-18 19:00:49 GMT 39.625122 20.803268 36,050 331 396 0
2022-05-18 19:00:45 GMT 39.619354 20.807617 36,050 331 396 0
2022-05-18 19:00:42 GMT 39.610977 20.813778 36,050 331 396 0
2022-05-18 19:00:38 GMT 39.599991 20.821959 36,050 331 396 64
2022-05-18 19:00:33 GMT 39.599991 20.821959 36,050 331 396 64
2022-05-18 19:00:28 GMT 39.591980 20.827881 36,050 331 396 64
2022-05-18 19:00:20 GMT 39.579163 20.837362 36,050 331 396 0
2022-05-18 19:00:16 GMT 39.572708 20.842163 36,025 331 396 0
2022-05-18 19:00:09 GMT 39.561996 20.850140 36,025 331 396 0
2022-05-18 19:00:06 GMT 39.557053 20.853783 36,050 331 396 0
2022-05-18 18:59:58 GMT 39.543938 20.863525 36,050 331 396 0
2022-05-18 18:59:55 GMT 39.540207 20.866322 36,050 331 396 0
2022-05-18 18:59:48 GMT 39.527985 20.875397 36,025 331 396 64
2022-05-18 18:59:45 GMT 39.524139 20.878202 36,025 331 396 64
2022-05-18 18:59:38 GMT 39.513199 20.886324 36,025 331 395 64
2022-05-18 18:59:35 GMT 39.508327 20.889893 36,025 331 395 64
2022-05-18 18:59:27 GMT 39.484360 20.907520 36,025 331 396 64
2022-05-18 18:59:23 GMT 39.484360 20.907520 36,000 331 396 64
2022-05-18 18:59:15 GMT 39.476074 20.913610 36,000 331 396 64
2022-05-18 18:59:08 GMT 39.465359 20.921570 36,000 331 396 64
2022-05-18 18:59:04 GMT 39.457947 20.926985 36,000 331 395 64
2022-05-18 18:58:55 GMT 39.443291 20.937866 36,000 331 395 0
2022-05-18 18:58:50 GMT 39.436844 20.942629 36,000 331 395 -64
2022-05-18 18:58:44 GMT 39.426041 20.950510 36,000 331 395 -64
2022-05-18 18:58:32 GMT 39.402237 20.968004 36,000 331 395 0
2022-05-18 18:58:25 GMT 39.395950 20.972595 36,000 331 395 0
2022-05-18 18:58:19 GMT 39.382496 20.982544 36,000 331 394 0
2022-05-18 18:58:15 GMT 39.380814 20.983767 36,000 331 393 0
2022-05-18 18:58:12 GMT 39.376694 20.986753 36,000 331 393 0
2022-05-18 18:58:05 GMT 39.364292 20.995911 35,975 331 393 0
2022-05-18 18:57:57 GMT 39.351517 21.005262 36,000 331 394 -64
2022-05-18 18:57:53 GMT 39.340832 21.013123 36,000 331 394 -64
2022-05-18 18:57:44 GMT 39.318878 21.029146 36,000 331 394 0
2022-05-18 18:57:39 GMT 39.318878 21.029146 36,000 331 393 0
2022-05-18 18:57:32 GMT 39.312698 21.033684 36,000 331 393 0
2022-05-18 18:57:27 GMT 39.299026 21.043701 36,000 331 393 0
2022-05-18 18:57:21 GMT 39.294846 21.046761 36,000 331 393 0
2022-05-18 18:57:13 GMT 39.283127 21.055416 36,000 331 394 0
2022-05-18 18:57:00 GMT 39.256756 21.074768 36,000 331 394 0
2022-05-18 18:56:53 GMT 39.250751 21.079163 36,000 331 394 0
2022-05-18 18:56:48 GMT 39.237392 21.088928 36,000 331 395 -64
2022-05-18 18:56:43 GMT 39.230083 21.094238 36,025 331 395 -64
2022-05-18 18:56:32 GMT 39.215057 21.105213 36,025 331 395 -64
2022-05-18 18:56:22 GMT 39.201874 21.114887 36,025 331 395 -64
2022-05-18 18:56:18 GMT 39.194935 21.119934 36,025 331 395 -64
2022-05-18 18:56:12 GMT 39.176422 21.133396 36,025 331 395 0
2022-05-18 18:56:08 GMT 39.176422 21.133396 36,025 331 395 0
2022-05-18 18:56:00 GMT 39.166912 21.140320 36,025 331 396 0
2022-05-18 18:55:51 GMT 39.152023 21.151190 36,025 331 396 0
2022-05-18 18:55:38 GMT 39.126801 21.169640 36,050 331 397 0
2022-05-18 18:55:33 GMT 39.121151 21.173767 36,050 331 397 0
2022-05-18 18:55:28 GMT 39.110443 21.181641 36,050 331 398 0
2022-05-18 18:55:21 GMT 39.103638 21.186596 36,050 331 398 0
2022-05-18 18:55:14 GMT 39.088898 21.197285 36,050 331 397 64
2022-05-18 18:55:08 GMT 39.082745 21.201782 36,050 331 397 64
2022-05-18 18:54:59 GMT 39.068756 21.211971 36,050 331 397 64
2022-05-18 18:54:51 GMT 39.056492 21.220886 36,050 331 399 -64
2022-05-18 18:54:48 GMT 39.052094 21.224154 36,050 331 399 -64
2022-05-18 18:54:40 GMT 39.039173 21.233521 36,050 331 399 0
2022-05-18 18:54:35 GMT 39.026043 21.243103 36,050 331 399 0
2022-05-18 18:54:29 GMT 39.021065 21.246765 36,050 331 399 0
2022-05-18 18:54:19 GMT 39.004898 21.258486 36,050 331 400 -64
2022-05-18 18:54:11 GMT 38.991898 21.267979 36,050 331 400 -64
2022-05-18 18:54:06 GMT 38.979675 21.276875 36,050 331 399 0
2022-05-18 18:54:01 GMT 38.975906 21.279663 36,050 331 399 0
2022-05-18 18:53:58 GMT 38.970200 21.283802 36,050 331 399 0
2022-05-18 18:53:48 GMT 38.954910 21.294847 36,050 331 399 -64
2022-05-18 18:53:40 GMT 38.940342 21.305420 36,075 331 399 0
2022-05-18 18:53:31 GMT 38.925613 21.316105 36,075 331 399 0
2022-05-18 18:53:27 GMT 38.921722 21.318911 36,075 331 399 0
2022-05-18 18:53:20 GMT 38.909637 21.327627 36,075 331 399 0
2022-05-18 18:53:17 GMT 38.905792 21.330435 36,050 331 399 0
2022-05-18 18:53:10 GMT 38.893463 21.339355 36,050 331 400 0
2022-05-18 18:53:07 GMT 38.889496 21.342257 36,050 331 400 64
2022-05-18 18:53:02 GMT 38.880936 21.348406 36,050 331 399 64
2022-05-18 18:52:59 GMT 38.870819 21.355749 36,025 331 400 64
2022-05-18 18:52:56 GMT 38.870819 21.355749 36,050 331 399 64
2022-05-18 18:52:47 GMT 38.856220 21.366272 36,050 331 400 64
2022-05-18 18:52:36 GMT 38.839371 21.378439 36,025 331 399 64
2022-05-18 18:52:30 GMT 38.828430 21.386320 36,025 331 399 64
2022-05-18 18:52:27 GMT 38.824474 21.389160 36,025 331 399 64
2022-05-18 18:52:24 GMT 38.820145 21.392334 36,025 331 399 64
2022-05-18 18:52:19 GMT 38.806503 21.402084 36,000 331 398 64
2022-05-18 18:52:16 GMT 38.806503 21.402084 36,025 331 399 64
2022-05-18 18:52:09 GMT 38.795658 21.409912 36,025 331 398 64
2022-05-18 18:52:05 GMT 38.789886 21.414124 36,000 331 398 0
2022-05-18 18:52:00 GMT 38.781364 21.420227 36,000 331 398 0
2022-05-18 18:51:55 GMT 38.773033 21.426270 36,000 331 397 0
2022-05-18 18:51:48 GMT 38.761917 21.434326 36,000 331 397 0
2022-05-18 18:51:45 GMT 38.757111 21.437790 36,000 331 397 0
2022-05-18 18:51:38 GMT 38.746078 21.445789 36,000 331 397 0
2022-05-18 18:51:35 GMT 38.740585 21.449768 36,000 331 397 0
2022-05-18 18:51:29 GMT 38.730484 21.457031 36,000 331 397 0
2022-05-18 18:51:22 GMT 38.715446 21.467834 36,000 331 396 0
2022-05-18 18:51:18 GMT 38.713726 21.469116 36,000 331 396 0
2022-05-18 18:51:14 GMT 38.708038 21.473196 36,000 331 396 0
2022-05-18 18:51:07 GMT 38.696365 21.481556 36,000 331 395 -64
2022-05-18 18:51:03 GMT 38.690598 21.485676 36,000 331 395 -64
2022-05-18 18:50:57 GMT 38.680847 21.492661 36,000 331 395 0
2022-05-18 18:50:54 GMT 38.675041 21.496887 36,000 331 395 0
2022-05-18 18:50:47 GMT 38.664986 21.504089 36,000 331 395 64
2022-05-18 18:50:44 GMT 38.659012 21.508364 36,000 331 395 64
2022-05-18 18:50:37 GMT 38.649017 21.515564 36,000 331 396 64
2022-05-18 18:50:33 GMT 38.642593 21.520142 36,000 331 396 0
2022-05-18 18:50:27 GMT 38.633003 21.526978 36,000 331 396 0
2022-05-18 18:50:23 GMT 38.626236 21.531830 36,000 331 395 0
2022-05-18 18:50:17 GMT 38.616432 21.538818 36,000 331 395 0
2022-05-18 18:50:13 GMT 38.609802 21.543592 36,000 331 395 0
2022-05-18 18:50:06 GMT 38.599594 21.550877 36,000 331 395 0
2022-05-18 18:50:02 GMT 38.592224 21.556131 36,000 331 395 0
2022-05-18 18:49:56 GMT 38.583115 21.562580 36,000 331 395 64
2022-05-18 18:49:52 GMT 38.577003 21.567017 35,975 331 395 64
2022-05-18 18:49:47 GMT 38.567272 21.573975 35,975 331 395 0
2022-05-18 18:49:42 GMT 38.560059 21.579102 35,975 331 395 0
2022-05-18 18:49:35 GMT 38.549675 21.586548 35,975 331 395 -64
2022-05-18 18:49:31 GMT 38.543381 21.591061 36,000 331 395 -64
2022-05-18 18:49:26 GMT 38.535553 21.596672 36,000 331 396 -64
2022-05-18 18:49:21 GMT 38.527328 21.602539 36,000 331 396 -64
2022-05-18 18:49:17 GMT 38.518997 21.608521 36,000 331 396 -64
2022-05-18 18:49:11 GMT 38.510384 21.614746 36,000 331 396 0
2022-05-18 18:49:05 GMT 38.501263 21.621277 36,000 331 397 0
2022-05-18 18:49:01 GMT 38.494629 21.626051 36,000 331 397 0
2022-05-18 18:48:55 GMT 38.483990 21.633667 36,000 331 397 0
2022-05-18 18:48:51 GMT 38.478405 21.637634 36,000 331 397 0
2022-05-18 18:48:44 GMT 38.467510 21.645447 36,000 331 398 64
2022-05-18 18:48:40 GMT 38.462128 21.649277 36,000 331 398 0
2022-05-18 18:48:34 GMT 38.451370 21.656979 36,000 331 398 0
2022-05-18 18:48:30 GMT 38.444698 21.661743 36,000 331 398 0
2022-05-18 18:48:25 GMT 38.435482 21.668335 36,000 331 400 0
2022-05-18 18:48:19 GMT 38.426964 21.674377 36,000 331 400 -64
2022-05-18 18:48:14 GMT 38.419098 21.679966 36,000 331 400 -64
2022-05-18 18:48:09 GMT 38.411739 21.685221 36,025 331 400 -64
2022-05-18 18:48:03 GMT 38.402386 21.691849 36,025 331 401 0
2022-05-18 18:47:58 GMT 38.393772 21.697939 36,025 331 401 0
2022-05-18 18:47:54 GMT 38.385345 21.703909 36,025 331 401 -64
2022-05-18 18:47:49 GMT 38.374687 21.711552 36,025 331 402 0
2022-05-18 18:47:43 GMT 38.368240 21.716114 36,025 331 402 0
2022-05-18 18:47:36 GMT 38.351166 21.728210 36,025 331 404 0
2022-05-18 18:47:32 GMT 38.349453 21.729464 36,025 331 404 0
2022-05-18 18:47:28 GMT 38.345444 21.732302 36,025 331 404 -64
2022-05-18 18:47:25 GMT 38.339027 21.736868 36,025 331 404 -64
2022-05-18 18:47:21 GMT 38.333359 21.740891 36,050 331 404 -64
2022-05-18 18:47:18 GMT 38.328552 21.744331 36,050 331 404 -64
2022-05-18 18:47:14 GMT 38.321709 21.749168 36,025 331 404 0
2022-05-18 18:47:11 GMT 38.316029 21.753227 36,025 331 404 0
2022-05-18 18:47:08 GMT 38.312401 21.755796 36,025 331 404 0
2022-05-18 18:47:04 GMT 38.305298 21.760818 36,025 331 405 64
2022-05-18 18:47:01 GMT 38.299503 21.764931 36,025 331 405 0
2022-05-18 18:46:58 GMT 38.295319 21.767891 36,025 331 406 0
2022-05-18 18:46:53 GMT 38.287354 21.773529 36,025 331 407 0
2022-05-18 18:46:50 GMT 38.282364 21.777065 36,025 331 407 0
2022-05-18 18:46:47 GMT 38.278137 21.780037 36,025 331 407 0
2022-05-18 18:46:43 GMT 38.254070 21.797113 36,025 331 407 64
2022-05-18 18:46:36 GMT 38.254070 21.797113 36,000 331 406 64
2022-05-18 18:46:31 GMT 38.250156 21.799919 36,000 331 407 0
2022-05-18 18:46:27 GMT 38.244781 21.803654 36,000 331 407 0
2022-05-18 18:46:22 GMT 38.236908 21.809263 36,000 331 406 0
2022-05-18 18:46:19 GMT 38.231258 21.813295 36,000 331 405 128
2022-05-18 18:46:16 GMT 38.226974 21.816280 36,000 331 405 128
2022-05-18 18:46:12 GMT 38.219696 21.821478 35,925 331 402 704
2022-05-18 18:46:06 GMT 38.211273 21.827438 35,925 331 402 768
2022-05-18 18:46:03 GMT 38.204678 21.832104 35,875 331 401 1088
2022-05-18 18:45:59 GMT 38.196991 21.837606 35,675 331 402 1792
2022-05-18 18:45:56 GMT 38.194565 21.839300 35,725 331 401 1536
2022-05-18 18:45:51 GMT 38.185135 21.846022 35,575 331 403 1792
2022-05-18 18:45:46 GMT 38.177490 21.851398 35,325 331 406 1472
2022-05-18 18:45:42 GMT 38.172272 21.855139 35,325 331 404 1664
2022-05-18 18:45:38 GMT 38.164177 21.860882 35,200 331 405 1472
2022-05-18 18:45:35 GMT 38.161057 21.863092 35,150 331 406 1472
2022-05-18 18:45:32 GMT 38.155796 21.866793 35,000 331 407 1216
2022-05-18 18:45:29 GMT 38.151051 21.870197 35,025 331 407 1216
2022-05-18 18:45:25 GMT 38.144440 21.874794 34,950 332 406 1024
2022-05-18 18:45:22 GMT 38.138714 21.878855 34,900 332 406 640
2022-05-18 18:45:15 GMT 38.127213 21.886854 34,825 332 404 384
2022-05-18 18:45:12 GMT 38.122513 21.890083 34,825 332 403 448
2022-05-18 18:45:05 GMT 38.105103 21.902021 34,700 332 401 1152
2022-05-18 18:45:01 GMT 38.105103 21.902021 34,675 332 401 1216
2022-05-18 18:44:57 GMT 38.089279 21.912582 34,475 333 400 1152
2022-05-18 18:44:54 GMT 38.089279 21.912582 34,475 333 400 1152
2022-05-18 18:44:51 GMT 38.087551 21.913725 34,450 333 400 1152
2022-05-18 18:44:44 GMT 38.076508 21.921114 34,350 332 399 768
2022-05-18 18:44:40 GMT 38.068130 21.927134 34,300 328 398 448
2022-05-18 18:44:36 GMT 38.062553 21.931875 34,275 324 399 320
2022-05-18 18:44:33 GMT 38.059898 21.934383 34,275 323 398 320
2022-05-18 18:44:29 GMT 38.053894 21.940748 34,250 318 398 320
2022-05-18 18:44:24 GMT 38.046844 21.949633 34,225 311 398 256
2022-05-18 18:44:21 GMT 38.043282 21.954803 34,200 308 397 448
2022-05-18 18:44:18 GMT 38.040253 21.959625 34,200 307 396 512
2022-05-18 18:44:15 GMT 38.036484 21.966028 34,175 306 396 640
2022-05-18 18:44:11 GMT 38.032379 21.973299 34,125 306 395 896
2022-05-18 18:44:08 GMT 38.029678 21.977974 34,075 306 395 1472
2022-05-18 18:44:01 GMT 38.018097 21.998135 33,800 307 395 1408
2022-05-18 18:43:55 GMT 38.014343 22.004681 33,725 307 395 1408
2022-05-18 18:43:51 GMT 38.010864 22.010641 33,650 307 396 1472
2022-05-18 18:43:44 GMT 38.002762 22.024431 33,425 307 398 1472
2022-05-18 18:43:40 GMT 37.999428 22.030096 33,375 307 398 1536
2022-05-18 18:43:34 GMT 37.988583 22.048487 33,075 307 401 1984
2022-05-18 18:43:31 GMT 37.988583 22.048487 33,075 307 401 1984
2022-05-18 18:43:27 GMT 37.983742 22.056786 32,950 307 402 1728
2022-05-18 18:43:24 GMT 37.979877 22.063414 32,825 307 402 1664
2022-05-18 18:43:21 GMT 37.976665 22.068907 32,750 307 403 1728
2022-05-18 18:43:15 GMT 37.970890 22.078758 32,600 307 403 1856
2022-05-18 18:43:10 GMT 37.965912 22.087194 32,450 307 404 2176
2022-05-18 18:43:05 GMT 37.959320 22.098415 32,225 307 406 2432
2022-05-18 18:43:00 GMT 37.954178 22.107119 32,050 307 408 2240
2022-05-18 18:42:54 GMT 37.947754 22.117987 31,850 307 408 1728
2022-05-18 18:42:50 GMT 37.942795 22.126289 31,725 307 409 1664
2022-05-18 18:42:44 GMT 37.936890 22.136282 31,450 307 409 1408
2022-05-18 18:42:39 GMT 37.931183 22.145929 31,450 307 409 1408
2022-05-18 18:42:35 GMT 37.926388 22.153990 31,375 307 408 1216
2022-05-18 18:42:32 GMT 37.923363 22.159124 31,250 307 406 704
2022-05-18 18:42:28 GMT 37.917709 22.168833 31,250 307 404 768
2022-05-18 18:42:23 GMT 37.911987 22.178534 31,175 307 405 768
2022-05-18 18:42:20 GMT 37.906605 22.187725 31,075 307 402 768
2022-05-18 18:42:17 GMT 37.902180 22.195309 31,075 307 402 768
2022-05-18 18:42:13 GMT 37.902180 22.195309 31,050 307 402 768
2022-05-18 18:42:08 GMT 37.895386 22.207010 31,000 307 399 576
2022-05-18 18:42:04 GMT 37.891159 22.214180 30,950 307 396 512
2022-05-18 18:41:56 GMT 37.883514 22.227251 30,900 307 393 448
2022-05-18 18:41:52 GMT 37.879349 22.234341 30,875 307 389 512
2022-05-18 18:41:47 GMT 37.873077 22.245094 30,825 307 386 704
2022-05-18 18:41:41 GMT 37.867592 22.254478 30,750 307 384 960
2022-05-18 18:41:37 GMT 37.862007 22.264032 30,625 307 383 1472
2022-05-18 18:41:34 GMT 37.853851 22.277937 30,400 307 383 1984
2022-05-18 18:41:26 GMT 37.851013 22.282845 30,300 307 384 2048
2022-05-18 18:41:22 GMT 37.846828 22.289946 30,175 307 384 1984
2022-05-18 18:41:18 GMT 37.841522 22.298962 30,000 307 385 1920
2022-05-18 18:41:15 GMT 37.835861 22.308558 29,775 307 384 1664
2022-05-18 18:41:11 GMT 37.835861 22.308558 29,850 307 384 1600
2022-05-18 18:41:08 GMT 37.832493 22.314247 29,775 307 384 1536
2022-05-18 18:41:04 GMT 37.826626 22.324099 29,525 307 382 1408
2022-05-18 18:41:01 GMT 37.824390 22.327862 29,575 307 383 1408
2022-05-18 18:40:56 GMT 37.818146 22.338303 29,450 307 382 1472
2022-05-18 18:40:51 GMT 37.813934 22.345432 29,350 307 380 1408
2022-05-18 18:40:47 GMT 37.807068 22.357002 29,200 307 379 1344
2022-05-18 18:40:38 GMT 37.800064 22.368864 29,050 307 378 1408
2022-05-18 18:40:34 GMT 37.795296 22.376881 28,925 307 377 1600
2022-05-18 18:40:30 GMT 37.792191 22.382072 28,850 308 377 1664
2022-05-18 18:40:26 GMT 37.788265 22.388643 28,750 308 376 1664
2022-05-18 18:40:22 GMT 37.783264 22.396975 28,625 307 375 1664
2022-05-18 18:40:18 GMT 37.778629 22.404764 28,500 307 375 1536
2022-05-18 18:40:14 GMT 37.774200 22.412169 28,400 307 373 1344
2022-05-18 18:40:10 GMT 37.770264 22.418772 28,275 307 372 1280
2022-05-18 18:40:07 GMT 37.768112 22.422453 28,275 307 372 1280
2022-05-18 18:40:02 GMT 37.761887 22.433029 28,175 307 370 1088
2022-05-18 18:39:57 GMT 37.757401 22.440685 28,100 307 370 832
2022-05-18 18:39:51 GMT 37.751816 22.450211 28,050 307 370 192
2022-05-18 18:39:47 GMT 37.747742 22.457165 28,025 307 370 192
2022-05-18 18:39:37 GMT 37.737350 22.474930 28,025 307 371 0
2022-05-18 18:39:29 GMT 37.726089 22.494215 28,025 307 370 0
2022-05-18 18:39:26 GMT 37.726089 22.494215 28,025 307 370 0
2022-05-18 18:39:18 GMT 37.717602 22.508778 28,025 307 371 64
2022-05-18 18:39:13 GMT 37.709545 22.522511 28,000 307 372 0
2022-05-18 18:39:09 GMT 37.707916 22.525316 28,000 307 374 0
2022-05-18 18:39:06 GMT 37.706383 22.527943 28,000 306 375 0
2022-05-18 18:39:00 GMT 37.698761 22.541082 28,000 306 374 0
2022-05-18 18:38:56 GMT 37.695675 22.546453 28,000 306 375 0
2022-05-18 18:38:49 GMT 37.688736 22.558613 28,000 306 374 0
2022-05-18 18:38:46 GMT 37.685246 22.564724 28,000 306 374 0
2022-05-18 18:38:39 GMT 37.678391 22.576672 28,000 306 374 0
2022-05-18 18:38:36 GMT 37.674213 22.584009 28,000 306 373 0
2022-05-18 18:38:27 GMT 37.666302 22.597980 28,025 306 372 0
2022-05-18 18:38:24 GMT 37.663193 22.603552 28,025 306 372 0
2022-05-18 18:38:19 GMT 37.657608 22.613428 28,025 306 370 -64
2022-05-18 18:38:14 GMT 37.652298 22.622721 28,000 306 371 0
2022-05-18 18:38:08 GMT 37.647820 22.630522 28,025 307 370 0
2022-05-18 18:38:05 GMT 37.644047 22.636971 28,025 307 370 64
2022-05-18 18:38:01 GMT 37.640137 22.643419 28,025 308 370 128
2022-05-18 18:37:58 GMT 37.637009 22.648432 28,025 310 368 64
2022-05-18 18:37:53 GMT 37.629894 22.658346 28,025 316 365 0
2022-05-18 18:37:50 GMT 37.626389 22.662516 28,025 319 364 -64
2022-05-18 18:37:45 GMT 37.615723 22.673210 28,025 323 363 -128
2022-05-18 18:37:42 GMT 37.615723 22.673210 28,025 325 362 -64
2022-05-18 18:37:38 GMT 37.611786 22.676678 28,025 326 363 0
2022-05-18 18:37:35 GMT 37.607300 22.680573 28,025 326 363 0
2022-05-18 18:37:31 GMT 37.596657 22.689693 28,000 326 366 128
2022-05-18 18:37:27 GMT 37.596657 22.689693 28,025 326 364 64
2022-05-18 18:37:22 GMT 37.587765 22.697395 28,000 326 366 128
2022-05-18 18:37:17 GMT 37.578503 22.705397 27,975 326 368 192
2022-05-18 18:37:13 GMT 37.576218 22.707396 27,975 326 368 192
2022-05-18 18:37:10 GMT 37.573105 22.710026 27,950 326 368 512
2022-05-18 18:37:07 GMT 37.568260 22.714233 27,925 326 368 640
2022-05-18 18:37:03 GMT 37.562767 22.719009 27,875 326 369 960
2022-05-18 18:36:59 GMT 37.556213 22.724634 27,800 326 369 1088
2022-05-18 18:36:56 GMT 37.553455 22.727011 27,775 326 369 1216
2022-05-18 18:36:53 GMT 37.547825 22.731848 27,675 326 368 1408
2022-05-18 18:36:49 GMT 37.543449 22.735609 27,600 326 367 1472
2022-05-18 18:36:44 GMT 37.536419 22.741579 27,475 326 367 1536
2022-05-18 18:36:40 GMT 37.528198 22.748653 27,325 326 367 1472
2022-05-18 18:36:34 GMT 37.521835 22.754030 27,225 326 369 1408
2022-05-18 18:36:30 GMT 37.515198 22.759699 26,075 326 369 1536
2022-05-18 18:36:27 GMT 37.510349 22.763910 26,900 326 367 1856
2022-05-18 18:36:23 GMT 37.504719 22.768686 26,900 326 367 1856
2022-05-18 18:36:20 GMT 37.493408 22.778399 26,625 326 367 2112
2022-05-18 18:36:13 GMT 37.493408 22.778399 26,625 326 367 2112
2022-05-18 18:36:10 GMT 37.488144 22.782957 26,500 326 366 2112
2022-05-18 18:36:07 GMT 37.480743 22.789347 26,350 326 366 1792
2022-05-18 18:36:04 GMT 37.478786 22.791079 26,300 326 366 1600
2022-05-18 18:36:00 GMT 37.473816 22.795345 26,200 326 365 1408
2022-05-18 18:35:53 GMT 37.459980 22.807259 26,025 326 361 320
2022-05-18 18:35:49 GMT 37.459980 22.807259 26,050 326 361 0
2022-05-18 18:35:43 GMT 37.450577 22.815378 26,025 326 361 128
2022-05-18 18:35:39 GMT 37.441360 22.823320 26,025 326 360 -64
2022-05-18 18:35:33 GMT 37.437012 22.827078 26,025 326 361 0
2022-05-18 18:35:30 GMT 37.431583 22.831799 26,025 326 361 -64
2022-05-18 18:35:23 GMT 37.422878 22.839264 26,025 326 361 -64
2022-05-18 18:35:19 GMT 37.417282 22.844025 26,025 326 362 -64
2022-05-18 18:35:12 GMT 37.408356 22.851562 26,025 326 362 -64
2022-05-18 18:35:08 GMT 37.402630 22.856459 26,025 327 361 0
2022-05-18 18:35:02 GMT 37.393875 22.863804 26,025 326 361 128
2022-05-18 18:34:57 GMT 37.383774 22.872717 26,025 323 362 0
2022-05-18 18:34:54 GMT 37.381775 22.874729 26,025 320 362 0
2022-05-18 18:34:51 GMT 37.378468 22.878311 26,025 317 362 0
2022-05-18 18:34:45 GMT 37.368736 22.891388 26,025 308 364 0
2022-05-18 18:34:41 GMT 37.366737 22.894791 26,025 305 364 0
2022-05-18 18:34:38 GMT 37.364456 22.898972 26,000 303 364 64
2022-05-18 18:34:32 GMT 37.359787 22.909182 26,000 297 365 0
2022-05-18 18:34:27 GMT 37.356445 22.918650 26,000 290 367 0
2022-05-18 18:34:22 GMT 37.353657 22.929302 26,000 285 367 0
2022-05-18 18:34:16 GMT 37.351776 22.940447 26,025 271 370 0
2022-05-18 18:34:12 GMT 37.350956 22.950380 26,025 273 370 0
2022-05-18 18:34:07 GMT 37.350956 22.962381 26,025 267 370 0
2022-05-18 18:34:02 GMT 37.351791 22.972412 26,025 261 371 0
2022-05-18 18:33:56 GMT 37.353840 22.984413 26,025 255 371 64
2022-05-18 18:33:51 GMT 37.356308 22.993742 26,000 249 372 128
2022-05-18 18:33:46 GMT 37.360779 23.005850 26,000 236 375 0
2022-05-18 18:33:43 GMT 37.363338 23.011223 26,000 237 374 0
2022-05-18 18:33:40 GMT 37.364731 23.013903 26,000 236 375 0
2022-05-18 18:33:35 GMT 37.370789 23.023521 26,000 229 376 -128
2022-05-18 18:33:31 GMT 37.376038 23.030382 26,025 223 376 0
2022-05-18 18:33:27 GMT 37.381897 23.037277 26,025 223 376 -64
2022-05-18 18:33:24 GMT 37.383820 23.039499 26,025 223 376 0
2022-05-18 18:33:20 GMT 37.388809 23.045343 26,025 223 376 0
2022-05-18 18:33:15 GMT 37.396866 23.054634 26,025 223 376 0
2022-05-18 18:33:11 GMT 37.402023 23.060661 26,025 223 376 0
2022-05-18 18:33:03 GMT 37.410782 23.070881 26,000 223 377 0
2022-05-18 18:33:00 GMT 37.414825 23.075588 26,000 223 377 0
2022-05-18 18:32:50 GMT 37.431305 23.094694 26,000 223 380 -64
2022-05-18 18:32:44 GMT 37.437195 23.101501 26,000 223 380 0
2022-05-18 18:32:40 GMT 37.442230 23.107346 26,025 223 380 0
2022-05-18 18:32:33 GMT 37.450150 23.116520 26,025 223 381 0
2022-05-18 18:32:30 GMT 37.458527 23.126337 26,025 224 380 64
2022-05-18 18:32:26 GMT 37.458527 23.126337 26,025 224 380 64
2022-05-18 18:32:22 GMT 37.464798 23.133701 26,000 223 379 64
2022-05-18 18:32:19 GMT 37.468689 23.138260 26,000 223 379 64
2022-05-18 18:32:16 GMT 37.474689 23.145208 26,000 223 380 0
2022-05-18 18:32:10 GMT 37.480602 23.152134 26,000 223 381 0
2022-05-18 18:32:07 GMT 37.486282 23.158762 26,000 223 381 0
2022-05-18 18:32:02 GMT 37.490288 23.163479 26,000 223 381 0
2022-05-18 18:31:58 GMT 37.495514 23.169582 26,000 224 382 0
2022-05-18 18:31:52 GMT 37.503693 23.179241 26,000 224 382 0
2022-05-18 18:31:49 GMT 37.508347 23.184675 26,000 224 382 0
2022-05-18 18:31:45 GMT 37.510910 23.187719 26,025 224 382 64
2022-05-18 18:31:40 GMT 37.517532 23.195587 26,025 224 381 0
2022-05-18 18:31:37 GMT 37.522079 23.200975 26,000 224 380 0
2022-05-18 18:31:33 GMT 37.526413 23.205988 26,000 224 380 0
2022-05-18 18:31:31 GMT 37.530258 23.210546 26,000 223 381 -64
2022-05-18 18:31:26 GMT 37.541885 23.224104 26,000 223 381 0
2022-05-18 18:31:19 GMT 37.546333 23.229338 26,025 223 379 0
2022-05-18 18:31:16 GMT 37.549034 23.232500 26,025 223 379 0
2022-05-18 18:31:08 GMT 37.559509 23.244791 26,025 224 379 0
2022-05-18 18:31:05 GMT 37.563419 23.249338 26,025 224 379 -64
2022-05-18 18:31:00 GMT 37.571381 23.258713 26,025 224 379 0
2022-05-18 18:30:56 GMT 37.575531 23.263609 26,025 224 378 0
2022-05-18 18:30:51 GMT 37.585438 23.275253 26,000 224 378 64
2022-05-18 18:30:46 GMT 37.588943 23.279387 26,000 224 377 128
2022-05-18 18:30:36 GMT 37.601082 23.293465 25,950 223 378 384
2022-05-18 18:30:28 GMT 37.611275 23.305286 25,875 223 380 960
2022-05-18 18:30:25 GMT 37.615997 23.310768 25,800 223 380 1280
2022-05-18 18:30:22 GMT 37.618561 23.313747 25,775 223 380 1408
2022-05-18 18:30:18 GMT 37.623657 23.319675 25,625 224 379 1792
2022-05-18 18:30:15 GMT 37.629227 23.326254 25,550 224 378 1856
2022-05-18 18:30:12 GMT 37.635086 23.333208 25,400 224 377 1728
2022-05-18 18:30:07 GMT 37.637718 23.336275 25,325 224 377 1728
2022-05-18 18:30:04 GMT 37.642746 23.342304 25,225 224 376 1728
2022-05-18 18:29:58 GMT 37.650375 23.351500 25,050 225 374 1728
2022-05-18 18:29:55 GMT 37.653580 23.355413 24,975 225 374 1728
2022-05-18 18:29:53 GMT 37.655361 23.357651 24,925 225 373 1728
2022-05-18 18:29:47 GMT 37.662643 23.367102 24,750 229 371 1664
2022-05-18 18:29:44 GMT 37.665848 23.371601 24,600 231 370 1728
2022-05-18 18:29:42 GMT 37.668777 23.375868 24,600 231 370 1728
2022-05-18 18:29:36 GMT 37.675240 23.386011 24,425 233 368 1792
2022-05-18 18:29:30 GMT 37.683990 23.400759 24,175 234 365 1728
2022-05-18 18:29:26 GMT 37.685028 23.402575 24,150 234 365 1792
2022-05-18 18:29:23 GMT 37.687454 23.406664 24,075 234 365 1728
2022-05-18 18:29:21 GMT 37.690155 23.411222 24,000 234 363 1792
2022-05-18 18:29:17 GMT 37.694649 23.418791 23,825 234 362 1984
2022-05-18 18:29:14 GMT 37.696976 23.422792 23,775 234 362 1984
2022-05-18 18:29:10 GMT 37.701004 23.429571 23,650 234 361 1856
2022-05-18 18:29:05 GMT 37.707405 23.440466 23,475 234 359 1536
2022-05-18 18:29:01 GMT 37.711128 23.446854 23,375 234 357 1600
2022-05-18 18:28:58 GMT 37.713692 23.451214 23,300 234 356 1664
2022-05-18 18:28:54 GMT 37.717621 23.457973 23,175 234 354 1728
2022-05-18 18:28:51 GMT 37.720642 23.463116 23,050 234 353 1856
2022-05-18 18:28:44 GMT 37.730759 23.480589 22,850 234 352 2112
2022-05-18 18:28:40 GMT 37.730759 23.480589 22,600 234 351 2304
2022-05-18 18:28:36 GMT 37.733917 23.486023 22,600 234 351 2304
2022-05-18 18:28:33 GMT 37.737247 23.491755 22,475 234 350 2368
2022-05-18 18:28:30 GMT 37.740921 23.498060 22,325 234 350 2432
2022-05-18 18:28:27 GMT 37.742878 23.501488 22,225 234 350 2496
2022-05-18 18:28:23 GMT 37.747147 23.508814 22,050 234 350 2304
2022-05-18 18:28:19 GMT 37.750626 23.514715 21,900 234 349 2112
2022-05-18 18:28:16 GMT 37.753967 23.520500 21,800 234 349 2112
2022-05-18 18:28:13 GMT 37.756332 23.524475 21,700 234 349 1984
2022-05-18 18:28:11 GMT 37.758801 23.528774 21,625 234 348 1984
2022-05-18 18:28:06 GMT 37.763966 23.537611 21,425 234 346 1984
2022-05-18 18:28:03 GMT 37.766190 23.541422 21,375 234 346 1984
2022-05-18 18:28:01 GMT 37.767242 23.543175 21,300 234 345 1920
2022-05-18 18:27:58 GMT 37.770206 23.548300 21,225 234 342 1728
2022-05-18 18:27:55 GMT 37.773468 23.553869 21,125 234 342 1728
2022-05-18 18:27:52 GMT 37.775574 23.557377 21,050 234 341 1728
2022-05-18 18:27:50 GMT 37.778351 23.562092 20,975 234 340 1792
2022-05-18 18:27:45 GMT 37.782589 23.569256 20,750 234 337 1984
2022-05-18 18:27:42 GMT 37.790268 23.582212 20,650 234 335 1984
2022-05-18 18:27:38 GMT 37.790268 23.582212 20,550 234 335 2048
2022-05-18 18:27:34 GMT 37.792328 23.585718 20,475 234 334 2112
2022-05-18 18:27:31 GMT 37.795574 23.591228 20,350 234 333 2240
2022-05-18 18:27:28 GMT 37.799240 23.597406 20,200 234 333 2368
2022-05-18 18:27:25 GMT 37.801254 23.600796 20,100 234 332 2432
2022-05-18 18:27:22 GMT 37.803581 23.604782 20,000 234 332 2368
2022-05-18 18:27:19 GMT 37.806656 23.609919 19,875 234 331 2368
2022-05-18 18:27:15 GMT 37.810753 23.616903 19,700 234 330 2432
2022-05-18 18:27:12 GMT 37.814152 23.622576 19,525 234 330 2368
2022-05-18 18:27:09 GMT 37.817642 23.628428 19,400 234 329 2304
2022-05-18 18:27:06 GMT 37.821644 23.635235 19,225 234 328 2240
2022-05-18 18:27:02 GMT 37.822205 23.636129 19,200 234 328 2240
2022-05-18 18:26:58 GMT 37.825928 23.642460 19,075 234 327 2176
2022-05-18 18:26:55 GMT 37.829361 23.648363 18,875 234 326 1984
2022-05-18 18:26:52 GMT 37.831421 23.651871 18,850 234 324 1920
2022-05-18 18:26:49 GMT 37.834633 23.657267 18,750 234 323 1728
2022-05-18 18:26:46 GMT 37.837379 23.661983 18,650 234 320 1728
2022-05-18 18:26:43 GMT 37.839241 23.665148 18,600 234 320 1792
2022-05-18 18:26:38 GMT 37.846619 23.677816 18,325 234 315 2240
2022-05-18 18:26:34 GMT 37.847443 23.679277 18,275 234 315 2112
2022-05-18 18:26:31 GMT 37.850143 23.683893 18,175 234 314 2304
2022-05-18 18:26:28 GMT 37.852524 23.688044 18,050 235 313 2560
2022-05-18 18:26:24 GMT 37.856186 23.694525 17,750 235 312 2688
2022-05-18 18:26:21 GMT 37.858654 23.698824 17,725 235 312 2624
2022-05-18 18:26:17 GMT 37.861259 23.703659 17,600 236 312 2432
2022-05-18 18:26:13 GMT 37.865158 23.710951 17,400 238 311 2240
2022-05-18 18:26:10 GMT 37.866707 23.714109 17,275 241 309 2240
2022-05-18 18:26:08 GMT 37.868988 23.718945 17,225 241 308 2304
2022-05-18 18:26:03 GMT 37.872013 23.726049 16,925 244 306 2688
2022-05-18 18:25:59 GMT 37.874435 23.732141 16,650 245 306 2880
2022-05-18 18:25:56 GMT 37.876007 23.736254 16,725 245 306 3008
2022-05-18 18:25:53 GMT 37.878708 23.743559 16,500 245 306 3200
2022-05-18 18:25:49 GMT 37.880997 23.749519 16,200 245 306 3136
2022-05-18 18:25:46 GMT 37.883698 23.756741 16,075 245 307 2944
2022-05-18 18:25:40 GMT 37.886166 23.763248 15,675 245 305 2496
2022-05-18 18:25:37 GMT 37.888046 23.768162 15,750 245 306 2560
2022-05-18 18:25:32 GMT 37.891426 23.776922 15,525 244 305 2496
2022-05-18 18:25:29 GMT 37.892357 23.779310 15,450 245 304 2560
2022-05-18 18:25:27 GMT 37.894501 23.784924 15,300 245 303 2688
2022-05-18 18:25:20 GMT 37.900364 23.800327 14,825 245 300 3072
2022-05-18 18:25:16 GMT 37.900692 23.801104 14,525 245 299 3136
2022-05-18 18:25:13 GMT 37.902554 23.806000 14,525 245 299 3136
2022-05-18 18:25:10 GMT 37.904572 23.811289 14,475 245 300 3072
2022-05-18 18:25:06 GMT 37.906998 23.817600 14,275 245 299 3072
2022-05-18 18:25:02 GMT 37.909241 23.823442 14,100 245 299 3072
2022-05-18 18:24:59 GMT 37.911804 23.830048 13,875 245 297 2944
2022-05-18 18:24:54 GMT 37.915821 23.840450 13,575 245 296 2496
2022-05-18 18:24:49 GMT 37.917572 23.845066 13,425 245 295 2240
2022-05-18 18:24:46 GMT 37.919266 23.849466 13,350 245 293 1984
2022-05-18 18:24:41 GMT 37.921593 23.855438 13,025 245 285 2240
2022-05-18 18:24:38 GMT 37.923641 23.860752 13,150 245 288 1856
2022-05-18 18:24:33 GMT 37.926636 23.868673 12,900 245 283 2624
2022-05-18 18:24:29 GMT 37.928806 23.874247 12,725 245 281 3008
2022-05-18 18:24:27 GMT 37.929657 23.876564 12,650 245 281 3008
2022-05-18 18:24:24 GMT 37.931946 23.882641 12,450 245 281 3200
2022-05-18 18:24:20 GMT 37.933697 23.887503 12,275 253 280 0
2022-05-18 18:24:17 GMT 37.935333 23.892109 12,100 247 281 3200
2022-05-18 18:24:13 GMT 37.938072 23.901054 11,800 253 280 3072
2022-05-18 18:24:10 GMT 37.939514 23.907503 11,625 258 280 3072
2022-05-18 18:24:07 GMT 37.939514 23.907503 11,575 259 280 3072
2022-05-18 18:24:03 GMT 37.940495 23.913834 11,350 263 280 3136
2022-05-18 18:24:00 GMT 37.941422 23.923840 11,075 264 279 3136
2022-05-18 18:23:57 GMT 37.941422 23.923840 11,075 264 279 3136
2022-05-18 18:23:55 GMT 37.941742 23.927872 10,925 264 279 3072
2022-05-18 18:23:52 GMT 37.942291 23.934067 10,725 264 278 3136
2022-05-18 18:23:49 GMT 37.942448 23.935745 10,675 264 277 3136
2022-05-18 18:23:46 GMT 37.942932 23.941313 10,500 264 277 3264
2022-05-18 18:23:43 GMT 37.943436 23.947098 10,300 264 277 3392
2022-05-18 18:23:40 GMT 37.943848 23.951481 10,100 264 276 3456
2022-05-18 18:23:37 GMT 37.944443 23.957909 9,900 264 276 3520
2022-05-18 18:23:34 GMT 37.945148 23.965899 9,625 264 276 3584
2022-05-18 18:23:31 GMT 37.945221 23.966616 9,600 264 276 3584
2022-05-18 18:23:28 GMT 37.945999 23.974974 9,375 264 277 3456
2022-05-18 18:23:25 GMT 37.945999 23.974974 9,300 264 277 3328
2022-05-18 18:23:23 GMT 37.946274 23.978069 9,100 264 276 3008
2022-05-18 18:23:20 GMT 37.946915 23.984966 8,975 264 275 2752
2022-05-18 18:23:15 GMT 37.947418 23.990868 8,825 264 273 2176
2022-05-18 18:23:12 GMT 37.947922 23.996595 8,725 264 269 1664
2022-05-18 18:23:08 GMT 37.948547 24.003695 8,600 264 261 1664
2022-05-18 18:23:04 GMT 37.948929 24.007582 8,525 264 261 1728
2022-05-18 18:23:02 GMT 37.949383 24.012650 8,425 264 255 1856
2022-05-18 18:22:59 GMT 37.949707 24.016289 8,350 263 252 1920
2022-05-18 18:22:55 GMT 37.950268 24.021786 8,000 260 243 2048
2022-05-18 18:22:51 GMT 37.950874 24.027397 8,100 262 244 2048
2022-05-18 18:22:48 GMT 37.951431 24.031519 7,925 256 239 2176
2022-05-18 18:22:45 GMT 37.952087 24.035572 7,875 256 239 2176
2022-05-18 18:22:39 GMT 37.954605 24.044630 7,575 243 236 3136
2022-05-18 18:22:34 GMT 37.957020 24.049789 7,400 237 236 3200
2022-05-18 18:22:28 GMT 37.961472 24.056143 7,000 215 237 3136
2022-05-18 18:22:25 GMT 37.965042 24.059650 6,800 213 237 3072
2022-05-18 18:22:20 GMT 37.969757 24.062805 6,550 193 234 2752
2022-05-18 18:22:14 GMT 37.978573 24.065432 6,350 193 234 2752
2022-05-18 18:22:07 GMT 37.982761 24.065372 6,000 175 230 2880
2022-05-18 18:22:03 GMT 37.987518 24.064325 5,775 164 228 3008
2022-05-18 18:21:57 GMT 37.993744 24.061110 5,450 152 226 3008
2022-05-18 18:21:54 GMT 37.995117 24.060118 5,350 143 225 3008
2022-05-18 18:21:52 GMT 37.996868 24.058565 5,275 141 224 3008
2022-05-18 18:21:46 GMT 38.003803 24.048117 4,875 121 221 2752
2022-05-18 18:21:43 GMT 38.003803 24.048117 4,775 116 220 2624
2022-05-18 18:21:40 GMT 38.004780 24.045311 4,675 106 218 2304
2022-05-18 18:21:37 GMT 38.005554 24.042177 4,575 101 216 2048
2022-05-18 18:21:34 GMT 38.006039 24.039042 4,500 96 214 1664
2022-05-18 18:21:32 GMT 38.006271 24.035639 4,450 87 211 1344
2022-05-18 18:21:24 GMT 38.005096 24.026808 4,300 67 199 1088
2022-05-18 18:21:20 GMT 38.001987 24.019575 4,175 49 190 1088
2022-05-18 18:21:17 GMT 38.001755 24.019098 4,150 46 188 1088
2022-05-18 18:21:11 GMT 37.998219 24.014740 4,050 37 182 1216
2022-05-18 18:21:06 GMT 37.995052 24.011755 3,950 36 175 1216
2022-05-18 18:21:03 GMT 37.991501 24.008341 3,825 37 169 1216
2022-05-18 18:20:56 GMT 37.988571 24.005535 3,750 37 163 1216
2022-05-18 18:20:53 GMT 37.986923 24.003958 3,675 37 159 1280
2022-05-18 18:20:50 GMT 37.984543 24.001678 3,600 36 156 1344
2022-05-18 18:20:46 GMT 37.982761 23.999992 3,500 37 152 1536
2022-05-18 18:20:43 GMT 37.981110 23.998407 3,425 37 149 1920
2022-05-18 18:20:39 GMT 37.978992 23.996349 3,300 37 148 2304
2022-05-18 18:20:36 GMT 37.976715 23.994141 3,125 37 148 2176
2022-05-18 18:20:33 GMT 37.975407 23.992887 3,050 37 148 2112
2022-05-18 18:20:28 GMT 37.973125 23.990618 2,900 37 146 1792
2022-05-18 18:20:25 GMT 37.971497 23.989065 2,825 37 145 1792
2022-05-18 18:20:22 GMT 37.969402 23.986977 2,700 37 144 1920
2022-05-18 18:20:18 GMT 37.967445 23.985065 2,575 37 142 2048
2022-05-18 18:20:12 GMT 37.964931 23.982616 2,400 37 142 2112
2022-05-18 18:20:10 GMT 37.963814 23.981543 2,325 37 141 2176
2022-05-18 18:20:02 GMT 37.959721 23.977543 2,050 37 141 2176
2022-05-18 18:20:00 GMT 37.958694 23.976526 1,975 37 141 2176
2022-05-18 18:19:59 GMT 37.957947 23.975849 1,925 37 139 2176
2022-05-18 18:19:58 GMT 37.957439 23.975332 1,875 37 139 2176
2022-05-18 18:19:56 GMT 37.956413 23.974377 1,800 37 139 2240
2022-05-18 18:19:55 GMT 37.955948 23.973900 1,775 37 139 2304
2022-05-18 18:19:54 GMT 37.954926 23.972870 1,675 37 139 2432
2022-05-18 18:19:52 GMT 37.954319 23.972286 1,650 37 139 2496
2022-05-18 18:19:51 GMT 37.953854 23.971869 1,600 37 140 2560
2022-05-18 18:19:50 GMT 37.952827 23.970854 1,500 37 140 2624
2022-05-18 18:19:47 GMT 37.951294 23.969421 1,375 37 142 2816
2022-05-18 18:19:45 GMT 37.950733 23.968884 1,325 37 142 2816
2022-05-18 18:19:44 GMT 37.950222 23.968407 1,275 37 142 2816
2022-05-18 18:19:43 GMT 37.949711 23.967869 1,225 37 142 2816
2022-05-18 18:19:41 GMT 37.948639 23.966854 1,150 36 144 2752
2022-05-18 18:19:40 GMT 37.947601 23.965857 1,050 36 145 2688
2022-05-18 18:19:38 GMT 37.947010 23.965361 1,000 36 145 2624
2022-05-18 18:19:37 GMT 37.946457 23.964806 975 36 145 2560
2022-05-18 18:19:36 GMT 37.945103 23.963570 850 36 145 2496
2022-05-18 18:19:34 GMT 37.944672 23.963169 725 36 146 2496
2022-05-18 18:19:28 GMT 37.941608 23.960346 600 36 148 2304
2022-05-18 18:19:27 GMT 37.940212 23.958973 500 36 148 2240
2022-05-18 18:19:25 GMT 37.939636 23.958435 475 36 148 2176
2022-05-18 18:19:24 GMT 37.939087 23.957968 450 36 148 2112
2022-05-18 18:19:23 GMT 37.937943 23.956917 375 36 148 1920
2022-05-18 18:19:21 GMT 37.937511 23.956465 350 36 148 1728
2022-05-18 18:19:19 GMT 37.936489 23.955509 300 36 148 1280
2022-05-18 18:19:17 GMT 37.935196 23.954287 250 36 143 384
2022-05-18 18:19:16 GMT 37.934875 23.953995 200 37 140 192
2022-05-18 18:19:15 GMT 37.934116 23.953239 225 37 137 192
2022-05-18 18:19:13 GMT 37.933319 23.952475 250 36 131 0
2022-05-18 18:19:12 GMT 37.932346 23.951569 275 37 127 0
2022-05-18 18:19:09 GMT 37.931602 23.950851 275 36 120 0
2022-05-18 18:19:08 GMT 37.930717 23.950016 275 36 112 0
2022-05-18 18:19:04 GMT 37.929382 23.948734 275 36 96 0
2022-05-18 18:18:53 GMT 37.926071 23.945614 0 36 51
2022-05-18 18:18:51 GMT 37.925709 23.945272 0 36 42
2022-05-18 18:18:50 GMT 37.925571 23.945150 0 36 37
2022-05-18 18:18:48 GMT 37.925331 23.944921 0 36 27
2022-05-18 18:18:46 GMT 37.925156 23.944761 0 36 17
2022-05-18 18:18:45 GMT 37.925091 23.944702 0 36 11
2022-05-18 18:18:41 GMT 37.925003 23.944628 0 36 0
2022-05-18 18:18:31 GMT 37.924976 23.944599 0 36 0
2022-05-18 18:18:26 GMT 37.924980 23.944597 0 36 0
2022-05-18 18:18:22 GMT 37.924976 23.944599 0 36 0
2022-05-18 18:18:16 GMT 37.924976 23.944599 0 36 0
2022-05-18 18:18:11 GMT 37.924976 23.944599 0 36 0
2022-05-18 18:18:06 GMT 37.924976 23.944599 0 36 0
2022-05-18 18:18:01 GMT 37.924980 23.944597 0 36 0
2022-05-18 18:17:56 GMT 37.924976 23.944599 0 36 0
2022-05-18 18:17:51 GMT 37.924980 23.944597 0 36 0
2022-05-18 18:17:41 GMT 37.924976 23.944599 0 36 0
2022-05-18 18:17:36 GMT 37.924980 23.944597 0 36 0
2022-05-18 18:17:32 GMT 37.924976 23.944599 0 36 0
2022-05-18 18:17:27 GMT 37.924980 23.944613 0 36 0
2022-05-18 18:17:22 GMT 37.924976 23.944599 0 36 0
2022-05-18 18:17:19 GMT 37.924980 23.944613 0 36 0
2022-05-18 18:17:14 GMT 37.924980 23.944613 0 36 0
2022-05-18 18:17:12 GMT 37.924976 23.944599 0 36 0
2022-05-18 18:17:10 GMT 37.924980 23.944613 0 36 0
2022-05-18 18:17:08 GMT 37.924976 23.944614 0 36 0
2022-05-18 18:17:06 GMT 37.924980 23.944613 0 36 0
2022-05-18 18:17:02 GMT 37.924980 23.944613 0 36 0
2022-05-18 18:17:00 GMT 37.924980 23.944613 0 36 0
2022-05-18 18:16:54 GMT 37.924980 23.944613 0 36 0
2022-05-18 18:16:53 GMT 37.924976 23.944614 0 36 0
2022-05-18 18:16:50 GMT 37.924965 23.944599 0 36 3
2022-05-18 18:16:43 GMT 37.924839 23.944523 0 70 7
2022-05-18 18:16:41 GMT 37.924793 23.944464 0 90 7
2022-05-18 18:16:39 GMT 37.924770 23.944382 0 106 7
2022-05-18 18:16:29 GMT 37.924957 23.943941 0 126 10
2022-05-18 18:16:27 GMT 37.924988 23.943884 0 126 11
2022-05-18 18:16:26 GMT 37.925014 23.943851 0 126 11
2022-05-18 18:16:25 GMT 37.925072 23.943747 0 126 10
2022-05-18 18:16:22 GMT 37.925163 23.943598 0 126 9
2022-05-18 18:16:20 GMT 37.925190 23.943567 0 126 9
2022-05-18 18:16:19 GMT 37.925228 23.943489 0 126 8
2022-05-18 18:16:17 GMT 37.925270 23.943434 0 126 7
2022-05-18 18:16:15 GMT 37.925293 23.943403 0 126 7
2022-05-18 18:16:12 GMT 37.925331 23.943314 0 126 5
2022-05-18 18:16:11 GMT 37.925365 23.943270 0 126 4
2022-05-18 18:16:09 GMT 37.925377 23.943254 0 126 4
2022-05-18 18:16:08 GMT 37.925388 23.943241 0 126 4
2022-05-18 18:16:00 GMT 37.925457 23.943119 0 126 4
2022-05-18 18:15:59 GMT 37.925468 23.943075 0 129 5
2022-05-18 18:15:57 GMT 37.925480 23.943050 0 132 5
2022-05-18 18:15:56 GMT 37.925491 23.943029 0 135 5
2022-05-18 18:15:54 GMT 37.925514 23.942993 0 140 5
2022-05-18 18:15:52 GMT 37.925549 23.942949 0 146 6
2022-05-18 18:15:51 GMT 37.925560 23.942926 0 151 6
2022-05-18 18:15:50 GMT 37.925606 23.942877 0 157 6
2022-05-18 18:15:48 GMT 37.925617 23.942865 0 160 6
2022-05-18 18:15:46 GMT 37.925678 23.942822 0 168 6
2022-05-18 18:15:45 GMT 37.925701 23.942806 0 171 7
2022-05-18 18:15:44 GMT 37.925747 23.942791 0 180 7
2022-05-18 18:15:42 GMT 37.925789 23.942787 0 182 7
2022-05-18 18:15:40 GMT 37.925838 23.942778 0 191 7
2022-05-18 18:15:38 GMT 37.925869 23.942774 0 194 7
2022-05-18 18:15:37 GMT 37.925961 23.942787 0 202 7
2022-05-18 18:15:35 GMT 37.925961 23.942787 0 202 7
2022-05-18 18:15:34 GMT 37.925980 23.942806 0 205 7
2022-05-18 18:15:32 GMT 37.926037 23.942822 0 210 6
2022-05-18 18:15:31 GMT 37.926064 23.942837 0 213 6
2022-05-18 18:15:29 GMT 37.926109 23.942877 0 216 6
2022-05-18 18:15:28 GMT 37.926132 23.942890 0 216 6
2022-05-18 18:15:26 GMT 37.926167 23.942934 0 216 6
2022-05-18 18:15:25 GMT 37.926189 23.942949 0 216 6
2022-05-18 18:15:23 GMT 37.926224 23.942993 0 216 6
2022-05-18 18:15:21 GMT 37.926270 23.943022 0 216 6
2022-05-18 18:15:20 GMT 37.926285 23.943045 0 216 6
2022-05-18 18:15:18 GMT 37.926327 23.943081 0 216 6
2022-05-18 18:15:17 GMT 37.926350 23.943094 0 216 6
2022-05-18 18:15:15 GMT 37.926384 23.943138 0 216 6
2022-05-18 18:15:13 GMT 37.926430 23.943184 0 216 7
2022-05-18 18:15:12 GMT 37.926464 23.943213 0 216 8
2022-05-18 18:15:11 GMT 37.926487 23.943241 0 216 8
2022-05-18 18:15:10 GMT 37.926556 23.943300 0 216 10
2022-05-18 18:15:08 GMT 37.926579 23.943329 0 216 11
2022-05-18 18:15:06 GMT 37.926666 23.943419 0 216 11
2022-05-18 18:15:04 GMT 37.926727 23.943476 0 216 11
2022-05-18 18:15:03 GMT 37.926785 23.943523 0 216 11
2022-05-18 18:15:02 GMT 37.926830 23.943563 0 216 11
2022-05-18 18:15:01 GMT 37.926876 23.943598 0 216 11
2022-05-18 18:14:59 GMT 37.926956 23.943680 0 216 12
2022-05-18 18:14:57 GMT 37.927036 23.943768 0 216 11
2022-05-18 18:14:56 GMT 37.927074 23.943792 0 216 11
2022-05-18 18:14:54 GMT 37.927143 23.943867 0 216 11
2022-05-18 18:14:53 GMT 37.927197 23.943913 0 216 11
2022-05-18 18:14:51 GMT 37.927273 23.943987 0 216 11
2022-05-18 18:14:49 GMT 37.927353 23.944059 0 216 11
2022-05-18 18:14:47 GMT 37.927448 23.944147 0 216 11
2022-05-18 18:14:45 GMT 37.927517 23.944223 0 216 11
2022-05-18 18:14:43 GMT 37.927608 23.944292 0 216 11
2022-05-18 18:14:41 GMT 37.927692 23.944374 0 216 11
2022-05-18 18:14:40 GMT 37.927769 23.944454 0 216 11
2022-05-18 18:14:37 GMT 37.927841 23.944523 0 216 11
2022-05-18 18:14:35 GMT 37.927898 23.944569 0 216 11
2022-05-18 18:14:34 GMT 37.927937 23.944597 0 216 11
2022-05-18 18:14:33 GMT 37.928017 23.944687 0 216 11
2022-05-18 18:14:30 GMT 37.928135 23.944790 0 216 11
2022-05-18 18:14:29 GMT 37.928135 23.944790 0 216 11
2022-05-18 18:14:27 GMT 37.928215 23.944878 0 216 12
2022-05-18 18:14:26 GMT 37.928284 23.944937 0 216 12
2022-05-18 18:14:24 GMT 37.928379 23.945030 0 216 13
2022-05-18 18:14:22 GMT 37.928425 23.945074 0 216 13
2022-05-18 18:14:21 GMT 37.928516 23.945166 0 216 13
2022-05-18 18:14:19 GMT 37.928562 23.945210 0 216 13
2022-05-18 18:14:17 GMT 37.928661 23.945301 0 216 13
2022-05-18 18:14:16 GMT 37.928707 23.945345 0 216 12
2022-05-18 18:14:14 GMT 37.928787 23.945417 0 216 12
2022-05-18 18:14:12 GMT 37.928867 23.945505 0 216 12
2022-05-18 18:14:11 GMT 37.928913 23.945536 0 216 12
2022-05-18 18:14:08 GMT 37.929028 23.945658 0 216 12
2022-05-18 18:14:07 GMT 37.929073 23.945696 0 216 12
2022-05-18 18:14:06 GMT 37.929157 23.945778 0 216 11
2022-05-18 18:14:04 GMT 37.929199 23.945812 0 216 11
2022-05-18 18:14:02 GMT 37.929283 23.945896 0 216 11
2022-05-18 18:14:01 GMT 37.929371 23.945972 0 216 11
2022-05-18 18:13:59 GMT 37.929413 23.946016 0 216 11
2022-05-18 18:13:55 GMT 37.929531 23.946135 0 216 10
2022-05-18 18:13:54 GMT 37.929588 23.946196 0 216 10
2022-05-18 18:13:53 GMT 37.929623 23.946222 0 216 10
2022-05-18 18:13:52 GMT 37.929657 23.946264 0 216 10
2022-05-18 18:13:51 GMT 37.929729 23.946329 0 216 10
2022-05-18 18:13:49 GMT 37.929771 23.946367 0 216 10
2022-05-18 18:13:39 GMT 37.930103 23.946674 0 199 9
2022-05-18 18:13:37 GMT 37.930180 23.946732 0 185 9
2022-05-18 18:13:34 GMT 37.930275 23.946762 0 171 9
2022-05-18 18:13:31 GMT 37.930401 23.946762 0 157 10
2022-05-18 18:13:30 GMT 37.930458 23.946733 0 149 10
2022-05-18 18:13:29 GMT 37.930508 23.946716 0 143 10
2022-05-18 18:13:27 GMT 37.930584 23.946659 0 135 10
2022-05-18 18:13:24 GMT 37.930683 23.946539 0 129 10
2022-05-18 18:13:22 GMT 37.930733 23.946455 0 129 9
2022-05-18 18:13:21 GMT 37.930763 23.946419 0 129 9
2022-05-18 18:13:20 GMT 37.930786 23.946375 0 129 9
2022-05-18 18:13:17 GMT 37.930843 23.946283 0 132 9
2022-05-18 18:13:16 GMT 37.930882 23.946222 0 135 8
2022-05-18 18:13:15 GMT 37.930904 23.946192 0 137 8
2022-05-18 18:13:12 GMT 37.930950 23.946119 0 146 8
2022-05-18 18:13:11 GMT 37.930984 23.946091 0 149 8
2022-05-18 18:13:09 GMT 37.931042 23.946032 0 157 8
2022-05-18 18:13:08 GMT 37.931114 23.945986 0 165 9
2022-05-18 18:13:06 GMT 37.931145 23.945959 0 168 9
2022-05-18 18:13:04 GMT 37.931217 23.945942 0 177 10
2022-05-18 18:13:03 GMT 37.931274 23.945927 0 182 10
2022-05-18 18:13:02 GMT 37.931309 23.945927 0 185 11
2022-05-18 18:13:01 GMT 37.931404 23.945927 0 185 11
2022-05-18 18:12:59 GMT 37.931454 23.945944 0 188 11
2022-05-18 18:12:58 GMT 37.931507 23.945942 0 188 11
2022-05-18 18:12:56 GMT 37.931602 23.945959 0 188 10
2022-05-18 18:12:54 GMT 37.931694 23.945972 0 188 10
2022-05-18 18:12:52 GMT 37.931786 23.945988 0 188 10
2022-05-18 18:12:50 GMT 37.931870 23.946001 0 188 10
2022-05-18 18:12:49 GMT 37.931934 23.946001 0 191 9
2022-05-18 18:12:48 GMT 37.931961 23.946016 0 191 9
2022-05-18 18:12:46 GMT 37.932037 23.946032 0 196 9
2022-05-18 18:12:44 GMT 37.932117 23.946047 0 202 8
2022-05-18 18:12:43 GMT 37.932152 23.946060 0 205 8
2022-05-18 18:12:42 GMT 37.932217 23.946091 0 210 8
2022-05-18 18:12:40 GMT 37.932255 23.946104 0 213 8
2022-05-18 18:12:38 GMT 37.932312 23.946150 0 216 7
2022-05-18 18:12:36 GMT 37.932358 23.946196 0 216 6
2022-05-18 18:12:35 GMT 37.932381 23.946224 0 216 6
2022-05-18 18:12:33 GMT 37.932415 23.946255 0 216 5
2022-05-18 18:12:32 GMT 37.932438 23.946280 0 216 5
2022-05-18 18:12:30 GMT 37.932465 23.946299 0 216 4
2022-05-18 18:12:27 GMT 37.932495 23.946329 0 216 0
2022-05-18 18:12:22 GMT 37.932518 23.946354 0 216 0
2022-05-18 18:12:17 GMT 37.932522 23.946360 0 219 0
2022-05-18 18:12:02 GMT 37.932522 23.946375 0 219 0
2022-05-18 18:11:57 GMT 37.932518 23.946367 0 219 0
2022-05-18 18:11:53 GMT 37.932522 23.946375 0 219 0
2022-05-18 18:11:48 GMT 37.932529 23.946367 0 219 0
2022-05-18 18:11:32 GMT 37.932518 23.946367 0 219 0
2022-05-18 18:11:27 GMT 37.932529 23.946367 0 219 0
2022-05-18 18:11:22 GMT 37.932522 23.946375 0 219 0
2022-05-18 18:11:17 GMT 37.932518 23.946367 0 219 0
2022-05-18 18:11:02 GMT 37.932522 23.946375 0 219 0
2022-05-18 18:10:57 GMT 37.932518 23.946367 0 219 0
2022-05-18 18:10:42 GMT 37.932522 23.946375 0 219 0
2022-05-18 18:10:37 GMT 37.932522 23.946360 0 219 0
2022-05-18 18:10:32 GMT 37.932518 23.946354 0 219 0
2022-05-18 18:10:27 GMT 37.932522 23.946344 0 219 0
2022-05-18 18:10:22 GMT 37.932518 23.946354 0 219 0
2022-05-18 18:10:12 GMT 37.932507 23.946339 0 219 0
2022-05-18 18:09:47 GMT 37.932507 23.946354 0 219 0
2022-05-18 18:09:31 GMT 37.932518 23.946354 0 219 0
2022-05-18 18:09:28 GMT 37.932518 23.946339 0 219 0
2022-05-18 18:09:26 GMT 37.932510 23.946344 0 219 0
2022-05-18 18:09:22 GMT 37.932510 23.946344 0 219 0
2022-05-18 18:09:21 GMT 37.932518 23.946339 0 219 0
2022-05-18 18:09:19 GMT 37.932518 23.946339 0 219 0
2022-05-18 18:09:17 GMT 37.932518 23.946339 0 219 0
2022-05-18 18:09:12 GMT 37.932522 23.946344 0 219 0
2022-05-18 18:09:11 GMT 37.932518 23.946339 0 219 0
2022-05-18 18:09:10 GMT 37.932522 23.946344 0 219 0
2022-05-18 18:09:07 GMT 37.932510 23.946344 0 216 1
2022-05-18 18:09:06 GMT 37.932495 23.946329 0 216 2
2022-05-18 18:09:04 GMT 37.932487 23.946329 0 216 2
2022-05-18 18:09:03 GMT 37.932472 23.946308 0 216 2
2022-05-18 18:09:01 GMT 37.932472 23.946295 0 216 2
2022-05-18 18:09:00 GMT 37.932461 23.946295 0 216 2
2022-05-18 18:08:58 GMT 37.932449 23.946268 0 222 3
2022-05-18 18:08:57 GMT 37.932438 23.946251 0 225 3
2022-05-18 18:08:55 GMT 37.932438 23.946236 0 225 3
2022-05-18 18:08:54 GMT 37.932426 23.946222 0 225 2
2022-05-18 18:08:52 GMT 37.932415 23.946207 0 227 2
2022-05-18 18:08:51 GMT 37.932415 23.946196 0 227 2
2022-05-18 18:08:50 GMT 37.932404 23.946192 0 227 2
2022-05-18 18:08:48 GMT 37.932392 23.946165 0 230 2
2022-05-18 18:08:47 GMT 37.932392 23.946163 0 233 2
2022-05-18 18:08:46 GMT 37.932392 23.946119 0 239 2
2022-05-18 18:08:44 GMT 37.932392 23.946119 0 241 2
2022-05-18 18:08:42 GMT 37.932404 23.946104 0 247 3
2022-05-18 18:08:41 GMT 37.932404 23.946075 0 255 3
2022-05-18 18:08:38 GMT 37.932415 23.946047 0 264 3
2022-05-18 18:08:36 GMT 37.932415 23.946032 0 264 3
2022-05-18 18:08:35 GMT 37.932415 23.946016 0 267 3
2022-05-18 18:08:33 GMT 37.932426 23.946001 0 270 3
2022-05-18 18:08:32 GMT 37.932438 23.945972 0 272 3
2022-05-18 18:08:30 GMT 37.932438 23.945971 0 275 3
2022-05-18 18:08:29 GMT 37.932449 23.945959 0 278 3
2022-05-18 18:08:28 GMT 37.932461 23.945929 0 284 3
2022-05-18 18:08:26 GMT 37.932461 23.945929 0 284 3
2022-05-18 18:08:23 GMT 37.932487 23.945896 0 289 3
2022-05-18 18:08:22 GMT 37.932495 23.945887 0 292 3
2022-05-18 18:08:21 GMT 37.932495 23.945866 0 295 3